<?xml version='1.0' encoding='UTF-8'?><gpx version="1.1" creator="JPX - https://github.com/jenetics/jpx" xmlns="http://www.topografix.com/GPX/1/1"><trk><trkseg><trkpt lat="43.8217449" lon="11.2315926"><ele>126.0</ele><time>2026-04-25T07:44:40.719Z</time></trkpt><trkpt lat="43.8217847" lon="11.2316667"><ele>126.0</ele><time>2026-04-25T07:44:52.771Z</time></trkpt><trkpt lat="43.8217498" lon="11.2317401"><ele>126.0</ele><time>2026-04-25T07:45:13.423Z</time></trkpt><trkpt lat="43.8216805" lon="11.2318056"><ele>126.0</ele><time>2026-04-25T07:45:20.444Z</time></trkpt><trkpt lat="43.8216159" lon="11.2317575"><ele>126.0</ele><time>2026-04-25T07:45:35.455Z</time></trkpt><trkpt lat="43.8215593" lon="11.2318164"><ele>126.0</ele><time>2026-04-25T07:45:39.441Z</time></trkpt><trkpt lat="43.8215585" lon="11.2319119"><ele>126.0</ele><time>2026-04-25T07:45:45.442Z</time></trkpt><trkpt lat="43.8215648" lon="11.2320019"><ele>126.0</ele><time>2026-04-25T07:45:51.433Z</time></trkpt><trkpt lat="43.8215771" lon="11.2320899"><ele>126.0</ele><time>2026-04-25T07:45:56.438Z</time></trkpt><trkpt lat="43.8215767" lon="11.2321808"><ele>126.0</ele><time>2026-04-25T07:46:01.447Z</time></trkpt><trkpt lat="43.8215815" lon="11.2322802"><ele>126.0</ele><time>2026-04-25T07:46:07.463Z</time></trkpt><trkpt lat="43.8216052" lon="11.2323649"><ele>126.0</ele><time>2026-04-25T07:46:14.453Z</time></trkpt><trkpt lat="43.8216737" lon="11.2323837"><ele>126.0</ele><time>2026-04-25T07:46:23.441Z</time></trkpt><trkpt lat="43.8217484" lon="11.2323787"><ele>126.0</ele><time>2026-04-25T07:46:30.451Z</time></trkpt><trkpt lat="43.8218145" lon="11.2323786"><ele>128.85714285714286</ele><time>2026-04-25T07:46:35.458Z</time></trkpt><trkpt lat="43.8218786" lon="11.2323771"><ele>131.71428571428572</ele><time>2026-04-25T07:46:41.458Z</time></trkpt><trkpt lat="43.821948" lon="11.232365"><ele>134.57142857142856</ele><time>2026-04-25T07:46:48.46Z</time></trkpt><trkpt lat="43.822018" lon="11.2323818"><ele>137.42857142857144</ele><time>2026-04-25T07:46:53.452Z</time></trkpt><trkpt lat="43.822093" lon="11.2323765"><ele>140.28571428571428</ele><time>2026-04-25T07:47:00.446Z</time></trkpt><trkpt lat="43.8221636" lon="11.2323956"><ele>143.14285714285714</ele><time>2026-04-25T07:47:06.452Z</time></trkpt><trkpt lat="43.82224" lon="11.2323996"><ele>146.0</ele><time>2026-04-25T07:47:13.451Z</time></trkpt><trkpt lat="43.8223017" lon="11.2323779"><ele>146.0</ele><time>2026-04-25T07:47:19.448Z</time></trkpt><trkpt lat="43.8223676" lon="11.2323674"><ele>146.0</ele><time>2026-04-25T07:47:24.459Z</time></trkpt><trkpt lat="43.8224363" lon="11.232339"><ele>146.0</ele><time>2026-04-25T07:47:28.453Z</time></trkpt><trkpt lat="43.8225225" lon="11.232346"><ele>146.0</ele><time>2026-04-25T07:47:33.454Z</time></trkpt><trkpt lat="43.8225993" lon="11.2323799"><ele>146.0</ele><time>2026-04-25T07:47:37.459Z</time></trkpt><trkpt lat="43.8226748" lon="11.2324053"><ele>146.0</ele><time>2026-04-25T07:47:40.476Z</time></trkpt><trkpt lat="43.8227412" lon="11.2324013"><ele>146.0</ele><time>2026-04-25T07:47:44.46Z</time></trkpt><trkpt lat="43.8228159" lon="11.232435"><ele>146.0</ele><time>2026-04-25T07:47:47.451Z</time></trkpt><trkpt lat="43.8228986" lon="11.2324644"><ele>146.0</ele><time>2026-04-25T07:47:51.454Z</time></trkpt><trkpt lat="43.8229727" lon="11.2324807"><ele>146.0</ele><time>2026-04-25T07:47:54.453Z</time></trkpt><trkpt lat="43.8230507" lon="11.2325033"><ele>146.0</ele><time>2026-04-25T07:47:58.454Z</time></trkpt><trkpt lat="43.823118" lon="11.2325156"><ele>146.0</ele><time>2026-04-25T07:48:01.447Z</time></trkpt><trkpt lat="43.8231813" lon="11.2325296"><ele>146.0</ele><time>2026-04-25T07:48:04.439Z</time></trkpt><trkpt lat="43.8232509" lon="11.232549"><ele>146.0</ele><time>2026-04-25T07:48:07.44Z</time></trkpt><trkpt lat="43.8233175" lon="11.2325701"><ele>146.0</ele><time>2026-04-25T07:48:10.437Z</time></trkpt><trkpt lat="43.8233876" lon="11.2325905"><ele>146.0</ele><time>2026-04-25T07:48:13.438Z</time></trkpt><trkpt lat="43.8234586" lon="11.2326173"><ele>146.0</ele><time>2026-04-25T07:48:16.439Z</time></trkpt><trkpt lat="43.8235371" lon="11.2326565"><ele>146.0</ele><time>2026-04-25T07:48:19.448Z</time></trkpt><trkpt lat="43.8236201" lon="11.2326964"><ele>146.0</ele><time>2026-04-25T07:48:22.445Z</time></trkpt><trkpt lat="43.8237153" lon="11.2327027"><ele>146.0</ele><time>2026-04-25T07:48:25.442Z</time></trkpt><trkpt lat="43.8237844" lon="11.232726"><ele>145.66666666666666</ele><time>2026-04-25T07:48:27.448Z</time></trkpt><trkpt lat="43.8238769" lon="11.2327387"><ele>145.33333333333331</ele><time>2026-04-25T07:48:29.445Z</time></trkpt><trkpt lat="43.8239632" lon="11.2327487"><ele>145.0</ele><time>2026-04-25T07:48:31.439Z</time></trkpt><trkpt lat="43.8240428" lon="11.2327958"><ele>144.66666666666666</ele><time>2026-04-25T07:48:33.444Z</time></trkpt><trkpt lat="43.8240866" lon="11.2328611"><ele>144.33333333333334</ele><time>2026-04-25T07:48:35.463Z</time></trkpt><trkpt lat="43.8241268" lon="11.2329632"><ele>144.0</ele><time>2026-04-25T07:48:38.451Z</time></trkpt><trkpt lat="43.8241924" lon="11.2330684"><ele>144.0</ele><time>2026-04-25T07:48:41.454Z</time></trkpt><trkpt lat="43.8242559" lon="11.2331404"><ele>144.0</ele><time>2026-04-25T07:48:43.453Z</time></trkpt><trkpt lat="43.8243293" lon="11.2332016"><ele>144.0</ele><time>2026-04-25T07:48:45.451Z</time></trkpt><trkpt lat="43.8244075" lon="11.2332582"><ele>144.0</ele><time>2026-04-25T07:48:47.437Z</time></trkpt><trkpt lat="43.8244964" lon="11.2333355"><ele>144.0</ele><time>2026-04-25T07:48:49.453Z</time></trkpt><trkpt lat="43.8245853" lon="11.2334027"><ele>144.0</ele><time>2026-04-25T07:48:51.44Z</time></trkpt><trkpt lat="43.8246725" lon="11.2334777"><ele>144.0</ele><time>2026-04-25T07:48:53.446Z</time></trkpt><trkpt lat="43.8247549" lon="11.2335366"><ele>144.0</ele><time>2026-04-25T07:48:55.449Z</time></trkpt><trkpt lat="43.8248381" lon="11.2336013"><ele>144.0</ele><time>2026-04-25T07:48:57.445Z</time></trkpt><trkpt lat="43.8248954" lon="11.2336714"><ele>144.0</ele><time>2026-04-25T07:48:59.451Z</time></trkpt><trkpt lat="43.8249509" lon="11.2337214"><ele>144.0</ele><time>2026-04-25T07:49:01.455Z</time></trkpt><trkpt lat="43.825001" lon="11.2337804"><ele>144.00000000000003</ele><time>2026-04-25T07:49:03.458Z</time></trkpt><trkpt lat="43.8250594" lon="11.2338349"><ele>144.0</ele><time>2026-04-25T07:49:05.466Z</time></trkpt><trkpt lat="43.8251136" lon="11.2339105"><ele>144.0</ele><time>2026-04-25T07:49:08.459Z</time></trkpt><trkpt lat="43.8251767" lon="11.2339694"><ele>144.0</ele><time>2026-04-25T07:49:11.456Z</time></trkpt><trkpt lat="43.8252337" lon="11.2340278"><ele>144.0</ele><time>2026-04-25T07:49:14.457Z</time></trkpt><trkpt lat="43.8252982" lon="11.234032"><ele>144.00000000000003</ele><time>2026-04-25T07:49:17.451Z</time></trkpt><trkpt lat="43.8253611" lon="11.2339616"><ele>144.0</ele><time>2026-04-25T07:49:20.446Z</time></trkpt><trkpt lat="43.8253858" lon="11.233869"><ele>144.66666666666666</ele><time>2026-04-25T07:49:22.437Z</time></trkpt><trkpt lat="43.8254217" lon="11.2337307"><ele>145.33333333333334</ele><time>2026-04-25T07:49:24.433Z</time></trkpt><trkpt lat="43.8254484" lon="11.2336458"><ele>146.0</ele><time>2026-04-25T07:49:25.438Z</time></trkpt><trkpt lat="43.8254804" lon="11.2335562"><ele>146.66666666666669</ele><time>2026-04-25T07:49:26.426Z</time></trkpt><trkpt lat="43.8255151" lon="11.2334654"><ele>147.33333333333334</ele><time>2026-04-25T07:49:27.424Z</time></trkpt><trkpt lat="43.8255809" lon="11.2333986"><ele>148.0</ele><time>2026-04-25T07:49:28.431Z</time></trkpt><trkpt lat="43.8256502" lon="11.2333446"><ele>148.0</ele><time>2026-04-25T07:49:29.426Z</time></trkpt><trkpt lat="43.8257185" lon="11.2333033"><ele>148.0</ele><time>2026-04-25T07:49:30.405Z</time></trkpt><trkpt lat="43.8257751" lon="11.2332417"><ele>148.0</ele><time>2026-04-25T07:49:31.418Z</time></trkpt><trkpt lat="43.8258516" lon="11.2331015"><ele>148.0</ele><time>2026-04-25T07:49:33.419Z</time></trkpt><trkpt lat="43.8259495" lon="11.2330038"><ele>148.0</ele><time>2026-04-25T07:49:35.442Z</time></trkpt><trkpt lat="43.826026" lon="11.2329053"><ele>149.16666666666669</ele><time>2026-04-25T07:49:37.427Z</time></trkpt><trkpt lat="43.8260968" lon="11.232832"><ele>150.33333333333334</ele><time>2026-04-25T07:49:39.429Z</time></trkpt><trkpt lat="43.8261646" lon="11.2327464"><ele>151.5</ele><time>2026-04-25T07:49:42.432Z</time></trkpt><trkpt lat="43.8262214" lon="11.2326606"><ele>152.66666666666666</ele><time>2026-04-25T07:49:45.431Z</time></trkpt><trkpt lat="43.8262764" lon="11.2325851"><ele>153.83333333333331</ele><time>2026-04-25T07:49:49.435Z</time></trkpt><trkpt lat="43.8263264" lon="11.2325125"><ele>155.0</ele><time>2026-04-25T07:49:52.442Z</time></trkpt><trkpt lat="43.8263769" lon="11.2324338"><ele>155.0</ele><time>2026-04-25T07:49:55.444Z</time></trkpt><trkpt lat="43.8264286" lon="11.2323527"><ele>155.0</ele><time>2026-04-25T07:49:59.442Z</time></trkpt><trkpt lat="43.8264772" lon="11.2322907"><ele>155.0</ele><time>2026-04-25T07:50:03.44Z</time></trkpt><trkpt lat="43.8265271" lon="11.2322224"><ele>155.0</ele><time>2026-04-25T07:50:07.441Z</time></trkpt><trkpt lat="43.8265699" lon="11.2321485"><ele>155.0</ele><time>2026-04-25T07:50:11.438Z</time></trkpt><trkpt lat="43.8266257" lon="11.2320783"><ele>155.0</ele><time>2026-04-25T07:50:16.439Z</time></trkpt><trkpt lat="43.8266765" lon="11.2320177"><ele>155.0</ele><time>2026-04-25T07:50:21.439Z</time></trkpt><trkpt lat="43.8267402" lon="11.2319618"><ele>154.28571428571428</ele><time>2026-04-25T07:50:26.446Z</time></trkpt><trkpt lat="43.8268018" lon="11.2319406"><ele>153.57142857142856</ele><time>2026-04-25T07:50:30.45Z</time></trkpt><trkpt lat="43.8268641" lon="11.2319575"><ele>152.85714285714283</ele><time>2026-04-25T07:50:34.447Z</time></trkpt><trkpt lat="43.8269396" lon="11.2319889"><ele>152.14285714285714</ele><time>2026-04-25T07:50:38.439Z</time></trkpt><trkpt lat="43.8270224" lon="11.2319885"><ele>151.42857142857142</ele><time>2026-04-25T07:50:42.442Z</time></trkpt><trkpt lat="43.8270943" lon="11.2320089"><ele>150.7142857142857</ele><time>2026-04-25T07:50:46.449Z</time></trkpt><trkpt lat="43.827158" lon="11.2320512"><ele>150.0</ele><time>2026-04-25T07:50:50.446Z</time></trkpt><trkpt lat="43.8272176" lon="11.2320888"><ele>151.99999999999997</ele><time>2026-04-25T07:50:53.445Z</time></trkpt><trkpt lat="43.8272733" lon="11.2321349"><ele>154.0</ele><time>2026-04-25T07:50:56.445Z</time></trkpt><trkpt lat="43.8273274" lon="11.2321814"><ele>156.0</ele><time>2026-04-25T07:50:59.443Z</time></trkpt><trkpt lat="43.8273762" lon="11.2322371"><ele>158.0</ele><time>2026-04-25T07:51:02.435Z</time></trkpt><trkpt lat="43.82744" lon="11.2323107"><ele>160.0</ele><time>2026-04-25T07:51:06.433Z</time></trkpt><trkpt lat="43.8274934" lon="11.2323622"><ele>161.99999999999997</ele><time>2026-04-25T07:51:09.436Z</time></trkpt><trkpt lat="43.8275577" lon="11.2324293"><ele>164.0</ele><time>2026-04-25T07:51:13.436Z</time></trkpt><trkpt lat="43.8276098" lon="11.2324908"><ele>166.7142857142857</ele><time>2026-04-25T07:51:17.45Z</time></trkpt><trkpt lat="43.8276528" lon="11.2325662"><ele>169.42857142857142</ele><time>2026-04-25T07:51:22.434Z</time></trkpt><trkpt lat="43.8277148" lon="11.2326281"><ele>172.14285714285714</ele><time>2026-04-25T07:51:28.433Z</time></trkpt><trkpt lat="43.8277835" lon="11.2326362"><ele>174.85714285714283</ele><time>2026-04-25T07:51:34.428Z</time></trkpt><trkpt lat="43.8278537" lon="11.2326611"><ele>177.57142857142858</ele><time>2026-04-25T07:51:39.433Z</time></trkpt><trkpt lat="43.8278969" lon="11.2327469"><ele>180.28571428571428</ele><time>2026-04-25T07:51:45.436Z</time></trkpt><trkpt lat="43.8279418" lon="11.2328195"><ele>183.0</ele><time>2026-04-25T07:51:51.439Z</time></trkpt><trkpt lat="43.8279821" lon="11.2328883"><ele>183.0</ele><time>2026-04-25T07:51:57.436Z</time></trkpt><trkpt lat="43.8280204" lon="11.2329682"><ele>183.0</ele><time>2026-04-25T07:52:04.442Z</time></trkpt><trkpt lat="43.828069" lon="11.2330242"><ele>183.0</ele><time>2026-04-25T07:52:09.436Z</time></trkpt><trkpt lat="43.8281222" lon="11.2330717"><ele>183.0</ele><time>2026-04-25T07:52:15.446Z</time></trkpt><trkpt lat="43.828197" lon="11.2330788"><ele>183.0</ele><time>2026-04-25T07:52:20.443Z</time></trkpt><trkpt lat="43.8282611" lon="11.2331343"><ele>183.0</ele><time>2026-04-25T07:52:25.44Z</time></trkpt><trkpt lat="43.8283272" lon="11.2331592"><ele>183.0</ele><time>2026-04-25T07:52:32.442Z</time></trkpt><trkpt lat="43.8283905" lon="11.233181"><ele>182.66666666666666</ele><time>2026-04-25T07:52:37.439Z</time></trkpt><trkpt lat="43.8284436" lon="11.2332497"><ele>182.33333333333334</ele><time>2026-04-25T07:52:43.443Z</time></trkpt><trkpt lat="43.8284933" lon="11.2333217"><ele>182.0</ele><time>2026-04-25T07:52:49.446Z</time></trkpt><trkpt lat="43.8285528" lon="11.2333567"><ele>181.66666666666669</ele><time>2026-04-25T07:52:55.442Z</time></trkpt><trkpt lat="43.8286209" lon="11.2333542"><ele>181.33333333333334</ele><time>2026-04-25T07:53:03.444Z</time></trkpt><trkpt lat="43.8285712" lon="11.2332658"><ele>181.0</ele><time>2026-04-25T07:53:12.425Z</time></trkpt><trkpt lat="43.8285102" lon="11.2331603"><ele>181.33333333333334</ele><time>2026-04-25T07:53:16.414Z</time></trkpt><trkpt lat="43.8284476" lon="11.2330564"><ele>181.66666666666669</ele><time>2026-04-25T07:53:18.416Z</time></trkpt><trkpt lat="43.8283748" lon="11.2329429"><ele>182.0</ele><time>2026-04-25T07:53:20.425Z</time></trkpt><trkpt lat="43.8283313" lon="11.2328453"><ele>182.33333333333334</ele><time>2026-04-25T07:53:22.423Z</time></trkpt><trkpt lat="43.8282745" lon="11.2327538"><ele>182.66666666666666</ele><time>2026-04-25T07:53:25.425Z</time></trkpt><trkpt lat="43.8282373" lon="11.2326807"><ele>183.0</ele><time>2026-04-25T07:53:27.428Z</time></trkpt><trkpt lat="43.8282166" lon="11.2325774"><ele>183.0</ele><time>2026-04-25T07:53:30.431Z</time></trkpt><trkpt lat="43.8281916" lon="11.2324895"><ele>183.0</ele><time>2026-04-25T07:53:32.431Z</time></trkpt><trkpt lat="43.8281544" lon="11.2323864"><ele>183.0</ele><time>2026-04-25T07:53:35.436Z</time></trkpt><trkpt lat="43.8281053" lon="11.232315"><ele>183.0</ele><time>2026-04-25T07:53:38.429Z</time></trkpt><trkpt lat="43.8280875" lon="11.2322219"><ele>183.0</ele><time>2026-04-25T07:53:41.426Z</time></trkpt><trkpt lat="43.8280727" lon="11.232126"><ele>183.0</ele><time>2026-04-25T07:53:44.423Z</time></trkpt><trkpt lat="43.8280511" lon="11.2320056"><ele>184.0</ele><time>2026-04-25T07:53:47.425Z</time></trkpt><trkpt lat="43.828033" lon="11.2318732"><ele>185.0</ele><time>2026-04-25T07:53:50.429Z</time></trkpt><trkpt lat="43.8279988" lon="11.2317872"><ele>186.0</ele><time>2026-04-25T07:53:52.442Z</time></trkpt><trkpt lat="43.8279519" lon="11.2316636"><ele>187.0</ele><time>2026-04-25T07:53:55.425Z</time></trkpt><trkpt lat="43.8278989" lon="11.2315641"><ele>188.0</ele><time>2026-04-25T07:53:58.423Z</time></trkpt><trkpt lat="43.8278932" lon="11.2314691"><ele>189.0</ele><time>2026-04-25T07:54:02.431Z</time></trkpt><trkpt lat="43.8278922" lon="11.2313722"><ele>189.42857142857142</ele><time>2026-04-25T07:54:07.437Z</time></trkpt><trkpt lat="43.8279157" lon="11.231287"><ele>189.85714285714286</ele><time>2026-04-25T07:54:13.446Z</time></trkpt><trkpt lat="43.8279497" lon="11.2312118"><ele>190.28571428571428</ele><time>2026-04-25T07:54:20.419Z</time></trkpt><trkpt lat="43.8279862" lon="11.2311398"><ele>190.71428571428572</ele><time>2026-04-25T07:54:23.46Z</time></trkpt><trkpt lat="43.8280346" lon="11.2310736"><ele>191.14285714285714</ele><time>2026-04-25T07:54:28.445Z</time></trkpt><trkpt lat="43.8280627" lon="11.2309907"><ele>191.57142857142856</ele><time>2026-04-25T07:54:34.444Z</time></trkpt><trkpt lat="43.8280715" lon="11.2308741"><ele>192.0</ele><time>2026-04-25T07:54:38.439Z</time></trkpt><trkpt lat="43.8280671" lon="11.2307637"><ele>192.0</ele><time>2026-04-25T07:54:41.443Z</time></trkpt><trkpt lat="43.8280522" lon="11.2306739"><ele>192.0</ele><time>2026-04-25T07:54:43.441Z</time></trkpt><trkpt lat="43.8280364" lon="11.2305569"><ele>192.0</ele><time>2026-04-25T07:54:45.454Z</time></trkpt><trkpt lat="43.8279938" lon="11.2304671"><ele>192.0</ele><time>2026-04-25T07:54:47.453Z</time></trkpt><trkpt lat="43.8279535" lon="11.2303466"><ele>192.0</ele><time>2026-04-25T07:54:50.458Z</time></trkpt><trkpt lat="43.8279362" lon="11.2302616"><ele>192.0</ele><time>2026-04-25T07:54:52.46Z</time></trkpt><trkpt lat="43.827923" lon="11.2301748"><ele>192.39999999999998</ele><time>2026-04-25T07:54:54.464Z</time></trkpt><trkpt lat="43.8278844" lon="11.2300503"><ele>192.79999999999998</ele><time>2026-04-25T07:54:56.457Z</time></trkpt><trkpt lat="43.8277894" lon="11.2299807"><ele>193.2</ele><time>2026-04-25T07:54:58.441Z</time></trkpt><trkpt lat="43.8277206" lon="11.2299552"><ele>193.6</ele><time>2026-04-25T07:54:59.448Z</time></trkpt><trkpt lat="43.8276541" lon="11.2299416"><ele>194.0</ele><time>2026-04-25T07:55:00.445Z</time></trkpt><trkpt lat="43.8275356" lon="11.2298799"><ele>191.42857142857142</ele><time>2026-04-25T07:55:02.447Z</time></trkpt><trkpt lat="43.827467" lon="11.2298503"><ele>188.85714285714286</ele><time>2026-04-25T07:55:03.449Z</time></trkpt><trkpt lat="43.8274034" lon="11.2298169"><ele>186.28571428571428</ele><time>2026-04-25T07:55:04.448Z</time></trkpt><trkpt lat="43.8273375" lon="11.2297835"><ele>183.71428571428572</ele><time>2026-04-25T07:55:05.456Z</time></trkpt><trkpt lat="43.827273" lon="11.2297417"><ele>181.14285714285714</ele><time>2026-04-25T07:55:06.443Z</time></trkpt><trkpt lat="43.8271987" lon="11.2296993"><ele>178.57142857142858</ele><time>2026-04-25T07:55:07.453Z</time></trkpt><trkpt lat="43.8271237" lon="11.2296677"><ele>176.0</ele><time>2026-04-25T07:55:08.452Z</time></trkpt><trkpt lat="43.8270543" lon="11.2296243"><ele>176.0</ele><time>2026-04-25T07:55:09.454Z</time></trkpt><trkpt lat="43.8269946" lon="11.2295955"><ele>176.0</ele><time>2026-04-25T07:55:10.446Z</time></trkpt><trkpt lat="43.8269271" lon="11.2295668"><ele>176.0</ele><time>2026-04-25T07:55:12.46Z</time></trkpt><trkpt lat="43.8268436" lon="11.2294921"><ele>176.0</ele><time>2026-04-25T07:55:15.459Z</time></trkpt><trkpt lat="43.8268346" lon="11.2293872"><ele>176.0</ele><time>2026-04-25T07:55:17.457Z</time></trkpt><trkpt lat="43.8268412" lon="11.2292847"><ele>176.0</ele><time>2026-04-25T07:55:19.443Z</time></trkpt><trkpt lat="43.8268848" lon="11.2291733"><ele>176.0</ele><time>2026-04-25T07:55:22.455Z</time></trkpt><trkpt lat="43.8269187" lon="11.2290807"><ele>176.0</ele><time>2026-04-25T07:55:24.469Z</time></trkpt><trkpt lat="43.8269617" lon="11.22898"><ele>176.0</ele><time>2026-04-25T07:55:26.443Z</time></trkpt><trkpt lat="43.8270006" lon="11.2288771"><ele>176.0</ele><time>2026-04-25T07:55:28.451Z</time></trkpt><trkpt lat="43.8270302" lon="11.2287911"><ele>176.0</ele><time>2026-04-25T07:55:30.457Z</time></trkpt><trkpt lat="43.8270558" lon="11.2287046"><ele>176.0</ele><time>2026-04-25T07:55:32.447Z</time></trkpt><trkpt lat="43.8270975" lon="11.2286131"><ele>176.0</ele><time>2026-04-25T07:55:34.442Z</time></trkpt><trkpt lat="43.8271258" lon="11.2285019"><ele>176.0</ele><time>2026-04-25T07:55:37.449Z</time></trkpt><trkpt lat="43.82715" lon="11.2284119"><ele>176.0</ele><time>2026-04-25T07:55:40.455Z</time></trkpt><trkpt lat="43.8271625" lon="11.2283202"><ele>176.0</ele><time>2026-04-25T07:55:43.449Z</time></trkpt><trkpt lat="43.8271938" lon="11.2282207"><ele>176.0</ele><time>2026-04-25T07:55:47.452Z</time></trkpt><trkpt lat="43.8272161" lon="11.2281264"><ele>176.0</ele><time>2026-04-25T07:55:51.459Z</time></trkpt><trkpt lat="43.8272338" lon="11.2280386"><ele>176.0</ele><time>2026-04-25T07:55:55.475Z</time></trkpt><trkpt lat="43.8272667" lon="11.2279327"><ele>175.71428571428572</ele><time>2026-04-25T07:56:00.453Z</time></trkpt><trkpt lat="43.8273139" lon="11.2278669"><ele>175.42857142857142</ele><time>2026-04-25T07:56:03.455Z</time></trkpt><trkpt lat="43.827382" lon="11.2278172"><ele>175.14285714285714</ele><time>2026-04-25T07:56:07.461Z</time></trkpt><trkpt lat="43.8274429" lon="11.2277668"><ele>174.85714285714286</ele><time>2026-04-25T07:56:11.461Z</time></trkpt><trkpt lat="43.8275056" lon="11.2277461"><ele>174.57142857142858</ele><time>2026-04-25T07:56:15.459Z</time></trkpt><trkpt lat="43.8275735" lon="11.2277659"><ele>174.28571428571428</ele><time>2026-04-25T07:56:20.467Z</time></trkpt><trkpt lat="43.8276361" lon="11.2278136"><ele>174.0</ele><time>2026-04-25T07:56:24.469Z</time></trkpt><trkpt lat="43.8276962" lon="11.2278753"><ele>175.57142857142856</ele><time>2026-04-25T07:56:28.463Z</time></trkpt><trkpt lat="43.8277438" lon="11.227933"><ele>177.14285714285714</ele><time>2026-04-25T07:56:32.465Z</time></trkpt><trkpt lat="43.8278055" lon="11.2279856"><ele>178.71428571428572</ele><time>2026-04-25T07:56:36.468Z</time></trkpt><trkpt lat="43.8278665" lon="11.2280336"><ele>180.28571428571428</ele><time>2026-04-25T07:56:40.458Z</time></trkpt><trkpt lat="43.8279286" lon="11.2280712"><ele>181.85714285714286</ele><time>2026-04-25T07:56:43.473Z</time></trkpt><trkpt lat="43.8279845" lon="11.2281416"><ele>183.42857142857142</ele><time>2026-04-25T07:56:47.465Z</time></trkpt><trkpt lat="43.8280472" lon="11.2281846"><ele>185.0</ele><time>2026-04-25T07:56:51.455Z</time></trkpt><trkpt lat="43.8281235" lon="11.2282086"><ele>186.14285714285714</ele><time>2026-04-25T07:56:56.457Z</time></trkpt><trkpt lat="43.8281883" lon="11.2282472"><ele>187.28571428571428</ele><time>2026-04-25T07:57:01.461Z</time></trkpt><trkpt lat="43.8282568" lon="11.2282864"><ele>188.42857142857144</ele><time>2026-04-25T07:57:05.476Z</time></trkpt><trkpt lat="43.8283247" lon="11.2283257"><ele>189.57142857142856</ele><time>2026-04-25T07:57:10.453Z</time></trkpt><trkpt lat="43.828388" lon="11.2283458"><ele>190.71428571428572</ele><time>2026-04-25T07:57:14.452Z</time></trkpt><trkpt lat="43.8284734" lon="11.2283978"><ele>191.85714285714286</ele><time>2026-04-25T07:57:18.432Z</time></trkpt><trkpt lat="43.8285424" lon="11.2284213"><ele>193.0</ele><time>2026-04-25T07:57:21.433Z</time></trkpt><trkpt lat="43.8286064" lon="11.2285059"><ele>194.57142857142858</ele><time>2026-04-25T07:57:24.457Z</time></trkpt><trkpt lat="43.8286636" lon="11.2285544"><ele>196.14285714285714</ele><time>2026-04-25T07:57:28.471Z</time></trkpt><trkpt lat="43.8287316" lon="11.2285854"><ele>197.71428571428572</ele><time>2026-04-25T07:57:32.456Z</time></trkpt><trkpt lat="43.8287916" lon="11.2286187"><ele>199.28571428571428</ele><time>2026-04-25T07:57:36.457Z</time></trkpt><trkpt lat="43.8288576" lon="11.2286755"><ele>200.85714285714286</ele><time>2026-04-25T07:57:41.453Z</time></trkpt><trkpt lat="43.8289094" lon="11.2287438"><ele>202.42857142857144</ele><time>2026-04-25T07:57:45.451Z</time></trkpt><trkpt lat="43.8289641" lon="11.2287872"><ele>204.0</ele><time>2026-04-25T07:57:48.464Z</time></trkpt><trkpt lat="43.8290234" lon="11.2288291"><ele>204.0</ele><time>2026-04-25T07:57:51.458Z</time></trkpt><trkpt lat="43.8290841" lon="11.2288804"><ele>204.0</ele><time>2026-04-25T07:57:54.444Z</time></trkpt><trkpt lat="43.8291645" lon="11.2289442"><ele>204.0</ele><time>2026-04-25T07:57:57.447Z</time></trkpt><trkpt lat="43.8292196" lon="11.2289883"><ele>204.0</ele><time>2026-04-25T07:57:59.48Z</time></trkpt><trkpt lat="43.8292849" lon="11.2290453"><ele>204.0</ele><time>2026-04-25T07:58:02.454Z</time></trkpt><trkpt lat="43.8293596" lon="11.2290992"><ele>204.0</ele><time>2026-04-25T07:58:05.468Z</time></trkpt><trkpt lat="43.8294266" lon="11.2291408"><ele>205.85714285714286</ele><time>2026-04-25T07:58:08.468Z</time></trkpt><trkpt lat="43.8294868" lon="11.2291839"><ele>207.71428571428572</ele><time>2026-04-25T07:58:11.462Z</time></trkpt><trkpt lat="43.829547" lon="11.229226"><ele>209.57142857142856</ele><time>2026-04-25T07:58:14.471Z</time></trkpt><trkpt lat="43.8296078" lon="11.2292721"><ele>211.42857142857144</ele><time>2026-04-25T07:58:17.466Z</time></trkpt><trkpt lat="43.8296655" lon="11.2293153"><ele>213.28571428571428</ele><time>2026-04-25T07:58:20.466Z</time></trkpt><trkpt lat="43.8297246" lon="11.2293592"><ele>215.14285714285714</ele><time>2026-04-25T07:58:23.459Z</time></trkpt><trkpt lat="43.8297906" lon="11.2294228"><ele>217.0</ele><time>2026-04-25T07:58:27.467Z</time></trkpt><trkpt lat="43.82985" lon="11.2294558"><ele>217.0</ele><time>2026-04-25T07:58:30.477Z</time></trkpt><trkpt lat="43.82992" lon="11.2295075"><ele>217.0</ele><time>2026-04-25T07:58:34.469Z</time></trkpt><trkpt lat="43.8299782" lon="11.2295447"><ele>217.0</ele><time>2026-04-25T07:58:37.463Z</time></trkpt><trkpt lat="43.8300399" lon="11.2295774"><ele>217.0</ele><time>2026-04-25T07:58:40.456Z</time></trkpt><trkpt lat="43.8300978" lon="11.2296166"><ele>217.0</ele><time>2026-04-25T07:58:43.457Z</time></trkpt><trkpt lat="43.8301576" lon="11.2296725"><ele>217.0</ele><time>2026-04-25T07:58:47.459Z</time></trkpt><trkpt lat="43.8302219" lon="11.2296982"><ele>217.0</ele><time>2026-04-25T07:58:52.465Z</time></trkpt><trkpt lat="43.8302864" lon="11.2296946"><ele>217.14285714285714</ele><time>2026-04-25T07:58:55.455Z</time></trkpt><trkpt lat="43.8303529" lon="11.2297238"><ele>217.28571428571428</ele><time>2026-04-25T07:58:58.458Z</time></trkpt><trkpt lat="43.8304154" lon="11.2297482"><ele>217.42857142857144</ele><time>2026-04-25T07:59:01.473Z</time></trkpt><trkpt lat="43.8304765" lon="11.2297696"><ele>217.57142857142856</ele><time>2026-04-25T07:59:04.455Z</time></trkpt><trkpt lat="43.8305394" lon="11.2298059"><ele>217.71428571428572</ele><time>2026-04-25T07:59:07.471Z</time></trkpt><trkpt lat="43.830606" lon="11.2298329"><ele>217.85714285714286</ele><time>2026-04-25T07:59:10.456Z</time></trkpt><trkpt lat="43.8306736" lon="11.229889"><ele>218.0</ele><time>2026-04-25T07:59:14.458Z</time></trkpt><trkpt lat="43.830721" lon="11.229959"><ele>220.28571428571428</ele><time>2026-04-25T07:59:17.46Z</time></trkpt><trkpt lat="43.8307666" lon="11.2300265"><ele>222.57142857142858</ele><time>2026-04-25T07:59:20.459Z</time></trkpt><trkpt lat="43.830811" lon="11.2301204"><ele>224.85714285714286</ele><time>2026-04-25T07:59:24.456Z</time></trkpt><trkpt lat="43.8308504" lon="11.2301934"><ele>227.14285714285717</ele><time>2026-04-25T07:59:27.453Z</time></trkpt><trkpt lat="43.8308953" lon="11.230262"><ele>229.42857142857144</ele><time>2026-04-25T07:59:30.455Z</time></trkpt><trkpt lat="43.8309459" lon="11.2303294"><ele>231.71428571428572</ele><time>2026-04-25T07:59:33.442Z</time></trkpt><trkpt lat="43.8309979" lon="11.2303933"><ele>234.0</ele><time>2026-04-25T07:59:36.461Z</time></trkpt><trkpt lat="43.8310497" lon="11.2304486"><ele>234.42857142857144</ele><time>2026-04-25T07:59:39.451Z</time></trkpt><trkpt lat="43.831099" lon="11.2305073"><ele>234.8571428571429</ele><time>2026-04-25T07:59:42.459Z</time></trkpt><trkpt lat="43.8311482" lon="11.2305767"><ele>235.28571428571428</ele><time>2026-04-25T07:59:46.461Z</time></trkpt><trkpt lat="43.8312048" lon="11.2306309"><ele>235.71428571428572</ele><time>2026-04-25T07:59:50.456Z</time></trkpt><trkpt lat="43.8312656" lon="11.2307049"><ele>236.14285714285714</ele><time>2026-04-25T07:59:54.456Z</time></trkpt><trkpt lat="43.8313178" lon="11.2307589"><ele>236.57142857142856</ele><time>2026-04-25T07:59:58.453Z</time></trkpt><trkpt lat="43.8313816" lon="11.2308068"><ele>236.99999999999997</ele><time>2026-04-25T08:00:03.47Z</time></trkpt><trkpt lat="43.8314042" lon="11.2308885"><ele>239.1428571428571</ele><time>2026-04-25T08:00:06.454Z</time></trkpt><trkpt lat="43.8314267" lon="11.2309769"><ele>241.28571428571428</ele><time>2026-04-25T08:00:09.457Z</time></trkpt><trkpt lat="43.8314742" lon="11.2310347"><ele>243.42857142857142</ele><time>2026-04-25T08:00:12.456Z</time></trkpt><trkpt lat="43.831545" lon="11.2310903"><ele>245.57142857142856</ele><time>2026-04-25T08:00:16.459Z</time></trkpt><trkpt lat="43.8315948" lon="11.2311473"><ele>247.71428571428572</ele><time>2026-04-25T08:00:19.458Z</time></trkpt><trkpt lat="43.8316509" lon="11.2312223"><ele>249.85714285714286</ele><time>2026-04-25T08:00:23.454Z</time></trkpt><trkpt lat="43.8317144" lon="11.2312965"><ele>252.0</ele><time>2026-04-25T08:00:27.457Z</time></trkpt><trkpt lat="43.8317633" lon="11.2313563"><ele>252.71428571428572</ele><time>2026-04-25T08:00:30.458Z</time></trkpt><trkpt lat="43.8318182" lon="11.23141"><ele>253.42857142857144</ele><time>2026-04-25T08:00:33.456Z</time></trkpt><trkpt lat="43.8318694" lon="11.2314614"><ele>254.14285714285714</ele><time>2026-04-25T08:00:36.451Z</time></trkpt><trkpt lat="43.8319246" lon="11.2315107"><ele>254.85714285714286</ele><time>2026-04-25T08:00:39.45Z</time></trkpt><trkpt lat="43.831986" lon="11.2315481"><ele>255.57142857142858</ele><time>2026-04-25T08:00:42.459Z</time></trkpt><trkpt lat="43.8320456" lon="11.2315899"><ele>256.2857142857143</ele><time>2026-04-25T08:00:45.448Z</time></trkpt><trkpt lat="43.8321113" lon="11.2316577"><ele>257.0</ele><time>2026-04-25T08:00:49.454Z</time></trkpt><trkpt lat="43.8321603" lon="11.2317149"><ele>258.85714285714283</ele><time>2026-04-25T08:00:52.455Z</time></trkpt><trkpt lat="43.83222" lon="11.2317779"><ele>260.7142857142857</ele><time>2026-04-25T08:00:56.45Z</time></trkpt><trkpt lat="43.8322691" lon="11.2318334"><ele>262.57142857142856</ele><time>2026-04-25T08:00:59.451Z</time></trkpt><trkpt lat="43.8323263" lon="11.2318704"><ele>264.42857142857144</ele><time>2026-04-25T08:01:02.451Z</time></trkpt><trkpt lat="43.8323966" lon="11.2319203"><ele>266.2857142857143</ele><time>2026-04-25T08:01:06.462Z</time></trkpt><trkpt lat="43.8324652" lon="11.2319832"><ele>268.1428571428571</ele><time>2026-04-25T08:01:10.461Z</time></trkpt><trkpt lat="43.8325355" lon="11.2320344"><ele>270.0</ele><time>2026-04-25T08:01:14.446Z</time></trkpt><trkpt lat="43.8325984" lon="11.2320742"><ele>270.7142857142857</ele><time>2026-04-25T08:01:18.453Z</time></trkpt><trkpt lat="43.8326609" lon="11.232105"><ele>271.4285714285714</ele><time>2026-04-25T08:01:22.461Z</time></trkpt><trkpt lat="43.8327201" lon="11.2321518"><ele>272.1428571428571</ele><time>2026-04-25T08:01:25.453Z</time></trkpt><trkpt lat="43.8327721" lon="11.2322011"><ele>272.85714285714283</ele><time>2026-04-25T08:01:28.453Z</time></trkpt><trkpt lat="43.8328247" lon="11.2322509"><ele>273.57142857142856</ele><time>2026-04-25T08:01:31.459Z</time></trkpt><trkpt lat="43.8328974" lon="11.232301"><ele>274.2857142857143</ele><time>2026-04-25T08:01:35.47Z</time></trkpt><trkpt lat="43.8329586" lon="11.2323577"><ele>275.0</ele><time>2026-04-25T08:01:39.459Z</time></trkpt><trkpt lat="43.8330161" lon="11.232425"><ele>276.2857142857143</ele><time>2026-04-25T08:01:42.458Z</time></trkpt><trkpt lat="43.8330694" lon="11.2324969"><ele>277.57142857142856</ele><time>2026-04-25T08:01:45.461Z</time></trkpt><trkpt lat="43.8331254" lon="11.2325562"><ele>278.85714285714283</ele><time>2026-04-25T08:01:48.461Z</time></trkpt><trkpt lat="43.8331763" lon="11.2326265"><ele>280.1428571428571</ele><time>2026-04-25T08:01:51.459Z</time></trkpt><trkpt lat="43.8332255" lon="11.2326856"><ele>281.4285714285714</ele><time>2026-04-25T08:01:54.458Z</time></trkpt><trkpt lat="43.8332727" lon="11.2327477"><ele>282.7142857142857</ele><time>2026-04-25T08:01:57.442Z</time></trkpt><trkpt lat="43.8333187" lon="11.2328119"><ele>284.0</ele><time>2026-04-25T08:02:00.454Z</time></trkpt><trkpt lat="43.8333724" lon="11.2328774"><ele>284.0</ele><time>2026-04-25T08:02:03.461Z</time></trkpt><trkpt lat="43.8334271" lon="11.2329464"><ele>284.0</ele><time>2026-04-25T08:02:06.459Z</time></trkpt><trkpt lat="43.8334683" lon="11.233015"><ele>284.0</ele><time>2026-04-25T08:02:09.462Z</time></trkpt><trkpt lat="43.8335138" lon="11.2330767"><ele>284.0</ele><time>2026-04-25T08:02:12.455Z</time></trkpt><trkpt lat="43.8335711" lon="11.2331413"><ele>284.0</ele><time>2026-04-25T08:02:15.45Z</time></trkpt><trkpt lat="43.8336405" lon="11.2332054"><ele>284.0</ele><time>2026-04-25T08:02:18.444Z</time></trkpt><trkpt lat="43.8337277" lon="11.2332537"><ele>285.42857142857144</ele><time>2026-04-25T08:02:20.434Z</time></trkpt><trkpt lat="43.8337994" lon="11.233256"><ele>286.85714285714283</ele><time>2026-04-25T08:02:23.441Z</time></trkpt><trkpt lat="43.8338762" lon="11.2333177"><ele>288.2857142857143</ele><time>2026-04-25T08:02:26.44Z</time></trkpt><trkpt lat="43.8339353" lon="11.2333645"><ele>289.7142857142857</ele><time>2026-04-25T08:02:29.456Z</time></trkpt><trkpt lat="43.8339996" lon="11.2333835"><ele>291.1428571428571</ele><time>2026-04-25T08:02:31.457Z</time></trkpt><trkpt lat="43.834068" lon="11.233415"><ele>292.57142857142856</ele><time>2026-04-25T08:02:34.448Z</time></trkpt><trkpt lat="43.8341371" lon="11.2334516"><ele>294.0</ele><time>2026-04-25T08:02:37.457Z</time></trkpt><trkpt lat="43.8341927" lon="11.233495"><ele>294.0</ele><time>2026-04-25T08:02:40.448Z</time></trkpt><trkpt lat="43.8342431" lon="11.2335594"><ele>294.0</ele><time>2026-04-25T08:02:43.45Z</time></trkpt><trkpt lat="43.8342715" lon="11.2336666"><ele>294.0</ele><time>2026-04-25T08:02:47.446Z</time></trkpt><trkpt lat="43.8343116" lon="11.2337726"><ele>294.0</ele><time>2026-04-25T08:02:51.454Z</time></trkpt><trkpt lat="43.834349" lon="11.233857"><ele>294.0</ele><time>2026-04-25T08:02:54.46Z</time></trkpt><trkpt lat="43.8343743" lon="11.233942"><ele>294.0</ele><time>2026-04-25T08:02:57.457Z</time></trkpt><trkpt lat="43.834399" lon="11.2340307"><ele>294.0</ele><time>2026-04-25T08:03:00.457Z</time></trkpt><trkpt lat="43.8344421" lon="11.2341179"><ele>295.57142857142856</ele><time>2026-04-25T08:03:04.446Z</time></trkpt><trkpt lat="43.8344807" lon="11.234197"><ele>297.1428571428571</ele><time>2026-04-25T08:03:07.459Z</time></trkpt><trkpt lat="43.8345016" lon="11.2342841"><ele>298.7142857142857</ele><time>2026-04-25T08:03:10.455Z</time></trkpt><trkpt lat="43.834509" lon="11.2343857"><ele>300.2857142857143</ele><time>2026-04-25T08:03:13.46Z</time></trkpt><trkpt lat="43.834543" lon="11.2344679"><ele>301.85714285714283</ele><time>2026-04-25T08:03:16.462Z</time></trkpt><trkpt lat="43.834596" lon="11.2345248"><ele>303.42857142857144</ele><time>2026-04-25T08:03:20.454Z</time></trkpt><trkpt lat="43.8346576" lon="11.2345683"><ele>305.0</ele><time>2026-04-25T08:03:24.446Z</time></trkpt><trkpt lat="43.8347345" lon="11.2346081"><ele>305.0</ele><time>2026-04-25T08:03:28.462Z</time></trkpt><trkpt lat="43.8348075" lon="11.2346434"><ele>305.0</ele><time>2026-04-25T08:03:32.461Z</time></trkpt><trkpt lat="43.8348687" lon="11.2346699"><ele>305.0</ele><time>2026-04-25T08:03:35.465Z</time></trkpt><trkpt lat="43.8349288" lon="11.2347103"><ele>305.0</ele><time>2026-04-25T08:03:38.459Z</time></trkpt><trkpt lat="43.8349946" lon="11.2347424"><ele>305.0</ele><time>2026-04-25T08:03:41.458Z</time></trkpt><trkpt lat="43.8350574" lon="11.2347777"><ele>305.0</ele><time>2026-04-25T08:03:44.459Z</time></trkpt><trkpt lat="43.8351198" lon="11.2348089"><ele>305.0</ele><time>2026-04-25T08:03:47.459Z</time></trkpt><trkpt lat="43.835183" lon="11.2348476"><ele>306.5714285714286</ele><time>2026-04-25T08:03:50.453Z</time></trkpt><trkpt lat="43.8352472" lon="11.2348804"><ele>308.1428571428571</ele><time>2026-04-25T08:03:53.46Z</time></trkpt><trkpt lat="43.8353045" lon="11.2349238"><ele>309.7142857142857</ele><time>2026-04-25T08:03:56.463Z</time></trkpt><trkpt lat="43.835361" lon="11.2349653"><ele>311.28571428571433</ele><time>2026-04-25T08:03:59.465Z</time></trkpt><trkpt lat="43.8354204" lon="11.2350236"><ele>312.8571428571429</ele><time>2026-04-25T08:04:02.464Z</time></trkpt><trkpt lat="43.835488" lon="11.2350465"><ele>314.42857142857144</ele><time>2026-04-25T08:04:05.476Z</time></trkpt><trkpt lat="43.8355562" lon="11.235063"><ele>316.0</ele><time>2026-04-25T08:04:09.464Z</time></trkpt><trkpt lat="43.8356287" lon="11.2350943"><ele>316.00000000000006</ele><time>2026-04-25T08:04:14.46Z</time></trkpt><trkpt lat="43.8357009" lon="11.2351245"><ele>316.0</ele><time>2026-04-25T08:04:20.459Z</time></trkpt><trkpt lat="43.835783" lon="11.2351592"><ele>316.0</ele><time>2026-04-25T08:04:25.461Z</time></trkpt><trkpt lat="43.8358472" lon="11.2351607"><ele>316.0</ele><time>2026-04-25T08:04:29.469Z</time></trkpt><trkpt lat="43.835914" lon="11.2351758"><ele>316.0</ele><time>2026-04-25T08:04:33.46Z</time></trkpt><trkpt lat="43.8359695" lon="11.2352208"><ele>316.00000000000006</ele><time>2026-04-25T08:04:37.462Z</time></trkpt><trkpt lat="43.8360331" lon="11.2351936"><ele>316.0</ele><time>2026-04-25T08:04:42.424Z</time></trkpt><trkpt lat="43.8361125" lon="11.2352074"><ele>316.8333333333333</ele><time>2026-04-25T08:04:45.431Z</time></trkpt><trkpt lat="43.8361669" lon="11.235263"><ele>317.66666666666663</ele><time>2026-04-25T08:04:51.448Z</time></trkpt><trkpt lat="43.8362388" lon="11.2352904"><ele>318.5</ele><time>2026-04-25T08:05:02.449Z</time></trkpt><trkpt lat="43.836316" lon="11.2353388"><ele>319.3333333333333</ele><time>2026-04-25T08:05:04.457Z</time></trkpt><trkpt lat="43.836396" lon="11.2353709"><ele>320.1666666666667</ele><time>2026-04-25T08:05:06.452Z</time></trkpt><trkpt lat="43.8364678" lon="11.2353945"><ele>321.0</ele><time>2026-04-25T08:05:08.455Z</time></trkpt><trkpt lat="43.8365394" lon="11.235408"><ele>320.99999999999994</ele><time>2026-04-25T08:05:11.441Z</time></trkpt><trkpt lat="43.8366166" lon="11.2354421"><ele>321.0</ele><time>2026-04-25T08:05:15.438Z</time></trkpt><trkpt lat="43.8366786" lon="11.2354747"><ele>321.0</ele><time>2026-04-25T08:05:19.454Z</time></trkpt><trkpt lat="43.836726" lon="11.2355364"><ele>321.0</ele><time>2026-04-25T08:05:25.446Z</time></trkpt><trkpt lat="43.8367093" lon="11.2356251"><ele>321.0</ele><time>2026-04-25T08:05:31.444Z</time></trkpt><trkpt lat="43.8366457" lon="11.2356429"><ele>320.99999999999994</ele><time>2026-04-25T08:05:40.449Z</time></trkpt><trkpt lat="43.8365793" lon="11.2356634"><ele>321.0</ele><time>2026-04-25T08:05:47.455Z</time></trkpt><trkpt lat="43.836509" lon="11.2356951"><ele>323.6666666666667</ele><time>2026-04-25T08:05:58.43Z</time></trkpt><trkpt lat="43.836444" lon="11.2357309"><ele>326.3333333333333</ele><time>2026-04-25T08:06:03.452Z</time></trkpt><trkpt lat="43.8363563" lon="11.23579"><ele>329.0</ele><time>2026-04-25T08:06:08.436Z</time></trkpt><trkpt lat="43.8362961" lon="11.2358545"><ele>331.66666666666663</ele><time>2026-04-25T08:06:15.457Z</time></trkpt><trkpt lat="43.8362445" lon="11.2359249"><ele>334.3333333333333</ele><time>2026-04-25T08:06:20.458Z</time></trkpt><trkpt lat="43.8361778" lon="11.2359268"><ele>337.0</ele><time>2026-04-25T08:06:25.469Z</time></trkpt><trkpt lat="43.8361066" lon="11.2359669"><ele>337.00000000000006</ele><time>2026-04-25T08:06:31.466Z</time></trkpt><trkpt lat="43.8360447" lon="11.2359914"><ele>337.0</ele><time>2026-04-25T08:06:35.471Z</time></trkpt><trkpt lat="43.8359772" lon="11.2360348"><ele>337.0</ele><time>2026-04-25T08:06:41.461Z</time></trkpt><trkpt lat="43.835922" lon="11.2360994"><ele>337.0</ele><time>2026-04-25T08:06:47.464Z</time></trkpt><trkpt lat="43.8358563" lon="11.2361474"><ele>337.0</ele><time>2026-04-25T08:06:53.461Z</time></trkpt><trkpt lat="43.8358031" lon="11.236216"><ele>337.00000000000006</ele><time>2026-04-25T08:06:59.458Z</time></trkpt><trkpt lat="43.8357549" lon="11.2362849"><ele>337.0</ele><time>2026-04-25T08:07:05.469Z</time></trkpt><trkpt lat="43.8357223" lon="11.2363674"><ele>336.0</ele><time>2026-04-25T08:07:10.464Z</time></trkpt><trkpt lat="43.835685" lon="11.2364539"><ele>335.0</ele><time>2026-04-25T08:07:15.46Z</time></trkpt><trkpt lat="43.8356583" lon="11.2365442"><ele>334.0</ele><time>2026-04-25T08:07:22.46Z</time></trkpt><trkpt lat="43.835625" lon="11.2366544"><ele>333.0</ele><time>2026-04-25T08:07:26.453Z</time></trkpt><trkpt lat="43.8355942" lon="11.2367602"><ele>332.0</ele><time>2026-04-25T08:07:29.453Z</time></trkpt><trkpt lat="43.8355723" lon="11.236859"><ele>331.0</ele><time>2026-04-25T08:07:32.454Z</time></trkpt><trkpt lat="43.8355464" lon="11.2369754"><ele>333.7142857142857</ele><time>2026-04-25T08:07:35.461Z</time></trkpt><trkpt lat="43.8355082" lon="11.2370462"><ele>336.42857142857144</ele><time>2026-04-25T08:07:38.452Z</time></trkpt><trkpt lat="43.8354734" lon="11.2371222"><ele>339.1428571428571</ele><time>2026-04-25T08:07:41.446Z</time></trkpt><trkpt lat="43.8354293" lon="11.2371857"><ele>341.8571428571429</ele><time>2026-04-25T08:07:44.451Z</time></trkpt><trkpt lat="43.8353859" lon="11.2372863"><ele>344.57142857142856</ele><time>2026-04-25T08:07:49.436Z</time></trkpt><trkpt lat="43.8353404" lon="11.2373612"><ele>347.2857142857143</ele><time>2026-04-25T08:07:55.446Z</time></trkpt><trkpt lat="43.8352874" lon="11.2374353"><ele>350.0</ele><time>2026-04-25T08:07:59.45Z</time></trkpt><trkpt lat="43.8352094" lon="11.2374518"><ele>349.42857142857144</ele><time>2026-04-25T08:08:04.432Z</time></trkpt><trkpt lat="43.8351793" lon="11.237549"><ele>348.8571428571429</ele><time>2026-04-25T08:08:08.441Z</time></trkpt><trkpt lat="43.8351447" lon="11.2376351"><ele>348.2857142857143</ele><time>2026-04-25T08:08:13.453Z</time></trkpt><trkpt lat="43.8351012" lon="11.2377194"><ele>347.7142857142857</ele><time>2026-04-25T08:08:20.449Z</time></trkpt><trkpt lat="43.8350676" lon="11.2378024"><ele>347.14285714285717</ele><time>2026-04-25T08:08:27.453Z</time></trkpt><trkpt lat="43.8350087" lon="11.2378893"><ele>346.57142857142856</ele><time>2026-04-25T08:08:35.441Z</time></trkpt><trkpt lat="43.8350095" lon="11.2379799"><ele>346.0</ele><time>2026-04-25T08:08:39.432Z</time></trkpt><trkpt lat="43.835064" lon="11.2380326"><ele>346.0</ele><time>2026-04-25T08:08:44.453Z</time></trkpt><trkpt lat="43.8351027" lon="11.2381181"><ele>346.0</ele><time>2026-04-25T08:08:49.47Z</time></trkpt><trkpt lat="43.8351478" lon="11.2381866"><ele>346.0</ele><time>2026-04-25T08:08:55.46Z</time></trkpt><trkpt lat="43.8351798" lon="11.2382718"><ele>346.0</ele><time>2026-04-25T08:09:00.451Z</time></trkpt><trkpt lat="43.8351806" lon="11.2383799"><ele>346.0</ele><time>2026-04-25T08:09:06.448Z</time></trkpt><trkpt lat="43.83519" lon="11.2384729"><ele>346.0</ele><time>2026-04-25T08:09:09.451Z</time></trkpt><trkpt lat="43.8352159" lon="11.2385912"><ele>346.0</ele><time>2026-04-25T08:09:12.45Z</time></trkpt><trkpt lat="43.8352608" lon="11.2386897"><ele>349.5</ele><time>2026-04-25T08:09:15.453Z</time></trkpt><trkpt lat="43.8353129" lon="11.2387694"><ele>353.0</ele><time>2026-04-25T08:09:18.452Z</time></trkpt><trkpt lat="43.8353696" lon="11.2388692"><ele>356.5</ele><time>2026-04-25T08:09:21.444Z</time></trkpt><trkpt lat="43.8354014" lon="11.2389564"><ele>360.0</ele><time>2026-04-25T08:09:25.438Z</time></trkpt><trkpt lat="43.835451" lon="11.2390253"><ele>363.5</ele><time>2026-04-25T08:09:28.434Z</time></trkpt><trkpt lat="43.8354896" lon="11.239101"><ele>367.0</ele><time>2026-04-25T08:09:31.432Z</time></trkpt><trkpt lat="43.8355509" lon="11.2391762"><ele>367.0</ele><time>2026-04-25T08:09:35.451Z</time></trkpt><trkpt lat="43.8355973" lon="11.2392452"><ele>367.0</ele><time>2026-04-25T08:09:40.438Z</time></trkpt><trkpt lat="43.8356257" lon="11.2393256"><ele>367.0</ele><time>2026-04-25T08:09:44.433Z</time></trkpt><trkpt lat="43.8356423" lon="11.2394445"><ele>367.0</ele><time>2026-04-25T08:09:48.442Z</time></trkpt><trkpt lat="43.8356726" lon="11.2395267"><ele>367.0</ele><time>2026-04-25T08:09:54.431Z</time></trkpt><trkpt lat="43.8356865" lon="11.239617"><ele>367.0</ele><time>2026-04-25T08:10:02.445Z</time></trkpt><trkpt lat="43.8356851" lon="11.2397216"><ele>367.0</ele><time>2026-04-25T08:10:08.448Z</time></trkpt><trkpt lat="43.8356868" lon="11.2398132"><ele>367.0</ele><time>2026-04-25T08:10:13.451Z</time></trkpt><trkpt lat="43.8357003" lon="11.2399"><ele>367.0</ele><time>2026-04-25T08:10:17.446Z</time></trkpt><trkpt lat="43.8357045" lon="11.2400054"><ele>367.0</ele><time>2026-04-25T08:10:24.445Z</time></trkpt><trkpt lat="43.8357123" lon="11.2401086"><ele>367.0</ele><time>2026-04-25T08:10:32.451Z</time></trkpt><trkpt lat="43.8357426" lon="11.2402116"><ele>367.0</ele><time>2026-04-25T08:10:37.451Z</time></trkpt><trkpt lat="43.8357705" lon="11.2403057"><ele>367.0</ele><time>2026-04-25T08:10:41.453Z</time></trkpt><trkpt lat="43.8357979" lon="11.2403911"><ele>367.0</ele><time>2026-04-25T08:10:45.451Z</time></trkpt><trkpt lat="43.8358306" lon="11.2404941"><ele>367.0</ele><time>2026-04-25T08:10:48.443Z</time></trkpt><trkpt lat="43.8358623" lon="11.2405732"><ele>367.0</ele><time>2026-04-25T08:10:51.447Z</time></trkpt><trkpt lat="43.8359001" lon="11.2406613"><ele>367.0</ele><time>2026-04-25T08:10:55.452Z</time></trkpt><trkpt lat="43.835938" lon="11.2407354"><ele>367.0</ele><time>2026-04-25T08:10:58.449Z</time></trkpt><trkpt lat="43.8359787" lon="11.2408302"><ele>367.0</ele><time>2026-04-25T08:11:01.444Z</time></trkpt><trkpt lat="43.8360214" lon="11.2409151"><ele>367.0</ele><time>2026-04-25T08:11:04.444Z</time></trkpt><trkpt lat="43.8360682" lon="11.2409875"><ele>367.0</ele><time>2026-04-25T08:11:07.445Z</time></trkpt><trkpt lat="43.8361131" lon="11.2410677"><ele>369.4285714285714</ele><time>2026-04-25T08:11:11.446Z</time></trkpt><trkpt lat="43.8361571" lon="11.24115"><ele>371.8571428571429</ele><time>2026-04-25T08:11:17.444Z</time></trkpt><trkpt lat="43.8362002" lon="11.2412193"><ele>374.2857142857143</ele><time>2026-04-25T08:11:23.44Z</time></trkpt><trkpt lat="43.8362508" lon="11.2412841"><ele>376.71428571428567</ele><time>2026-04-25T08:11:28.44Z</time></trkpt><trkpt lat="43.8362612" lon="11.2413796"><ele>379.1428571428571</ele><time>2026-04-25T08:11:37.445Z</time></trkpt><trkpt lat="43.8362522" lon="11.2414849"><ele>381.57142857142856</ele><time>2026-04-25T08:11:45.443Z</time></trkpt><trkpt lat="43.8362357" lon="11.2415862"><ele>384.0</ele><time>2026-04-25T08:11:49.44Z</time></trkpt><trkpt lat="43.8362508" lon="11.2416873"><ele>383.99999999999994</ele><time>2026-04-25T08:11:55.476Z</time></trkpt><trkpt lat="43.8362596" lon="11.2418072"><ele>384.0</ele><time>2026-04-25T08:11:58.433Z</time></trkpt><trkpt lat="43.8362796" lon="11.2419022"><ele>384.0</ele><time>2026-04-25T08:12:01.436Z</time></trkpt><trkpt lat="43.8362784" lon="11.2419997"><ele>384.0</ele><time>2026-04-25T08:12:04.439Z</time></trkpt><trkpt lat="43.8362737" lon="11.2420935"><ele>384.0</ele><time>2026-04-25T08:12:08.441Z</time></trkpt><trkpt lat="43.8362742" lon="11.2421809"><ele>383.99999999999994</ele><time>2026-04-25T08:12:12.437Z</time></trkpt><trkpt lat="43.8362605" lon="11.2422881"><ele>384.0</ele><time>2026-04-25T08:12:18.454Z</time></trkpt><trkpt lat="43.8362381" lon="11.2423802"><ele>384.57142857142856</ele><time>2026-04-25T08:12:23.452Z</time></trkpt><trkpt lat="43.8362061" lon="11.2424831"><ele>385.1428571428571</ele><time>2026-04-25T08:12:28.449Z</time></trkpt><trkpt lat="43.836199" lon="11.2425849"><ele>385.71428571428567</ele><time>2026-04-25T08:12:35.461Z</time></trkpt><trkpt lat="43.8361802" lon="11.2426772"><ele>386.2857142857143</ele><time>2026-04-25T08:12:39.454Z</time></trkpt><trkpt lat="43.8361524" lon="11.2427634"><ele>386.8571428571429</ele><time>2026-04-25T08:12:45.429Z</time></trkpt><trkpt lat="43.8361384" lon="11.2428616"><ele>387.4285714285714</ele><time>2026-04-25T08:12:48.438Z</time></trkpt><trkpt lat="43.8361027" lon="11.2429504"><ele>388.0</ele><time>2026-04-25T08:12:54.458Z</time></trkpt><trkpt lat="43.8360595" lon="11.2430199"><ele>388.0</ele><time>2026-04-25T08:12:59.454Z</time></trkpt><trkpt lat="43.8360397" lon="11.2431132"><ele>388.0</ele><time>2026-04-25T08:13:04.458Z</time></trkpt><trkpt lat="43.8360207" lon="11.2432028"><ele>388.0</ele><time>2026-04-25T08:13:08.436Z</time></trkpt><trkpt lat="43.835984" lon="11.2432945"><ele>388.0</ele><time>2026-04-25T08:13:13.458Z</time></trkpt><trkpt lat="43.8359487" lon="11.243378"><ele>388.0</ele><time>2026-04-25T08:13:22.454Z</time></trkpt><trkpt lat="43.8359277" lon="11.2434748"><ele>388.0</ele><time>2026-04-25T08:13:28.437Z</time></trkpt><trkpt lat="43.8359051" lon="11.2435895"><ele>388.0</ele><time>2026-04-25T08:13:31.425Z</time></trkpt><trkpt lat="43.8358713" lon="11.2436917"><ele>388.0</ele><time>2026-04-25T08:13:59.459Z</time></trkpt><trkpt lat="43.8358452" lon="11.2437795"><ele>388.0</ele><time>2026-04-25T08:14:05.469Z</time></trkpt><trkpt lat="43.8359086" lon="11.2438038"><ele>388.0</ele><time>2026-04-25T08:14:14.455Z</time></trkpt><trkpt lat="43.8359691" lon="11.2438308"><ele>388.0</ele><time>2026-04-25T08:14:19.459Z</time></trkpt><trkpt lat="43.8360359" lon="11.2437986"><ele>388.0</ele><time>2026-04-25T08:14:24.451Z</time></trkpt><trkpt lat="43.8360988" lon="11.2437524"><ele>388.0</ele><time>2026-04-25T08:14:28.456Z</time></trkpt><trkpt lat="43.8361392" lon="11.2436829"><ele>388.0</ele><time>2026-04-25T08:14:32.459Z</time></trkpt><trkpt lat="43.836085" lon="11.2437363"><ele>389.6666666666667</ele><time>2026-04-25T08:16:44.445Z</time></trkpt><trkpt lat="43.8361253" lon="11.2436549"><ele>391.33333333333337</ele><time>2026-04-25T08:17:51.433Z</time></trkpt><trkpt lat="43.8361374" lon="11.2435613"><ele>393.0</ele><time>2026-04-25T08:17:56.449Z</time></trkpt><trkpt lat="43.8361852" lon="11.2434926"><ele>394.66666666666663</ele><time>2026-04-25T08:18:01.445Z</time></trkpt><trkpt lat="43.8362631" lon="11.2434348"><ele>396.3333333333333</ele><time>2026-04-25T08:18:04.446Z</time></trkpt><trkpt lat="43.8363313" lon="11.2433661"><ele>398.0</ele><time>2026-04-25T08:18:06.458Z</time></trkpt><trkpt lat="43.8363829" lon="11.2433019"><ele>397.99999999999994</ele><time>2026-04-25T08:18:09.444Z</time></trkpt><trkpt lat="43.8364221" lon="11.2432332"><ele>398.0</ele><time>2026-04-25T08:18:12.445Z</time></trkpt><trkpt lat="43.8364676" lon="11.2431473"><ele>398.0</ele><time>2026-04-25T08:18:15.452Z</time></trkpt><trkpt lat="43.836527" lon="11.2430748"><ele>398.0</ele><time>2026-04-25T08:18:18.455Z</time></trkpt><trkpt lat="43.836584" lon="11.2429984"><ele>398.0</ele><time>2026-04-25T08:18:21.442Z</time></trkpt><trkpt lat="43.8366354" lon="11.2429267"><ele>397.99999999999994</ele><time>2026-04-25T08:18:24.451Z</time></trkpt><trkpt lat="43.8366812" lon="11.2428565"><ele>398.0</ele><time>2026-04-25T08:18:27.451Z</time></trkpt><trkpt lat="43.8367198" lon="11.2427762"><ele>396.57142857142856</ele><time>2026-04-25T08:18:31.444Z</time></trkpt><trkpt lat="43.8367526" lon="11.2426872"><ele>395.1428571428571</ele><time>2026-04-25T08:18:35.45Z</time></trkpt><trkpt lat="43.8367805" lon="11.2425889"><ele>393.71428571428567</ele><time>2026-04-25T08:18:39.437Z</time></trkpt><trkpt lat="43.8368187" lon="11.2424996"><ele>392.2857142857143</ele><time>2026-04-25T08:18:42.438Z</time></trkpt><trkpt lat="43.8368559" lon="11.2424061"><ele>390.8571428571429</ele><time>2026-04-25T08:18:48.44Z</time></trkpt><trkpt lat="43.8368943" lon="11.2423284"><ele>389.4285714285714</ele><time>2026-04-25T08:18:52.433Z</time></trkpt><trkpt lat="43.8369549" lon="11.2422776"><ele>388.0</ele><time>2026-04-25T08:18:55.432Z</time></trkpt><trkpt lat="43.8369763" lon="11.242192"><ele>391.85714285714283</ele><time>2026-04-25T08:19:00.444Z</time></trkpt><trkpt lat="43.836998" lon="11.2420985"><ele>395.7142857142857</ele><time>2026-04-25T08:19:05.449Z</time></trkpt><trkpt lat="43.837008" lon="11.2419956"><ele>399.57142857142856</ele><time>2026-04-25T08:19:08.448Z</time></trkpt><trkpt lat="43.8370539" lon="11.2419019"><ele>403.42857142857144</ele><time>2026-04-25T08:19:13.448Z</time></trkpt><trkpt lat="43.8370654" lon="11.2418071"><ele>407.28571428571433</ele><time>2026-04-25T08:19:17.451Z</time></trkpt><trkpt lat="43.8370915" lon="11.2417145"><ele>411.14285714285717</ele><time>2026-04-25T08:19:22.454Z</time></trkpt><trkpt lat="43.8370907" lon="11.2416198"><ele>415.0</ele><time>2026-04-25T08:19:29.45Z</time></trkpt><trkpt lat="43.8371144" lon="11.2415315"><ele>415.14285714285717</ele><time>2026-04-25T08:19:35.454Z</time></trkpt><trkpt lat="43.8371458" lon="11.2414189"><ele>415.28571428571433</ele><time>2026-04-25T08:19:47.417Z</time></trkpt><trkpt lat="43.8371745" lon="11.2413377"><ele>415.42857142857144</ele><time>2026-04-25T08:19:48.423Z</time></trkpt><trkpt lat="43.8371762" lon="11.2412476"><ele>415.57142857142856</ele><time>2026-04-25T08:19:52.441Z</time></trkpt><trkpt lat="43.8371926" lon="11.2411567"><ele>415.7142857142857</ele><time>2026-04-25T08:20:00.445Z</time></trkpt><trkpt lat="43.8371963" lon="11.2410636"><ele>415.85714285714283</ele><time>2026-04-25T08:20:06.439Z</time></trkpt><trkpt lat="43.8372453" lon="11.2410058"><ele>416.0</ele><time>2026-04-25T08:20:12.447Z</time></trkpt><trkpt lat="43.8372482" lon="11.2409148"><ele>416.0</ele><time>2026-04-25T08:20:20.438Z</time></trkpt><trkpt lat="43.8372683" lon="11.240829"><ele>416.0</ele><time>2026-04-25T08:20:26.443Z</time></trkpt><trkpt lat="43.8372734" lon="11.2407387"><ele>416.0</ele><time>2026-04-25T08:20:29.448Z</time></trkpt><trkpt lat="43.8372732" lon="11.2406503"><ele>416.0</ele><time>2026-04-25T08:20:33.445Z</time></trkpt><trkpt lat="43.8372937" lon="11.2405521"><ele>416.0</ele><time>2026-04-25T08:20:39.448Z</time></trkpt><trkpt lat="43.8373207" lon="11.240471"><ele>416.0</ele><time>2026-04-25T08:20:43.444Z</time></trkpt><trkpt lat="43.8373664" lon="11.2403904"><ele>416.0</ele><time>2026-04-25T08:20:47.447Z</time></trkpt><trkpt lat="43.8373855" lon="11.2402878"><ele>415.57142857142856</ele><time>2026-04-25T08:20:51.451Z</time></trkpt><trkpt lat="43.8373787" lon="11.2401818"><ele>415.14285714285717</ele><time>2026-04-25T08:20:55.447Z</time></trkpt><trkpt lat="43.8373833" lon="11.2400905"><ele>414.7142857142857</ele><time>2026-04-25T08:21:00.454Z</time></trkpt><trkpt lat="43.8374099" lon="11.2400065"><ele>414.2857142857143</ele><time>2026-04-25T08:21:05.463Z</time></trkpt><trkpt lat="43.8374573" lon="11.239925"><ele>413.8571428571429</ele><time>2026-04-25T08:21:10.457Z</time></trkpt><trkpt lat="43.8375063" lon="11.2398651"><ele>413.42857142857144</ele><time>2026-04-25T08:21:14.448Z</time></trkpt><trkpt lat="43.8375606" lon="11.2398155"><ele>413.0</ele><time>2026-04-25T08:21:21.452Z</time></trkpt><trkpt lat="43.8376304" lon="11.2397826"><ele>413.85714285714283</ele><time>2026-04-25T08:21:25.458Z</time></trkpt><trkpt lat="43.8376953" lon="11.2397668"><ele>414.7142857142857</ele><time>2026-04-25T08:21:30.454Z</time></trkpt><trkpt lat="43.8377614" lon="11.2397907"><ele>415.57142857142856</ele><time>2026-04-25T08:21:37.456Z</time></trkpt><trkpt lat="43.8377981" lon="11.239863"><ele>416.42857142857144</ele><time>2026-04-25T08:21:43.447Z</time></trkpt><trkpt lat="43.8377737" lon="11.2399541"><ele>417.2857142857143</ele><time>2026-04-25T08:21:48.439Z</time></trkpt><trkpt lat="43.8378255" lon="11.2398543"><ele>418.1428571428571</ele><time>2026-04-25T08:21:49.442Z</time></trkpt><trkpt lat="43.8378747" lon="11.2399343"><ele>419.0</ele><time>2026-04-25T08:21:58.459Z</time></trkpt><trkpt lat="43.8379111" lon="11.2400193"><ele>421.1428571428571</ele><time>2026-04-25T08:22:02.431Z</time></trkpt><trkpt lat="43.8379651" lon="11.2400963"><ele>423.2857142857143</ele><time>2026-04-25T08:22:05.445Z</time></trkpt><trkpt lat="43.8380125" lon="11.2401626"><ele>425.42857142857144</ele><time>2026-04-25T08:22:10.455Z</time></trkpt><trkpt lat="43.8380596" lon="11.240234"><ele>427.57142857142856</ele><time>2026-04-25T08:22:16.456Z</time></trkpt><trkpt lat="43.8381076" lon="11.2403072"><ele>429.7142857142857</ele><time>2026-04-25T08:22:23.455Z</time></trkpt><trkpt lat="43.8381426" lon="11.240381"><ele>431.85714285714283</ele><time>2026-04-25T08:22:29.424Z</time></trkpt><trkpt lat="43.8381844" lon="11.2404884"><ele>434.0</ele><time>2026-04-25T08:22:31.434Z</time></trkpt><trkpt lat="43.8381914" lon="11.240584"><ele>434.85714285714283</ele><time>2026-04-25T08:22:35.469Z</time></trkpt><trkpt lat="43.8382208" lon="11.2406647"><ele>435.7142857142857</ele><time>2026-04-25T08:22:40.46Z</time></trkpt><trkpt lat="43.8382687" lon="11.2407244"><ele>436.57142857142856</ele><time>2026-04-25T08:22:46.459Z</time></trkpt><trkpt lat="43.8382969" lon="11.2408149"><ele>437.42857142857144</ele><time>2026-04-25T08:22:53.45Z</time></trkpt><trkpt lat="43.8383373" lon="11.2408935"><ele>438.2857142857143</ele><time>2026-04-25T08:22:57.454Z</time></trkpt><trkpt lat="43.8383878" lon="11.2409644"><ele>439.1428571428571</ele><time>2026-04-25T08:23:02.458Z</time></trkpt><trkpt lat="43.8384087" lon="11.241055"><ele>440.0</ele><time>2026-04-25T08:23:38.459Z</time></trkpt><trkpt lat="43.8384425" lon="11.2411288"><ele>442.2857142857142</ele><time>2026-04-25T08:23:53.434Z</time></trkpt><trkpt lat="43.8384783" lon="11.2412014"><ele>444.57142857142856</ele><time>2026-04-25T08:24:01.435Z</time></trkpt><trkpt lat="43.83853" lon="11.2412516"><ele>446.85714285714283</ele><time>2026-04-25T08:24:32.455Z</time></trkpt><trkpt lat="43.838567" lon="11.2413333"><ele>449.1428571428571</ele><time>2026-04-25T08:24:44.46Z</time></trkpt><trkpt lat="43.8385959" lon="11.2414109"><ele>451.4285714285714</ele><time>2026-04-25T08:24:52.463Z</time></trkpt><trkpt lat="43.83864" lon="11.2414815"><ele>453.71428571428567</ele><time>2026-04-25T08:24:58.469Z</time></trkpt><trkpt lat="43.8386862" lon="11.2415546"><ele>456.0</ele><time>2026-04-25T08:25:04.468Z</time></trkpt><trkpt lat="43.8387216" lon="11.2416486"><ele>457.4285714285714</ele><time>2026-04-25T08:25:12.437Z</time></trkpt><trkpt lat="43.8387819" lon="11.2417436"><ele>458.8571428571428</ele><time>2026-04-25T08:25:15.436Z</time></trkpt><trkpt lat="43.838846" lon="11.2417621"><ele>460.2857142857143</ele><time>2026-04-25T08:25:18.454Z</time></trkpt><trkpt lat="43.8389139" lon="11.2417615"><ele>461.71428571428567</ele><time>2026-04-25T08:25:24.45Z</time></trkpt><trkpt lat="43.8389701" lon="11.2418255"><ele>463.1428571428571</ele><time>2026-04-25T08:25:29.454Z</time></trkpt><trkpt lat="43.8390297" lon="11.2419013"><ele>464.57142857142856</ele><time>2026-04-25T08:25:39.451Z</time></trkpt><trkpt lat="43.8390732" lon="11.2419742"><ele>466.0</ele><time>2026-04-25T08:25:45.457Z</time></trkpt><trkpt lat="43.8391407" lon="11.2420297"><ele>466.0</ele><time>2026-04-25T08:25:53.458Z</time></trkpt><trkpt lat="43.839196" lon="11.2420755"><ele>466.0</ele><time>2026-04-25T08:25:57.441Z</time></trkpt><trkpt lat="43.8392598" lon="11.2421039"><ele>466.0</ele><time>2026-04-25T08:25:59.434Z</time></trkpt><trkpt lat="43.8393226" lon="11.2421152"><ele>466.0</ele><time>2026-04-25T08:26:03.453Z</time></trkpt><trkpt lat="43.8393703" lon="11.2422006"><ele>466.0</ele><time>2026-04-25T08:26:14.457Z</time></trkpt><trkpt lat="43.8394163" lon="11.2422741"><ele>466.0</ele><time>2026-04-25T08:26:23.446Z</time></trkpt><trkpt lat="43.8394675" lon="11.2423759"><ele>466.0</ele><time>2026-04-25T08:26:32.438Z</time></trkpt><trkpt lat="43.8394997" lon="11.2424665"><ele>469.28571428571433</ele><time>2026-04-25T08:26:38.442Z</time></trkpt><trkpt lat="43.8395622" lon="11.2425019"><ele>472.57142857142856</ele><time>2026-04-25T08:26:43.449Z</time></trkpt><trkpt lat="43.8396405" lon="11.2425109"><ele>475.8571428571429</ele><time>2026-04-25T08:26:51.447Z</time></trkpt><trkpt lat="43.8397055" lon="11.24247"><ele>479.14285714285717</ele><time>2026-04-25T08:26:59.45Z</time></trkpt><trkpt lat="43.8397769" lon="11.2424604"><ele>482.42857142857144</ele><time>2026-04-25T08:27:07.439Z</time></trkpt><trkpt lat="43.8398438" lon="11.2424337"><ele>485.7142857142857</ele><time>2026-04-25T08:27:12.454Z</time></trkpt><trkpt lat="43.8399091" lon="11.2424032"><ele>489.0</ele><time>2026-04-25T08:27:18.462Z</time></trkpt><trkpt lat="43.8399787" lon="11.2423959"><ele>489.0</ele><time>2026-04-25T08:27:26.454Z</time></trkpt><trkpt lat="43.8400452" lon="11.2423942"><ele>489.0</ele><time>2026-04-25T08:27:31.456Z</time></trkpt><trkpt lat="43.8401197" lon="11.2423857"><ele>489.0</ele><time>2026-04-25T08:27:39.458Z</time></trkpt><trkpt lat="43.8401964" lon="11.2423889"><ele>489.0</ele><time>2026-04-25T08:28:13.443Z</time></trkpt><trkpt lat="43.8401369" lon="11.242351"><ele>489.0</ele><time>2026-04-25T08:28:21.422Z</time></trkpt><trkpt lat="43.840162" lon="11.2424344"><ele>489.0</ele><time>2026-04-25T08:28:26.431Z</time></trkpt><trkpt lat="43.8402766" lon="11.2424404"><ele>489.5714285714286</ele><time>2026-04-25T08:28:45.449Z</time></trkpt><trkpt lat="43.8403557" lon="11.2424356"><ele>490.1428571428572</ele><time>2026-04-25T08:28:49.428Z</time></trkpt><trkpt lat="43.840422" lon="11.2424063"><ele>490.7142857142857</ele><time>2026-04-25T08:28:51.433Z</time></trkpt><trkpt lat="43.8404699" lon="11.2424723"><ele>491.28571428571433</ele><time>2026-04-25T08:28:58.452Z</time></trkpt><trkpt lat="43.8405361" lon="11.2424849"><ele>491.8571428571429</ele><time>2026-04-25T08:29:02.451Z</time></trkpt><trkpt lat="43.8406036" lon="11.2425184"><ele>492.42857142857144</ele><time>2026-04-25T08:29:08.444Z</time></trkpt><trkpt lat="43.8406656" lon="11.2425354"><ele>493.0</ele><time>2026-04-25T08:29:21.454Z</time></trkpt><trkpt lat="43.8407403" lon="11.2425465"><ele>493.0</ele><time>2026-04-25T08:29:27.483Z</time></trkpt><trkpt lat="43.8408057" lon="11.2425541"><ele>493.0</ele><time>2026-04-25T08:29:31.447Z</time></trkpt><trkpt lat="43.8408784" lon="11.242566"><ele>493.0</ele><time>2026-04-25T08:29:35.456Z</time></trkpt><trkpt lat="43.8409422" lon="11.2425681"><ele>493.0</ele><time>2026-04-25T08:29:39.444Z</time></trkpt><trkpt lat="43.8410288" lon="11.2425698"><ele>493.0</ele><time>2026-04-25T08:29:43.445Z</time></trkpt><trkpt lat="43.8410996" lon="11.2425742"><ele>493.0</ele><time>2026-04-25T08:29:47.44Z</time></trkpt><trkpt lat="43.8411832" lon="11.2425466"><ele>493.0</ele><time>2026-04-25T08:29:51.443Z</time></trkpt><trkpt lat="43.8412624" lon="11.2425063"><ele>492.6666666666667</ele><time>2026-04-25T08:29:54.443Z</time></trkpt><trkpt lat="43.8413413" lon="11.2424697"><ele>492.33333333333337</ele><time>2026-04-25T08:29:57.451Z</time></trkpt><trkpt lat="43.8414278" lon="11.242463"><ele>492.0</ele><time>2026-04-25T08:30:00.444Z</time></trkpt><trkpt lat="43.841515" lon="11.242462"><ele>491.66666666666663</ele><time>2026-04-25T08:30:03.444Z</time></trkpt><trkpt lat="43.8415884" lon="11.2424749"><ele>491.3333333333333</ele><time>2026-04-25T08:30:06.444Z</time></trkpt><trkpt lat="43.8416548" lon="11.242478"><ele>491.0</ele><time>2026-04-25T08:30:10.445Z</time></trkpt><trkpt lat="43.8417204" lon="11.2424815"><ele>491.0</ele><time>2026-04-25T08:30:13.445Z</time></trkpt><trkpt lat="43.841792" lon="11.2425102"><ele>490.99999999999994</ele><time>2026-04-25T08:30:16.44Z</time></trkpt><trkpt lat="43.8418537" lon="11.242537"><ele>491.0</ele><time>2026-04-25T08:30:20.455Z</time></trkpt><trkpt lat="43.8419168" lon="11.2425891"><ele>491.0</ele><time>2026-04-25T08:30:30.446Z</time></trkpt><trkpt lat="43.8419783" lon="11.2426085"><ele>490.99999999999994</ele><time>2026-04-25T08:30:34.442Z</time></trkpt><trkpt lat="43.8420487" lon="11.242603"><ele>491.0</ele><time>2026-04-25T08:30:37.445Z</time></trkpt><trkpt lat="43.8421161" lon="11.2426206"><ele>491.0</ele><time>2026-04-25T08:30:40.447Z</time></trkpt><trkpt lat="43.8421804" lon="11.2426522"><ele>491.1428571428571</ele><time>2026-04-25T08:30:44.44Z</time></trkpt><trkpt lat="43.8422475" lon="11.2426675"><ele>491.2857142857142</ele><time>2026-04-25T08:30:48.45Z</time></trkpt><trkpt lat="43.8423111" lon="11.2426649"><ele>491.42857142857144</ele><time>2026-04-25T08:30:52.45Z</time></trkpt><trkpt lat="43.8423879" lon="11.2426794"><ele>491.57142857142856</ele><time>2026-04-25T08:30:57.455Z</time></trkpt><trkpt lat="43.8424551" lon="11.242708"><ele>491.7142857142857</ele><time>2026-04-25T08:31:01.446Z</time></trkpt><trkpt lat="43.8425369" lon="11.2427146"><ele>491.8571428571429</ele><time>2026-04-25T08:31:07.446Z</time></trkpt><trkpt lat="43.8426045" lon="11.2427234"><ele>492.00000000000006</ele><time>2026-04-25T08:31:10.447Z</time></trkpt><trkpt lat="43.8426697" lon="11.2427288"><ele>492.00000000000006</ele><time>2026-04-25T08:31:14.446Z</time></trkpt><trkpt lat="43.8427376" lon="11.2427377"><ele>492.0</ele><time>2026-04-25T08:31:18.444Z</time></trkpt><trkpt lat="43.8428116" lon="11.2427306"><ele>492.00000000000006</ele><time>2026-04-25T08:31:22.453Z</time></trkpt><trkpt lat="43.8428827" lon="11.2427194"><ele>492.00000000000006</ele><time>2026-04-25T08:31:26.444Z</time></trkpt><trkpt lat="43.8429607" lon="11.2427129"><ele>492.0</ele><time>2026-04-25T08:31:30.469Z</time></trkpt><trkpt lat="43.8430263" lon="11.2426836"><ele>492.00000000000006</ele><time>2026-04-25T08:31:34.44Z</time></trkpt><trkpt lat="43.8430996" lon="11.2426556"><ele>492.00000000000006</ele><time>2026-04-25T08:31:38.447Z</time></trkpt><trkpt lat="43.8431699" lon="11.2426396"><ele>492.00000000000006</ele><time>2026-04-25T08:31:41.432Z</time></trkpt><trkpt lat="43.8432331" lon="11.2426586"><ele>492.0</ele><time>2026-04-25T08:31:43.434Z</time></trkpt><trkpt lat="43.8433206" lon="11.2426612"><ele>492.00000000000006</ele><time>2026-04-25T08:31:46.444Z</time></trkpt><trkpt lat="43.8433846" lon="11.2426291"><ele>492.00000000000006</ele><time>2026-04-25T08:31:52.445Z</time></trkpt><trkpt lat="43.8434493" lon="11.2426106"><ele>492.0</ele><time>2026-04-25T08:31:57.455Z</time></trkpt><trkpt lat="43.8435174" lon="11.2426076"><ele>492.00000000000006</ele><time>2026-04-25T08:32:01.458Z</time></trkpt><trkpt lat="43.8435836" lon="11.242618"><ele>492.00000000000006</ele><time>2026-04-25T08:32:05.436Z</time></trkpt><trkpt lat="43.8436447" lon="11.2425919"><ele>493.4285714285715</ele><time>2026-04-25T08:32:09.43Z</time></trkpt><trkpt lat="43.8437064" lon="11.2425583"><ele>494.8571428571429</ele><time>2026-04-25T08:32:14.443Z</time></trkpt><trkpt lat="43.8437722" lon="11.2425872"><ele>496.2857142857143</ele><time>2026-04-25T08:32:18.439Z</time></trkpt><trkpt lat="43.84383" lon="11.2425521"><ele>497.7142857142857</ele><time>2026-04-25T08:32:23.456Z</time></trkpt><trkpt lat="43.8438961" lon="11.2425419"><ele>499.1428571428571</ele><time>2026-04-25T08:32:59.455Z</time></trkpt><trkpt lat="43.8439748" lon="11.2425501"><ele>500.5714285714285</ele><time>2026-04-25T08:33:04.455Z</time></trkpt><trkpt lat="43.8440537" lon="11.242541"><ele>501.99999999999994</ele><time>2026-04-25T08:33:08.456Z</time></trkpt><trkpt lat="43.8441195" lon="11.2425176"><ele>502.00000000000006</ele><time>2026-04-25T08:33:12.46Z</time></trkpt><trkpt lat="43.8441856" lon="11.2425373"><ele>502.0</ele><time>2026-04-25T08:33:14.458Z</time></trkpt><trkpt lat="43.8442507" lon="11.2425523"><ele>502.0</ele><time>2026-04-25T08:33:16.455Z</time></trkpt><trkpt lat="43.8443174" lon="11.242557"><ele>502.0</ele><time>2026-04-25T08:33:18.456Z</time></trkpt><trkpt lat="43.8443986" lon="11.242566"><ele>502.00000000000006</ele><time>2026-04-25T08:33:20.448Z</time></trkpt><trkpt lat="43.8445103" lon="11.2425939"><ele>502.0</ele><time>2026-04-25T08:33:22.452Z</time></trkpt><trkpt lat="43.8445912" lon="11.2426336"><ele>500.1428571428571</ele><time>2026-04-25T08:33:24.448Z</time></trkpt><trkpt lat="43.8446625" lon="11.242693"><ele>498.2857142857143</ele><time>2026-04-25T08:33:26.44Z</time></trkpt><trkpt lat="43.8447184" lon="11.2427512"><ele>496.42857142857144</ele><time>2026-04-25T08:33:28.443Z</time></trkpt><trkpt lat="43.8447741" lon="11.2427983"><ele>494.57142857142856</ele><time>2026-04-25T08:33:30.446Z</time></trkpt><trkpt lat="43.8448377" lon="11.2428427"><ele>492.7142857142858</ele><time>2026-04-25T08:33:34.462Z</time></trkpt><trkpt lat="43.8448977" lon="11.2428942"><ele>490.8571428571429</ele><time>2026-04-25T08:33:39.444Z</time></trkpt><trkpt lat="43.8449605" lon="11.2429496"><ele>489.0</ele><time>2026-04-25T08:33:43.445Z</time></trkpt><trkpt lat="43.845012" lon="11.2430148"><ele>489.0</ele><time>2026-04-25T08:33:46.437Z</time></trkpt><trkpt lat="43.8450518" lon="11.2431001"><ele>489.00000000000006</ele><time>2026-04-25T08:33:49.441Z</time></trkpt><trkpt lat="43.8450752" lon="11.2431891"><ele>489.0</ele><time>2026-04-25T08:33:51.442Z</time></trkpt><trkpt lat="43.8451031" lon="11.243281"><ele>489.0</ele><time>2026-04-25T08:33:53.441Z</time></trkpt><trkpt lat="43.8451532" lon="11.2433923"><ele>489.00000000000006</ele><time>2026-04-25T08:33:56.436Z</time></trkpt><trkpt lat="43.845191" lon="11.243476"><ele>489.0</ele><time>2026-04-25T08:34:00.446Z</time></trkpt><trkpt lat="43.8452258" lon="11.2435589"><ele>489.0</ele><time>2026-04-25T08:34:05.463Z</time></trkpt><trkpt lat="43.845272" lon="11.2436414"><ele>490.14285714285717</ele><time>2026-04-25T08:34:11.44Z</time></trkpt><trkpt lat="43.845317" lon="11.2437144"><ele>491.28571428571433</ele><time>2026-04-25T08:34:15.449Z</time></trkpt><trkpt lat="43.845379" lon="11.2437768"><ele>492.42857142857144</ele><time>2026-04-25T08:34:20.445Z</time></trkpt><trkpt lat="43.8454396" lon="11.2438169"><ele>493.57142857142856</ele><time>2026-04-25T08:34:25.419Z</time></trkpt><trkpt lat="43.845494" lon="11.2438648"><ele>494.7142857142857</ele><time>2026-04-25T08:34:27.427Z</time></trkpt><trkpt lat="43.8455466" lon="11.2439418"><ele>495.8571428571429</ele><time>2026-04-25T08:34:30.43Z</time></trkpt><trkpt lat="43.8456091" lon="11.2439833"><ele>497.0</ele><time>2026-04-25T08:34:35.437Z</time></trkpt><trkpt lat="43.8456725" lon="11.2440001"><ele>500.2857142857143</ele><time>2026-04-25T08:34:39.44Z</time></trkpt><trkpt lat="43.8457394" lon="11.2440131"><ele>503.57142857142856</ele><time>2026-04-25T08:34:44.441Z</time></trkpt><trkpt lat="43.8458026" lon="11.2440408"><ele>506.8571428571429</ele><time>2026-04-25T08:34:50.443Z</time></trkpt><trkpt lat="43.8458708" lon="11.2440744"><ele>510.14285714285717</ele><time>2026-04-25T08:34:57.444Z</time></trkpt><trkpt lat="43.8459406" lon="11.244091"><ele>513.4285714285714</ele><time>2026-04-25T08:35:02.445Z</time></trkpt><trkpt lat="43.8460019" lon="11.2441267"><ele>516.7142857142858</ele><time>2026-04-25T08:35:06.446Z</time></trkpt><trkpt lat="43.8460681" lon="11.2441611"><ele>520.0</ele><time>2026-04-25T08:35:11.441Z</time></trkpt><trkpt lat="43.8461343" lon="11.2441924"><ele>520.0000000000001</ele><time>2026-04-25T08:35:17.438Z</time></trkpt><trkpt lat="43.8462023" lon="11.2442082"><ele>520.0</ele><time>2026-04-25T08:35:22.439Z</time></trkpt><trkpt lat="43.8462515" lon="11.2442655"><ele>520.0</ele><time>2026-04-25T08:35:29.44Z</time></trkpt><trkpt lat="43.8462193" lon="11.2443455"><ele>520.0</ele><time>2026-04-25T08:35:37.441Z</time></trkpt><trkpt lat="43.8461677" lon="11.2444087"><ele>520.0</ele><time>2026-04-25T08:35:47.435Z</time></trkpt><trkpt lat="43.8461063" lon="11.2444345"><ele>520.0000000000001</ele><time>2026-04-25T08:35:53.433Z</time></trkpt><trkpt lat="43.8460346" lon="11.2444409"><ele>520.0</ele><time>2026-04-25T08:36:00.441Z</time></trkpt><trkpt lat="43.8459696" lon="11.24447"><ele>520.4285714285714</ele><time>2026-04-25T08:36:08.441Z</time></trkpt><trkpt lat="43.8459058" lon="11.2444961"><ele>520.8571428571429</ele><time>2026-04-25T08:37:26.44Z</time></trkpt><trkpt lat="43.8458465" lon="11.2445344"><ele>521.2857142857142</ele><time>2026-04-25T08:37:38.443Z</time></trkpt><trkpt lat="43.845791" lon="11.2445788"><ele>521.7142857142858</ele><time>2026-04-25T08:37:49.446Z</time></trkpt><trkpt lat="43.845738" lon="11.2446329"><ele>522.1428571428571</ele><time>2026-04-25T08:38:09.442Z</time></trkpt><trkpt lat="43.8456882" lon="11.2446925"><ele>522.5714285714286</ele><time>2026-04-25T08:38:34.442Z</time></trkpt><trkpt lat="43.8456255" lon="11.244722"><ele>523.0</ele><time>2026-04-25T08:38:39.441Z</time></trkpt><trkpt lat="43.8455505" lon="11.2447335"><ele>522.9999999999999</ele><time>2026-04-25T08:38:46.445Z</time></trkpt><trkpt lat="43.8454864" lon="11.244712"><ele>523.0</ele><time>2026-04-25T08:38:52.446Z</time></trkpt><trkpt lat="43.8454269" lon="11.2446773"><ele>523.0</ele><time>2026-04-25T08:38:57.445Z</time></trkpt><trkpt lat="43.8453658" lon="11.2446555"><ele>523.0</ele><time>2026-04-25T08:39:02.451Z</time></trkpt><trkpt lat="43.8453012" lon="11.244654"><ele>523.0</ele><time>2026-04-25T08:39:36.444Z</time></trkpt><trkpt lat="43.8452243" lon="11.2446193"><ele>522.9999999999999</ele><time>2026-04-25T08:39:55.429Z</time></trkpt><trkpt lat="43.8451613" lon="11.2446037"><ele>523.0</ele><time>2026-04-25T08:39:57.431Z</time></trkpt><trkpt lat="43.8450992" lon="11.2445891"><ele>526.1666666666667</ele><time>2026-04-25T08:40:03.445Z</time></trkpt><trkpt lat="43.8450149" lon="11.2445705"><ele>529.3333333333334</ele><time>2026-04-25T08:40:08.449Z</time></trkpt><trkpt lat="43.8449423" lon="11.2445461"><ele>532.5</ele><time>2026-04-25T08:40:10.444Z</time></trkpt><trkpt lat="43.8448511" lon="11.2445435"><ele>535.6666666666666</ele><time>2026-04-25T08:40:12.444Z</time></trkpt><trkpt lat="43.8447695" lon="11.244534"><ele>538.8333333333333</ele><time>2026-04-25T08:40:14.442Z</time></trkpt><trkpt lat="43.8447011" lon="11.2445297"><ele>542.0</ele><time>2026-04-25T08:40:18.44Z</time></trkpt><trkpt lat="43.8446377" lon="11.2445725"><ele>542.0</ele><time>2026-04-25T08:40:22.452Z</time></trkpt><trkpt lat="43.8445701" lon="11.2446302"><ele>542.0</ele><time>2026-04-25T08:40:27.458Z</time></trkpt><trkpt lat="43.8445166" lon="11.244684"><ele>542.0</ele><time>2026-04-25T08:40:31.441Z</time></trkpt><trkpt lat="43.844503" lon="11.2447787"><ele>542.0</ele><time>2026-04-25T08:40:34.442Z</time></trkpt><trkpt lat="43.8444604" lon="11.2448527"><ele>542.0</ele><time>2026-04-25T08:40:39.459Z</time></trkpt><trkpt lat="43.8444139" lon="11.244916"><ele>542.0</ele><time>2026-04-25T08:40:42.45Z</time></trkpt><trkpt lat="43.8443592" lon="11.24498"><ele>542.0</ele><time>2026-04-25T08:40:47.465Z</time></trkpt><trkpt lat="43.8443062" lon="11.2450446"><ele>544.7142857142857</ele><time>2026-04-25T08:40:52.443Z</time></trkpt><trkpt lat="43.8442461" lon="11.2450919"><ele>547.4285714285714</ele><time>2026-04-25T08:40:59.442Z</time></trkpt><trkpt lat="43.8441925" lon="11.245146"><ele>550.1428571428571</ele><time>2026-04-25T08:41:05.443Z</time></trkpt><trkpt lat="43.8441257" lon="11.2451906"><ele>552.8571428571429</ele><time>2026-04-25T08:41:10.439Z</time></trkpt><trkpt lat="43.8440641" lon="11.2452211"><ele>555.5714285714286</ele><time>2026-04-25T08:41:15.43Z</time></trkpt><trkpt lat="43.844003" lon="11.2452691"><ele>558.2857142857142</ele><time>2026-04-25T08:41:19.435Z</time></trkpt><trkpt lat="43.8439422" lon="11.2453053"><ele>561.0</ele><time>2026-04-25T08:41:24.437Z</time></trkpt><trkpt lat="43.8438805" lon="11.245343"><ele>561.0</ele><time>2026-04-25T08:41:29.433Z</time></trkpt><trkpt lat="43.8438342" lon="11.2454048"><ele>561.0</ele><time>2026-04-25T08:41:34.436Z</time></trkpt><trkpt lat="43.84377" lon="11.2454285"><ele>561.0</ele><time>2026-04-25T08:41:38.428Z</time></trkpt><trkpt lat="43.8436948" lon="11.2454332"><ele>561.0</ele><time>2026-04-25T08:41:41.436Z</time></trkpt><trkpt lat="43.8436248" lon="11.245439"><ele>561.0</ele><time>2026-04-25T08:41:44.429Z</time></trkpt><trkpt lat="43.8435541" lon="11.2454509"><ele>561.0</ele><time>2026-04-25T08:41:51.436Z</time></trkpt><trkpt lat="43.8434859" lon="11.2454655"><ele>561.0</ele><time>2026-04-25T08:41:55.433Z</time></trkpt><trkpt lat="43.843414" lon="11.2454996"><ele>560.4285714285714</ele><time>2026-04-25T08:42:00.431Z</time></trkpt><trkpt lat="43.8433531" lon="11.2455269"><ele>559.8571428571428</ele><time>2026-04-25T08:42:04.432Z</time></trkpt><trkpt lat="43.8432921" lon="11.2455506"><ele>559.2857142857142</ele><time>2026-04-25T08:42:08.426Z</time></trkpt><trkpt lat="43.8432222" lon="11.2455793"><ele>558.7142857142857</ele><time>2026-04-25T08:42:13.431Z</time></trkpt><trkpt lat="43.8431544" lon="11.2456261"><ele>558.1428571428571</ele><time>2026-04-25T08:42:37.444Z</time></trkpt><trkpt lat="43.8431002" lon="11.2456757"><ele>557.5714285714286</ele><time>2026-04-25T08:42:53.454Z</time></trkpt><trkpt lat="43.843049" lon="11.2457352"><ele>557.0</ele><time>2026-04-25T08:43:18.451Z</time></trkpt><trkpt lat="43.8429849" lon="11.2457898"><ele>560.8571428571429</ele><time>2026-04-25T08:43:24.454Z</time></trkpt><trkpt lat="43.8429299" lon="11.2458412"><ele>564.7142857142857</ele><time>2026-04-25T08:43:29.45Z</time></trkpt><trkpt lat="43.8428733" lon="11.2459143"><ele>568.5714285714286</ele><time>2026-04-25T08:43:34.433Z</time></trkpt><trkpt lat="43.8428471" lon="11.2459975"><ele>572.4285714285714</ele><time>2026-04-25T08:43:39.414Z</time></trkpt><trkpt lat="43.8427835" lon="11.2459958"><ele>576.2857142857143</ele><time>2026-04-25T08:43:46.404Z</time></trkpt><trkpt lat="43.8427836" lon="11.2460845"><ele>580.1428571428571</ele><time>2026-04-25T08:44:11.432Z</time></trkpt><trkpt lat="43.842858" lon="11.2461316"><ele>584.0</ele><time>2026-04-25T08:45:45.439Z</time></trkpt><trkpt lat="43.8429664" lon="11.2460919"><ele>584.0</ele><time>2026-04-25T08:46:05.445Z</time></trkpt><trkpt lat="43.8429114" lon="11.2460482"><ele>584.0</ele><time>2026-04-25T08:46:10.423Z</time></trkpt><trkpt lat="43.8428567" lon="11.2460922"><ele>584.0</ele><time>2026-04-25T08:46:30.444Z</time></trkpt><trkpt lat="43.8428767" lon="11.2461809"><ele>584.0</ele><time>2026-04-25T08:46:35.44Z</time></trkpt><trkpt lat="43.8429446" lon="11.2462202"><ele>584.0</ele><time>2026-04-25T08:46:39.439Z</time></trkpt><trkpt lat="43.8430112" lon="11.2462364"><ele>584.0</ele><time>2026-04-25T08:46:42.429Z</time></trkpt><trkpt lat="43.8430845" lon="11.2462277"><ele>584.0</ele><time>2026-04-25T08:46:45.435Z</time></trkpt><trkpt lat="43.8431653" lon="11.2462192"><ele>584.0</ele><time>2026-04-25T08:46:48.437Z</time></trkpt><trkpt lat="43.843234" lon="11.2462229"><ele>584.0</ele><time>2026-04-25T08:46:51.431Z</time></trkpt><trkpt lat="43.8433109" lon="11.246221"><ele>584.0</ele><time>2026-04-25T08:46:54.429Z</time></trkpt><trkpt lat="43.8433808" lon="11.2462179"><ele>584.0</ele><time>2026-04-25T08:46:57.43Z</time></trkpt><trkpt lat="43.8434635" lon="11.2462061"><ele>584.0</ele><time>2026-04-25T08:47:01.4Z</time></trkpt><trkpt lat="43.8435275" lon="11.2462313"><ele>584.0</ele><time>2026-04-25T08:47:04.43Z</time></trkpt><trkpt lat="43.8436079" lon="11.2462212"><ele>584.0</ele><time>2026-04-25T08:47:08.423Z</time></trkpt><trkpt lat="43.8436885" lon="11.2462254"><ele>584.5</ele><time>2026-04-25T08:47:11.414Z</time></trkpt><trkpt lat="43.8437765" lon="11.2462278"><ele>585.0</ele><time>2026-04-25T08:47:14.425Z</time></trkpt><trkpt lat="43.8438595" lon="11.2462288"><ele>585.5</ele><time>2026-04-25T08:47:17.419Z</time></trkpt><trkpt lat="43.8439483" lon="11.2462393"><ele>586.0</ele><time>2026-04-25T08:47:20.405Z</time></trkpt><trkpt lat="43.8440162" lon="11.2462557"><ele>586.5</ele><time>2026-04-25T08:47:23.405Z</time></trkpt><trkpt lat="43.8441102" lon="11.2462489"><ele>587.0</ele><time>2026-04-25T08:47:26.417Z</time></trkpt><trkpt lat="43.844193" lon="11.2462506"><ele>588.0</ele><time>2026-04-25T08:47:29.419Z</time></trkpt><trkpt lat="43.8442986" lon="11.2462695"><ele>589.0</ele><time>2026-04-25T08:47:32.418Z</time></trkpt><trkpt lat="43.8443879" lon="11.2463238"><ele>590.0</ele><time>2026-04-25T08:47:34.411Z</time></trkpt><trkpt lat="43.8444835" lon="11.2463268"><ele>591.0</ele><time>2026-04-25T08:47:38.419Z</time></trkpt><trkpt lat="43.8445596" lon="11.2463372"><ele>592.0</ele><time>2026-04-25T08:47:41.419Z</time></trkpt><trkpt lat="43.8446439" lon="11.246329"><ele>592.0</ele><time>2026-04-25T08:47:45.41Z</time></trkpt><trkpt lat="43.8447243" lon="11.246301"><ele>592.0</ele><time>2026-04-25T08:47:48.412Z</time></trkpt><trkpt lat="43.8448245" lon="11.2462927"><ele>592.0</ele><time>2026-04-25T08:47:51.405Z</time></trkpt><trkpt lat="43.8448875" lon="11.2462783"><ele>592.0</ele><time>2026-04-25T08:47:53.406Z</time></trkpt><trkpt lat="43.844961" lon="11.2462623"><ele>592.0</ele><time>2026-04-25T08:47:56.408Z</time></trkpt><trkpt lat="43.8450357" lon="11.2462382"><ele>592.0</ele><time>2026-04-25T08:47:59.409Z</time></trkpt><trkpt lat="43.8450998" lon="11.2462004"><ele>591.7142857142858</ele><time>2026-04-25T08:48:02.413Z</time></trkpt><trkpt lat="43.845179" lon="11.2461575"><ele>591.4285714285714</ele><time>2026-04-25T08:48:05.423Z</time></trkpt><trkpt lat="43.8452455" lon="11.2461277"><ele>591.1428571428571</ele><time>2026-04-25T08:48:07.414Z</time></trkpt><trkpt lat="43.8453088" lon="11.2461133"><ele>590.8571428571429</ele><time>2026-04-25T08:48:09.416Z</time></trkpt><trkpt lat="43.8453869" lon="11.2460935"><ele>590.5714285714286</ele><time>2026-04-25T08:48:12.417Z</time></trkpt><trkpt lat="43.8454494" lon="11.2460801"><ele>590.2857142857143</ele><time>2026-04-25T08:48:14.415Z</time></trkpt><trkpt lat="43.8455195" lon="11.246058"><ele>590.0</ele><time>2026-04-25T08:48:16.414Z</time></trkpt><trkpt lat="43.8455866" lon="11.2460479"><ele>590.0</ele><time>2026-04-25T08:48:18.419Z</time></trkpt><trkpt lat="43.8456516" lon="11.246036"><ele>590.0</ele><time>2026-04-25T08:48:20.419Z</time></trkpt><trkpt lat="43.845738" lon="11.2460246"><ele>590.0</ele><time>2026-04-25T08:48:23.419Z</time></trkpt><trkpt lat="43.8458243" lon="11.2460386"><ele>590.0</ele><time>2026-04-25T08:48:26.42Z</time></trkpt><trkpt lat="43.8459049" lon="11.2460454"><ele>590.0</ele><time>2026-04-25T08:48:29.422Z</time></trkpt><trkpt lat="43.8459783" lon="11.24605"><ele>590.0</ele><time>2026-04-25T08:48:31.433Z</time></trkpt><trkpt lat="43.8460427" lon="11.2460859"><ele>588.1666666666666</ele><time>2026-04-25T08:48:33.423Z</time></trkpt><trkpt lat="43.8461217" lon="11.246124"><ele>586.3333333333333</ele><time>2026-04-25T08:48:36.422Z</time></trkpt><trkpt lat="43.8462008" lon="11.2461721"><ele>584.5</ele><time>2026-04-25T08:48:39.421Z</time></trkpt><trkpt lat="43.8462602" lon="11.246239"><ele>582.6666666666666</ele><time>2026-04-25T08:48:41.425Z</time></trkpt><trkpt lat="43.8463168" lon="11.2463035"><ele>580.8333333333334</ele><time>2026-04-25T08:48:43.417Z</time></trkpt><trkpt lat="43.8463692" lon="11.2463625"><ele>579.0</ele><time>2026-04-25T08:48:45.42Z</time></trkpt><trkpt lat="43.8464264" lon="11.2464118"><ele>582.3333333333334</ele><time>2026-04-25T08:48:47.418Z</time></trkpt><trkpt lat="43.846479" lon="11.2464625"><ele>585.6666666666666</ele><time>2026-04-25T08:48:49.42Z</time></trkpt><trkpt lat="43.846531" lon="11.2465321"><ele>589.0</ele><time>2026-04-25T08:48:51.41Z</time></trkpt><trkpt lat="43.8465794" lon="11.2465932"><ele>592.3333333333333</ele><time>2026-04-25T08:48:53.413Z</time></trkpt><trkpt lat="43.8466519" lon="11.2466488"><ele>595.6666666666666</ele><time>2026-04-25T08:48:56.416Z</time></trkpt><trkpt lat="43.8467322" lon="11.2466976"><ele>599.0</ele><time>2026-04-25T08:48:59.423Z</time></trkpt><trkpt lat="43.8468105" lon="11.246751"><ele>599.0</ele><time>2026-04-25T08:49:02.431Z</time></trkpt><trkpt lat="43.8468923" lon="11.2468097"><ele>599.0</ele><time>2026-04-25T08:49:05.421Z</time></trkpt><trkpt lat="43.8469776" lon="11.2468393"><ele>599.0</ele><time>2026-04-25T08:49:08.415Z</time></trkpt><trkpt lat="43.8470643" lon="11.2468883"><ele>599.0</ele><time>2026-04-25T08:49:11.418Z</time></trkpt><trkpt lat="43.8471229" lon="11.2469288"><ele>599.0</ele><time>2026-04-25T08:49:13.42Z</time></trkpt><trkpt lat="43.8471779" lon="11.2469774"><ele>599.0</ele><time>2026-04-25T08:49:15.417Z</time></trkpt><trkpt lat="43.8472721" lon="11.2470186"><ele>599.0</ele><time>2026-04-25T08:49:18.42Z</time></trkpt><trkpt lat="43.8473332" lon="11.2470647"><ele>599.0</ele><time>2026-04-25T08:49:20.416Z</time></trkpt><trkpt lat="43.84741" lon="11.247068"><ele>599.0</ele><time>2026-04-25T08:49:23.415Z</time></trkpt><trkpt lat="43.8474846" lon="11.2470574"><ele>599.0</ele><time>2026-04-25T08:49:26.405Z</time></trkpt><trkpt lat="43.8475586" lon="11.2470348"><ele>599.0</ele><time>2026-04-25T08:49:29.406Z</time></trkpt><trkpt lat="43.8476231" lon="11.247034"><ele>599.0</ele><time>2026-04-25T08:49:31.414Z</time></trkpt><trkpt lat="43.8476891" lon="11.2470178"><ele>599.0</ele><time>2026-04-25T08:49:33.431Z</time></trkpt><trkpt lat="43.847763" lon="11.2469693"><ele>599.6666666666666</ele><time>2026-04-25T08:49:36.416Z</time></trkpt><trkpt lat="43.8478415" lon="11.2469204"><ele>600.3333333333333</ele><time>2026-04-25T08:49:39.413Z</time></trkpt><trkpt lat="43.8479168" lon="11.2468626"><ele>601.0</ele><time>2026-04-25T08:49:42.405Z</time></trkpt><trkpt lat="43.8479786" lon="11.2468243"><ele>601.6666666666666</ele><time>2026-04-25T08:49:44.409Z</time></trkpt><trkpt lat="43.8480391" lon="11.2467952"><ele>602.3333333333334</ele><time>2026-04-25T08:49:46.407Z</time></trkpt><trkpt lat="43.8481224" lon="11.2467672"><ele>603.0</ele><time>2026-04-25T08:49:49.411Z</time></trkpt><trkpt lat="43.848187" lon="11.2467555"><ele>603.0</ele><time>2026-04-25T08:49:51.411Z</time></trkpt><trkpt lat="43.8482724" lon="11.2467701"><ele>603.0</ele><time>2026-04-25T08:49:54.416Z</time></trkpt><trkpt lat="43.8483457" lon="11.2467987"><ele>603.0</ele><time>2026-04-25T08:49:56.417Z</time></trkpt><trkpt lat="43.848437" lon="11.2468116"><ele>603.0</ele><time>2026-04-25T08:49:59.414Z</time></trkpt><trkpt lat="43.8485002" lon="11.24682"><ele>603.0</ele><time>2026-04-25T08:50:01.42Z</time></trkpt><trkpt lat="43.8485815" lon="11.2468491"><ele>603.0</ele><time>2026-04-25T08:50:03.414Z</time></trkpt><trkpt lat="43.8486501" lon="11.2468674"><ele>603.5714285714286</ele><time>2026-04-25T08:50:05.422Z</time></trkpt><trkpt lat="43.8487252" lon="11.2468911"><ele>604.1428571428571</ele><time>2026-04-25T08:50:07.422Z</time></trkpt><trkpt lat="43.8487978" lon="11.2469017"><ele>604.7142857142857</ele><time>2026-04-25T08:50:09.419Z</time></trkpt><trkpt lat="43.8488699" lon="11.2469086"><ele>605.2857142857142</ele><time>2026-04-25T08:50:11.413Z</time></trkpt><trkpt lat="43.8489483" lon="11.2469039"><ele>605.8571428571429</ele><time>2026-04-25T08:50:13.416Z</time></trkpt><trkpt lat="43.8490237" lon="11.2469007"><ele>606.4285714285713</ele><time>2026-04-25T08:50:15.41Z</time></trkpt><trkpt lat="43.8490882" lon="11.2469013"><ele>607.0</ele><time>2026-04-25T08:50:17.414Z</time></trkpt><trkpt lat="43.8491784" lon="11.2468881"><ele>607.0</ele><time>2026-04-25T08:50:20.409Z</time></trkpt><trkpt lat="43.84927" lon="11.2468685"><ele>607.0</ele><time>2026-04-25T08:50:23.409Z</time></trkpt><trkpt lat="43.849321" lon="11.2468007"><ele>607.0</ele><time>2026-04-25T08:50:25.415Z</time></trkpt><trkpt lat="43.8493768" lon="11.24676"><ele>607.0</ele><time>2026-04-25T08:50:27.419Z</time></trkpt><trkpt lat="43.8494431" lon="11.2467259"><ele>607.0</ele><time>2026-04-25T08:50:29.414Z</time></trkpt><trkpt lat="43.8494907" lon="11.2466535"><ele>607.0</ele><time>2026-04-25T08:50:32.415Z</time></trkpt><trkpt lat="43.8495462" lon="11.2465681"><ele>607.0</ele><time>2026-04-25T08:50:35.436Z</time></trkpt><trkpt lat="43.8496027" lon="11.2465099"><ele>607.0</ele><time>2026-04-25T08:50:37.42Z</time></trkpt><trkpt lat="43.8496786" lon="11.2464329"><ele>607.0</ele><time>2026-04-25T08:50:40.418Z</time></trkpt><trkpt lat="43.8497293" lon="11.2463808"><ele>607.0</ele><time>2026-04-25T08:50:42.421Z</time></trkpt><trkpt lat="43.8497979" lon="11.2463"><ele>607.0</ele><time>2026-04-25T08:50:45.423Z</time></trkpt><trkpt lat="43.8498464" lon="11.2462413"><ele>607.0</ele><time>2026-04-25T08:50:47.424Z</time></trkpt><trkpt lat="43.8498974" lon="11.2461722"><ele>606.9999999999999</ele><time>2026-04-25T08:50:49.418Z</time></trkpt><trkpt lat="43.8499485" lon="11.246121"><ele>607.0</ele><time>2026-04-25T08:50:51.425Z</time></trkpt><trkpt lat="43.8499995" lon="11.246064"><ele>607.0</ele><time>2026-04-25T08:50:53.427Z</time></trkpt><trkpt lat="43.8500448" lon="11.2459992"><ele>607.0</ele><time>2026-04-25T08:50:55.425Z</time></trkpt><trkpt lat="43.8500881" lon="11.2459285"><ele>607.0</ele><time>2026-04-25T08:50:57.428Z</time></trkpt><trkpt lat="43.8501221" lon="11.2458543"><ele>606.9999999999999</ele><time>2026-04-25T08:50:59.431Z</time></trkpt><trkpt lat="43.8501567" lon="11.2457314"><ele>607.0</ele><time>2026-04-25T08:51:02.429Z</time></trkpt><trkpt lat="43.8501848" lon="11.2456509"><ele>609.8571428571428</ele><time>2026-04-25T08:51:04.429Z</time></trkpt><trkpt lat="43.8502074" lon="11.2455675"><ele>612.7142857142857</ele><time>2026-04-25T08:51:06.447Z</time></trkpt><trkpt lat="43.850239" lon="11.2454918"><ele>615.5714285714286</ele><time>2026-04-25T08:51:08.431Z</time></trkpt><trkpt lat="43.8502911" lon="11.2453997"><ele>618.4285714285713</ele><time>2026-04-25T08:51:11.428Z</time></trkpt><trkpt lat="43.8503197" lon="11.2452996"><ele>621.2857142857142</ele><time>2026-04-25T08:51:14.429Z</time></trkpt><trkpt lat="43.8503512" lon="11.2451842"><ele>624.1428571428571</ele><time>2026-04-25T08:51:17.432Z</time></trkpt><trkpt lat="43.8503833" lon="11.2451039"><ele>627.0</ele><time>2026-04-25T08:51:19.427Z</time></trkpt><trkpt lat="43.8504005" lon="11.2450049"><ele>627.0</ele><time>2026-04-25T08:51:21.407Z</time></trkpt><trkpt lat="43.850422" lon="11.2448751"><ele>627.0</ele><time>2026-04-25T08:51:24.436Z</time></trkpt><trkpt lat="43.8504188" lon="11.2447584"><ele>627.0</ele><time>2026-04-25T08:51:26.436Z</time></trkpt><trkpt lat="43.8504311" lon="11.244616"><ele>627.0</ele><time>2026-04-25T08:51:28.427Z</time></trkpt><trkpt lat="43.8504541" lon="11.2444754"><ele>627.0</ele><time>2026-04-25T08:51:30.427Z</time></trkpt><trkpt lat="43.8504698" lon="11.2443529"><ele>625.6</ele><time>2026-04-25T08:51:32.433Z</time></trkpt><trkpt lat="43.8504937" lon="11.2442268"><ele>624.2</ele><time>2026-04-25T08:51:34.417Z</time></trkpt><trkpt lat="43.8505223" lon="11.2440935"><ele>622.8</ele><time>2026-04-25T08:51:36.427Z</time></trkpt><trkpt lat="43.850545" lon="11.2439692"><ele>621.4</ele><time>2026-04-25T08:51:38.427Z</time></trkpt><trkpt lat="43.8505598" lon="11.2438427"><ele>620.0</ele><time>2026-04-25T08:51:40.432Z</time></trkpt><trkpt lat="43.8505766" lon="11.2437115"><ele>619.2</ele><time>2026-04-25T08:51:42.425Z</time></trkpt><trkpt lat="43.8506034" lon="11.2435723"><ele>618.4</ele><time>2026-04-25T08:51:44.425Z</time></trkpt><trkpt lat="43.8506141" lon="11.2434424"><ele>617.6</ele><time>2026-04-25T08:51:46.43Z</time></trkpt><trkpt lat="43.8506159" lon="11.2433171"><ele>616.8</ele><time>2026-04-25T08:51:48.429Z</time></trkpt><trkpt lat="43.8506261" lon="11.2431727"><ele>616.0</ele><time>2026-04-25T08:51:50.427Z</time></trkpt><trkpt lat="43.8506506" lon="11.2430434"><ele>615.2</ele><time>2026-04-25T08:51:52.435Z</time></trkpt><trkpt lat="43.8506746" lon="11.242891"><ele>614.4000000000001</ele><time>2026-04-25T08:51:54.431Z</time></trkpt><trkpt lat="43.8507054" lon="11.2427432"><ele>613.6</ele><time>2026-04-25T08:51:56.425Z</time></trkpt><trkpt lat="43.8507235" lon="11.2426074"><ele>612.8000000000001</ele><time>2026-04-25T08:51:58.432Z</time></trkpt><trkpt lat="43.8507493" lon="11.2424666"><ele>612.0</ele><time>2026-04-25T08:52:00.423Z</time></trkpt><trkpt lat="43.8507581" lon="11.2423336"><ele>610.0</ele><time>2026-04-25T08:52:02.418Z</time></trkpt><trkpt lat="43.8507688" lon="11.2421907"><ele>608.0</ele><time>2026-04-25T08:52:04.423Z</time></trkpt><trkpt lat="43.8507937" lon="11.2420242"><ele>606.0</ele><time>2026-04-25T08:52:06.428Z</time></trkpt><trkpt lat="43.8508113" lon="11.2418641"><ele>604.0</ele><time>2026-04-25T08:52:08.439Z</time></trkpt><trkpt lat="43.8508215" lon="11.2416932"><ele>604.0</ele><time>2026-04-25T08:52:10.423Z</time></trkpt><trkpt lat="43.8508264" lon="11.2416043"><ele>604.0</ele><time>2026-04-25T08:52:11.421Z</time></trkpt><trkpt lat="43.8508397" lon="11.2414334"><ele>604.0</ele><time>2026-04-25T08:52:13.425Z</time></trkpt><trkpt lat="43.8508402" lon="11.2412537"><ele>604.0</ele><time>2026-04-25T08:52:15.421Z</time></trkpt><trkpt lat="43.8508303" lon="11.2411585"><ele>604.0</ele><time>2026-04-25T08:52:16.418Z</time></trkpt><trkpt lat="43.8508212" lon="11.2410663"><ele>603.5</ele><time>2026-04-25T08:52:17.417Z</time></trkpt><trkpt lat="43.85082" lon="11.2409684"><ele>603.0</ele><time>2026-04-25T08:52:18.419Z</time></trkpt><trkpt lat="43.850813" lon="11.2408709"><ele>602.5</ele><time>2026-04-25T08:52:19.418Z</time></trkpt><trkpt lat="43.8508114" lon="11.2407613"><ele>602.0</ele><time>2026-04-25T08:52:20.425Z</time></trkpt><trkpt lat="43.8508016" lon="11.2406497"><ele>601.5</ele><time>2026-04-25T08:52:21.422Z</time></trkpt><trkpt lat="43.8507905" lon="11.2405405"><ele>601.0</ele><time>2026-04-25T08:52:22.425Z</time></trkpt><trkpt lat="43.8507849" lon="11.2404338"><ele>600.5</ele><time>2026-04-25T08:52:23.424Z</time></trkpt><trkpt lat="43.8507806" lon="11.2403261"><ele>600.0</ele><time>2026-04-25T08:52:24.426Z</time></trkpt><trkpt lat="43.8507911" lon="11.2402082"><ele>599.5</ele><time>2026-04-25T08:52:25.425Z</time></trkpt><trkpt lat="43.8508088" lon="11.2400955"><ele>599.0</ele><time>2026-04-25T08:52:26.423Z</time></trkpt><trkpt lat="43.8508413" lon="11.2399813"><ele>598.5</ele><time>2026-04-25T08:52:27.414Z</time></trkpt><trkpt lat="43.85087" lon="11.2398677"><ele>598.0</ele><time>2026-04-25T08:52:28.423Z</time></trkpt><trkpt lat="43.8508958" lon="11.2397591"><ele>597.0</ele><time>2026-04-25T08:52:29.422Z</time></trkpt><trkpt lat="43.8509201" lon="11.2396585"><ele>596.0</ele><time>2026-04-25T08:52:30.426Z</time></trkpt><trkpt lat="43.8509421" lon="11.2395622"><ele>595.0</ele><time>2026-04-25T08:52:31.424Z</time></trkpt><trkpt lat="43.8509657" lon="11.239457"><ele>594.0</ele><time>2026-04-25T08:52:32.421Z</time></trkpt><trkpt lat="43.8509846" lon="11.2393648"><ele>593.0</ele><time>2026-04-25T08:52:33.419Z</time></trkpt><trkpt lat="43.8510074" lon="11.2392813"><ele>592.0</ele><time>2026-04-25T08:52:34.423Z</time></trkpt><trkpt lat="43.851037" lon="11.2391223"><ele>592.2</ele><time>2026-04-25T08:52:36.425Z</time></trkpt><trkpt lat="43.8510595" lon="11.2389749"><ele>592.4000000000001</ele><time>2026-04-25T08:52:38.421Z</time></trkpt><trkpt lat="43.851084" lon="11.2388362"><ele>592.5999999999999</ele><time>2026-04-25T08:52:40.425Z</time></trkpt><trkpt lat="43.8510965" lon="11.2386987"><ele>592.8</ele><time>2026-04-25T08:52:42.426Z</time></trkpt><trkpt lat="43.8511285" lon="11.238564"><ele>593.0</ele><time>2026-04-25T08:52:44.423Z</time></trkpt><trkpt lat="43.8511935" lon="11.2385042"><ele>592.9999999999999</ele><time>2026-04-25T08:52:46.436Z</time></trkpt><trkpt lat="43.8512574" lon="11.2385139"><ele>593.0</ele><time>2026-04-25T08:52:50.433Z</time></trkpt><trkpt lat="43.8513289" lon="11.2385519"><ele>593.0</ele><time>2026-04-25T08:52:54.439Z</time></trkpt><trkpt lat="43.8513937" lon="11.2385661"><ele>593.0</ele><time>2026-04-25T08:52:58.44Z</time></trkpt><trkpt lat="43.851461" lon="11.2385817"><ele>593.0</ele><time>2026-04-25T08:53:02.441Z</time></trkpt><trkpt lat="43.8515229" lon="11.2386012"><ele>592.9999999999999</ele><time>2026-04-25T08:53:07.437Z</time></trkpt><trkpt lat="43.8515902" lon="11.2386131"><ele>593.0</ele><time>2026-04-25T08:53:12.438Z</time></trkpt><trkpt lat="43.8516658" lon="11.2386259"><ele>592.9999999999999</ele><time>2026-04-25T08:53:17.451Z</time></trkpt><trkpt lat="43.8517325" lon="11.2386402"><ele>593.0</ele><time>2026-04-25T08:53:22.444Z</time></trkpt><trkpt lat="43.8518018" lon="11.2386643"><ele>593.0</ele><time>2026-04-25T08:53:28.439Z</time></trkpt><trkpt lat="43.8518737" lon="11.2386735"><ele>593.0</ele><time>2026-04-25T08:53:34.44Z</time></trkpt><trkpt lat="43.8519459" lon="11.2386862"><ele>593.0</ele><time>2026-04-25T08:53:39.431Z</time></trkpt><trkpt lat="43.8520129" lon="11.2386854"><ele>592.9999999999999</ele><time>2026-04-25T08:53:45.429Z</time></trkpt><trkpt lat="43.852049" lon="11.2385748"><ele>593.0</ele><time>2026-04-25T08:54:00.416Z</time></trkpt><trkpt lat="43.8521076" lon="11.2385267"><ele>596.0</ele><time>2026-04-25T08:54:09.422Z</time></trkpt><trkpt lat="43.852192" lon="11.2385093"><ele>599.0</ele><time>2026-04-25T08:54:15.43Z</time></trkpt><trkpt lat="43.8522649" lon="11.2384877"><ele>602.0</ele><time>2026-04-25T08:54:17.424Z</time></trkpt><trkpt lat="43.8523264" lon="11.2385076"><ele>605.0</ele><time>2026-04-25T08:54:22.415Z</time></trkpt><trkpt lat="43.8524207" lon="11.238523"><ele>608.0</ele><time>2026-04-25T08:54:25.406Z</time></trkpt><trkpt lat="43.8524821" lon="11.2384827"><ele>611.0</ele><time>2026-04-25T08:54:29.422Z</time></trkpt><trkpt lat="43.8525554" lon="11.2384275"><ele>611.0000000000001</ele><time>2026-04-25T08:54:44.407Z</time></trkpt><trkpt lat="43.85262" lon="11.2383919"><ele>611.0</ele><time>2026-04-25T08:54:47.421Z</time></trkpt><trkpt lat="43.8526761" lon="11.2383467"><ele>611.0</ele><time>2026-04-25T08:54:54.442Z</time></trkpt><trkpt lat="43.8527319" lon="11.2382815"><ele>611.0</ele><time>2026-04-25T08:55:00.44Z</time></trkpt><trkpt lat="43.8527927" lon="11.2382417"><ele>611.0</ele><time>2026-04-25T08:55:05.446Z</time></trkpt><trkpt lat="43.8528602" lon="11.2382169"><ele>611.0000000000001</ele><time>2026-04-25T08:55:10.443Z</time></trkpt><trkpt lat="43.8529379" lon="11.2381951"><ele>611.0</ele><time>2026-04-25T08:55:15.439Z</time></trkpt><trkpt lat="43.8529988" lon="11.2381492"><ele>610.4285714285714</ele><time>2026-04-25T08:55:20.44Z</time></trkpt><trkpt lat="43.8530661" lon="11.2381134"><ele>609.8571428571429</ele><time>2026-04-25T08:55:25.443Z</time></trkpt><trkpt lat="43.8531301" lon="11.2380843"><ele>609.2857142857142</ele><time>2026-04-25T08:55:31.437Z</time></trkpt><trkpt lat="43.8531952" lon="11.2380483"><ele>608.7142857142858</ele><time>2026-04-25T08:55:38.436Z</time></trkpt><trkpt lat="43.85326" lon="11.2380199"><ele>608.1428571428571</ele><time>2026-04-25T08:55:44.418Z</time></trkpt><trkpt lat="43.8533372" lon="11.2379936"><ele>607.5714285714286</ele><time>2026-04-25T08:55:47.434Z</time></trkpt><trkpt lat="43.8533973" lon="11.2379617"><ele>607.0</ele><time>2026-04-25T08:55:51.425Z</time></trkpt><trkpt lat="43.8534659" lon="11.2379333"><ele>606.1428571428571</ele><time>2026-04-25T08:55:56.43Z</time></trkpt><trkpt lat="43.8535294" lon="11.2379671"><ele>605.2857142857142</ele><time>2026-04-25T08:56:00.448Z</time></trkpt><trkpt lat="43.8535924" lon="11.2379928"><ele>604.4285714285713</ele><time>2026-04-25T08:56:06.442Z</time></trkpt><trkpt lat="43.8536559" lon="11.2380242"><ele>603.5714285714286</ele><time>2026-04-25T08:56:12.448Z</time></trkpt><trkpt lat="43.8537324" lon="11.2380454"><ele>602.7142857142858</ele><time>2026-04-25T08:56:19.439Z</time></trkpt><trkpt lat="43.8538131" lon="11.2380622"><ele>601.8571428571428</ele><time>2026-04-25T08:56:25.456Z</time></trkpt><trkpt lat="43.8538765" lon="11.2380696"><ele>601.0</ele><time>2026-04-25T08:56:29.448Z</time></trkpt><trkpt lat="43.8539481" lon="11.2381134"><ele>604.0</ele><time>2026-04-25T08:56:35.425Z</time></trkpt><trkpt lat="43.8540242" lon="11.2381616"><ele>607.0</ele><time>2026-04-25T08:56:38.421Z</time></trkpt><trkpt lat="43.854084" lon="11.238209"><ele>610.0</ele><time>2026-04-25T08:56:43.446Z</time></trkpt><trkpt lat="43.854153" lon="11.2382542"><ele>613.0</ele><time>2026-04-25T08:56:49.44Z</time></trkpt><trkpt lat="43.8542059" lon="11.2382036"><ele>616.0</ele><time>2026-04-25T08:56:54.441Z</time></trkpt><trkpt lat="43.8542402" lon="11.2382927"><ele>619.0</ele><time>2026-04-25T08:57:00.43Z</time></trkpt><trkpt lat="43.8543018" lon="11.2383607"><ele>622.0</ele><time>2026-04-25T08:57:04.439Z</time></trkpt><trkpt lat="43.8543622" lon="11.2384002"><ele>622.0</ele><time>2026-04-25T08:57:08.437Z</time></trkpt><trkpt lat="43.8544241" lon="11.2384585"><ele>622.0</ele><time>2026-04-25T08:57:14.435Z</time></trkpt><trkpt lat="43.8544701" lon="11.238519"><ele>622.0</ele><time>2026-04-25T08:57:20.435Z</time></trkpt><trkpt lat="43.8545264" lon="11.2385614"><ele>622.0</ele><time>2026-04-25T08:57:25.446Z</time></trkpt><trkpt lat="43.8545808" lon="11.2386282"><ele>622.0</ele><time>2026-04-25T08:57:30.45Z</time></trkpt><trkpt lat="43.8546386" lon="11.2386696"><ele>622.0</ele><time>2026-04-25T08:57:37.441Z</time></trkpt><trkpt lat="43.8546909" lon="11.2387335"><ele>622.0</ele><time>2026-04-25T08:57:43.446Z</time></trkpt><trkpt lat="43.8547524" lon="11.2387838"><ele>622.0</ele><time>2026-04-25T08:57:46.432Z</time></trkpt><trkpt lat="43.8548163" lon="11.238804"><ele>622.0</ele><time>2026-04-25T08:57:52.446Z</time></trkpt><trkpt lat="43.8548841" lon="11.2388488"><ele>622.0</ele><time>2026-04-25T08:57:56.451Z</time></trkpt><trkpt lat="43.8549488" lon="11.2388804"><ele>622.0</ele><time>2026-04-25T08:58:00.454Z</time></trkpt><trkpt lat="43.855012" lon="11.2389173"><ele>622.0</ele><time>2026-04-25T08:58:05.457Z</time></trkpt><trkpt lat="43.8550748" lon="11.2389533"><ele>622.0</ele><time>2026-04-25T08:58:10.454Z</time></trkpt><trkpt lat="43.855131" lon="11.2390016"><ele>622.0</ele><time>2026-04-25T08:58:15.454Z</time></trkpt><trkpt lat="43.8551932" lon="11.2390264"><ele>624.7142857142857</ele><time>2026-04-25T08:58:20.432Z</time></trkpt><trkpt lat="43.855241" lon="11.2391057"><ele>627.4285714285714</ele><time>2026-04-25T08:58:23.439Z</time></trkpt><trkpt lat="43.8552911" lon="11.2391714"><ele>630.1428571428571</ele><time>2026-04-25T08:58:26.454Z</time></trkpt><trkpt lat="43.8553507" lon="11.2392157"><ele>632.8571428571429</ele><time>2026-04-25T08:58:30.459Z</time></trkpt><trkpt lat="43.8554191" lon="11.2392396"><ele>635.5714285714286</ele><time>2026-04-25T08:58:35.462Z</time></trkpt><trkpt lat="43.8554719" lon="11.2392944"><ele>638.2857142857143</ele><time>2026-04-25T08:58:39.462Z</time></trkpt><trkpt lat="43.8555266" lon="11.2393553"><ele>641.0</ele><time>2026-04-25T08:58:44.465Z</time></trkpt><trkpt lat="43.8555722" lon="11.239436"><ele>641.0</ele><time>2026-04-25T08:58:48.461Z</time></trkpt><trkpt lat="43.8556198" lon="11.2395093"><ele>641.0</ele><time>2026-04-25T08:58:52.458Z</time></trkpt><trkpt lat="43.8556387" lon="11.2395978"><ele>641.0</ele><time>2026-04-25T08:58:56.457Z</time></trkpt><trkpt lat="43.8556081" lon="11.2396818"><ele>641.0</ele><time>2026-04-25T08:59:01.46Z</time></trkpt><trkpt lat="43.8555603" lon="11.2397557"><ele>641.0</ele><time>2026-04-25T08:59:07.453Z</time></trkpt><trkpt lat="43.8555087" lon="11.2398363"><ele>641.0</ele><time>2026-04-25T08:59:12.455Z</time></trkpt><trkpt lat="43.8554718" lon="11.2399124"><ele>641.0</ele><time>2026-04-25T08:59:17.459Z</time></trkpt><trkpt lat="43.8554248" lon="11.239983"><ele>640.8571428571429</ele><time>2026-04-25T08:59:22.46Z</time></trkpt><trkpt lat="43.8553581" lon="11.2400016"><ele>640.7142857142857</ele><time>2026-04-25T08:59:28.461Z</time></trkpt><trkpt lat="43.8552882" lon="11.2399915"><ele>640.5714285714286</ele><time>2026-04-25T08:59:34.46Z</time></trkpt><trkpt lat="43.8552216" lon="11.2399539"><ele>640.4285714285714</ele><time>2026-04-25T08:59:40.463Z</time></trkpt><trkpt lat="43.8551584" lon="11.2399189"><ele>640.2857142857143</ele><time>2026-04-25T08:59:46.457Z</time></trkpt><trkpt lat="43.8550865" lon="11.2399041"><ele>640.1428571428571</ele><time>2026-04-25T08:59:52.472Z</time></trkpt><trkpt lat="43.8550142" lon="11.239898"><ele>640.0</ele><time>2026-04-25T08:59:58.451Z</time></trkpt><trkpt lat="43.8549501" lon="11.2399167"><ele>640.0</ele><time>2026-04-25T09:00:04.44Z</time></trkpt><trkpt lat="43.8548829" lon="11.2399478"><ele>640.0</ele><time>2026-04-25T09:00:09.445Z</time></trkpt><trkpt lat="43.8548192" lon="11.2399749"><ele>640.0</ele><time>2026-04-25T09:00:13.445Z</time></trkpt><trkpt lat="43.8547512" lon="11.2399838"><ele>640.0</ele><time>2026-04-25T09:00:18.451Z</time></trkpt><trkpt lat="43.8546878" lon="11.2399996"><ele>640.0</ele><time>2026-04-25T09:00:23.456Z</time></trkpt><trkpt lat="43.8546278" lon="11.2400533"><ele>640.0</ele><time>2026-04-25T09:00:28.448Z</time></trkpt><trkpt lat="43.8545629" lon="11.2400982"><ele>640.0</ele><time>2026-04-25T09:00:32.453Z</time></trkpt><trkpt lat="43.8544986" lon="11.2401465"><ele>640.0</ele><time>2026-04-25T09:00:37.456Z</time></trkpt><trkpt lat="43.8544325" lon="11.2402033"><ele>640.0</ele><time>2026-04-25T09:00:43.451Z</time></trkpt><trkpt lat="43.8543788" lon="11.2402525"><ele>640.0</ele><time>2026-04-25T09:00:47.454Z</time></trkpt><trkpt lat="43.8543184" lon="11.2402893"><ele>640.0</ele><time>2026-04-25T09:00:51.459Z</time></trkpt><trkpt lat="43.8542456" lon="11.2403379"><ele>640.0</ele><time>2026-04-25T09:00:55.456Z</time></trkpt><trkpt lat="43.8541794" lon="11.2403847"><ele>640.0</ele><time>2026-04-25T09:00:59.461Z</time></trkpt><trkpt lat="43.8541216" lon="11.2404263"><ele>640.0</ele><time>2026-04-25T09:01:03.463Z</time></trkpt><trkpt lat="43.8540517" lon="11.2404671"><ele>642.0</ele><time>2026-04-25T09:01:06.46Z</time></trkpt><trkpt lat="43.8539848" lon="11.2405011"><ele>644.0</ele><time>2026-04-25T09:01:09.449Z</time></trkpt><trkpt lat="43.8539245" lon="11.2405322"><ele>646.0</ele><time>2026-04-25T09:01:12.452Z</time></trkpt><trkpt lat="43.8538541" lon="11.2405807"><ele>648.0</ele><time>2026-04-25T09:01:16.453Z</time></trkpt><trkpt lat="43.8537967" lon="11.2406304"><ele>650.0</ele><time>2026-04-25T09:01:20.453Z</time></trkpt><trkpt lat="43.8537541" lon="11.2407177"><ele>652.0</ele><time>2026-04-25T09:01:25.473Z</time></trkpt><trkpt lat="43.8536998" lon="11.2407891"><ele>654.0</ele><time>2026-04-25T09:01:29.46Z</time></trkpt><trkpt lat="43.8536612" lon="11.2408707"><ele>654.0</ele><time>2026-04-25T09:01:33.461Z</time></trkpt><trkpt lat="43.8536159" lon="11.2409529"><ele>654.0</ele><time>2026-04-25T09:01:38.457Z</time></trkpt><trkpt lat="43.8535615" lon="11.2410239"><ele>654.0</ele><time>2026-04-25T09:01:43.461Z</time></trkpt><trkpt lat="43.8535078" lon="11.2410922"><ele>654.0</ele><time>2026-04-25T09:01:48.454Z</time></trkpt><trkpt lat="43.8534642" lon="11.2411556"><ele>654.0</ele><time>2026-04-25T09:01:52.455Z</time></trkpt><trkpt lat="43.8534211" lon="11.2412263"><ele>654.0</ele><time>2026-04-25T09:01:57.455Z</time></trkpt><trkpt lat="43.8533753" lon="11.2412882"><ele>654.0</ele><time>2026-04-25T09:02:02.449Z</time></trkpt><trkpt lat="43.8533382" lon="11.2413627"><ele>656.5714285714286</ele><time>2026-04-25T09:02:07.457Z</time></trkpt><trkpt lat="43.8533117" lon="11.2414455"><ele>659.1428571428571</ele><time>2026-04-25T09:02:13.446Z</time></trkpt><trkpt lat="43.8532733" lon="11.2415217"><ele>661.7142857142858</ele><time>2026-04-25T09:02:18.446Z</time></trkpt><trkpt lat="43.8532276" lon="11.2416073"><ele>664.2857142857142</ele><time>2026-04-25T09:02:24.452Z</time></trkpt><trkpt lat="43.8532064" lon="11.24169"><ele>666.8571428571429</ele><time>2026-04-25T09:02:29.448Z</time></trkpt><trkpt lat="43.8531776" lon="11.2417808"><ele>669.4285714285714</ele><time>2026-04-25T09:02:36.441Z</time></trkpt><trkpt lat="43.8531654" lon="11.2418724"><ele>672.0</ele><time>2026-04-25T09:02:42.452Z</time></trkpt><trkpt lat="43.8531821" lon="11.2419701"><ele>673.1428571428571</ele><time>2026-04-25T09:02:49.442Z</time></trkpt><trkpt lat="43.8532089" lon="11.242079"><ele>674.2857142857142</ele><time>2026-04-25T09:02:54.439Z</time></trkpt><trkpt lat="43.8532405" lon="11.2421806"><ele>675.4285714285714</ele><time>2026-04-25T09:02:59.45Z</time></trkpt><trkpt lat="43.8532717" lon="11.242258"><ele>676.5714285714286</ele><time>2026-04-25T09:03:04.448Z</time></trkpt><trkpt lat="43.8533011" lon="11.2423426"><ele>677.7142857142857</ele><time>2026-04-25T09:03:09.448Z</time></trkpt><trkpt lat="43.8533285" lon="11.2424246"><ele>678.8571428571429</ele><time>2026-04-25T09:03:13.445Z</time></trkpt><trkpt lat="43.8533575" lon="11.2425192"><ele>680.0</ele><time>2026-04-25T09:03:18.45Z</time></trkpt><trkpt lat="43.8533767" lon="11.2426246"><ele>679.0</ele><time>2026-04-25T09:03:23.453Z</time></trkpt><trkpt lat="43.8534034" lon="11.2427144"><ele>678.0</ele><time>2026-04-25T09:03:28.457Z</time></trkpt><trkpt lat="43.8534436" lon="11.2427858"><ele>677.0</ele><time>2026-04-25T09:03:34.454Z</time></trkpt><trkpt lat="43.8534842" lon="11.2428666"><ele>676.0</ele><time>2026-04-25T09:03:40.457Z</time></trkpt><trkpt lat="43.8535194" lon="11.2429447"><ele>675.0</ele><time>2026-04-25T09:03:46.467Z</time></trkpt><trkpt lat="43.8535508" lon="11.243029"><ele>674.0</ele><time>2026-04-25T09:03:53.468Z</time></trkpt><trkpt lat="43.8535805" lon="11.2431134"><ele>673.0</ele><time>2026-04-25T09:03:59.47Z</time></trkpt><trkpt lat="43.8536071" lon="11.2432112"><ele>675.0</ele><time>2026-04-25T09:04:06.458Z</time></trkpt><trkpt lat="43.8536304" lon="11.2432947"><ele>677.0</ele><time>2026-04-25T09:04:11.465Z</time></trkpt><trkpt lat="43.8536505" lon="11.2433894"><ele>679.0</ele><time>2026-04-25T09:04:17.466Z</time></trkpt><trkpt lat="43.8536671" lon="11.2434805"><ele>681.0</ele><time>2026-04-25T09:04:22.465Z</time></trkpt><trkpt lat="43.85369" lon="11.2435794"><ele>683.0</ele><time>2026-04-25T09:04:28.475Z</time></trkpt><trkpt lat="43.8537148" lon="11.2436712"><ele>685.0</ele><time>2026-04-25T09:04:35.48Z</time></trkpt><trkpt lat="43.8537282" lon="11.2437704"><ele>687.0</ele><time>2026-04-25T09:04:40.47Z</time></trkpt><trkpt lat="43.8537311" lon="11.2438708"><ele>688.1428571428572</ele><time>2026-04-25T09:04:45.455Z</time></trkpt><trkpt lat="43.8537473" lon="11.2439749"><ele>689.2857142857142</ele><time>2026-04-25T09:05:38.462Z</time></trkpt><trkpt lat="43.8537551" lon="11.2440664"><ele>690.4285714285714</ele><time>2026-04-25T09:05:45.467Z</time></trkpt><trkpt lat="43.8537637" lon="11.2441668"><ele>691.5714285714287</ele><time>2026-04-25T09:05:51.458Z</time></trkpt><trkpt lat="43.8537797" lon="11.244264"><ele>692.7142857142858</ele><time>2026-04-25T09:05:57.47Z</time></trkpt><trkpt lat="43.8537873" lon="11.2443536"><ele>693.8571428571429</ele><time>2026-04-25T09:06:02.465Z</time></trkpt><trkpt lat="43.8537957" lon="11.2444554"><ele>695.0</ele><time>2026-04-25T09:06:07.459Z</time></trkpt><trkpt lat="43.8537997" lon="11.2445648"><ele>695.0000000000001</ele><time>2026-04-25T09:06:12.465Z</time></trkpt><trkpt lat="43.8538018" lon="11.2446674"><ele>695.0</ele><time>2026-04-25T09:06:17.47Z</time></trkpt><trkpt lat="43.8538009" lon="11.2447599"><ele>695.0</ele><time>2026-04-25T09:06:22.464Z</time></trkpt><trkpt lat="43.8538108" lon="11.2448472"><ele>695.0</ele><time>2026-04-25T09:06:27.466Z</time></trkpt><trkpt lat="43.8538117" lon="11.2449444"><ele>695.0</ele><time>2026-04-25T09:06:33.461Z</time></trkpt><trkpt lat="43.8538116" lon="11.2450415"><ele>695.0000000000001</ele><time>2026-04-25T09:06:39.463Z</time></trkpt><trkpt lat="43.8537968" lon="11.2451393"><ele>695.0</ele><time>2026-04-25T09:06:49.463Z</time></trkpt><trkpt lat="43.8538077" lon="11.2452255"><ele>696.7142857142858</ele><time>2026-04-25T09:06:55.456Z</time></trkpt><trkpt lat="43.8538155" lon="11.2453283"><ele>698.4285714285714</ele><time>2026-04-25T09:07:02.466Z</time></trkpt><trkpt lat="43.853807" lon="11.2454185"><ele>700.1428571428571</ele><time>2026-04-25T09:07:11.467Z</time></trkpt><trkpt lat="43.8538223" lon="11.2455037"><ele>701.8571428571429</ele><time>2026-04-25T09:07:21.463Z</time></trkpt><trkpt lat="43.853826" lon="11.2455932"><ele>703.5714285714286</ele><time>2026-04-25T09:07:29.459Z</time></trkpt><trkpt lat="43.8538337" lon="11.2456912"><ele>705.2857142857143</ele><time>2026-04-25T09:07:37.46Z</time></trkpt><trkpt lat="43.8538447" lon="11.2457808"><ele>707.0</ele><time>2026-04-25T09:07:43.471Z</time></trkpt><trkpt lat="43.8538659" lon="11.2459028"><ele>708.8571428571429</ele><time>2026-04-25T09:07:48.468Z</time></trkpt><trkpt lat="43.8538356" lon="11.245996"><ele>710.7142857142858</ele><time>2026-04-25T09:07:53.462Z</time></trkpt><trkpt lat="43.8537859" lon="11.2460617"><ele>712.5714285714286</ele><time>2026-04-25T09:07:58.478Z</time></trkpt><trkpt lat="43.853741" lon="11.246144"><ele>714.4285714285714</ele><time>2026-04-25T09:08:02.468Z</time></trkpt><trkpt lat="43.853694" lon="11.2462179"><ele>716.2857142857143</ele><time>2026-04-25T09:08:05.469Z</time></trkpt><trkpt lat="43.8536477" lon="11.2462912"><ele>718.1428571428571</ele><time>2026-04-25T09:08:08.461Z</time></trkpt><trkpt lat="43.8536168" lon="11.2463722"><ele>720.0</ele><time>2026-04-25T09:08:11.471Z</time></trkpt><trkpt lat="43.8535692" lon="11.2464606"><ele>719.1428571428571</ele><time>2026-04-25T09:08:15.468Z</time></trkpt><trkpt lat="43.8535307" lon="11.246535"><ele>718.2857142857143</ele><time>2026-04-25T09:08:19.46Z</time></trkpt><trkpt lat="43.8534802" lon="11.2466189"><ele>717.4285714285714</ele><time>2026-04-25T09:08:24.467Z</time></trkpt><trkpt lat="43.8534265" lon="11.2466865"><ele>716.5714285714286</ele><time>2026-04-25T09:08:30.467Z</time></trkpt><trkpt lat="43.8533928" lon="11.2467643"><ele>715.7142857142858</ele><time>2026-04-25T09:08:36.469Z</time></trkpt><trkpt lat="43.8533601" lon="11.2468589"><ele>714.8571428571429</ele><time>2026-04-25T09:08:41.471Z</time></trkpt><trkpt lat="43.8533077" lon="11.2469443"><ele>714.0</ele><time>2026-04-25T09:08:45.472Z</time></trkpt><trkpt lat="43.8532715" lon="11.2470293"><ele>716.5714285714286</ele><time>2026-04-25T09:08:48.462Z</time></trkpt><trkpt lat="43.8532443" lon="11.247109"><ele>719.1428571428571</ele><time>2026-04-25T09:08:51.464Z</time></trkpt><trkpt lat="43.8532075" lon="11.247202"><ele>721.7142857142858</ele><time>2026-04-25T09:08:53.461Z</time></trkpt><trkpt lat="43.8531616" lon="11.2473264"><ele>724.2857142857142</ele><time>2026-04-25T09:08:55.456Z</time></trkpt><trkpt lat="43.8531359" lon="11.2474094"><ele>726.8571428571429</ele><time>2026-04-25T09:08:56.451Z</time></trkpt><trkpt lat="43.8531086" lon="11.2474981"><ele>729.4285714285714</ele><time>2026-04-25T09:08:57.451Z</time></trkpt><trkpt lat="43.8530941" lon="11.2475881"><ele>732.0</ele><time>2026-04-25T09:08:58.45Z</time></trkpt><trkpt lat="43.8530776" lon="11.2476799"><ele>732.0</ele><time>2026-04-25T09:08:59.449Z</time></trkpt><trkpt lat="43.8530611" lon="11.2478036"><ele>732.0</ele><time>2026-04-25T09:09:01.457Z</time></trkpt><trkpt lat="43.8530273" lon="11.2478973"><ele>732.0</ele><time>2026-04-25T09:09:04.458Z</time></trkpt><trkpt lat="43.8529981" lon="11.2479984"><ele>732.0</ele><time>2026-04-25T09:09:07.458Z</time></trkpt><trkpt lat="43.8529654" lon="11.2480969"><ele>732.0</ele><time>2026-04-25T09:09:10.46Z</time></trkpt><trkpt lat="43.8529421" lon="11.2481937"><ele>732.0</ele><time>2026-04-25T09:09:13.462Z</time></trkpt><trkpt lat="43.8529192" lon="11.2482891"><ele>731.0</ele><time>2026-04-25T09:09:17.47Z</time></trkpt><trkpt lat="43.8528974" lon="11.2483803"><ele>730.0</ele><time>2026-04-25T09:09:20.456Z</time></trkpt><trkpt lat="43.8528678" lon="11.2484725"><ele>729.0</ele><time>2026-04-25T09:09:22.452Z</time></trkpt><trkpt lat="43.8528427" lon="11.2485741"><ele>728.0</ele><time>2026-04-25T09:09:24.451Z</time></trkpt><trkpt lat="43.8528068" lon="11.2487398"><ele>727.0</ele><time>2026-04-25T09:09:26.444Z</time></trkpt><trkpt lat="43.8527889" lon="11.2488454"><ele>726.0</ele><time>2026-04-25T09:09:27.445Z</time></trkpt><trkpt lat="43.8527791" lon="11.2489603"><ele>724.3333333333334</ele><time>2026-04-25T09:09:28.445Z</time></trkpt><trkpt lat="43.8527726" lon="11.2490667"><ele>722.6666666666666</ele><time>2026-04-25T09:09:29.444Z</time></trkpt><trkpt lat="43.8527675" lon="11.2491709"><ele>721.0</ele><time>2026-04-25T09:09:30.442Z</time></trkpt><trkpt lat="43.8527579" lon="11.2493041"><ele>719.3333333333333</ele><time>2026-04-25T09:09:32.444Z</time></trkpt><trkpt lat="43.8527481" lon="11.2493904"><ele>717.6666666666666</ele><time>2026-04-25T09:09:38.459Z</time></trkpt><trkpt lat="43.8527192" lon="11.2494774"><ele>716.0</ele><time>2026-04-25T09:09:42.446Z</time></trkpt><trkpt lat="43.8526915" lon="11.2495785"><ele>716.0000000000001</ele><time>2026-04-25T09:09:47.445Z</time></trkpt><trkpt lat="43.8526853" lon="11.2496678"><ele>716.0</ele><time>2026-04-25T09:09:52.452Z</time></trkpt><trkpt lat="43.8526807" lon="11.2497746"><ele>716.0</ele><time>2026-04-25T09:09:57.46Z</time></trkpt><trkpt lat="43.8526692" lon="11.2498673"><ele>716.0</ele><time>2026-04-25T09:10:02.469Z</time></trkpt><trkpt lat="43.8526428" lon="11.2499617"><ele>716.0</ele><time>2026-04-25T09:10:07.458Z</time></trkpt><trkpt lat="43.8526318" lon="11.2500517"><ele>716.0000000000001</ele><time>2026-04-25T09:10:14.463Z</time></trkpt><trkpt lat="43.8526072" lon="11.2501378"><ele>716.0</ele><time>2026-04-25T09:10:24.463Z</time></trkpt><trkpt lat="43.8525973" lon="11.2502335"><ele>719.2857142857143</ele><time>2026-04-25T09:10:33.464Z</time></trkpt><trkpt lat="43.8525672" lon="11.2503258"><ele>722.5714285714286</ele><time>2026-04-25T09:10:41.463Z</time></trkpt><trkpt lat="43.8525348" lon="11.2504209"><ele>725.8571428571429</ele><time>2026-04-25T09:10:47.467Z</time></trkpt><trkpt lat="43.8525123" lon="11.2505119"><ele>729.1428571428571</ele><time>2026-04-25T09:10:54.459Z</time></trkpt><trkpt lat="43.8524865" lon="11.2505922"><ele>732.4285714285714</ele><time>2026-04-25T09:10:58.462Z</time></trkpt><trkpt lat="43.8524623" lon="11.2506791"><ele>735.7142857142858</ele><time>2026-04-25T09:13:39.443Z</time></trkpt><trkpt lat="43.8524265" lon="11.2507516"><ele>739.0</ele><time>2026-04-25T09:14:45.461Z</time></trkpt><trkpt lat="43.8524548" lon="11.2508376"><ele>739.1666666666667</ele><time>2026-04-25T09:14:49.464Z</time></trkpt><trkpt lat="43.8525004" lon="11.250944"><ele>739.3333333333334</ele><time>2026-04-25T09:14:51.445Z</time></trkpt><trkpt lat="43.8525482" lon="11.2510216"><ele>739.5</ele><time>2026-04-25T09:14:53.448Z</time></trkpt><trkpt lat="43.8526083" lon="11.2511114"><ele>739.6666666666666</ele><time>2026-04-25T09:14:56.451Z</time></trkpt><trkpt lat="43.8526555" lon="11.2511868"><ele>739.8333333333333</ele><time>2026-04-25T09:14:58.453Z</time></trkpt><trkpt lat="43.8527221" lon="11.251259"><ele>740.0</ele><time>2026-04-25T09:15:00.442Z</time></trkpt><trkpt lat="43.8527908" lon="11.2513511"><ele>738.0</ele><time>2026-04-25T09:15:02.433Z</time></trkpt><trkpt lat="43.8528544" lon="11.2514444"><ele>736.0</ele><time>2026-04-25T09:15:04.437Z</time></trkpt><trkpt lat="43.8529321" lon="11.2514882"><ele>734.0</ele><time>2026-04-25T09:15:06.437Z</time></trkpt><trkpt lat="43.8530095" lon="11.2515673"><ele>732.0</ele><time>2026-04-25T09:15:08.444Z</time></trkpt><trkpt lat="43.8530932" lon="11.2516236"><ele>730.0</ele><time>2026-04-25T09:15:10.437Z</time></trkpt><trkpt lat="43.8531537" lon="11.2516715"><ele>728.0</ele><time>2026-04-25T09:15:13.446Z</time></trkpt><trkpt lat="43.8532131" lon="11.2517294"><ele>728.0</ele><time>2026-04-25T09:15:20.461Z</time></trkpt><trkpt lat="43.8532868" lon="11.2517594"><ele>728.0</ele><time>2026-04-25T09:15:27.45Z</time></trkpt><trkpt lat="43.8533461" lon="11.2518031"><ele>728.0</ele><time>2026-04-25T09:15:32.452Z</time></trkpt><trkpt lat="43.8533964" lon="11.2518681"><ele>728.0</ele><time>2026-04-25T09:15:37.453Z</time></trkpt><trkpt lat="43.8534516" lon="11.2519176"><ele>728.0</ele><time>2026-04-25T09:15:41.451Z</time></trkpt><trkpt lat="43.8535186" lon="11.2519541"><ele>728.0</ele><time>2026-04-25T09:15:45.449Z</time></trkpt><trkpt lat="43.8535781" lon="11.2519927"><ele>728.0</ele><time>2026-04-25T09:15:49.447Z</time></trkpt><trkpt lat="43.8536508" lon="11.252028"><ele>728.4285714285714</ele><time>2026-04-25T09:15:53.457Z</time></trkpt><trkpt lat="43.8537031" lon="11.2520768"><ele>728.8571428571429</ele><time>2026-04-25T09:15:58.454Z</time></trkpt><trkpt lat="43.8537636" lon="11.2521016"><ele>729.2857142857142</ele><time>2026-04-25T09:16:03.458Z</time></trkpt><trkpt lat="43.8538207" lon="11.2521404"><ele>729.7142857142858</ele><time>2026-04-25T09:16:09.455Z</time></trkpt><trkpt lat="43.8538802" lon="11.2521839"><ele>730.1428571428571</ele><time>2026-04-25T09:16:14.454Z</time></trkpt><trkpt lat="43.8539424" lon="11.2522607"><ele>730.5714285714286</ele><time>2026-04-25T09:16:18.453Z</time></trkpt><trkpt lat="43.8540107" lon="11.2523559"><ele>731.0</ele><time>2026-04-25T09:16:21.449Z</time></trkpt><trkpt lat="43.8540728" lon="11.2524397"><ele>731.0</ele><time>2026-04-25T09:16:23.446Z</time></trkpt><trkpt lat="43.8541355" lon="11.252526"><ele>731.0</ele><time>2026-04-25T09:16:25.451Z</time></trkpt><trkpt lat="43.8541673" lon="11.2526269"><ele>731.0</ele><time>2026-04-25T09:16:27.451Z</time></trkpt><trkpt lat="43.8542016" lon="11.2527217"><ele>731.0</ele><time>2026-04-25T09:16:29.454Z</time></trkpt><trkpt lat="43.8542448" lon="11.2528466"><ele>731.0</ele><time>2026-04-25T09:16:32.445Z</time></trkpt><trkpt lat="43.8543136" lon="11.2529176"><ele>731.0</ele><time>2026-04-25T09:16:34.443Z</time></trkpt><trkpt lat="43.8543765" lon="11.2530058"><ele>728.5</ele><time>2026-04-25T09:16:36.445Z</time></trkpt><trkpt lat="43.8544369" lon="11.2530674"><ele>726.0</ele><time>2026-04-25T09:16:39.45Z</time></trkpt><trkpt lat="43.8545055" lon="11.2531482"><ele>723.5</ele><time>2026-04-25T09:16:41.448Z</time></trkpt><trkpt lat="43.8545921" lon="11.2532135"><ele>721.0</ele><time>2026-04-25T09:16:43.442Z</time></trkpt><trkpt lat="43.854656" lon="11.2532695"><ele>718.5</ele><time>2026-04-25T09:16:46.449Z</time></trkpt><trkpt lat="43.8546885" lon="11.2533659"><ele>716.0</ele><time>2026-04-25T09:16:48.444Z</time></trkpt><trkpt lat="43.8547625" lon="11.2534217"><ele>715.5714285714287</ele><time>2026-04-25T09:16:52.451Z</time></trkpt><trkpt lat="43.8548232" lon="11.2534589"><ele>715.1428571428571</ele><time>2026-04-25T09:16:54.452Z</time></trkpt><trkpt lat="43.8548884" lon="11.2535207"><ele>714.7142857142858</ele><time>2026-04-25T09:16:56.455Z</time></trkpt><trkpt lat="43.8549413" lon="11.2535709"><ele>714.2857142857143</ele><time>2026-04-25T09:16:58.456Z</time></trkpt><trkpt lat="43.8550163" lon="11.2536261"><ele>713.8571428571429</ele><time>2026-04-25T09:17:01.454Z</time></trkpt><trkpt lat="43.8550842" lon="11.2536574"><ele>713.4285714285714</ele><time>2026-04-25T09:17:04.45Z</time></trkpt><trkpt lat="43.8551559" lon="11.253694"><ele>713.0</ele><time>2026-04-25T09:17:07.443Z</time></trkpt><trkpt lat="43.8552229" lon="11.2537346"><ele>709.4285714285714</ele><time>2026-04-25T09:17:11.447Z</time></trkpt><trkpt lat="43.8552625" lon="11.2538037"><ele>705.8571428571429</ele><time>2026-04-25T09:17:13.449Z</time></trkpt><trkpt lat="43.8553221" lon="11.253856"><ele>702.2857142857143</ele><time>2026-04-25T09:17:15.44Z</time></trkpt><trkpt lat="43.8553834" lon="11.2538958"><ele>698.7142857142858</ele><time>2026-04-25T09:17:17.445Z</time></trkpt><trkpt lat="43.8554553" lon="11.2539245"><ele>695.1428571428571</ele><time>2026-04-25T09:17:19.447Z</time></trkpt><trkpt lat="43.8555322" lon="11.2539413"><ele>691.5714285714287</ele><time>2026-04-25T09:17:22.442Z</time></trkpt><trkpt lat="43.8556018" lon="11.2539373"><ele>688.0</ele><time>2026-04-25T09:17:25.442Z</time></trkpt><trkpt lat="43.8556983" lon="11.2539632"><ele>688.0</ele><time>2026-04-25T09:17:28.439Z</time></trkpt><trkpt lat="43.8557599" lon="11.254053"><ele>688.0</ele><time>2026-04-25T09:17:30.44Z</time></trkpt><trkpt lat="43.8558315" lon="11.2541328"><ele>688.0</ele><time>2026-04-25T09:17:32.444Z</time></trkpt><trkpt lat="43.8557942" lon="11.2542047"><ele>688.0</ele><time>2026-04-25T09:17:35.448Z</time></trkpt><trkpt lat="43.8557955" lon="11.254301"><ele>688.0</ele><time>2026-04-25T09:17:39.438Z</time></trkpt><trkpt lat="43.8558676" lon="11.2543652"><ele>688.0</ele><time>2026-04-25T09:17:41.438Z</time></trkpt><trkpt lat="43.8559292" lon="11.2543925"><ele>684.3333333333334</ele><time>2026-04-25T09:17:43.445Z</time></trkpt><trkpt lat="43.8559962" lon="11.2544149"><ele>680.6666666666667</ele><time>2026-04-25T09:18:22.439Z</time></trkpt><trkpt lat="43.8560583" lon="11.2544294"><ele>677.0</ele><time>2026-04-25T09:18:24.434Z</time></trkpt><trkpt lat="43.8561561" lon="11.2544405"><ele>673.3333333333334</ele><time>2026-04-25T09:18:26.441Z</time></trkpt><trkpt lat="43.8562297" lon="11.2544159"><ele>669.6666666666666</ele><time>2026-04-25T09:18:28.442Z</time></trkpt><trkpt lat="43.8562923" lon="11.2544285"><ele>666.0</ele><time>2026-04-25T09:18:30.446Z</time></trkpt><trkpt lat="43.8563625" lon="11.254505"><ele>666.0</ele><time>2026-04-25T09:18:33.448Z</time></trkpt><trkpt lat="43.8563737" lon="11.2546382"><ele>666.0</ele><time>2026-04-25T09:18:36.44Z</time></trkpt><trkpt lat="43.8564548" lon="11.254715"><ele>666.0</ele><time>2026-04-25T09:18:38.445Z</time></trkpt><trkpt lat="43.8565181" lon="11.2547505"><ele>666.0</ele><time>2026-04-25T09:18:44.455Z</time></trkpt><trkpt lat="43.856593" lon="11.2547759"><ele>666.0</ele><time>2026-04-25T09:18:50.449Z</time></trkpt><trkpt lat="43.8566432" lon="11.2548454"><ele>666.0</ele><time>2026-04-25T09:18:53.449Z</time></trkpt><trkpt lat="43.8566876" lon="11.2549083"><ele>666.4285714285714</ele><time>2026-04-25T09:18:55.45Z</time></trkpt><trkpt lat="43.8567322" lon="11.2549878"><ele>666.8571428571428</ele><time>2026-04-25T09:18:57.462Z</time></trkpt><trkpt lat="43.8567747" lon="11.2550827"><ele>667.2857142857142</ele><time>2026-04-25T09:18:59.448Z</time></trkpt><trkpt lat="43.8568368" lon="11.2551624"><ele>667.7142857142858</ele><time>2026-04-25T09:19:02.448Z</time></trkpt><trkpt lat="43.8568943" lon="11.255217"><ele>668.1428571428571</ele><time>2026-04-25T09:19:05.452Z</time></trkpt><trkpt lat="43.8569553" lon="11.2552774"><ele>668.5714285714286</ele><time>2026-04-25T09:19:11.451Z</time></trkpt><trkpt lat="43.8569953" lon="11.2553517"><ele>669.0</ele><time>2026-04-25T09:19:17.452Z</time></trkpt><trkpt lat="43.8570386" lon="11.2554357"><ele>669.0</ele><time>2026-04-25T09:19:21.455Z</time></trkpt><trkpt lat="43.8570744" lon="11.2555234"><ele>669.0</ele><time>2026-04-25T09:19:26.455Z</time></trkpt><trkpt lat="43.8571289" lon="11.2556319"><ele>669.0</ele><time>2026-04-25T09:19:32.45Z</time></trkpt><trkpt lat="43.8571763" lon="11.2557015"><ele>669.0</ele><time>2026-04-25T09:19:34.446Z</time></trkpt><trkpt lat="43.8572575" lon="11.2557794"><ele>669.0</ele><time>2026-04-25T09:19:36.441Z</time></trkpt><trkpt lat="43.8573488" lon="11.2558002"><ele>669.0</ele><time>2026-04-25T09:19:38.448Z</time></trkpt><trkpt lat="43.857422" lon="11.2558077"><ele>669.0</ele><time>2026-04-25T09:19:40.456Z</time></trkpt><trkpt lat="43.8574935" lon="11.2557635"><ele>669.0</ele><time>2026-04-25T09:19:43.449Z</time></trkpt><trkpt lat="43.8575784" lon="11.2557511"><ele>669.0</ele><time>2026-04-25T09:19:45.443Z</time></trkpt><trkpt lat="43.8576608" lon="11.2557962"><ele>669.0</ele><time>2026-04-25T09:19:47.446Z</time></trkpt><trkpt lat="43.8577085" lon="11.2558893"><ele>669.0</ele><time>2026-04-25T09:19:49.433Z</time></trkpt><trkpt lat="43.8576867" lon="11.255986"><ele>669.0</ele><time>2026-04-25T09:19:51.438Z</time></trkpt><trkpt lat="43.8577607" lon="11.2560584"><ele>665.3333333333334</ele><time>2026-04-25T09:19:54.441Z</time></trkpt><trkpt lat="43.8578241" lon="11.2560743"><ele>661.6666666666666</ele><time>2026-04-25T09:19:56.439Z</time></trkpt><trkpt lat="43.857913" lon="11.2560379"><ele>658.0</ele><time>2026-04-25T09:19:59.455Z</time></trkpt><trkpt lat="43.8579954" lon="11.2559954"><ele>654.3333333333333</ele><time>2026-04-25T09:20:01.436Z</time></trkpt><trkpt lat="43.8580426" lon="11.2559048"><ele>650.6666666666666</ele><time>2026-04-25T09:20:04.446Z</time></trkpt><trkpt lat="43.8581221" lon="11.2559617"><ele>647.0</ele><time>2026-04-25T09:20:06.448Z</time></trkpt><trkpt lat="43.8582039" lon="11.2559513"><ele>647.0</ele><time>2026-04-25T09:20:08.442Z</time></trkpt><trkpt lat="43.8582393" lon="11.2560337"><ele>647.0</ele><time>2026-04-25T09:20:10.454Z</time></trkpt><trkpt lat="43.8582647" lon="11.2561274"><ele>647.0</ele><time>2026-04-25T09:20:13.454Z</time></trkpt><trkpt lat="43.8583254" lon="11.2560625"><ele>647.0</ele><time>2026-04-25T09:20:16.448Z</time></trkpt><trkpt lat="43.8583483" lon="11.2559517"><ele>647.0</ele><time>2026-04-25T09:20:19.445Z</time></trkpt><trkpt lat="43.8584168" lon="11.255995"><ele>647.0</ele><time>2026-04-25T09:20:24.427Z</time></trkpt><trkpt lat="43.8585126" lon="11.2560373"><ele>644.2857142857142</ele><time>2026-04-25T09:20:27.43Z</time></trkpt><trkpt lat="43.8585697" lon="11.2560938"><ele>641.5714285714286</ele><time>2026-04-25T09:20:29.427Z</time></trkpt><trkpt lat="43.8585569" lon="11.2561977"><ele>638.8571428571429</ele><time>2026-04-25T09:20:32.428Z</time></trkpt><trkpt lat="43.8586165" lon="11.2562485"><ele>636.1428571428571</ele><time>2026-04-25T09:20:37.424Z</time></trkpt><trkpt lat="43.8586817" lon="11.2562138"><ele>633.4285714285714</ele><time>2026-04-25T09:20:40.415Z</time></trkpt><trkpt lat="43.8587596" lon="11.2562071"><ele>630.7142857142857</ele><time>2026-04-25T09:20:43.425Z</time></trkpt><trkpt lat="43.8588315" lon="11.2562013"><ele>628.0</ele><time>2026-04-25T09:20:45.434Z</time></trkpt><trkpt lat="43.8589298" lon="11.2561912"><ele>628.0</ele><time>2026-04-25T09:20:47.44Z</time></trkpt><trkpt lat="43.8590285" lon="11.2561619"><ele>628.0</ele><time>2026-04-25T09:20:49.441Z</time></trkpt><trkpt lat="43.8591275" lon="11.2561021"><ele>628.0</ele><time>2026-04-25T09:20:51.43Z</time></trkpt><trkpt lat="43.8591856" lon="11.2560151"><ele>628.0</ele><time>2026-04-25T09:20:53.419Z</time></trkpt><trkpt lat="43.8591416" lon="11.2558944"><ele>628.0</ele><time>2026-04-25T09:20:56.434Z</time></trkpt><trkpt lat="43.859181" lon="11.2557792"><ele>628.0</ele><time>2026-04-25T09:20:59.434Z</time></trkpt><trkpt lat="43.8591944" lon="11.2556557"><ele>628.0</ele><time>2026-04-25T09:21:02.433Z</time></trkpt><trkpt lat="43.8591586" lon="11.2555606"><ele>628.0</ele><time>2026-04-25T09:21:04.429Z</time></trkpt><trkpt lat="43.8591011" lon="11.2555053"><ele>628.0</ele><time>2026-04-25T09:21:06.431Z</time></trkpt><trkpt lat="43.8590736" lon="11.2554262"><ele>628.0</ele><time>2026-04-25T09:21:08.431Z</time></trkpt><trkpt lat="43.8590504" lon="11.2553241"><ele>628.0</ele><time>2026-04-25T09:21:10.43Z</time></trkpt><trkpt lat="43.8590339" lon="11.2552167"><ele>626.2857142857142</ele><time>2026-04-25T09:21:18.436Z</time></trkpt><trkpt lat="43.859023" lon="11.255126"><ele>624.5714285714286</ele><time>2026-04-25T09:21:21.434Z</time></trkpt><trkpt lat="43.8590326" lon="11.2550134"><ele>622.8571428571429</ele><time>2026-04-25T09:21:24.435Z</time></trkpt><trkpt lat="43.8589696" lon="11.2549272"><ele>621.1428571428571</ele><time>2026-04-25T09:21:26.421Z</time></trkpt><trkpt lat="43.8589033" lon="11.2548899"><ele>619.4285714285714</ele><time>2026-04-25T09:21:28.425Z</time></trkpt><trkpt lat="43.8588489" lon="11.2548334"><ele>617.7142857142857</ele><time>2026-04-25T09:23:43.43Z</time></trkpt><trkpt lat="43.8588052" lon="11.2547635"><ele>616.0</ele><time>2026-04-25T09:23:51.43Z</time></trkpt><trkpt lat="43.8587628" lon="11.2546755"><ele>612.3333333333334</ele><time>2026-04-25T09:23:57.423Z</time></trkpt><trkpt lat="43.8587081" lon="11.2545981"><ele>608.6666666666667</ele><time>2026-04-25T09:24:02.422Z</time></trkpt><trkpt lat="43.8586912" lon="11.2545051"><ele>605.0</ele><time>2026-04-25T09:24:06.433Z</time></trkpt><trkpt lat="43.8586631" lon="11.2544114"><ele>601.3333333333334</ele><time>2026-04-25T09:24:11.437Z</time></trkpt><trkpt lat="43.8586294" lon="11.2543289"><ele>597.6666666666666</ele><time>2026-04-25T09:24:15.425Z</time></trkpt><trkpt lat="43.8585798" lon="11.2542419"><ele>594.0</ele><time>2026-04-25T09:24:19.436Z</time></trkpt><trkpt lat="43.8585021" lon="11.2541931"><ele>596.5714285714286</ele><time>2026-04-25T09:24:22.434Z</time></trkpt><trkpt lat="43.8584383" lon="11.2541528"><ele>599.1428571428572</ele><time>2026-04-25T09:24:25.434Z</time></trkpt><trkpt lat="43.8583711" lon="11.2541217"><ele>601.7142857142858</ele><time>2026-04-25T09:24:34.431Z</time></trkpt><trkpt lat="43.8583097" lon="11.2541015"><ele>604.2857142857143</ele><time>2026-04-25T09:24:38.441Z</time></trkpt><trkpt lat="43.8582388" lon="11.2540987"><ele>606.8571428571429</ele><time>2026-04-25T09:24:54.415Z</time></trkpt><trkpt lat="43.8581679" lon="11.2540824"><ele>609.4285714285714</ele><time>2026-04-25T09:24:58.426Z</time></trkpt><trkpt lat="43.8580876" lon="11.2540417"><ele>612.0</ele><time>2026-04-25T09:25:02.421Z</time></trkpt><trkpt lat="43.8580214" lon="11.2540055"><ele>612.0</ele><time>2026-04-25T09:25:05.423Z</time></trkpt><trkpt lat="43.8579551" lon="11.2539574"><ele>612.0</ele><time>2026-04-25T09:25:09.419Z</time></trkpt><trkpt lat="43.8579178" lon="11.2538663"><ele>612.0</ele><time>2026-04-25T09:25:13.42Z</time></trkpt><trkpt lat="43.8578788" lon="11.2537716"><ele>612.0</ele><time>2026-04-25T09:25:20.43Z</time></trkpt><trkpt lat="43.8578336" lon="11.2536811"><ele>612.0</ele><time>2026-04-25T09:25:23.438Z</time></trkpt><trkpt lat="43.8577856" lon="11.2536023"><ele>612.0</ele><time>2026-04-25T09:25:25.438Z</time></trkpt><trkpt lat="43.8577323" lon="11.2535079"><ele>612.8333333333334</ele><time>2026-04-25T09:25:27.433Z</time></trkpt><trkpt lat="43.8576797" lon="11.2534"><ele>613.6666666666666</ele><time>2026-04-25T09:25:29.435Z</time></trkpt><trkpt lat="43.8576254" lon="11.2533136"><ele>614.5</ele><time>2026-04-25T09:25:31.432Z</time></trkpt><trkpt lat="43.8575478" lon="11.2532226"><ele>615.3333333333333</ele><time>2026-04-25T09:25:33.428Z</time></trkpt><trkpt lat="43.8575009" lon="11.2531306"><ele>616.1666666666666</ele><time>2026-04-25T09:25:35.432Z</time></trkpt><trkpt lat="43.8574429" lon="11.2530789"><ele>617.0</ele><time>2026-04-25T09:25:37.423Z</time></trkpt><trkpt lat="43.8573868" lon="11.2530246"><ele>617.0</ele><time>2026-04-25T09:25:39.435Z</time></trkpt><trkpt lat="43.8573243" lon="11.2530018"><ele>617.0</ele><time>2026-04-25T09:25:41.421Z</time></trkpt><trkpt lat="43.8572937" lon="11.2529159"><ele>617.0</ele><time>2026-04-25T09:25:47.428Z</time></trkpt><trkpt lat="43.8572841" lon="11.2528227"><ele>617.0</ele><time>2026-04-25T09:25:52.426Z</time></trkpt><trkpt lat="43.8572175" lon="11.2528075"><ele>617.0</ele><time>2026-04-25T09:25:59.417Z</time></trkpt><trkpt lat="43.8572825" lon="11.2527791"><ele>617.0</ele><time>2026-04-25T09:26:03.422Z</time></trkpt><trkpt lat="43.8573286" lon="11.2527072"><ele>617.0</ele><time>2026-04-25T09:26:06.418Z</time></trkpt><trkpt lat="43.8573723" lon="11.2525971"><ele>617.0</ele><time>2026-04-25T09:26:09.412Z</time></trkpt><trkpt lat="43.857418" lon="11.2525177"><ele>617.0</ele><time>2026-04-25T09:26:12.418Z</time></trkpt><trkpt lat="43.8574822" lon="11.2524715"><ele>617.0</ele><time>2026-04-25T09:26:15.426Z</time></trkpt><trkpt lat="43.8575409" lon="11.2523888"><ele>617.0</ele><time>2026-04-25T09:26:18.413Z</time></trkpt><trkpt lat="43.8576262" lon="11.2523373"><ele>617.0</ele><time>2026-04-25T09:26:21.415Z</time></trkpt><trkpt lat="43.8576797" lon="11.2522732"><ele>617.0</ele><time>2026-04-25T09:26:23.42Z</time></trkpt><trkpt lat="43.8577434" lon="11.2521842"><ele>614.8333333333333</ele><time>2026-04-25T09:26:26.43Z</time></trkpt><trkpt lat="43.857798" lon="11.2521245"><ele>612.6666666666666</ele><time>2026-04-25T09:26:29.412Z</time></trkpt><trkpt lat="43.8578644" lon="11.2520489"><ele>610.5</ele><time>2026-04-25T09:26:32.427Z</time></trkpt><trkpt lat="43.8579179" lon="11.2519644"><ele>608.3333333333334</ele><time>2026-04-25T09:26:35.427Z</time></trkpt><trkpt lat="43.8579658" lon="11.251882"><ele>606.1666666666667</ele><time>2026-04-25T09:26:38.428Z</time></trkpt><trkpt lat="43.8580173" lon="11.25179"><ele>604.0</ele><time>2026-04-25T09:26:41.439Z</time></trkpt><trkpt lat="43.8580586" lon="11.2516911"><ele>604.0</ele><time>2026-04-25T09:26:44.427Z</time></trkpt><trkpt lat="43.8580971" lon="11.2515895"><ele>604.0</ele><time>2026-04-25T09:26:47.43Z</time></trkpt><trkpt lat="43.8581186" lon="11.2515026"><ele>604.0</ele><time>2026-04-25T09:26:49.423Z</time></trkpt><trkpt lat="43.8581329" lon="11.2514146"><ele>604.0</ele><time>2026-04-25T09:26:51.427Z</time></trkpt><trkpt lat="43.8581451" lon="11.2512773"><ele>604.0</ele><time>2026-04-25T09:26:54.419Z</time></trkpt><trkpt lat="43.8581466" lon="11.2511673"><ele>604.0</ele><time>2026-04-25T09:26:56.428Z</time></trkpt><trkpt lat="43.8581191" lon="11.2510793"><ele>604.0</ele><time>2026-04-25T09:26:58.432Z</time></trkpt><trkpt lat="43.8580775" lon="11.2509855"><ele>604.0</ele><time>2026-04-25T09:27:00.425Z</time></trkpt><trkpt lat="43.8580264" lon="11.2509065"><ele>604.0</ele><time>2026-04-25T09:27:02.428Z</time></trkpt><trkpt lat="43.857981" lon="11.2508331"><ele>604.0</ele><time>2026-04-25T09:27:04.43Z</time></trkpt><trkpt lat="43.857915" lon="11.2507337"><ele>604.0</ele><time>2026-04-25T09:27:06.431Z</time></trkpt><trkpt lat="43.8578514" lon="11.250663"><ele>604.0</ele><time>2026-04-25T09:27:08.429Z</time></trkpt><trkpt lat="43.8577777" lon="11.2505991"><ele>604.3333333333334</ele><time>2026-04-25T09:27:10.417Z</time></trkpt><trkpt lat="43.857705" lon="11.2505417"><ele>604.6666666666667</ele><time>2026-04-25T09:27:12.438Z</time></trkpt><trkpt lat="43.8576309" lon="11.2504934"><ele>605.0</ele><time>2026-04-25T09:27:14.432Z</time></trkpt><trkpt lat="43.8575596" lon="11.2504326"><ele>605.3333333333334</ele><time>2026-04-25T09:27:16.424Z</time></trkpt><trkpt lat="43.8574871" lon="11.2503636"><ele>605.6666666666666</ele><time>2026-04-25T09:27:18.424Z</time></trkpt><trkpt lat="43.8574202" lon="11.2503056"><ele>606.0</ele><time>2026-04-25T09:27:20.417Z</time></trkpt><trkpt lat="43.857349" lon="11.2502525"><ele>606.0</ele><time>2026-04-25T09:27:22.422Z</time></trkpt><trkpt lat="43.8572702" lon="11.2502107"><ele>606.0</ele><time>2026-04-25T09:27:24.422Z</time></trkpt><trkpt lat="43.857196" lon="11.2501447"><ele>606.0</ele><time>2026-04-25T09:27:27.418Z</time></trkpt><trkpt lat="43.8571356" lon="11.2501071"><ele>606.0</ele><time>2026-04-25T09:27:29.417Z</time></trkpt><trkpt lat="43.8570639" lon="11.2500807"><ele>606.0</ele><time>2026-04-25T09:27:31.415Z</time></trkpt><trkpt lat="43.8569715" lon="11.2500487"><ele>606.0</ele><time>2026-04-25T09:27:33.419Z</time></trkpt><trkpt lat="43.8568899" lon="11.2499988"><ele>606.0</ele><time>2026-04-25T09:27:35.421Z</time></trkpt><trkpt lat="43.8567955" lon="11.2499538"><ele>606.0</ele><time>2026-04-25T09:27:37.418Z</time></trkpt><trkpt lat="43.8567279" lon="11.2499076"><ele>606.0</ele><time>2026-04-25T09:27:39.419Z</time></trkpt><trkpt lat="43.8566552" lon="11.2498536"><ele>606.0</ele><time>2026-04-25T09:27:41.417Z</time></trkpt><trkpt lat="43.8566077" lon="11.249791"><ele>606.0</ele><time>2026-04-25T09:27:43.43Z</time></trkpt><trkpt lat="43.8565346" lon="11.2497317"><ele>606.0</ele><time>2026-04-25T09:27:45.42Z</time></trkpt><trkpt lat="43.8564284" lon="11.2496955"><ele>604.3333333333334</ele><time>2026-04-25T09:27:47.419Z</time></trkpt><trkpt lat="43.8563593" lon="11.2496357"><ele>602.6666666666666</ele><time>2026-04-25T09:27:49.418Z</time></trkpt><trkpt lat="43.8562851" lon="11.2495911"><ele>601.0</ele><time>2026-04-25T09:27:51.418Z</time></trkpt><trkpt lat="43.8562146" lon="11.2495405"><ele>599.3333333333333</ele><time>2026-04-25T09:27:53.417Z</time></trkpt><trkpt lat="43.8561508" lon="11.2494913"><ele>597.6666666666666</ele><time>2026-04-25T09:27:55.42Z</time></trkpt><trkpt lat="43.8560581" lon="11.2494593"><ele>596.0</ele><time>2026-04-25T09:27:57.414Z</time></trkpt><trkpt lat="43.8559777" lon="11.2494315"><ele>599.0</ele><time>2026-04-25T09:27:59.422Z</time></trkpt><trkpt lat="43.8558985" lon="11.2493994"><ele>602.0</ele><time>2026-04-25T09:28:01.425Z</time></trkpt><trkpt lat="43.8558038" lon="11.2493665"><ele>605.0</ele><time>2026-04-25T09:28:04.423Z</time></trkpt><trkpt lat="43.8557188" lon="11.2493308"><ele>608.0</ele><time>2026-04-25T09:28:07.422Z</time></trkpt><trkpt lat="43.8556525" lon="11.2493323"><ele>611.0</ele><time>2026-04-25T09:28:09.417Z</time></trkpt><trkpt lat="43.8555937" lon="11.2492637"><ele>614.0</ele><time>2026-04-25T09:28:13.42Z</time></trkpt><trkpt lat="43.8555277" lon="11.2492262"><ele>614.0</ele><time>2026-04-25T09:28:16.424Z</time></trkpt><trkpt lat="43.8554607" lon="11.2492108"><ele>614.0</ele><time>2026-04-25T09:28:19.419Z</time></trkpt><trkpt lat="43.8554003" lon="11.2491284"><ele>614.0</ele><time>2026-04-25T09:28:23.42Z</time></trkpt><trkpt lat="43.855382" lon="11.2490285"><ele>614.0</ele><time>2026-04-25T09:28:27.407Z</time></trkpt><trkpt lat="43.8554029" lon="11.248881"><ele>614.0</ele><time>2026-04-25T09:28:30.404Z</time></trkpt><trkpt lat="43.8553931" lon="11.2487922"><ele>614.0</ele><time>2026-04-25T09:28:33.419Z</time></trkpt><trkpt lat="43.8554627" lon="11.2487703"><ele>615.0</ele><time>2026-04-25T09:28:37.405Z</time></trkpt><trkpt lat="43.8555526" lon="11.2486804"><ele>616.0</ele><time>2026-04-25T09:28:39.409Z</time></trkpt><trkpt lat="43.8556057" lon="11.2486078"><ele>617.0</ele><time>2026-04-25T09:28:40.409Z</time></trkpt><trkpt lat="43.8556602" lon="11.248522"><ele>618.0</ele><time>2026-04-25T09:28:42.422Z</time></trkpt><trkpt lat="43.8557201" lon="11.2484577"><ele>619.0</ele><time>2026-04-25T09:28:44.417Z</time></trkpt><trkpt lat="43.8557783" lon="11.2483813"><ele>620.0</ele><time>2026-04-25T09:28:46.414Z</time></trkpt><trkpt lat="43.8558337" lon="11.248336"><ele>620.0</ele><time>2026-04-25T09:28:48.414Z</time></trkpt><trkpt lat="43.8559011" lon="11.2483253"><ele>620.0</ele><time>2026-04-25T09:28:50.422Z</time></trkpt><trkpt lat="43.8559956" lon="11.248292"><ele>620.0</ele><time>2026-04-25T09:28:53.415Z</time></trkpt><trkpt lat="43.8560837" lon="11.2482674"><ele>620.0</ele><time>2026-04-25T09:28:55.413Z</time></trkpt><trkpt lat="43.8561557" lon="11.2482384"><ele>620.0</ele><time>2026-04-25T09:28:57.409Z</time></trkpt><trkpt lat="43.8562262" lon="11.2482111"><ele>620.0</ele><time>2026-04-25T09:28:59.414Z</time></trkpt><trkpt lat="43.8562976" lon="11.2481754"><ele>622.1666666666666</ele><time>2026-04-25T09:29:01.409Z</time></trkpt><trkpt lat="43.8563628" lon="11.2481652"><ele>624.3333333333333</ele><time>2026-04-25T09:29:03.409Z</time></trkpt><trkpt lat="43.8564273" lon="11.2481431"><ele>626.5</ele><time>2026-04-25T09:29:05.408Z</time></trkpt><trkpt lat="43.8565077" lon="11.2481012"><ele>628.6666666666666</ele><time>2026-04-25T09:29:08.411Z</time></trkpt><trkpt lat="43.8565868" lon="11.2480732"><ele>630.8333333333334</ele><time>2026-04-25T09:29:11.415Z</time></trkpt><trkpt lat="43.8566638" lon="11.2480419"><ele>633.0</ele><time>2026-04-25T09:29:14.417Z</time></trkpt><trkpt lat="43.8567341" lon="11.2479994"><ele>630.5714285714286</ele><time>2026-04-25T09:29:17.422Z</time></trkpt><trkpt lat="43.8568139" lon="11.24795"><ele>628.1428571428571</ele><time>2026-04-25T09:29:20.418Z</time></trkpt><trkpt lat="43.8568931" lon="11.2478906"><ele>625.7142857142858</ele><time>2026-04-25T09:29:23.419Z</time></trkpt><trkpt lat="43.8569533" lon="11.2478571"><ele>623.2857142857142</ele><time>2026-04-25T09:29:25.42Z</time></trkpt><trkpt lat="43.8570113" lon="11.2478216"><ele>620.8571428571429</ele><time>2026-04-25T09:29:27.42Z</time></trkpt><trkpt lat="43.8570744" lon="11.2477729"><ele>618.4285714285714</ele><time>2026-04-25T09:29:30.417Z</time></trkpt><trkpt lat="43.8571347" lon="11.2477421"><ele>616.0</ele><time>2026-04-25T09:29:33.413Z</time></trkpt><trkpt lat="43.8572143" lon="11.2477089"><ele>616.0</ele><time>2026-04-25T09:29:36.422Z</time></trkpt><trkpt lat="43.8572875" lon="11.2476724"><ele>616.0</ele><time>2026-04-25T09:29:39.413Z</time></trkpt><trkpt lat="43.8573506" lon="11.2476221"><ele>616.0</ele><time>2026-04-25T09:29:42.405Z</time></trkpt><trkpt lat="43.8574112" lon="11.2475851"><ele>616.0</ele><time>2026-04-25T09:29:45.41Z</time></trkpt><trkpt lat="43.8574727" lon="11.2475416"><ele>616.0</ele><time>2026-04-25T09:29:49.411Z</time></trkpt><trkpt lat="43.8575252" lon="11.247464"><ele>616.0</ele><time>2026-04-25T09:29:53.427Z</time></trkpt><trkpt lat="43.8575794" lon="11.2473841"><ele>616.0</ele><time>2026-04-25T09:29:57.416Z</time></trkpt><trkpt lat="43.8576292" lon="11.2473254"><ele>611.8571428571429</ele><time>2026-04-25T09:30:00.418Z</time></trkpt><trkpt lat="43.8576817" lon="11.2472547"><ele>607.7142857142858</ele><time>2026-04-25T09:30:03.421Z</time></trkpt><trkpt lat="43.857727" lon="11.2471871"><ele>603.5714285714286</ele><time>2026-04-25T09:30:08.421Z</time></trkpt><trkpt lat="43.8577593" lon="11.2470888"><ele>599.4285714285714</ele><time>2026-04-25T09:30:13.419Z</time></trkpt><trkpt lat="43.857765" lon="11.2469975"><ele>595.2857142857143</ele><time>2026-04-25T09:30:17.415Z</time></trkpt><trkpt lat="43.8577482" lon="11.2468961"><ele>591.1428571428571</ele><time>2026-04-25T09:30:22.428Z</time></trkpt><trkpt lat="43.8577574" lon="11.2467999"><ele>587.0</ele><time>2026-04-25T09:30:26.436Z</time></trkpt><trkpt lat="43.8577486" lon="11.2467128"><ele>587.0</ele><time>2026-04-25T09:30:32.423Z</time></trkpt><trkpt lat="43.857735" lon="11.2466194"><ele>587.0</ele><time>2026-04-25T09:30:36.428Z</time></trkpt><trkpt lat="43.8577281" lon="11.2465067"><ele>587.0</ele><time>2026-04-25T09:30:40.417Z</time></trkpt><trkpt lat="43.8577088" lon="11.2463944"><ele>587.0</ele><time>2026-04-25T09:30:44.427Z</time></trkpt><trkpt lat="43.8577089" lon="11.2462624"><ele>587.0</ele><time>2026-04-25T09:30:48.413Z</time></trkpt><trkpt lat="43.8576816" lon="11.2461722"><ele>587.0</ele><time>2026-04-25T09:30:51.411Z</time></trkpt><trkpt lat="43.8576674" lon="11.2460836"><ele>586.3333333333333</ele><time>2026-04-25T09:30:54.428Z</time></trkpt><trkpt lat="43.8576529" lon="11.2459803"><ele>585.6666666666666</ele><time>2026-04-25T09:30:58.419Z</time></trkpt><trkpt lat="43.8576301" lon="11.2458751"><ele>585.0</ele><time>2026-04-25T09:31:02.425Z</time></trkpt><trkpt lat="43.8575904" lon="11.2457864"><ele>584.3333333333334</ele><time>2026-04-25T09:31:07.424Z</time></trkpt><trkpt lat="43.8575555" lon="11.2456964"><ele>583.6666666666667</ele><time>2026-04-25T09:31:12.426Z</time></trkpt><trkpt lat="43.8575174" lon="11.2456007"><ele>583.0</ele><time>2026-04-25T09:31:16.426Z</time></trkpt><trkpt lat="43.8574585" lon="11.2455453"><ele>587.7142857142858</ele><time>2026-04-25T09:31:19.428Z</time></trkpt><trkpt lat="43.8574131" lon="11.2454707"><ele>592.4285714285714</ele><time>2026-04-25T09:31:23.422Z</time></trkpt><trkpt lat="43.8573543" lon="11.2453942"><ele>597.1428571428571</ele><time>2026-04-25T09:31:27.417Z</time></trkpt><trkpt lat="43.8573041" lon="11.2453274"><ele>601.8571428571429</ele><time>2026-04-25T09:31:31.424Z</time></trkpt><trkpt lat="43.8572707" lon="11.2452457"><ele>606.5714285714286</ele><time>2026-04-25T09:31:36.424Z</time></trkpt><trkpt lat="43.857222" lon="11.2451599"><ele>611.2857142857143</ele><time>2026-04-25T09:31:41.431Z</time></trkpt><trkpt lat="43.8571766" lon="11.2450712"><ele>616.0</ele><time>2026-04-25T09:31:46.426Z</time></trkpt><trkpt lat="43.8571149" lon="11.2449999"><ele>616.0</ele><time>2026-04-25T09:31:50.437Z</time></trkpt><trkpt lat="43.8570568" lon="11.2449236"><ele>616.0</ele><time>2026-04-25T09:31:54.42Z</time></trkpt><trkpt lat="43.8570159" lon="11.2448381"><ele>616.0</ele><time>2026-04-25T09:31:58.423Z</time></trkpt><trkpt lat="43.8569509" lon="11.2447919"><ele>616.0</ele><time>2026-04-25T09:32:02.427Z</time></trkpt><trkpt lat="43.856875" lon="11.244765"><ele>616.0</ele><time>2026-04-25T09:32:06.425Z</time></trkpt><trkpt lat="43.8568167" lon="11.2447097"><ele>616.0</ele><time>2026-04-25T09:32:11.418Z</time></trkpt><trkpt lat="43.8567422" lon="11.244694"><ele>616.0</ele><time>2026-04-25T09:32:15.422Z</time></trkpt><trkpt lat="43.8566622" lon="11.2446828"><ele>616.0</ele><time>2026-04-25T09:32:19.424Z</time></trkpt><trkpt lat="43.8565846" lon="11.2446615"><ele>616.0</ele><time>2026-04-25T09:32:23.43Z</time></trkpt><trkpt lat="43.8565106" lon="11.2446589"><ele>616.0</ele><time>2026-04-25T09:32:26.412Z</time></trkpt><trkpt lat="43.8564392" lon="11.2446405"><ele>616.0</ele><time>2026-04-25T09:32:31.426Z</time></trkpt><trkpt lat="43.856376" lon="11.2446217"><ele>616.0</ele><time>2026-04-25T09:32:36.423Z</time></trkpt><trkpt lat="43.856301" lon="11.2445839"><ele>616.0</ele><time>2026-04-25T09:32:44.434Z</time></trkpt><trkpt lat="43.8562375" lon="11.2445705"><ele>616.0</ele><time>2026-04-25T09:32:47.425Z</time></trkpt><trkpt lat="43.8561664" lon="11.244529"><ele>616.0</ele><time>2026-04-25T09:32:52.432Z</time></trkpt><trkpt lat="43.856103" lon="11.2444869"><ele>616.0</ele><time>2026-04-25T09:32:58.421Z</time></trkpt><trkpt lat="43.8560325" lon="11.2444353"><ele>616.0</ele><time>2026-04-25T09:33:03.416Z</time></trkpt><trkpt lat="43.8559599" lon="11.2443869"><ele>616.0</ele><time>2026-04-25T09:33:07.423Z</time></trkpt><trkpt lat="43.8559008" lon="11.2443175"><ele>616.0</ele><time>2026-04-25T09:33:10.415Z</time></trkpt><trkpt lat="43.8558407" lon="11.244267"><ele>618.2857142857143</ele><time>2026-04-25T09:33:13.422Z</time></trkpt><trkpt lat="43.8557734" lon="11.2442282"><ele>620.5714285714286</ele><time>2026-04-25T09:33:17.425Z</time></trkpt><trkpt lat="43.8557357" lon="11.2441383"><ele>622.8571428571429</ele><time>2026-04-25T09:33:23.424Z</time></trkpt><trkpt lat="43.8557595" lon="11.2440467"><ele>625.1428571428571</ele><time>2026-04-25T09:33:28.418Z</time></trkpt><trkpt lat="43.8557891" lon="11.2439588"><ele>627.4285714285714</ele><time>2026-04-25T09:33:32.42Z</time></trkpt><trkpt lat="43.8558137" lon="11.2438528"><ele>629.7142857142858</ele><time>2026-04-25T09:33:36.415Z</time></trkpt><trkpt lat="43.855834" lon="11.2437685"><ele>632.0</ele><time>2026-04-25T09:33:39.413Z</time></trkpt><trkpt lat="43.8558528" lon="11.2436783"><ele>632.0</ele><time>2026-04-25T09:33:42.419Z</time></trkpt><trkpt lat="43.8558713" lon="11.2435699"><ele>632.0</ele><time>2026-04-25T09:33:46.422Z</time></trkpt><trkpt lat="43.8558678" lon="11.2434617"><ele>632.0</ele><time>2026-04-25T09:33:50.424Z</time></trkpt><trkpt lat="43.8558622" lon="11.2433612"><ele>632.0</ele><time>2026-04-25T09:33:53.426Z</time></trkpt><trkpt lat="43.855855" lon="11.2432558"><ele>632.0</ele><time>2026-04-25T09:33:56.426Z</time></trkpt><trkpt lat="43.8558123" lon="11.2431679"><ele>632.0</ele><time>2026-04-25T09:33:59.422Z</time></trkpt><trkpt lat="43.8557814" lon="11.2430795"><ele>630.6666666666666</ele><time>2026-04-25T09:34:02.421Z</time></trkpt><trkpt lat="43.8557319" lon="11.2430031"><ele>629.3333333333333</ele><time>2026-04-25T09:34:05.429Z</time></trkpt><trkpt lat="43.8556777" lon="11.2429142"><ele>628.0</ele><time>2026-04-25T09:34:09.427Z</time></trkpt><trkpt lat="43.8556103" lon="11.2428187"><ele>626.6666666666666</ele><time>2026-04-25T09:34:12.426Z</time></trkpt><trkpt lat="43.8555553" lon="11.242769"><ele>625.3333333333334</ele><time>2026-04-25T09:34:14.422Z</time></trkpt><trkpt lat="43.8554823" lon="11.2427077"><ele>624.0</ele><time>2026-04-25T09:34:16.429Z</time></trkpt><trkpt lat="43.8554341" lon="11.2426449"><ele>624.0</ele><time>2026-04-25T09:34:18.418Z</time></trkpt><trkpt lat="43.8553609" lon="11.2425607"><ele>624.0</ele><time>2026-04-25T09:34:21.416Z</time></trkpt><trkpt lat="43.8553309" lon="11.2424824"><ele>624.0</ele><time>2026-04-25T09:34:23.431Z</time></trkpt><trkpt lat="43.8553165" lon="11.2423962"><ele>624.0</ele><time>2026-04-25T09:34:25.438Z</time></trkpt><trkpt lat="43.8552885" lon="11.2422736"><ele>624.0</ele><time>2026-04-25T09:34:28.431Z</time></trkpt><trkpt lat="43.8552408" lon="11.2421676"><ele>624.0</ele><time>2026-04-25T09:34:31.423Z</time></trkpt><trkpt lat="43.8551875" lon="11.2420811"><ele>622.6666666666666</ele><time>2026-04-25T09:34:34.426Z</time></trkpt><trkpt lat="43.8551305" lon="11.241997"><ele>621.3333333333334</ele><time>2026-04-25T09:34:37.429Z</time></trkpt><trkpt lat="43.855077" lon="11.2419165"><ele>620.0</ele><time>2026-04-25T09:34:40.435Z</time></trkpt><trkpt lat="43.8550232" lon="11.2418705"><ele>618.6666666666667</ele><time>2026-04-25T09:34:42.427Z</time></trkpt><trkpt lat="43.8549654" lon="11.241823"><ele>617.3333333333334</ele><time>2026-04-25T09:34:44.423Z</time></trkpt><trkpt lat="43.8548786" lon="11.2417708"><ele>616.0</ele><time>2026-04-25T09:34:47.428Z</time></trkpt><trkpt lat="43.8548065" lon="11.2417063"><ele>618.6666666666667</ele><time>2026-04-25T09:34:50.441Z</time></trkpt><trkpt lat="43.8547441" lon="11.241672"><ele>621.3333333333334</ele><time>2026-04-25T09:34:52.432Z</time></trkpt><trkpt lat="43.8546776" lon="11.2416"><ele>624.0</ele><time>2026-04-25T09:34:55.424Z</time></trkpt><trkpt lat="43.8546047" lon="11.2415155"><ele>626.6666666666666</ele><time>2026-04-25T09:34:58.427Z</time></trkpt><trkpt lat="43.8545513" lon="11.2414107"><ele>629.3333333333333</ele><time>2026-04-25T09:35:01.421Z</time></trkpt><trkpt lat="43.8545393" lon="11.2413232"><ele>632.0</ele><time>2026-04-25T09:35:03.421Z</time></trkpt><trkpt lat="43.8545168" lon="11.2412344"><ele>632.0</ele><time>2026-04-25T09:35:06.424Z</time></trkpt><trkpt lat="43.8545086" lon="11.2411332"><ele>632.0</ele><time>2026-04-25T09:35:11.429Z</time></trkpt><trkpt lat="43.8545527" lon="11.2410434"><ele>632.0</ele><time>2026-04-25T09:35:15.432Z</time></trkpt><trkpt lat="43.8546019" lon="11.2409603"><ele>632.0</ele><time>2026-04-25T09:35:18.43Z</time></trkpt><trkpt lat="43.8546539" lon="11.2408843"><ele>632.0</ele><time>2026-04-25T09:35:21.426Z</time></trkpt><trkpt lat="43.8547081" lon="11.2408111"><ele>632.0</ele><time>2026-04-25T09:35:24.426Z</time></trkpt><trkpt lat="43.8547814" lon="11.2407651"><ele>632.0</ele><time>2026-04-25T09:35:27.431Z</time></trkpt><trkpt lat="43.8548607" lon="11.240714"><ele>632.0</ele><time>2026-04-25T09:35:30.443Z</time></trkpt><trkpt lat="43.8549314" lon="11.2406668"><ele>632.0</ele><time>2026-04-25T09:35:33.431Z</time></trkpt><trkpt lat="43.8550095" lon="11.2406009"><ele>632.0</ele><time>2026-04-25T09:35:36.436Z</time></trkpt><trkpt lat="43.8550616" lon="11.2405473"><ele>632.0</ele><time>2026-04-25T09:35:38.432Z</time></trkpt><trkpt lat="43.8551386" lon="11.2404858"><ele>632.0</ele><time>2026-04-25T09:35:41.436Z</time></trkpt><trkpt lat="43.8552216" lon="11.240428"><ele>633.1666666666666</ele><time>2026-04-25T09:35:44.428Z</time></trkpt><trkpt lat="43.8553035" lon="11.2403658"><ele>634.3333333333333</ele><time>2026-04-25T09:35:47.437Z</time></trkpt><trkpt lat="43.8553561" lon="11.240313"><ele>635.5</ele><time>2026-04-25T09:35:49.435Z</time></trkpt><trkpt lat="43.8554309" lon="11.2402593"><ele>636.6666666666666</ele><time>2026-04-25T09:35:52.438Z</time></trkpt><trkpt lat="43.855493" lon="11.2401991"><ele>637.8333333333334</ele><time>2026-04-25T09:35:55.433Z</time></trkpt><trkpt lat="43.8555461" lon="11.2401222"><ele>639.0</ele><time>2026-04-25T09:35:58.429Z</time></trkpt><trkpt lat="43.8555871" lon="11.240048"><ele>639.0000000000001</ele><time>2026-04-25T09:36:01.431Z</time></trkpt><trkpt lat="43.8556181" lon="11.2399671"><ele>639.0</ele><time>2026-04-25T09:36:04.435Z</time></trkpt><trkpt lat="43.8556428" lon="11.2398749"><ele>639.0</ele><time>2026-04-25T09:36:07.43Z</time></trkpt><trkpt lat="43.8556743" lon="11.2397832"><ele>639.0</ele><time>2026-04-25T09:36:11.431Z</time></trkpt><trkpt lat="43.8557358" lon="11.2397544"><ele>639.0</ele><time>2026-04-25T09:36:14.436Z</time></trkpt><trkpt lat="43.8558036" lon="11.239778"><ele>639.0000000000001</ele><time>2026-04-25T09:36:17.431Z</time></trkpt><trkpt lat="43.855871" lon="11.2398246"><ele>639.0</ele><time>2026-04-25T09:36:20.445Z</time></trkpt><trkpt lat="43.8559267" lon="11.2398757"><ele>640.4285714285714</ele><time>2026-04-25T09:36:23.431Z</time></trkpt><trkpt lat="43.8559895" lon="11.2399263"><ele>641.8571428571429</ele><time>2026-04-25T09:36:26.423Z</time></trkpt><trkpt lat="43.8560549" lon="11.2399815"><ele>643.2857142857142</ele><time>2026-04-25T09:36:29.43Z</time></trkpt><trkpt lat="43.8561216" lon="11.2400167"><ele>644.7142857142858</ele><time>2026-04-25T09:36:32.432Z</time></trkpt><trkpt lat="43.8561927" lon="11.240063"><ele>646.1428571428571</ele><time>2026-04-25T09:36:36.429Z</time></trkpt><trkpt lat="43.8562535" lon="11.240106"><ele>647.5714285714286</ele><time>2026-04-25T09:36:39.432Z</time></trkpt><trkpt lat="43.8563284" lon="11.2401452"><ele>649.0</ele><time>2026-04-25T09:36:42.429Z</time></trkpt><trkpt lat="43.8564148" lon="11.2401583"><ele>649.0</ele><time>2026-04-25T09:36:45.434Z</time></trkpt><trkpt lat="43.856506" lon="11.2401762"><ele>649.0</ele><time>2026-04-25T09:36:48.427Z</time></trkpt><trkpt lat="43.8565648" lon="11.2402103"><ele>649.0</ele><time>2026-04-25T09:36:50.426Z</time></trkpt><trkpt lat="43.8566411" lon="11.2402463"><ele>649.0</ele><time>2026-04-25T09:36:53.426Z</time></trkpt><trkpt lat="43.8567275" lon="11.2403001"><ele>649.0</ele><time>2026-04-25T09:36:56.42Z</time></trkpt><trkpt lat="43.8568078" lon="11.2403242"><ele>649.0</ele><time>2026-04-25T09:36:58.424Z</time></trkpt><trkpt lat="43.8568736" lon="11.2403648"><ele>649.8571428571428</ele><time>2026-04-25T09:37:00.424Z</time></trkpt><trkpt lat="43.8569406" lon="11.2404192"><ele>650.7142857142857</ele><time>2026-04-25T09:37:03.431Z</time></trkpt><trkpt lat="43.857011" lon="11.2404689"><ele>651.5714285714286</ele><time>2026-04-25T09:37:07.425Z</time></trkpt><trkpt lat="43.8570772" lon="11.2405303"><ele>652.4285714285713</ele><time>2026-04-25T09:37:11.427Z</time></trkpt><trkpt lat="43.8571353" lon="11.2405812"><ele>653.2857142857142</ele><time>2026-04-25T09:37:14.425Z</time></trkpt><trkpt lat="43.8571977" lon="11.2406178"><ele>654.1428571428571</ele><time>2026-04-25T09:37:17.435Z</time></trkpt><trkpt lat="43.8572595" lon="11.2406527"><ele>655.0</ele><time>2026-04-25T09:37:21.427Z</time></trkpt><trkpt lat="43.8573304" lon="11.2406887"><ele>654.1428571428571</ele><time>2026-04-25T09:37:24.426Z</time></trkpt><trkpt lat="43.8573934" lon="11.2407033"><ele>653.2857142857142</ele><time>2026-04-25T09:37:26.427Z</time></trkpt><trkpt lat="43.8574748" lon="11.2407119"><ele>652.4285714285713</ele><time>2026-04-25T09:37:29.431Z</time></trkpt><trkpt lat="43.8575489" lon="11.2407153"><ele>651.5714285714286</ele><time>2026-04-25T09:37:33.435Z</time></trkpt><trkpt lat="43.8576145" lon="11.2407043"><ele>650.7142857142857</ele><time>2026-04-25T09:37:36.435Z</time></trkpt><trkpt lat="43.8576804" lon="11.2406669"><ele>649.8571428571428</ele><time>2026-04-25T09:37:39.432Z</time></trkpt><trkpt lat="43.8577521" lon="11.240614"><ele>649.0</ele><time>2026-04-25T09:37:42.436Z</time></trkpt><trkpt lat="43.8578224" lon="11.2405525"><ele>649.0</ele><time>2026-04-25T09:37:45.436Z</time></trkpt><trkpt lat="43.8578721" lon="11.2404984"><ele>649.0</ele><time>2026-04-25T09:37:47.437Z</time></trkpt><trkpt lat="43.8579391" lon="11.2404178"><ele>649.0</ele><time>2026-04-25T09:37:50.444Z</time></trkpt><trkpt lat="43.8580056" lon="11.2403332"><ele>649.0</ele><time>2026-04-25T09:37:53.427Z</time></trkpt><trkpt lat="43.8580649" lon="11.2402492"><ele>649.0</ele><time>2026-04-25T09:37:56.434Z</time></trkpt><trkpt lat="43.8581173" lon="11.2401895"><ele>649.0</ele><time>2026-04-25T09:37:59.431Z</time></trkpt><trkpt lat="43.8581874" lon="11.2401296"><ele>648.9999999999999</ele><time>2026-04-25T09:38:02.427Z</time></trkpt><trkpt lat="43.8582599" lon="11.240081"><ele>649.0</ele><time>2026-04-25T09:38:05.438Z</time></trkpt><trkpt lat="43.8583275" lon="11.2400564"><ele>649.0</ele><time>2026-04-25T09:38:08.436Z</time></trkpt><trkpt lat="43.8583999" lon="11.2400403"><ele>649.0</ele><time>2026-04-25T09:38:11.437Z</time></trkpt><trkpt lat="43.8584655" lon="11.2400152"><ele>649.0</ele><time>2026-04-25T09:38:14.43Z</time></trkpt><trkpt lat="43.8585351" lon="11.2399994"><ele>648.9999999999999</ele><time>2026-04-25T09:38:17.439Z</time></trkpt><trkpt lat="43.8586059" lon="11.239988"><ele>649.0</ele><time>2026-04-25T09:38:20.436Z</time></trkpt><trkpt lat="43.8586862" lon="11.2399557"><ele>648.8333333333334</ele><time>2026-04-25T09:38:24.437Z</time></trkpt><trkpt lat="43.8587524" lon="11.2399258"><ele>648.6666666666667</ele><time>2026-04-25T09:38:27.443Z</time></trkpt><trkpt lat="43.858826" lon="11.2399211"><ele>648.5</ele><time>2026-04-25T09:38:30.434Z</time></trkpt><trkpt lat="43.8589073" lon="11.2398963"><ele>648.3333333333334</ele><time>2026-04-25T09:38:33.434Z</time></trkpt><trkpt lat="43.8589811" lon="11.2398697"><ele>648.1666666666666</ele><time>2026-04-25T09:38:36.433Z</time></trkpt><trkpt lat="43.859053" lon="11.2398381"><ele>648.0</ele><time>2026-04-25T09:38:39.437Z</time></trkpt><trkpt lat="43.8591332" lon="11.2398187"><ele>648.0</ele><time>2026-04-25T09:38:42.434Z</time></trkpt><trkpt lat="43.8592025" lon="11.2398074"><ele>648.0</ele><time>2026-04-25T09:38:45.433Z</time></trkpt><trkpt lat="43.8592812" lon="11.2397687"><ele>648.0</ele><time>2026-04-25T09:38:48.436Z</time></trkpt><trkpt lat="43.8593751" lon="11.239741"><ele>648.0</ele><time>2026-04-25T09:38:51.435Z</time></trkpt><trkpt lat="43.859439" lon="11.2397333"><ele>648.0</ele><time>2026-04-25T09:38:53.434Z</time></trkpt><trkpt lat="43.8595014" lon="11.2397197"><ele>648.0</ele><time>2026-04-25T09:38:55.441Z</time></trkpt><trkpt lat="43.8595871" lon="11.2396904"><ele>647.8333333333334</ele><time>2026-04-25T09:38:58.437Z</time></trkpt><trkpt lat="43.8596715" lon="11.2396822"><ele>647.6666666666666</ele><time>2026-04-25T09:39:01.433Z</time></trkpt><trkpt lat="43.859746" lon="11.2396723"><ele>647.5</ele><time>2026-04-25T09:39:04.435Z</time></trkpt><trkpt lat="43.8598093" lon="11.2396726"><ele>647.3333333333333</ele><time>2026-04-25T09:39:07.432Z</time></trkpt><trkpt lat="43.8598904" lon="11.239658"><ele>647.1666666666666</ele><time>2026-04-25T09:39:11.438Z</time></trkpt><trkpt lat="43.8599745" lon="11.2396615"><ele>647.0</ele><time>2026-04-25T09:39:15.441Z</time></trkpt><trkpt lat="43.8600456" lon="11.2396721"><ele>646.8333333333333</ele><time>2026-04-25T09:39:18.437Z</time></trkpt><trkpt lat="43.8601276" lon="11.2396878"><ele>646.6666666666666</ele><time>2026-04-25T09:39:21.438Z</time></trkpt><trkpt lat="43.8602108" lon="11.2396893"><ele>646.5</ele><time>2026-04-25T09:39:24.435Z</time></trkpt><trkpt lat="43.8602747" lon="11.239679"><ele>646.3333333333334</ele><time>2026-04-25T09:39:26.432Z</time></trkpt><trkpt lat="43.8603534" lon="11.2396655"><ele>646.1666666666667</ele><time>2026-04-25T09:39:29.439Z</time></trkpt><trkpt lat="43.8604236" lon="11.2396573"><ele>646.0</ele><time>2026-04-25T09:39:32.432Z</time></trkpt><trkpt lat="43.860496" lon="11.2396222"><ele>646.0</ele><time>2026-04-25T09:39:35.427Z</time></trkpt><trkpt lat="43.8605824" lon="11.239594"><ele>646.0</ele><time>2026-04-25T09:39:39.432Z</time></trkpt><trkpt lat="43.8606768" lon="11.2395849"><ele>646.0</ele><time>2026-04-25T09:39:42.431Z</time></trkpt><trkpt lat="43.8607556" lon="11.2395708"><ele>646.0</ele><time>2026-04-25T09:39:45.433Z</time></trkpt><trkpt lat="43.8608339" lon="11.2395594"><ele>646.0</ele><time>2026-04-25T09:39:48.43Z</time></trkpt><trkpt lat="43.8609046" lon="11.2395544"><ele>646.0</ele><time>2026-04-25T09:39:51.431Z</time></trkpt><trkpt lat="43.8609825" lon="11.2395368"><ele>646.0000000000001</ele><time>2026-04-25T09:39:54.433Z</time></trkpt><trkpt lat="43.8610605" lon="11.2395168"><ele>646.0</ele><time>2026-04-25T09:39:57.439Z</time></trkpt><trkpt lat="43.8611307" lon="11.2395199"><ele>646.0</ele><time>2026-04-25T09:40:00.428Z</time></trkpt><trkpt lat="43.8611963" lon="11.2395405"><ele>646.0</ele><time>2026-04-25T09:40:03.431Z</time></trkpt><trkpt lat="43.8612612" lon="11.2395516"><ele>646.0</ele><time>2026-04-25T09:40:06.421Z</time></trkpt><trkpt lat="43.8613365" lon="11.2395789"><ele>646.0000000000001</ele><time>2026-04-25T09:40:10.419Z</time></trkpt><trkpt lat="43.8614134" lon="11.2396089"><ele>646.0</ele><time>2026-04-25T09:40:14.429Z</time></trkpt><trkpt lat="43.8614815" lon="11.2396494"><ele>646.0000000000001</ele><time>2026-04-25T09:40:17.427Z</time></trkpt><trkpt lat="43.8615523" lon="11.2396827"><ele>646.0</ele><time>2026-04-25T09:40:20.429Z</time></trkpt><trkpt lat="43.8616191" lon="11.2396902"><ele>646.0</ele><time>2026-04-25T09:40:23.432Z</time></trkpt><trkpt lat="43.8616896" lon="11.239714"><ele>646.0</ele><time>2026-04-25T09:40:26.423Z</time></trkpt><trkpt lat="43.8617548" lon="11.2397367"><ele>646.0</ele><time>2026-04-25T09:40:30.43Z</time></trkpt><trkpt lat="43.8618297" lon="11.2397538"><ele>646.0000000000001</ele><time>2026-04-25T09:40:34.424Z</time></trkpt><trkpt lat="43.8619049" lon="11.2397618"><ele>646.0</ele><time>2026-04-25T09:40:38.431Z</time></trkpt><trkpt lat="43.8619814" lon="11.2397804"><ele>645.0000000000001</ele><time>2026-04-25T09:40:42.42Z</time></trkpt><trkpt lat="43.8620489" lon="11.2397985"><ele>644.0</ele><time>2026-04-25T09:40:46.424Z</time></trkpt><trkpt lat="43.8621129" lon="11.2397816"><ele>643.0</ele><time>2026-04-25T09:40:50.423Z</time></trkpt><trkpt lat="43.8621891" lon="11.2397921"><ele>642.0</ele><time>2026-04-25T09:40:54.432Z</time></trkpt><trkpt lat="43.8622671" lon="11.2398026"><ele>641.0</ele><time>2026-04-25T09:40:58.435Z</time></trkpt><trkpt lat="43.8623324" lon="11.2398137"><ele>640.0000000000001</ele><time>2026-04-25T09:41:01.429Z</time></trkpt><trkpt lat="43.8624003" lon="11.2398426"><ele>639.0</ele><time>2026-04-25T09:41:04.429Z</time></trkpt><trkpt lat="43.8624706" lon="11.2398422"><ele>641.7142857142858</ele><time>2026-04-25T09:41:07.441Z</time></trkpt><trkpt lat="43.8625496" lon="11.2398595"><ele>644.4285714285714</ele><time>2026-04-25T09:41:10.423Z</time></trkpt><trkpt lat="43.8626092" lon="11.2398911"><ele>647.1428571428571</ele><time>2026-04-25T09:41:13.432Z</time></trkpt><trkpt lat="43.862679" lon="11.2399047"><ele>649.8571428571429</ele><time>2026-04-25T09:41:16.428Z</time></trkpt><trkpt lat="43.8627421" lon="11.2399079"><ele>652.5714285714286</ele><time>2026-04-25T09:41:19.431Z</time></trkpt><trkpt lat="43.8628152" lon="11.2399072"><ele>655.2857142857143</ele><time>2026-04-25T09:41:22.426Z</time></trkpt><trkpt lat="43.8628867" lon="11.2399163"><ele>658.0</ele><time>2026-04-25T09:41:25.436Z</time></trkpt><trkpt lat="43.862968" lon="11.2399274"><ele>658.0</ele><time>2026-04-25T09:41:28.438Z</time></trkpt><trkpt lat="43.8630412" lon="11.2399199"><ele>658.0</ele><time>2026-04-25T09:41:31.426Z</time></trkpt><trkpt lat="43.8631041" lon="11.2399451"><ele>658.0</ele><time>2026-04-25T09:41:33.423Z</time></trkpt><trkpt lat="43.8631634" lon="11.2399749"><ele>658.0</ele><time>2026-04-25T09:41:35.431Z</time></trkpt><trkpt lat="43.8632461" lon="11.2400089"><ele>658.0</ele><time>2026-04-25T09:41:38.438Z</time></trkpt><trkpt lat="43.8633372" lon="11.2400378"><ele>658.0</ele><time>2026-04-25T09:41:41.421Z</time></trkpt><trkpt lat="43.8634227" lon="11.2400502"><ele>658.0</ele><time>2026-04-25T09:41:44.426Z</time></trkpt><trkpt lat="43.8634994" lon="11.2400351"><ele>658.0</ele><time>2026-04-25T09:41:47.418Z</time></trkpt><trkpt lat="43.8635738" lon="11.2400563"><ele>658.0</ele><time>2026-04-25T09:41:51.424Z</time></trkpt><trkpt lat="43.8636489" lon="11.2400604"><ele>658.0</ele><time>2026-04-25T09:41:54.422Z</time></trkpt><trkpt lat="43.8637254" lon="11.2400783"><ele>658.0</ele><time>2026-04-25T09:41:57.435Z</time></trkpt><trkpt lat="43.8637917" lon="11.2400951"><ele>658.0</ele><time>2026-04-25T09:42:00.431Z</time></trkpt><trkpt lat="43.863857" lon="11.2401224"><ele>658.0</ele><time>2026-04-25T09:42:03.431Z</time></trkpt><trkpt lat="43.863937" lon="11.2401356"><ele>658.0</ele><time>2026-04-25T09:42:06.438Z</time></trkpt><trkpt lat="43.8640192" lon="11.2401352"><ele>658.0</ele><time>2026-04-25T09:42:09.445Z</time></trkpt><trkpt lat="43.8640986" lon="11.2401356"><ele>658.0</ele><time>2026-04-25T09:42:12.434Z</time></trkpt><trkpt lat="43.8641704" lon="11.2401539"><ele>658.0</ele><time>2026-04-25T09:42:15.437Z</time></trkpt><trkpt lat="43.8642543" lon="11.2401651"><ele>658.0</ele><time>2026-04-25T09:42:19.436Z</time></trkpt><trkpt lat="43.8643181" lon="11.2401708"><ele>658.0</ele><time>2026-04-25T09:42:22.437Z</time></trkpt><trkpt lat="43.8643877" lon="11.2401857"><ele>658.2857142857143</ele><time>2026-04-25T09:42:26.439Z</time></trkpt><trkpt lat="43.8644553" lon="11.2402097"><ele>658.5714285714286</ele><time>2026-04-25T09:42:30.436Z</time></trkpt><trkpt lat="43.8645271" lon="11.2402179"><ele>658.8571428571429</ele><time>2026-04-25T09:42:34.436Z</time></trkpt><trkpt lat="43.864604" lon="11.2402023"><ele>659.1428571428571</ele><time>2026-04-25T09:42:39.432Z</time></trkpt><trkpt lat="43.8646737" lon="11.2402108"><ele>659.4285714285714</ele><time>2026-04-25T09:42:43.441Z</time></trkpt><trkpt lat="43.864737" lon="11.2402095"><ele>659.7142857142858</ele><time>2026-04-25T09:42:47.442Z</time></trkpt><trkpt lat="43.864823" lon="11.2402384"><ele>660.0</ele><time>2026-04-25T09:42:51.432Z</time></trkpt><trkpt lat="43.8648975" lon="11.2402411"><ele>660.0</ele><time>2026-04-25T09:42:54.433Z</time></trkpt><trkpt lat="43.8649728" lon="11.2402469"><ele>660.0</ele><time>2026-04-25T09:42:57.433Z</time></trkpt><trkpt lat="43.8650508" lon="11.2402381"><ele>660.0</ele><time>2026-04-25T09:43:01.43Z</time></trkpt><trkpt lat="43.8651285" lon="11.2402436"><ele>660.0</ele><time>2026-04-25T09:43:06.443Z</time></trkpt><trkpt lat="43.8652022" lon="11.2402707"><ele>660.0</ele><time>2026-04-25T09:43:10.429Z</time></trkpt><trkpt lat="43.8652802" lon="11.2402987"><ele>660.0</ele><time>2026-04-25T09:43:13.436Z</time></trkpt><trkpt lat="43.8653465" lon="11.2402741"><ele>672.0</ele><time>2026-04-25T09:43:16.443Z</time></trkpt><trkpt lat="43.8654114" lon="11.2402665"><ele>672.0</ele><time>2026-04-25T09:43:22.442Z</time></trkpt><trkpt lat="43.8654975" lon="11.2402831"><ele>672.0</ele><time>2026-04-25T09:43:27.435Z</time></trkpt><trkpt lat="43.8655658" lon="11.240311"><ele>672.0</ele><time>2026-04-25T09:43:30.429Z</time></trkpt></trkseg><trkseg><trkpt lat="43.8710481" lon="11.2329942"><ele>756.0</ele><time>2026-04-25T10:02:42.648Z</time></trkpt><trkpt lat="43.8709877" lon="11.2329374"><ele>756.0</ele><time>2026-04-25T10:02:47.664Z</time></trkpt><trkpt lat="43.8709145" lon="11.2328794"><ele>756.0</ele><time>2026-04-25T10:02:51.684Z</time></trkpt><trkpt lat="43.8709707" lon="11.232793"><ele>756.0</ele><time>2026-04-25T10:03:25.439Z</time></trkpt><trkpt lat="43.8710254" lon="11.2327448"><ele>756.0</ele><time>2026-04-25T10:03:33.433Z</time></trkpt><trkpt lat="43.8710998" lon="11.2327459"><ele>756.0</ele><time>2026-04-25T10:03:38.423Z</time></trkpt><trkpt lat="43.8711644" lon="11.2327249"><ele>756.0</ele><time>2026-04-25T10:03:42.429Z</time></trkpt><trkpt lat="43.8712298" lon="11.2327034"><ele>756.0</ele><time>2026-04-25T10:03:45.421Z</time></trkpt><trkpt lat="43.8712903" lon="11.2326699"><ele>756.0</ele><time>2026-04-25T10:03:48.418Z</time></trkpt><trkpt lat="43.8713516" lon="11.2326342"><ele>756.0</ele><time>2026-04-25T10:03:51.421Z</time></trkpt><trkpt lat="43.8714273" lon="11.2326037"><ele>756.0</ele><time>2026-04-25T10:03:55.404Z</time></trkpt><trkpt lat="43.8715035" lon="11.2325897"><ele>756.0</ele><time>2026-04-25T10:03:58.42Z</time></trkpt><trkpt lat="43.8715693" lon="11.2325878"><ele>756.0</ele><time>2026-04-25T10:04:01.423Z</time></trkpt><trkpt lat="43.8716348" lon="11.2325612"><ele>756.0</ele><time>2026-04-25T10:04:04.423Z</time></trkpt><trkpt lat="43.8716941" lon="11.2325183"><ele>756.0</ele><time>2026-04-25T10:04:07.436Z</time></trkpt><trkpt lat="43.8717499" lon="11.2324665"><ele>756.0</ele><time>2026-04-25T10:04:10.422Z</time></trkpt><trkpt lat="43.8718323" lon="11.2324356"><ele>756.0</ele><time>2026-04-25T10:04:14.413Z</time></trkpt><trkpt lat="43.871927" lon="11.2324488"><ele>756.0</ele><time>2026-04-25T10:04:17.428Z</time></trkpt><trkpt lat="43.8719967" lon="11.2324532"><ele>756.0</ele><time>2026-04-25T10:04:20.426Z</time></trkpt><trkpt lat="43.8720686" lon="11.2324304"><ele>756.0</ele><time>2026-04-25T10:04:24.421Z</time></trkpt><trkpt lat="43.8721419" lon="11.2324168"><ele>758.0</ele><time>2026-04-25T10:04:28.436Z</time></trkpt><trkpt lat="43.8722074" lon="11.2323869"><ele>760.0</ele><time>2026-04-25T10:04:32.438Z</time></trkpt><trkpt lat="43.8722909" lon="11.2323915"><ele>762.0</ele><time>2026-04-25T10:04:37.438Z</time></trkpt><trkpt lat="43.8723644" lon="11.232376"><ele>764.0</ele><time>2026-04-25T10:04:41.426Z</time></trkpt><trkpt lat="43.8724409" lon="11.2323774"><ele>766.0</ele><time>2026-04-25T10:04:45.415Z</time></trkpt><trkpt lat="43.8725016" lon="11.2323419"><ele>768.0</ele><time>2026-04-25T10:04:49.41Z</time></trkpt><trkpt lat="43.8725738" lon="11.2323501"><ele>770.0</ele><time>2026-04-25T10:04:52.412Z</time></trkpt><trkpt lat="43.8726514" lon="11.2323634"><ele>770.8571428571429</ele><time>2026-04-25T10:04:55.411Z</time></trkpt><trkpt lat="43.8727215" lon="11.232359"><ele>771.7142857142858</ele><time>2026-04-25T10:04:59.414Z</time></trkpt><trkpt lat="43.8727958" lon="11.2323561"><ele>772.5714285714286</ele><time>2026-04-25T10:05:03.418Z</time></trkpt><trkpt lat="43.8728623" lon="11.2323782"><ele>773.4285714285714</ele><time>2026-04-25T10:05:06.416Z</time></trkpt><trkpt lat="43.8729422" lon="11.2324135"><ele>774.2857142857143</ele><time>2026-04-25T10:05:10.417Z</time></trkpt><trkpt lat="43.8730124" lon="11.2324157"><ele>775.1428571428571</ele><time>2026-04-25T10:05:13.415Z</time></trkpt><trkpt lat="43.8730839" lon="11.2324196"><ele>776.0</ele><time>2026-04-25T10:05:16.416Z</time></trkpt><trkpt lat="43.8731604" lon="11.2324321"><ele>776.0</ele><time>2026-04-25T10:05:19.415Z</time></trkpt><trkpt lat="43.8732389" lon="11.2324456"><ele>776.0</ele><time>2026-04-25T10:05:22.418Z</time></trkpt><trkpt lat="43.8733287" lon="11.232451"><ele>776.0</ele><time>2026-04-25T10:05:25.411Z</time></trkpt><trkpt lat="43.8733985" lon="11.2325006"><ele>776.0</ele><time>2026-04-25T10:05:28.418Z</time></trkpt><trkpt lat="43.8734636" lon="11.2325466"><ele>776.0</ele><time>2026-04-25T10:05:31.412Z</time></trkpt><trkpt lat="43.8735256" lon="11.2325641"><ele>776.0</ele><time>2026-04-25T10:05:34.407Z</time></trkpt><trkpt lat="43.8735871" lon="11.2325883"><ele>776.0</ele><time>2026-04-25T10:05:37.426Z</time></trkpt><trkpt lat="43.8736464" lon="11.2326217"><ele>775.8571428571428</ele><time>2026-04-25T10:05:40.412Z</time></trkpt><trkpt lat="43.8737155" lon="11.2326648"><ele>775.7142857142858</ele><time>2026-04-25T10:05:43.41Z</time></trkpt><trkpt lat="43.873783" lon="11.2327089"><ele>775.5714285714286</ele><time>2026-04-25T10:05:46.41Z</time></trkpt><trkpt lat="43.8738383" lon="11.2327534"><ele>775.4285714285713</ele><time>2026-04-25T10:05:49.41Z</time></trkpt><trkpt lat="43.8739014" lon="11.2327766"><ele>775.2857142857142</ele><time>2026-04-25T10:05:53.418Z</time></trkpt><trkpt lat="43.8739841" lon="11.2327815"><ele>775.1428571428571</ele><time>2026-04-25T10:05:57.412Z</time></trkpt><trkpt lat="43.874062" lon="11.2328152"><ele>775.0</ele><time>2026-04-25T10:06:00.413Z</time></trkpt><trkpt lat="43.8741291" lon="11.2328404"><ele>774.9999999999999</ele><time>2026-04-25T10:06:04.417Z</time></trkpt><trkpt lat="43.8741878" lon="11.2328905"><ele>775.0</ele><time>2026-04-25T10:06:07.427Z</time></trkpt><trkpt lat="43.8742695" lon="11.2329048"><ele>775.0</ele><time>2026-04-25T10:06:10.414Z</time></trkpt><trkpt lat="43.8743395" lon="11.2329098"><ele>775.0</ele><time>2026-04-25T10:06:13.418Z</time></trkpt><trkpt lat="43.874418" lon="11.2329455"><ele>774.9999999999999</ele><time>2026-04-25T10:06:17.412Z</time></trkpt><trkpt lat="43.8744982" lon="11.2329604"><ele>775.0</ele><time>2026-04-25T10:06:20.412Z</time></trkpt><trkpt lat="43.8745787" lon="11.23297"><ele>775.3333333333333</ele><time>2026-04-25T10:06:24.402Z</time></trkpt><trkpt lat="43.8746534" lon="11.232991"><ele>775.6666666666666</ele><time>2026-04-25T10:06:27.412Z</time></trkpt><trkpt lat="43.8747361" lon="11.2330281"><ele>776.0</ele><time>2026-04-25T10:06:30.412Z</time></trkpt><trkpt lat="43.8748024" lon="11.2330683"><ele>776.3333333333333</ele><time>2026-04-25T10:06:33.412Z</time></trkpt><trkpt lat="43.8748684" lon="11.2330882"><ele>776.6666666666666</ele><time>2026-04-25T10:06:36.423Z</time></trkpt><trkpt lat="43.8749412" lon="11.2331078"><ele>777.0</ele><time>2026-04-25T10:06:40.414Z</time></trkpt><trkpt lat="43.8750154" lon="11.2330868"><ele>777.0</ele><time>2026-04-25T10:06:44.408Z</time></trkpt><trkpt lat="43.8750862" lon="11.233059"><ele>777.0</ele><time>2026-04-25T10:06:47.409Z</time></trkpt><trkpt lat="43.8751553" lon="11.23303"><ele>777.0</ele><time>2026-04-25T10:06:51.407Z</time></trkpt><trkpt lat="43.8752169" lon="11.2329966"><ele>777.0</ele><time>2026-04-25T10:06:54.41Z</time></trkpt><trkpt lat="43.8752918" lon="11.2329603"><ele>777.0</ele><time>2026-04-25T10:06:57.415Z</time></trkpt><trkpt lat="43.8753583" lon="11.2329292"><ele>777.0</ele><time>2026-04-25T10:07:00.409Z</time></trkpt><trkpt lat="43.8754445" lon="11.2329179"><ele>777.0</ele><time>2026-04-25T10:07:04.412Z</time></trkpt><trkpt lat="43.8755124" lon="11.2329184"><ele>778.4285714285714</ele><time>2026-04-25T10:07:07.425Z</time></trkpt><trkpt lat="43.8755819" lon="11.232922"><ele>779.8571428571429</ele><time>2026-04-25T10:07:10.411Z</time></trkpt><trkpt lat="43.8756523" lon="11.2329061"><ele>781.2857142857142</ele><time>2026-04-25T10:07:13.414Z</time></trkpt><trkpt lat="43.8757136" lon="11.2328797"><ele>782.7142857142858</ele><time>2026-04-25T10:07:16.41Z</time></trkpt><trkpt lat="43.8757833" lon="11.2328712"><ele>784.1428571428571</ele><time>2026-04-25T10:07:19.408Z</time></trkpt><trkpt lat="43.8758476" lon="11.2328609"><ele>785.5714285714286</ele><time>2026-04-25T10:07:22.419Z</time></trkpt><trkpt lat="43.87592" lon="11.2328371"><ele>787.0</ele><time>2026-04-25T10:07:26.412Z</time></trkpt><trkpt lat="43.8759844" lon="11.232819"><ele>787.4285714285714</ele><time>2026-04-25T10:07:30.417Z</time></trkpt><trkpt lat="43.8760578" lon="11.2328009"><ele>787.8571428571429</ele><time>2026-04-25T10:07:34.414Z</time></trkpt><trkpt lat="43.8761338" lon="11.2328022"><ele>788.2857142857142</ele><time>2026-04-25T10:08:36.407Z</time></trkpt><trkpt lat="43.8762075" lon="11.2328152"><ele>788.7142857142858</ele><time>2026-04-25T10:08:40.405Z</time></trkpt><trkpt lat="43.876268" lon="11.2328438"><ele>789.1428571428572</ele><time>2026-04-25T10:08:43.415Z</time></trkpt><trkpt lat="43.8763382" lon="11.2328391"><ele>789.5714285714286</ele><time>2026-04-25T10:08:47.425Z</time></trkpt><trkpt lat="43.8764068" lon="11.2328527"><ele>790.0</ele><time>2026-04-25T10:09:52.407Z</time></trkpt><trkpt lat="43.8764785" lon="11.2328821"><ele>790.0</ele><time>2026-04-25T10:09:58.417Z</time></trkpt><trkpt lat="43.8765284" lon="11.2329361"><ele>790.0</ele><time>2026-04-25T10:10:04.4Z</time></trkpt><trkpt lat="43.8765263" lon="11.2330239"><ele>790.0</ele><time>2026-04-25T10:10:29.398Z</time></trkpt><trkpt lat="43.8765983" lon="11.2330165"><ele>790.0</ele><time>2026-04-25T10:10:37.396Z</time></trkpt><trkpt lat="43.8766623" lon="11.2330323"><ele>790.0</ele><time>2026-04-25T10:10:46.401Z</time></trkpt><trkpt lat="43.8774275" lon="11.2331257"><ele>793.4999999999999</ele><time>2026-04-25T10:13:12.968Z</time></trkpt><trkpt lat="43.8774967" lon="11.2331307"><ele>797.0</ele><time>2026-04-25T10:13:17.988Z</time></trkpt><trkpt lat="43.8775231" lon="11.2330352"><ele>800.5</ele><time>2026-04-25T10:14:04.399Z</time></trkpt><trkpt lat="43.8774455" lon="11.2330638"><ele>804.0</ele><time>2026-04-25T10:14:37.391Z</time></trkpt><trkpt lat="43.8773438" lon="11.2330229"><ele>807.4999999999999</ele><time>2026-04-25T10:14:39.402Z</time></trkpt><trkpt lat="43.8772816" lon="11.2329909"><ele>811.0</ele><time>2026-04-25T10:14:40.383Z</time></trkpt><trkpt lat="43.8772059" lon="11.2330478"><ele>810.9999999999999</ele><time>2026-04-25T10:15:08.397Z</time></trkpt><trkpt lat="43.8771404" lon="11.2331034"><ele>811.0</ele><time>2026-04-25T10:15:11.406Z</time></trkpt><trkpt lat="43.8771037" lon="11.2330169"><ele>811.0</ele><time>2026-04-25T10:15:27.394Z</time></trkpt><trkpt lat="43.8770399" lon="11.2330107"><ele>811.0</ele><time>2026-04-25T10:15:29.392Z</time></trkpt><trkpt lat="43.8769521" lon="11.2330002"><ele>810.9999999999999</ele><time>2026-04-25T10:15:31.39Z</time></trkpt><trkpt lat="43.8768765" lon="11.2330174"><ele>811.0</ele><time>2026-04-25T10:15:33.396Z</time></trkpt><trkpt lat="43.8767988" lon="11.2330409"><ele>808.0</ele><time>2026-04-25T10:15:35.401Z</time></trkpt><trkpt lat="43.8767327" lon="11.2330305"><ele>805.0</ele><time>2026-04-25T10:15:37.405Z</time></trkpt><trkpt lat="43.8766704" lon="11.2330017"><ele>802.0</ele><time>2026-04-25T10:15:39.407Z</time></trkpt><trkpt lat="43.8765986" lon="11.2329751"><ele>799.0</ele><time>2026-04-25T10:15:44.408Z</time></trkpt><trkpt lat="43.8765325" lon="11.2329706"><ele>796.0</ele><time>2026-04-25T10:15:51.405Z</time></trkpt><trkpt lat="43.8765943" lon="11.23287"><ele>793.0</ele><time>2026-04-25T10:16:01.397Z</time></trkpt><trkpt lat="43.8766609" lon="11.2328063"><ele>790.0</ele><time>2026-04-25T10:16:03.395Z</time></trkpt><trkpt lat="43.8767349" lon="11.2327622"><ele>793.4999999999999</ele><time>2026-04-25T10:16:05.394Z</time></trkpt><trkpt lat="43.8768052" lon="11.2327509"><ele>797.0</ele><time>2026-04-25T10:16:07.404Z</time></trkpt><trkpt lat="43.8768647" lon="11.2327051"><ele>800.5</ele><time>2026-04-25T10:16:14.395Z</time></trkpt><trkpt lat="43.8769472" lon="11.2326776"><ele>804.0</ele><time>2026-04-25T10:16:25.401Z</time></trkpt><trkpt lat="43.8770228" lon="11.2326488"><ele>807.4999999999999</ele><time>2026-04-25T10:16:29.4Z</time></trkpt><trkpt lat="43.8771043" lon="11.2325878"><ele>811.0</ele><time>2026-04-25T10:16:36.394Z</time></trkpt><trkpt lat="43.8771711" lon="11.2325772"><ele>810.9999999999999</ele><time>2026-04-25T10:16:39.402Z</time></trkpt><trkpt lat="43.8772463" lon="11.2325846"><ele>811.0</ele><time>2026-04-25T10:16:43.406Z</time></trkpt><trkpt lat="43.8773186" lon="11.2325671"><ele>811.0</ele><time>2026-04-25T10:16:48.405Z</time></trkpt><trkpt lat="43.8773214" lon="11.2324256"><ele>811.0</ele><time>2026-04-25T10:16:56.398Z</time></trkpt><trkpt lat="43.8773262" lon="11.23233"><ele>810.9999999999999</ele><time>2026-04-25T10:16:58.394Z</time></trkpt><trkpt lat="43.8773418" lon="11.2322245"><ele>811.0</ele><time>2026-04-25T10:17:03.394Z</time></trkpt><trkpt lat="43.8773519" lon="11.2321221"><ele>807.6666666666666</ele><time>2026-04-25T10:17:06.398Z</time></trkpt><trkpt lat="43.8773658" lon="11.2320238"><ele>804.3333333333333</ele><time>2026-04-25T10:17:09.418Z</time></trkpt><trkpt lat="43.8773987" lon="11.2319007"><ele>801.0</ele><time>2026-04-25T10:17:12.406Z</time></trkpt><trkpt lat="43.8774407" lon="11.2318034"><ele>797.6666666666667</ele><time>2026-04-25T10:17:14.408Z</time></trkpt><trkpt lat="43.8774812" lon="11.2317127"><ele>794.3333333333334</ele><time>2026-04-25T10:17:16.41Z</time></trkpt><trkpt lat="43.8775255" lon="11.2316362"><ele>791.0</ele><time>2026-04-25T10:17:18.41Z</time></trkpt><trkpt lat="43.8775766" lon="11.2315323"><ele>792.6666666666667</ele><time>2026-04-25T10:17:20.411Z</time></trkpt><trkpt lat="43.8776302" lon="11.2314437"><ele>794.3333333333334</ele><time>2026-04-25T10:17:22.412Z</time></trkpt><trkpt lat="43.8776847" lon="11.2313736"><ele>796.0</ele><time>2026-04-25T10:17:24.416Z</time></trkpt><trkpt lat="43.8777485" lon="11.2313248"><ele>797.6666666666667</ele><time>2026-04-25T10:17:27.414Z</time></trkpt><trkpt lat="43.8778054" lon="11.23126"><ele>799.3333333333334</ele><time>2026-04-25T10:17:30.41Z</time></trkpt><trkpt lat="43.8778664" lon="11.2312072"><ele>801.0</ele><time>2026-04-25T10:17:33.411Z</time></trkpt><trkpt lat="43.8779395" lon="11.2311651"><ele>801.0</ele><time>2026-04-25T10:17:36.411Z</time></trkpt><trkpt lat="43.8779937" lon="11.2311049"><ele>801.0</ele><time>2026-04-25T10:17:40.389Z</time></trkpt><trkpt lat="43.8780468" lon="11.2310455"><ele>801.0</ele><time>2026-04-25T10:17:43.406Z</time></trkpt><trkpt lat="43.8781128" lon="11.2310296"><ele>801.0</ele><time>2026-04-25T10:17:46.428Z</time></trkpt><trkpt lat="43.8781871" lon="11.2310058"><ele>801.0</ele><time>2026-04-25T10:17:50.414Z</time></trkpt><trkpt lat="43.8782567" lon="11.2309827"><ele>801.0</ele><time>2026-04-25T10:17:54.402Z</time></trkpt><trkpt lat="43.8782512" lon="11.2308954"><ele>801.0</ele><time>2026-04-25T10:18:00.411Z</time></trkpt><trkpt lat="43.8782891" lon="11.2308152"><ele>801.0</ele><time>2026-04-25T10:18:05.405Z</time></trkpt><trkpt lat="43.8783189" lon="11.2307287"><ele>801.0</ele><time>2026-04-25T10:18:08.411Z</time></trkpt><trkpt lat="43.8783451" lon="11.2306355"><ele>801.0</ele><time>2026-04-25T10:18:10.411Z</time></trkpt><trkpt lat="43.878365" lon="11.2305191"><ele>801.0</ele><time>2026-04-25T10:18:13.407Z</time></trkpt><trkpt lat="43.8784053" lon="11.230424"><ele>801.0</ele><time>2026-04-25T10:18:16.413Z</time></trkpt><trkpt lat="43.8784537" lon="11.2303615"><ele>801.0</ele><time>2026-04-25T10:18:18.414Z</time></trkpt><trkpt lat="43.8784903" lon="11.2302846"><ele>801.0</ele><time>2026-04-25T10:18:21.418Z</time></trkpt><trkpt lat="43.8785457" lon="11.2302336"><ele>801.6666666666666</ele><time>2026-04-25T10:18:24.411Z</time></trkpt><trkpt lat="43.8786099" lon="11.2301782"><ele>802.3333333333333</ele><time>2026-04-25T10:18:27.408Z</time></trkpt><trkpt lat="43.8786716" lon="11.2300972"><ele>803.0</ele><time>2026-04-25T10:18:30.408Z</time></trkpt><trkpt lat="43.8787374" lon="11.2300236"><ele>803.6666666666666</ele><time>2026-04-25T10:18:33.421Z</time></trkpt><trkpt lat="43.8788088" lon="11.2299699"><ele>804.3333333333333</ele><time>2026-04-25T10:18:35.412Z</time></trkpt><trkpt lat="43.8788836" lon="11.2299446"><ele>805.0</ele><time>2026-04-25T10:18:37.417Z</time></trkpt><trkpt lat="43.878962" lon="11.2299166"><ele>804.9999999999999</ele><time>2026-04-25T10:18:40.411Z</time></trkpt><trkpt lat="43.8790434" lon="11.2298772"><ele>805.0</ele><time>2026-04-25T10:18:43.412Z</time></trkpt><trkpt lat="43.8791194" lon="11.2298337"><ele>805.0</ele><time>2026-04-25T10:18:46.42Z</time></trkpt><trkpt lat="43.8791772" lon="11.2297871"><ele>805.0</ele><time>2026-04-25T10:18:48.452Z</time></trkpt><trkpt lat="43.8792494" lon="11.2297329"><ele>804.9999999999999</ele><time>2026-04-25T10:18:51.414Z</time></trkpt><trkpt lat="43.8793155" lon="11.2296913"><ele>805.0</ele><time>2026-04-25T10:18:53.414Z</time></trkpt><trkpt lat="43.8793833" lon="11.2296517"><ele>805.1428571428571</ele><time>2026-04-25T10:18:55.412Z</time></trkpt><trkpt lat="43.8794484" lon="11.2296174"><ele>805.2857142857142</ele><time>2026-04-25T10:18:57.415Z</time></trkpt><trkpt lat="43.879516" lon="11.2295788"><ele>805.4285714285714</ele><time>2026-04-25T10:18:59.417Z</time></trkpt><trkpt lat="43.879579" lon="11.229542"><ele>805.5714285714286</ele><time>2026-04-25T10:19:02.414Z</time></trkpt><trkpt lat="43.8796278" lon="11.2294857"><ele>805.7142857142857</ele><time>2026-04-25T10:19:05.419Z</time></trkpt><trkpt lat="43.8796871" lon="11.2294399"><ele>805.8571428571429</ele><time>2026-04-25T10:19:08.411Z</time></trkpt><trkpt lat="43.8797448" lon="11.2293854"><ele>806.0</ele><time>2026-04-25T10:19:11.413Z</time></trkpt><trkpt lat="43.8797906" lon="11.2293043"><ele>806.0000000000001</ele><time>2026-04-25T10:19:16.42Z</time></trkpt><trkpt lat="43.8798301" lon="11.2291908"><ele>806.0</ele><time>2026-04-25T10:19:20.416Z</time></trkpt><trkpt lat="43.8798767" lon="11.2290813"><ele>806.0</ele><time>2026-04-25T10:19:23.417Z</time></trkpt><trkpt lat="43.879894" lon="11.2289858"><ele>806.0</ele><time>2026-04-25T10:19:26.414Z</time></trkpt><trkpt lat="43.8799061" lon="11.2288986"><ele>806.0000000000001</ele><time>2026-04-25T10:19:29.414Z</time></trkpt><trkpt lat="43.8799212" lon="11.2288105"><ele>806.0</ele><time>2026-04-25T10:19:32.414Z</time></trkpt><trkpt lat="43.8799322" lon="11.2287005"><ele>804.0000000000001</ele><time>2026-04-25T10:19:36.415Z</time></trkpt><trkpt lat="43.8799664" lon="11.228598"><ele>802.0</ele><time>2026-04-25T10:19:39.422Z</time></trkpt><trkpt lat="43.8799829" lon="11.2285104"><ele>800.0</ele><time>2026-04-25T10:19:41.413Z</time></trkpt><trkpt lat="43.8799707" lon="11.2283919"><ele>798.0</ele><time>2026-04-25T10:19:44.419Z</time></trkpt><trkpt lat="43.8799659" lon="11.2282898"><ele>796.0000000000001</ele><time>2026-04-25T10:19:47.422Z</time></trkpt><trkpt lat="43.8799628" lon="11.2281973"><ele>794.0</ele><time>2026-04-25T10:19:50.416Z</time></trkpt><trkpt lat="43.8799576" lon="11.2280878"><ele>793.6666666666667</ele><time>2026-04-25T10:19:53.42Z</time></trkpt><trkpt lat="43.8799586" lon="11.2279934"><ele>793.3333333333334</ele><time>2026-04-25T10:19:56.424Z</time></trkpt><trkpt lat="43.8799815" lon="11.2278769"><ele>793.0</ele><time>2026-04-25T10:19:59.434Z</time></trkpt><trkpt lat="43.8800049" lon="11.2277673"><ele>792.6666666666667</ele><time>2026-04-25T10:20:02.431Z</time></trkpt><trkpt lat="43.8800196" lon="11.2276534"><ele>792.3333333333334</ele><time>2026-04-25T10:20:05.421Z</time></trkpt><trkpt lat="43.8800492" lon="11.2275658"><ele>792.0</ele><time>2026-04-25T10:20:08.424Z</time></trkpt><trkpt lat="43.8800877" lon="11.2274855"><ele>794.8333333333334</ele><time>2026-04-25T10:20:11.427Z</time></trkpt><trkpt lat="43.8801107" lon="11.2273958"><ele>797.6666666666667</ele><time>2026-04-25T10:20:14.43Z</time></trkpt><trkpt lat="43.8801513" lon="11.2272793"><ele>800.5</ele><time>2026-04-25T10:20:18.425Z</time></trkpt><trkpt lat="43.8801791" lon="11.227182"><ele>803.3333333333334</ele><time>2026-04-25T10:20:21.419Z</time></trkpt><trkpt lat="43.8802121" lon="11.227082"><ele>806.1666666666667</ele><time>2026-04-25T10:20:25.421Z</time></trkpt><trkpt lat="43.8802441" lon="11.2269955"><ele>809.0</ele><time>2026-04-25T10:20:29.428Z</time></trkpt><trkpt lat="43.8802817" lon="11.2269038"><ele>809.0</ele><time>2026-04-25T10:20:32.423Z</time></trkpt><trkpt lat="43.8803274" lon="11.2268305"><ele>809.0</ele><time>2026-04-25T10:20:35.427Z</time></trkpt><trkpt lat="43.8803704" lon="11.2267537"><ele>809.0</ele><time>2026-04-25T10:20:38.424Z</time></trkpt><trkpt lat="43.8803991" lon="11.2266442"><ele>809.0</ele><time>2026-04-25T10:20:43.427Z</time></trkpt><trkpt lat="43.8804188" lon="11.2265481"><ele>809.0</ele><time>2026-04-25T10:20:48.434Z</time></trkpt><trkpt lat="43.8804315" lon="11.2264449"><ele>809.0</ele><time>2026-04-25T10:20:52.435Z</time></trkpt><trkpt lat="43.8804362" lon="11.226353"><ele>809.0</ele><time>2026-04-25T10:20:56.42Z</time></trkpt><trkpt lat="43.8804772" lon="11.2262849"><ele>806.5714285714286</ele><time>2026-04-25T10:21:01.43Z</time></trkpt><trkpt lat="43.8805053" lon="11.2262062"><ele>804.1428571428571</ele><time>2026-04-25T10:21:18.447Z</time></trkpt><trkpt lat="43.8805744" lon="11.2262455"><ele>801.7142857142858</ele><time>2026-04-25T10:21:34.429Z</time></trkpt><trkpt lat="43.8806152" lon="11.2261488"><ele>799.2857142857142</ele><time>2026-04-25T10:22:02.403Z</time></trkpt><trkpt lat="43.8806176" lon="11.2262376"><ele>796.8571428571428</ele><time>2026-04-25T10:23:12.42Z</time></trkpt><trkpt lat="43.8805564" lon="11.2261874"><ele>794.4285714285714</ele><time>2026-04-25T10:23:50.432Z</time></trkpt><trkpt lat="43.8804958" lon="11.2262187"><ele>792.0</ele><time>2026-04-25T10:24:00.436Z</time></trkpt><trkpt lat="43.8805584" lon="11.2262654"><ele>792.0</ele><time>2026-04-25T10:24:19.437Z</time></trkpt><trkpt lat="43.8806271" lon="11.2262398"><ele>792.0</ele><time>2026-04-25T10:24:26.428Z</time></trkpt><trkpt lat="43.8805571" lon="11.2261664"><ele>792.0</ele><time>2026-04-25T10:24:43.429Z</time></trkpt><trkpt lat="43.8805033" lon="11.2260754"><ele>792.0</ele><time>2026-04-25T10:24:45.416Z</time></trkpt><trkpt lat="43.8804547" lon="11.2259346"><ele>792.0</ele><time>2026-04-25T10:24:47.425Z</time></trkpt><trkpt lat="43.880427" lon="11.2258031"><ele>792.0</ele><time>2026-04-25T10:24:49.424Z</time></trkpt><trkpt lat="43.8803491" lon="11.2257225"><ele>792.0</ele><time>2026-04-25T10:24:51.427Z</time></trkpt><trkpt lat="43.8802582" lon="11.2256496"><ele>792.0</ele><time>2026-04-25T10:24:53.428Z</time></trkpt><trkpt lat="43.8801852" lon="11.2255916"><ele>792.0</ele><time>2026-04-25T10:24:55.425Z</time></trkpt><trkpt lat="43.8801321" lon="11.2255033"><ele>792.0</ele><time>2026-04-25T10:24:57.428Z</time></trkpt><trkpt lat="43.8801018" lon="11.2253771"><ele>787.25</ele><time>2026-04-25T10:24:59.427Z</time></trkpt><trkpt lat="43.8800146" lon="11.225269"><ele>782.5</ele><time>2026-04-25T10:25:01.42Z</time></trkpt><trkpt lat="43.8799169" lon="11.2251562"><ele>777.75</ele><time>2026-04-25T10:25:03.414Z</time></trkpt><trkpt lat="43.879832" lon="11.2250794"><ele>773.0</ele><time>2026-04-25T10:25:05.425Z</time></trkpt><trkpt lat="43.8797639" lon="11.2249483"><ele>773.0000000000001</ele><time>2026-04-25T10:25:07.424Z</time></trkpt><trkpt lat="43.8797283" lon="11.2248275"><ele>773.0</ele><time>2026-04-25T10:25:09.426Z</time></trkpt><trkpt lat="43.8796906" lon="11.2247545"><ele>773.0</ele><time>2026-04-25T10:25:11.427Z</time></trkpt><trkpt lat="43.879645" lon="11.2246928"><ele>773.0</ele><time>2026-04-25T10:25:13.416Z</time></trkpt><trkpt lat="43.8795971" lon="11.2246163"><ele>773.0000000000001</ele><time>2026-04-25T10:25:16.438Z</time></trkpt><trkpt lat="43.8795609" lon="11.2245072"><ele>773.0</ele><time>2026-04-25T10:25:18.435Z</time></trkpt><trkpt lat="43.8795107" lon="11.2243883"><ele>770.5999999999999</ele><time>2026-04-25T10:25:20.423Z</time></trkpt><trkpt lat="43.8794272" lon="11.2242962"><ele>768.1999999999999</ele><time>2026-04-25T10:25:23.427Z</time></trkpt><trkpt lat="43.879363" lon="11.224195"><ele>765.8</ele><time>2026-04-25T10:25:25.423Z</time></trkpt><trkpt lat="43.8793126" lon="11.2240646"><ele>763.4</ele><time>2026-04-25T10:25:27.414Z</time></trkpt><trkpt lat="43.879225" lon="11.2239797"><ele>761.0</ele><time>2026-04-25T10:25:29.439Z</time></trkpt><trkpt lat="43.8791617" lon="11.2238844"><ele>756.8333333333333</ele><time>2026-04-25T10:25:32.432Z</time></trkpt><trkpt lat="43.8791267" lon="11.2237907"><ele>752.6666666666666</ele><time>2026-04-25T10:26:33.435Z</time></trkpt><trkpt lat="43.8791057" lon="11.223704"><ele>748.5</ele><time>2026-04-25T10:26:42.435Z</time></trkpt><trkpt lat="43.8791044" lon="11.2235738"><ele>744.3333333333334</ele><time>2026-04-25T10:26:45.428Z</time></trkpt><trkpt lat="43.8790912" lon="11.2234738"><ele>740.1666666666667</ele><time>2026-04-25T10:26:47.432Z</time></trkpt><trkpt lat="43.8790881" lon="11.2233804"><ele>736.0</ele><time>2026-04-25T10:26:49.433Z</time></trkpt><trkpt lat="43.8791129" lon="11.2232639"><ele>736.0</ele><time>2026-04-25T10:26:52.437Z</time></trkpt><trkpt lat="43.8790945" lon="11.2231796"><ele>736.0</ele><time>2026-04-25T10:26:54.436Z</time></trkpt><trkpt lat="43.8790935" lon="11.2230776"><ele>736.0</ele><time>2026-04-25T10:26:57.423Z</time></trkpt><trkpt lat="43.8791061" lon="11.2229362"><ele>736.0</ele><time>2026-04-25T10:27:00.423Z</time></trkpt><trkpt lat="43.8791136" lon="11.2228257"><ele>736.0</ele><time>2026-04-25T10:27:02.449Z</time></trkpt><trkpt lat="43.8791345" lon="11.222716"><ele>736.0</ele><time>2026-04-25T10:27:04.428Z</time></trkpt><trkpt lat="43.8791376" lon="11.2225928"><ele>733.6666666666667</ele><time>2026-04-25T10:27:07.424Z</time></trkpt><trkpt lat="43.8791468" lon="11.2224859"><ele>731.3333333333334</ele><time>2026-04-25T10:27:09.429Z</time></trkpt><trkpt lat="43.8791428" lon="11.2223785"><ele>729.0</ele><time>2026-04-25T10:27:11.427Z</time></trkpt><trkpt lat="43.8791457" lon="11.2222623"><ele>726.6666666666666</ele><time>2026-04-25T10:27:13.419Z</time></trkpt><trkpt lat="43.8791848" lon="11.2221436"><ele>724.3333333333333</ele><time>2026-04-25T10:27:15.42Z</time></trkpt><trkpt lat="43.8792257" lon="11.2220432"><ele>722.0</ele><time>2026-04-25T10:27:17.426Z</time></trkpt><trkpt lat="43.8792405" lon="11.2219278"><ele>719.5</ele><time>2026-04-25T10:27:19.429Z</time></trkpt><trkpt lat="43.8792878" lon="11.2218463"><ele>717.0</ele><time>2026-04-25T10:27:21.428Z</time></trkpt><trkpt lat="43.8793528" lon="11.2217659"><ele>714.5</ele><time>2026-04-25T10:27:23.429Z</time></trkpt><trkpt lat="43.8793938" lon="11.2216525"><ele>712.0</ele><time>2026-04-25T10:27:26.436Z</time></trkpt><trkpt lat="43.8793938" lon="11.2215618"><ele>709.5</ele><time>2026-04-25T10:27:28.426Z</time></trkpt><trkpt lat="43.8793948" lon="11.2214668"><ele>707.0</ele><time>2026-04-25T10:27:30.43Z</time></trkpt><trkpt lat="43.8794142" lon="11.2213693"><ele>704.7142857142857</ele><time>2026-04-25T10:27:33.452Z</time></trkpt><trkpt lat="43.879419" lon="11.2212783"><ele>702.4285714285714</ele><time>2026-04-25T10:27:35.441Z</time></trkpt><trkpt lat="43.8794189" lon="11.2211674"><ele>700.1428571428571</ele><time>2026-04-25T10:27:38.439Z</time></trkpt><trkpt lat="43.8794438" lon="11.2210755"><ele>697.8571428571429</ele><time>2026-04-25T10:27:41.433Z</time></trkpt><trkpt lat="43.8794899" lon="11.2209781"><ele>695.5714285714286</ele><time>2026-04-25T10:27:44.432Z</time></trkpt><trkpt lat="43.8794897" lon="11.2208749"><ele>693.2857142857142</ele><time>2026-04-25T10:27:46.43Z</time></trkpt><trkpt lat="43.8795282" lon="11.2207969"><ele>691.0</ele><time>2026-04-25T10:28:00.429Z</time></trkpt><trkpt lat="43.8795851" lon="11.2206719"><ele>686.4</ele><time>2026-04-25T10:28:04.447Z</time></trkpt><trkpt lat="43.879622" lon="11.220516"><ele>681.8</ele><time>2026-04-25T10:28:06.419Z</time></trkpt><trkpt lat="43.8796413" lon="11.220397"><ele>677.1999999999999</ele><time>2026-04-25T10:28:08.425Z</time></trkpt><trkpt lat="43.8796939" lon="11.2202798"><ele>672.5999999999999</ele><time>2026-04-25T10:28:10.432Z</time></trkpt><trkpt lat="43.8797291" lon="11.2201542"><ele>668.0</ele><time>2026-04-25T10:28:12.429Z</time></trkpt><trkpt lat="43.8797821" lon="11.2200476"><ele>668.0</ele><time>2026-04-25T10:28:14.43Z</time></trkpt><trkpt lat="43.879854" lon="11.2199638"><ele>668.0</ele><time>2026-04-25T10:28:16.422Z</time></trkpt><trkpt lat="43.87994" lon="11.2199543"><ele>668.0</ele><time>2026-04-25T10:28:18.427Z</time></trkpt><trkpt lat="43.8800141" lon="11.2199771"><ele>668.0</ele><time>2026-04-25T10:28:20.426Z</time></trkpt><trkpt lat="43.8800928" lon="11.2199854"><ele>668.0</ele><time>2026-04-25T10:28:22.428Z</time></trkpt><trkpt lat="43.880139" lon="11.2198872"><ele>668.0</ele><time>2026-04-25T10:28:25.418Z</time></trkpt><trkpt lat="43.8800911" lon="11.219794"><ele>665.6666666666666</ele><time>2026-04-25T10:28:28.418Z</time></trkpt><trkpt lat="43.880071" lon="11.2197059"><ele>663.3333333333333</ele><time>2026-04-25T10:28:30.404Z</time></trkpt><trkpt lat="43.8800291" lon="11.2196212"><ele>661.0</ele><time>2026-04-25T10:28:32.42Z</time></trkpt><trkpt lat="43.8800587" lon="11.2195437"><ele>658.6666666666666</ele><time>2026-04-25T10:28:34.416Z</time></trkpt><trkpt lat="43.8800682" lon="11.2193988"><ele>656.3333333333334</ele><time>2026-04-25T10:28:36.419Z</time></trkpt><trkpt lat="43.8800844" lon="11.2192373"><ele>654.0</ele><time>2026-04-25T10:28:38.41Z</time></trkpt><trkpt lat="43.8800281" lon="11.2191206"><ele>654.0</ele><time>2026-04-25T10:28:40.421Z</time></trkpt><trkpt lat="43.8799936" lon="11.2190385"><ele>654.0</ele><time>2026-04-25T10:28:41.415Z</time></trkpt><trkpt lat="43.8799153" lon="11.2189449"><ele>654.0</ele><time>2026-04-25T10:28:43.427Z</time></trkpt><trkpt lat="43.8798544" lon="11.2188591"><ele>654.0</ele><time>2026-04-25T10:28:45.435Z</time></trkpt><trkpt lat="43.8797697" lon="11.2187876"><ele>654.0</ele><time>2026-04-25T10:28:47.432Z</time></trkpt><trkpt lat="43.8797052" lon="11.2187116"><ele>654.0</ele><time>2026-04-25T10:28:49.434Z</time></trkpt><trkpt lat="43.8796582" lon="11.2186125"><ele>651.3333333333334</ele><time>2026-04-25T10:28:51.43Z</time></trkpt><trkpt lat="43.8796042" lon="11.2185507"><ele>648.6666666666666</ele><time>2026-04-25T10:29:59.436Z</time></trkpt><trkpt lat="43.8795607" lon="11.2184746"><ele>646.0</ele><time>2026-04-25T10:30:01.42Z</time></trkpt><trkpt lat="43.8795224" lon="11.2183683"><ele>643.3333333333333</ele><time>2026-04-25T10:30:03.428Z</time></trkpt><trkpt lat="43.8794752" lon="11.218307"><ele>640.6666666666666</ele><time>2026-04-25T10:30:05.43Z</time></trkpt><trkpt lat="43.8794125" lon="11.2182388"><ele>638.0</ele><time>2026-04-25T10:30:08.446Z</time></trkpt><trkpt lat="43.8793786" lon="11.2181063"><ele>635.5</ele><time>2026-04-25T10:30:11.438Z</time></trkpt><trkpt lat="43.8793434" lon="11.2179954"><ele>633.0</ele><time>2026-04-25T10:30:13.431Z</time></trkpt><trkpt lat="43.8793157" lon="11.2178751"><ele>630.5</ele><time>2026-04-25T10:30:15.434Z</time></trkpt><trkpt lat="43.8792805" lon="11.2177907"><ele>628.0</ele><time>2026-04-25T10:30:17.434Z</time></trkpt><trkpt lat="43.879239" lon="11.2176801"><ele>625.5</ele><time>2026-04-25T10:30:19.434Z</time></trkpt><trkpt lat="43.8792321" lon="11.2175543"><ele>623.0</ele><time>2026-04-25T10:30:22.435Z</time></trkpt><trkpt lat="43.8792192" lon="11.2174418"><ele>623.0</ele><time>2026-04-25T10:30:24.434Z</time></trkpt><trkpt lat="43.8791759" lon="11.2173522"><ele>623.0</ele><time>2026-04-25T10:30:27.431Z</time></trkpt><trkpt lat="43.8791222" lon="11.2172908"><ele>623.0</ele><time>2026-04-25T10:30:29.437Z</time></trkpt><trkpt lat="43.8790787" lon="11.2172175"><ele>623.0</ele><time>2026-04-25T10:30:31.431Z</time></trkpt><trkpt lat="43.8790439" lon="11.2171134"><ele>623.0</ele><time>2026-04-25T10:30:33.434Z</time></trkpt><trkpt lat="43.8790101" lon="11.2170276"><ele>623.0</ele><time>2026-04-25T10:30:35.436Z</time></trkpt><trkpt lat="43.878965" lon="11.2169063"><ele>619.8</ele><time>2026-04-25T10:30:38.435Z</time></trkpt><trkpt lat="43.8789409" lon="11.2167844"><ele>616.5999999999999</ele><time>2026-04-25T10:30:41.431Z</time></trkpt><trkpt lat="43.8789164" lon="11.2166987"><ele>613.4000000000001</ele><time>2026-04-25T10:30:43.437Z</time></trkpt><trkpt lat="43.8789384" lon="11.2165871"><ele>610.2</ele><time>2026-04-25T10:30:46.431Z</time></trkpt><trkpt lat="43.8788913" lon="11.2164517"><ele>607.0</ele><time>2026-04-25T10:30:50.423Z</time></trkpt><trkpt lat="43.8788872" lon="11.2163067"><ele>604.6666666666667</ele><time>2026-04-25T10:30:52.424Z</time></trkpt><trkpt lat="43.8788909" lon="11.2162129"><ele>602.3333333333334</ele><time>2026-04-25T10:30:54.414Z</time></trkpt><trkpt lat="43.8788487" lon="11.2161254"><ele>600.0</ele><time>2026-04-25T10:30:56.428Z</time></trkpt><trkpt lat="43.8789037" lon="11.2160481"><ele>597.6666666666666</ele><time>2026-04-25T10:30:58.433Z</time></trkpt><trkpt lat="43.8789557" lon="11.2159962"><ele>595.3333333333333</ele><time>2026-04-25T10:31:48.438Z</time></trkpt><trkpt lat="43.8789952" lon="11.2159109"><ele>593.0</ele><time>2026-04-25T10:31:51.427Z</time></trkpt><trkpt lat="43.8790047" lon="11.2157669"><ele>591.4</ele><time>2026-04-25T10:31:53.427Z</time></trkpt><trkpt lat="43.8789754" lon="11.2156191"><ele>589.8</ele><time>2026-04-25T10:31:55.435Z</time></trkpt><trkpt lat="43.8789614" lon="11.2154678"><ele>588.2</ele><time>2026-04-25T10:31:57.427Z</time></trkpt><trkpt lat="43.8789068" lon="11.2153891"><ele>586.6</ele><time>2026-04-25T10:31:59.435Z</time></trkpt><trkpt lat="43.8788825" lon="11.2152943"><ele>585.0</ele><time>2026-04-25T10:32:02.431Z</time></trkpt><trkpt lat="43.8788516" lon="11.2151773"><ele>585.0</ele><time>2026-04-25T10:32:06.438Z</time></trkpt><trkpt lat="43.8788689" lon="11.215089"><ele>585.0</ele><time>2026-04-25T10:32:10.43Z</time></trkpt><trkpt lat="43.8788868" lon="11.2149576"><ele>585.0</ele><time>2026-04-25T10:32:13.423Z</time></trkpt><trkpt lat="43.8789305" lon="11.2148334"><ele>585.0</ele><time>2026-04-25T10:32:15.434Z</time></trkpt><trkpt lat="43.878978" lon="11.2147299"><ele>585.0</ele><time>2026-04-25T10:32:17.434Z</time></trkpt><trkpt lat="43.8790555" lon="11.2146468"><ele>585.0</ele><time>2026-04-25T10:32:19.426Z</time></trkpt><trkpt lat="43.8790913" lon="11.2145018"><ele>584.0</ele><time>2026-04-25T10:32:21.451Z</time></trkpt><trkpt lat="43.8790761" lon="11.2143546"><ele>583.0</ele><time>2026-04-25T10:32:23.437Z</time></trkpt><trkpt lat="43.8790487" lon="11.2142742"><ele>582.0</ele><time>2026-04-25T10:32:24.439Z</time></trkpt><trkpt lat="43.8790107" lon="11.214192"><ele>581.0</ele><time>2026-04-25T10:32:25.439Z</time></trkpt><trkpt lat="43.8789618" lon="11.2141285"><ele>580.0</ele><time>2026-04-25T10:32:26.427Z</time></trkpt><trkpt lat="43.8788981" lon="11.2141034"><ele>579.0</ele><time>2026-04-25T10:32:27.44Z</time></trkpt><trkpt lat="43.8788344" lon="11.214108"><ele>578.0</ele><time>2026-04-25T10:32:28.427Z</time></trkpt><trkpt lat="43.8787754" lon="11.2140506"><ele>574.6666666666666</ele><time>2026-04-25T10:32:32.448Z</time></trkpt><trkpt lat="43.8787392" lon="11.2139471"><ele>571.3333333333333</ele><time>2026-04-25T10:32:35.438Z</time></trkpt><trkpt lat="43.8786678" lon="11.2139125"><ele>568.0</ele><time>2026-04-25T10:32:37.437Z</time></trkpt><trkpt lat="43.8785873" lon="11.2138846"><ele>564.6666666666666</ele><time>2026-04-25T10:32:40.437Z</time></trkpt><trkpt lat="43.8784972" lon="11.2138587"><ele>561.3333333333334</ele><time>2026-04-25T10:32:42.454Z</time></trkpt><trkpt lat="43.8784101" lon="11.2138731"><ele>558.0</ele><time>2026-04-25T10:32:45.429Z</time></trkpt><trkpt lat="43.8783127" lon="11.2138528"><ele>557.4</ele><time>2026-04-25T10:32:47.43Z</time></trkpt><trkpt lat="43.8782093" lon="11.2138608"><ele>556.8</ele><time>2026-04-25T10:32:49.431Z</time></trkpt><trkpt lat="43.8780861" lon="11.2138931"><ele>556.2</ele><time>2026-04-25T10:32:51.425Z</time></trkpt><trkpt lat="43.8779886" lon="11.2139026"><ele>555.6</ele><time>2026-04-25T10:32:53.419Z</time></trkpt><trkpt lat="43.8779381" lon="11.2138446"><ele>555.0</ele><time>2026-04-25T10:32:57.439Z</time></trkpt><trkpt lat="43.8778967" lon="11.2137304"><ele>555.0</ele><time>2026-04-25T10:34:13.427Z</time></trkpt><trkpt lat="43.8778793" lon="11.2136357"><ele>555.0</ele><time>2026-04-25T10:34:15.438Z</time></trkpt><trkpt lat="43.8778494" lon="11.2134911"><ele>555.0</ele><time>2026-04-25T10:34:17.423Z</time></trkpt><trkpt lat="43.8778117" lon="11.21341"><ele>555.0</ele><time>2026-04-25T10:34:19.435Z</time></trkpt><trkpt lat="43.8778026" lon="11.2133122"><ele>555.0</ele><time>2026-04-25T10:34:23.43Z</time></trkpt><trkpt lat="43.8777691" lon="11.2132001"><ele>555.0</ele><time>2026-04-25T10:34:26.429Z</time></trkpt><trkpt lat="43.8776931" lon="11.2131587"><ele>555.0</ele><time>2026-04-25T10:34:28.426Z</time></trkpt><trkpt lat="43.8776073" lon="11.2131945"><ele>555.0</ele><time>2026-04-25T10:34:30.433Z</time></trkpt><trkpt lat="43.877526" lon="11.2132402"><ele>555.0</ele><time>2026-04-25T10:34:32.433Z</time></trkpt><trkpt lat="43.8774545" lon="11.2132605"><ele>555.0</ele><time>2026-04-25T10:34:34.433Z</time></trkpt><trkpt lat="43.8773731" lon="11.2132387"><ele>555.0</ele><time>2026-04-25T10:34:37.436Z</time></trkpt><trkpt lat="43.8772837" lon="11.2132438"><ele>555.0</ele><time>2026-04-25T10:34:40.446Z</time></trkpt><trkpt lat="43.8771824" lon="11.2131859"><ele>552.6666666666666</ele><time>2026-04-25T10:34:43.448Z</time></trkpt><trkpt lat="43.8771115" lon="11.2131694"><ele>550.3333333333334</ele><time>2026-04-25T10:34:45.435Z</time></trkpt><trkpt lat="43.8770536" lon="11.213086"><ele>548.0</ele><time>2026-04-25T10:34:48.437Z</time></trkpt><trkpt lat="43.8769815" lon="11.2131303"><ele>545.6666666666667</ele><time>2026-04-25T10:34:50.436Z</time></trkpt><trkpt lat="43.8769156" lon="11.2131728"><ele>543.3333333333334</ele><time>2026-04-25T10:34:52.436Z</time></trkpt><trkpt lat="43.876837" lon="11.2132649"><ele>541.0</ele><time>2026-04-25T10:34:56.441Z</time></trkpt><trkpt lat="43.876791" lon="11.213344"><ele>537.8333333333334</ele><time>2026-04-25T10:35:00.435Z</time></trkpt><trkpt lat="43.8767652" lon="11.2134303"><ele>534.6666666666667</ele><time>2026-04-25T10:35:03.439Z</time></trkpt><trkpt lat="43.8767179" lon="11.2135422"><ele>531.5</ele><time>2026-04-25T10:35:06.43Z</time></trkpt><trkpt lat="43.8766842" lon="11.2136565"><ele>528.3333333333334</ele><time>2026-04-25T10:35:08.429Z</time></trkpt><trkpt lat="43.8766721" lon="11.2137733"><ele>525.1666666666666</ele><time>2026-04-25T10:35:10.42Z</time></trkpt><trkpt lat="43.8766771" lon="11.213902"><ele>522.0</ele><time>2026-04-25T10:35:13.419Z</time></trkpt><trkpt lat="43.8766853" lon="11.214002"><ele>522.0</ele><time>2026-04-25T10:35:24.431Z</time></trkpt><trkpt lat="43.8766741" lon="11.2141201"><ele>522.0</ele><time>2026-04-25T10:35:28.427Z</time></trkpt><trkpt lat="43.8766481" lon="11.2142175"><ele>522.0</ele><time>2026-04-25T10:35:30.43Z</time></trkpt><trkpt lat="43.8766299" lon="11.2143785"><ele>522.0</ele><time>2026-04-25T10:35:32.425Z</time></trkpt><trkpt lat="43.876584" lon="11.2145534"><ele>522.0</ele><time>2026-04-25T10:35:34.426Z</time></trkpt><trkpt lat="43.8765561" lon="11.21464"><ele>522.0</ele><time>2026-04-25T10:35:35.425Z</time></trkpt><trkpt lat="43.8765213" lon="11.2147188"><ele>522.0</ele><time>2026-04-25T10:35:36.421Z</time></trkpt><trkpt lat="43.876483" lon="11.2148"><ele>522.0</ele><time>2026-04-25T10:35:37.419Z</time></trkpt><trkpt lat="43.8764186" lon="11.2149328"><ele>522.0</ele><time>2026-04-25T10:35:39.422Z</time></trkpt><trkpt lat="43.8763855" lon="11.2150732"><ele>522.0</ele><time>2026-04-25T10:35:41.432Z</time></trkpt><trkpt lat="43.8763792" lon="11.2151622"><ele>522.0</ele><time>2026-04-25T10:35:42.413Z</time></trkpt><trkpt lat="43.8763547" lon="11.2153113"><ele>522.5</ele><time>2026-04-25T10:35:44.418Z</time></trkpt><trkpt lat="43.8763535" lon="11.2154536"><ele>523.0</ele><time>2026-04-25T10:35:46.424Z</time></trkpt><trkpt lat="43.8763333" lon="11.2155495"><ele>523.5</ele><time>2026-04-25T10:35:48.443Z</time></trkpt><trkpt lat="43.8763139" lon="11.2156604"><ele>524.0</ele><time>2026-04-25T10:35:50.425Z</time></trkpt><trkpt lat="43.8762692" lon="11.2157794"><ele>524.5</ele><time>2026-04-25T10:35:52.424Z</time></trkpt><trkpt lat="43.876263" lon="11.2158938"><ele>525.0</ele><time>2026-04-25T10:35:55.426Z</time></trkpt><trkpt lat="43.8762368" lon="11.216001"><ele>526.2</ele><time>2026-04-25T10:35:57.424Z</time></trkpt><trkpt lat="43.8761885" lon="11.2161294"><ele>527.4</ele><time>2026-04-25T10:35:59.408Z</time></trkpt><trkpt lat="43.8761105" lon="11.216245"><ele>528.6</ele><time>2026-04-25T10:36:01.414Z</time></trkpt><trkpt lat="43.8760575" lon="11.2163363"><ele>529.8</ele><time>2026-04-25T10:36:03.42Z</time></trkpt><trkpt lat="43.8759979" lon="11.2164533"><ele>531.0</ele><time>2026-04-25T10:36:05.41Z</time></trkpt><trkpt lat="43.8759764" lon="11.2165471"><ele>531.7142857142858</ele><time>2026-04-25T10:36:15.399Z</time></trkpt><trkpt lat="43.8759718" lon="11.2166343"><ele>532.4285714285714</ele><time>2026-04-25T10:36:16.405Z</time></trkpt><trkpt lat="43.875951" lon="11.2167275"><ele>533.1428571428571</ele><time>2026-04-25T10:36:54.429Z</time></trkpt><trkpt lat="43.8759017" lon="11.2168075"><ele>533.8571428571429</ele><time>2026-04-25T10:37:04.424Z</time></trkpt><trkpt lat="43.875841" lon="11.2168466"><ele>534.5714285714286</ele><time>2026-04-25T10:37:10.425Z</time></trkpt><trkpt lat="43.8757844" lon="11.2168863"><ele>535.2857142857143</ele><time>2026-04-25T10:37:18.431Z</time></trkpt><trkpt lat="43.875707" lon="11.2168732"><ele>536.0</ele><time>2026-04-25T10:37:21.439Z</time></trkpt><trkpt lat="43.8756139" lon="11.216881"><ele>530.1666666666666</ele><time>2026-04-25T10:37:23.417Z</time></trkpt><trkpt lat="43.87555" lon="11.2168896"><ele>524.3333333333333</ele><time>2026-04-25T10:37:24.422Z</time></trkpt><trkpt lat="43.8754303" lon="11.2168735"><ele>518.5</ele><time>2026-04-25T10:37:26.414Z</time></trkpt><trkpt lat="43.8753589" lon="11.2168707"><ele>512.6666666666666</ele><time>2026-04-25T10:37:27.42Z</time></trkpt><trkpt lat="43.8752898" lon="11.2168661"><ele>506.8333333333333</ele><time>2026-04-25T10:37:28.419Z</time></trkpt><trkpt lat="43.8752183" lon="11.2168809"><ele>501.0</ele><time>2026-04-25T10:37:29.435Z</time></trkpt><trkpt lat="43.8751419" lon="11.2168937"><ele>496.7142857142857</ele><time>2026-04-25T10:37:30.421Z</time></trkpt><trkpt lat="43.8750713" lon="11.2168918"><ele>492.42857142857144</ele><time>2026-04-25T10:37:31.411Z</time></trkpt><trkpt lat="43.8749963" lon="11.2169652"><ele>488.14285714285717</ele><time>2026-04-25T10:38:24.429Z</time></trkpt><trkpt lat="43.875034" lon="11.2170369"><ele>483.8571428571429</ele><time>2026-04-25T10:38:44.402Z</time></trkpt><trkpt lat="43.8749719" lon="11.2170114"><ele>479.57142857142856</ele><time>2026-04-25T10:39:37.418Z</time></trkpt><trkpt lat="43.8749081" lon="11.217051"><ele>475.28571428571433</ele><time>2026-04-25T10:39:40.409Z</time></trkpt><trkpt lat="43.8748385" lon="11.2170714"><ele>471.00000000000006</ele><time>2026-04-25T10:39:42.418Z</time></trkpt><trkpt lat="43.8747628" lon="11.2171289"><ele>471.0</ele><time>2026-04-25T10:39:44.431Z</time></trkpt><trkpt lat="43.8746809" lon="11.2171694"><ele>471.0</ele><time>2026-04-25T10:39:51.435Z</time></trkpt><trkpt lat="43.874627" lon="11.2172417"><ele>471.0</ele><time>2026-04-25T10:39:54.431Z</time></trkpt><trkpt lat="43.874555" lon="11.2172467"><ele>471.0</ele><time>2026-04-25T10:39:57.443Z</time></trkpt><trkpt lat="43.8744747" lon="11.217242"><ele>471.0</ele><time>2026-04-25T10:40:00.436Z</time></trkpt><trkpt lat="43.8743961" lon="11.2172124"><ele>471.0</ele><time>2026-04-25T10:40:02.427Z</time></trkpt><trkpt lat="43.8743138" lon="11.2172067"><ele>467.4</ele><time>2026-04-25T10:40:04.433Z</time></trkpt><trkpt lat="43.8742383" lon="11.217203"><ele>463.8</ele><time>2026-04-25T10:40:06.429Z</time></trkpt><trkpt lat="43.8741547" lon="11.2171925"><ele>460.19999999999993</ele><time>2026-04-25T10:40:08.434Z</time></trkpt><trkpt lat="43.8740433" lon="11.2171872"><ele>456.59999999999997</ele><time>2026-04-25T10:40:10.437Z</time></trkpt><trkpt lat="43.8739301" lon="11.217149"><ele>453.0</ele><time>2026-04-25T10:40:12.423Z</time></trkpt><trkpt lat="43.8738313" lon="11.217144"><ele>453.0</ele><time>2026-04-25T10:40:14.432Z</time></trkpt><trkpt lat="43.8737365" lon="11.2171473"><ele>453.0</ele><time>2026-04-25T10:40:16.43Z</time></trkpt><trkpt lat="43.873645" lon="11.2171866"><ele>453.0</ele><time>2026-04-25T10:40:18.434Z</time></trkpt><trkpt lat="43.8735579" lon="11.2172158"><ele>453.0</ele><time>2026-04-25T10:40:20.434Z</time></trkpt><trkpt lat="43.8734866" lon="11.2172252"><ele>453.0</ele><time>2026-04-25T10:40:22.435Z</time></trkpt><trkpt lat="43.8734064" lon="11.2172778"><ele>453.0</ele><time>2026-04-25T10:40:25.434Z</time></trkpt><trkpt lat="43.8733347" lon="11.2173112"><ele>454.0</ele><time>2026-04-25T10:40:27.474Z</time></trkpt><trkpt lat="43.8732636" lon="11.2173394"><ele>455.0</ele><time>2026-04-25T10:40:29.434Z</time></trkpt><trkpt lat="43.8732159" lon="11.2174275"><ele>456.0</ele><time>2026-04-25T10:40:31.438Z</time></trkpt><trkpt lat="43.8731623" lon="11.2175215"><ele>457.0</ele><time>2026-04-25T10:40:33.428Z</time></trkpt><trkpt lat="43.8731294" lon="11.2176235"><ele>458.0</ele><time>2026-04-25T10:40:47.422Z</time></trkpt><trkpt lat="43.8730975" lon="11.2177335"><ele>459.0</ele><time>2026-04-25T10:40:49.432Z</time></trkpt><trkpt lat="43.8730692" lon="11.2178202"><ele>459.0</ele><time>2026-04-25T10:40:51.417Z</time></trkpt><trkpt lat="43.8730232" lon="11.2179317"><ele>459.0</ele><time>2026-04-25T10:40:53.414Z</time></trkpt><trkpt lat="43.8729944" lon="11.2180267"><ele>459.0</ele><time>2026-04-25T10:40:55.413Z</time></trkpt><trkpt lat="43.8729506" lon="11.2180996"><ele>459.0</ele><time>2026-04-25T10:40:58.428Z</time></trkpt><trkpt lat="43.872883" lon="11.2181862"><ele>459.0</ele><time>2026-04-25T10:41:01.419Z</time></trkpt><trkpt lat="43.8728435" lon="11.2182743"><ele>459.0</ele><time>2026-04-25T10:41:39.426Z</time></trkpt><trkpt lat="43.8728297" lon="11.2183642"><ele>460.6</ele><time>2026-04-25T10:41:41.42Z</time></trkpt><trkpt lat="43.8728337" lon="11.2184854"><ele>462.2</ele><time>2026-04-25T10:41:43.419Z</time></trkpt><trkpt lat="43.8728364" lon="11.2186111"><ele>463.80000000000007</ele><time>2026-04-25T10:41:45.43Z</time></trkpt><trkpt lat="43.8728435" lon="11.2187559"><ele>465.40000000000003</ele><time>2026-04-25T10:41:47.426Z</time></trkpt><trkpt lat="43.8728774" lon="11.2189028"><ele>467.0</ele><time>2026-04-25T10:41:49.428Z</time></trkpt><trkpt lat="43.8729159" lon="11.2190398"><ele>467.16666666666663</ele><time>2026-04-25T10:41:51.426Z</time></trkpt><trkpt lat="43.8729501" lon="11.2191315"><ele>467.3333333333333</ele><time>2026-04-25T10:41:53.429Z</time></trkpt><trkpt lat="43.8729761" lon="11.219225"><ele>467.5</ele><time>2026-04-25T10:42:00.42Z</time></trkpt><trkpt lat="43.8729922" lon="11.2193302"><ele>467.66666666666663</ele><time>2026-04-25T10:42:05.424Z</time></trkpt><trkpt lat="43.8730094" lon="11.2194353"><ele>467.8333333333333</ele><time>2026-04-25T10:42:09.433Z</time></trkpt><trkpt lat="43.8730228" lon="11.2195245"><ele>468.0</ele><time>2026-04-25T10:42:12.427Z</time></trkpt><trkpt lat="43.873047" lon="11.2196394"><ele>468.0</ele><time>2026-04-25T10:42:15.42Z</time></trkpt><trkpt lat="43.8730673" lon="11.2197429"><ele>468.0</ele><time>2026-04-25T10:42:18.419Z</time></trkpt><trkpt lat="43.8730874" lon="11.2198488"><ele>468.0</ele><time>2026-04-25T10:42:22.422Z</time></trkpt><trkpt lat="43.8731146" lon="11.2199304"><ele>468.0</ele><time>2026-04-25T10:42:25.428Z</time></trkpt><trkpt lat="43.873136" lon="11.2200561"><ele>468.0</ele><time>2026-04-25T10:42:28.418Z</time></trkpt><trkpt lat="43.8731721" lon="11.2201887"><ele>468.0</ele><time>2026-04-25T10:42:30.436Z</time></trkpt><trkpt lat="43.873189" lon="11.220277"><ele>466.1666666666667</ele><time>2026-04-25T10:42:31.421Z</time></trkpt><trkpt lat="43.8732001" lon="11.2203717"><ele>464.33333333333337</ele><time>2026-04-25T10:42:32.421Z</time></trkpt><trkpt lat="43.8732236" lon="11.2205374"><ele>462.5</ele><time>2026-04-25T10:42:34.411Z</time></trkpt><trkpt lat="43.8732274" lon="11.2206648"><ele>460.6666666666667</ele><time>2026-04-25T10:42:36.417Z</time></trkpt><trkpt lat="43.8732196" lon="11.2207606"><ele>458.83333333333337</ele><time>2026-04-25T10:42:38.416Z</time></trkpt><trkpt lat="43.8731883" lon="11.220857"><ele>457.0</ele><time>2026-04-25T10:42:40.409Z</time></trkpt><trkpt lat="43.8731154" lon="11.2209848"><ele>455.33333333333337</ele><time>2026-04-25T10:42:42.412Z</time></trkpt><trkpt lat="43.8730784" lon="11.2210717"><ele>453.6666666666667</ele><time>2026-04-25T10:42:44.42Z</time></trkpt><trkpt lat="43.8730244" lon="11.2211502"><ele>452.0</ele><time>2026-04-25T10:42:46.408Z</time></trkpt><trkpt lat="43.8730276" lon="11.2212616"><ele>450.33333333333337</ele><time>2026-04-25T10:42:48.417Z</time></trkpt><trkpt lat="43.8730123" lon="11.2213793"><ele>448.6666666666667</ele><time>2026-04-25T10:42:51.43Z</time></trkpt><trkpt lat="43.8729794" lon="11.2214629"><ele>447.0</ele><time>2026-04-25T10:42:53.422Z</time></trkpt><trkpt lat="43.8729934" lon="11.2216067"><ele>446.6</ele><time>2026-04-25T10:42:55.432Z</time></trkpt><trkpt lat="43.8729996" lon="11.2217641"><ele>446.20000000000005</ele><time>2026-04-25T10:42:57.428Z</time></trkpt><trkpt lat="43.8730159" lon="11.2218707"><ele>445.8</ele><time>2026-04-25T10:42:59.428Z</time></trkpt><trkpt lat="43.8730065" lon="11.2220011"><ele>445.4</ele><time>2026-04-25T10:43:01.43Z</time></trkpt><trkpt lat="43.8730285" lon="11.2221175"><ele>445.0</ele><time>2026-04-25T10:43:03.418Z</time></trkpt><trkpt lat="43.8730649" lon="11.222221"><ele>442.8</ele><time>2026-04-25T10:43:05.407Z</time></trkpt><trkpt lat="43.8731029" lon="11.2223403"><ele>440.6</ele><time>2026-04-25T10:43:08.416Z</time></trkpt><trkpt lat="43.8731288" lon="11.222484"><ele>438.4</ele><time>2026-04-25T10:43:10.404Z</time></trkpt><trkpt lat="43.8731844" lon="11.2225945"><ele>436.2</ele><time>2026-04-25T10:43:12.401Z</time></trkpt><trkpt lat="43.8732168" lon="11.2227336"><ele>434.0</ele><time>2026-04-25T10:43:14.397Z</time></trkpt><trkpt lat="43.8732234" lon="11.2228235"><ele>433.99999999999994</ele><time>2026-04-25T10:43:16.409Z</time></trkpt><trkpt lat="43.8732618" lon="11.2229311"><ele>434.0</ele><time>2026-04-25T10:43:20.413Z</time></trkpt><trkpt lat="43.8732792" lon="11.2230251"><ele>434.0</ele><time>2026-04-25T10:43:23.411Z</time></trkpt><trkpt lat="43.873265" lon="11.2231263"><ele>434.0</ele><time>2026-04-25T10:43:27.408Z</time></trkpt><trkpt lat="43.873253" lon="11.2232404"><ele>433.99999999999994</ele><time>2026-04-25T10:43:30.414Z</time></trkpt><trkpt lat="43.8732465" lon="11.2233527"><ele>434.0</ele><time>2026-04-25T10:43:32.424Z</time></trkpt><trkpt lat="43.8732567" lon="11.2234905"><ele>431.7142857142857</ele><time>2026-04-25T10:43:34.405Z</time></trkpt><trkpt lat="43.8732948" lon="11.223606"><ele>429.42857142857144</ele><time>2026-04-25T10:43:39.413Z</time></trkpt><trkpt lat="43.8733137" lon="11.2236965"><ele>427.1428571428571</ele><time>2026-04-25T10:45:01.392Z</time></trkpt><trkpt lat="43.8733353" lon="11.2237798"><ele>424.8571428571429</ele><time>2026-04-25T10:45:19.39Z</time></trkpt><trkpt lat="43.8732759" lon="11.2237424"><ele>422.57142857142856</ele><time>2026-04-25T10:45:22.387Z</time></trkpt><trkpt lat="43.8732293" lon="11.223676"><ele>420.2857142857143</ele><time>2026-04-25T10:45:26.385Z</time></trkpt><trkpt lat="43.8731548" lon="11.2236531"><ele>418.0</ele><time>2026-04-25T10:45:29.382Z</time></trkpt><trkpt lat="43.873084" lon="11.2236055"><ele>418.0</ele><time>2026-04-25T10:45:33.391Z</time></trkpt><trkpt lat="43.8730224" lon="11.223586"><ele>418.0</ele><time>2026-04-25T10:45:37.404Z</time></trkpt><trkpt lat="43.8729465" lon="11.2235346"><ele>418.0</ele><time>2026-04-25T10:45:41.381Z</time></trkpt><trkpt lat="43.8728742" lon="11.2234716"><ele>418.0</ele><time>2026-04-25T10:45:44.381Z</time></trkpt><trkpt lat="43.8728012" lon="11.2234702"><ele>418.0</ele><time>2026-04-25T10:45:46.397Z</time></trkpt><trkpt lat="43.8727313" lon="11.2234938"><ele>418.0</ele><time>2026-04-25T10:45:50.381Z</time></trkpt><trkpt lat="43.8726664" lon="11.2235021"><ele>418.0</ele><time>2026-04-25T10:45:56.399Z</time></trkpt><trkpt lat="43.8725883" lon="11.2235275"><ele>414.50000000000006</ele><time>2026-04-25T10:45:59.397Z</time></trkpt><trkpt lat="43.872514" lon="11.2235214"><ele>411.0</ele><time>2026-04-25T10:46:02.401Z</time></trkpt><trkpt lat="43.8724547" lon="11.2234727"><ele>407.5</ele><time>2026-04-25T10:46:04.393Z</time></trkpt><trkpt lat="43.8723933" lon="11.2234494"><ele>404.0</ele><time>2026-04-25T10:46:06.393Z</time></trkpt><trkpt lat="43.8722946" lon="11.2233952"><ele>400.50000000000006</ele><time>2026-04-25T10:46:08.389Z</time></trkpt><trkpt lat="43.8721966" lon="11.223334"><ele>397.0</ele><time>2026-04-25T10:46:10.398Z</time></trkpt><trkpt lat="43.8721153" lon="11.2232628"><ele>397.00000000000006</ele><time>2026-04-25T10:46:13.386Z</time></trkpt><trkpt lat="43.8720212" lon="11.2231938"><ele>397.0</ele><time>2026-04-25T10:46:15.383Z</time></trkpt><trkpt lat="43.87192" lon="11.2231054"><ele>397.0</ele><time>2026-04-25T10:46:17.384Z</time></trkpt><trkpt lat="43.8718966" lon="11.223024"><ele>397.0</ele><time>2026-04-25T10:46:19.397Z</time></trkpt><trkpt lat="43.8718398" lon="11.222973"><ele>397.00000000000006</ele><time>2026-04-25T10:46:22.397Z</time></trkpt><trkpt lat="43.8717797" lon="11.222914"><ele>397.0</ele><time>2026-04-25T10:46:25.381Z</time></trkpt><trkpt lat="43.8717076" lon="11.2228673"><ele>395.6666666666667</ele><time>2026-04-25T10:46:28.387Z</time></trkpt><trkpt lat="43.8716274" lon="11.2228222"><ele>394.33333333333337</ele><time>2026-04-25T10:46:32.399Z</time></trkpt><trkpt lat="43.8715619" lon="11.2227564"><ele>393.0</ele><time>2026-04-25T10:46:38.414Z</time></trkpt><trkpt lat="43.8714709" lon="11.2227364"><ele>391.66666666666663</ele><time>2026-04-25T10:46:43.382Z</time></trkpt><trkpt lat="43.8714057" lon="11.222731"><ele>390.3333333333333</ele><time>2026-04-25T10:46:46.385Z</time></trkpt><trkpt lat="43.8713536" lon="11.222662"><ele>389.0</ele><time>2026-04-25T10:46:52.397Z</time></trkpt><trkpt lat="43.8712992" lon="11.2225909"><ele>388.99999999999994</ele><time>2026-04-25T10:46:55.383Z</time></trkpt><trkpt lat="43.8712481" lon="11.2224886"><ele>389.0</ele><time>2026-04-25T10:46:57.382Z</time></trkpt><trkpt lat="43.8711877" lon="11.2224456"><ele>389.0</ele><time>2026-04-25T10:47:00.398Z</time></trkpt><trkpt lat="43.8710987" lon="11.2223885"><ele>389.0</ele><time>2026-04-25T10:47:05.379Z</time></trkpt><trkpt lat="43.8710311" lon="11.2223649"><ele>388.99999999999994</ele><time>2026-04-25T10:47:07.377Z</time></trkpt><trkpt lat="43.8709672" lon="11.2222936"><ele>389.0</ele><time>2026-04-25T10:47:10.395Z</time></trkpt><trkpt lat="43.8709189" lon="11.2222095"><ele>388.8333333333333</ele><time>2026-04-25T10:47:14.391Z</time></trkpt><trkpt lat="43.8708714" lon="11.2221357"><ele>388.66666666666663</ele><time>2026-04-25T10:47:17.383Z</time></trkpt><trkpt lat="43.8708299" lon="11.2220518"><ele>388.5</ele><time>2026-04-25T10:47:20.383Z</time></trkpt><trkpt lat="43.8707897" lon="11.2219732"><ele>388.33333333333337</ele><time>2026-04-25T10:47:23.395Z</time></trkpt><trkpt lat="43.8707335" lon="11.2218943"><ele>388.1666666666667</ele><time>2026-04-25T10:47:28.399Z</time></trkpt><trkpt lat="43.8706536" lon="11.221795"><ele>388.0</ele><time>2026-04-25T10:47:34.382Z</time></trkpt><trkpt lat="43.8705608" lon="11.2217213"><ele>388.0</ele><time>2026-04-25T10:47:40.404Z</time></trkpt><trkpt lat="43.8704856" lon="11.2216851"><ele>388.0</ele><time>2026-04-25T10:47:44.382Z</time></trkpt><trkpt lat="43.870402" lon="11.2216068"><ele>388.0</ele><time>2026-04-25T10:47:46.383Z</time></trkpt><trkpt lat="43.8702983" lon="11.2215399"><ele>388.0</ele><time>2026-04-25T10:47:48.397Z</time></trkpt><trkpt lat="43.870203" lon="11.2214906"><ele>388.0</ele><time>2026-04-25T10:47:50.396Z</time></trkpt><trkpt lat="43.8701371" lon="11.2214598"><ele>384.59999999999997</ele><time>2026-04-25T10:47:51.404Z</time></trkpt><trkpt lat="43.8700272" lon="11.2214311"><ele>381.2</ele><time>2026-04-25T10:47:53.394Z</time></trkpt><trkpt lat="43.869961" lon="11.2213494"><ele>377.8</ele><time>2026-04-25T10:47:55.394Z</time></trkpt><trkpt lat="43.8698915" lon="11.2212632"><ele>374.4</ele><time>2026-04-25T10:47:57.376Z</time></trkpt><trkpt lat="43.8698029" lon="11.221234"><ele>371.0</ele><time>2026-04-25T10:47:59.391Z</time></trkpt><trkpt lat="43.8697127" lon="11.2212299"><ele>371.0</ele><time>2026-04-25T10:48:01.398Z</time></trkpt><trkpt lat="43.8696064" lon="11.2212547"><ele>371.0</ele><time>2026-04-25T10:48:03.388Z</time></trkpt><trkpt lat="43.869521" lon="11.2212507"><ele>371.0</ele><time>2026-04-25T10:48:05.388Z</time></trkpt><trkpt lat="43.8694371" lon="11.2211835"><ele>371.0</ele><time>2026-04-25T10:48:08.393Z</time></trkpt><trkpt lat="43.8693715" lon="11.2211579"><ele>371.0</ele><time>2026-04-25T10:48:10.386Z</time></trkpt><trkpt lat="43.8692966" lon="11.221146"><ele>371.0</ele><time>2026-04-25T10:48:12.383Z</time></trkpt><trkpt lat="43.8691976" lon="11.2210993"><ele>370.8</ele><time>2026-04-25T10:48:14.377Z</time></trkpt><trkpt lat="43.8690833" lon="11.2210608"><ele>370.6</ele><time>2026-04-25T10:48:16.377Z</time></trkpt><trkpt lat="43.8690037" lon="11.221003"><ele>370.4</ele><time>2026-04-25T10:48:18.385Z</time></trkpt><trkpt lat="43.8689569" lon="11.220909"><ele>370.2</ele><time>2026-04-25T10:48:20.392Z</time></trkpt><trkpt lat="43.8689343" lon="11.2208018"><ele>370.0</ele><time>2026-04-25T10:48:22.388Z</time></trkpt><trkpt lat="43.868915" lon="11.220689"><ele>367.0</ele><time>2026-04-25T10:48:24.392Z</time></trkpt><trkpt lat="43.8688817" lon="11.2205597"><ele>364.0</ele><time>2026-04-25T10:48:26.382Z</time></trkpt><trkpt lat="43.8688464" lon="11.2204667"><ele>361.0</ele><time>2026-04-25T10:48:29.396Z</time></trkpt><trkpt lat="43.8688696" lon="11.2203478"><ele>358.0</ele><time>2026-04-25T10:48:32.396Z</time></trkpt><trkpt lat="43.8688666" lon="11.220188"><ele>355.0</ele><time>2026-04-25T10:48:34.394Z</time></trkpt><trkpt lat="43.8688109" lon="11.2200464"><ele>355.0</ele><time>2026-04-25T10:48:36.395Z</time></trkpt><trkpt lat="43.8687598" lon="11.2199906"><ele>355.0</ele><time>2026-04-25T10:48:38.399Z</time></trkpt><trkpt lat="43.8686774" lon="11.2199321"><ele>355.0</ele><time>2026-04-25T10:48:43.38Z</time></trkpt><trkpt lat="43.8686031" lon="11.2198872"><ele>355.0</ele><time>2026-04-25T10:48:47.384Z</time></trkpt><trkpt lat="43.8685776" lon="11.2197552"><ele>355.0</ele><time>2026-04-25T10:48:50.392Z</time></trkpt><trkpt lat="43.8685023" lon="11.2197126"><ele>355.0</ele><time>2026-04-25T10:48:52.397Z</time></trkpt><trkpt lat="43.8684187" lon="11.2196895"><ele>353.66666666666663</ele><time>2026-04-25T10:48:54.39Z</time></trkpt><trkpt lat="43.868357" lon="11.219586"><ele>352.3333333333333</ele><time>2026-04-25T10:48:56.394Z</time></trkpt><trkpt lat="43.8683527" lon="11.2194953"><ele>351.0</ele><time>2026-04-25T10:48:57.39Z</time></trkpt><trkpt lat="43.868356" lon="11.219404"><ele>349.6666666666667</ele><time>2026-04-25T10:48:58.391Z</time></trkpt><trkpt lat="43.868307" lon="11.2192759"><ele>348.33333333333337</ele><time>2026-04-25T10:49:00.384Z</time></trkpt><trkpt lat="43.8682341" lon="11.2192172"><ele>347.0</ele><time>2026-04-25T10:49:02.387Z</time></trkpt><trkpt lat="43.8681765" lon="11.2192642"><ele>347.0</ele><time>2026-04-25T10:49:15.385Z</time></trkpt><trkpt lat="43.8681433" lon="11.2193553"><ele>347.0</ele><time>2026-04-25T10:49:23.405Z</time></trkpt><trkpt lat="43.8680835" lon="11.2193881"><ele>347.0</ele><time>2026-04-25T10:49:35.395Z</time></trkpt><trkpt lat="43.8680928" lon="11.2192924"><ele>347.0</ele><time>2026-04-25T10:49:38.398Z</time></trkpt><trkpt lat="43.8681066" lon="11.2191753"><ele>347.0</ele><time>2026-04-25T10:49:40.395Z</time></trkpt><trkpt lat="43.8681351" lon="11.2190854"><ele>347.0</ele><time>2026-04-25T10:49:42.392Z</time></trkpt><trkpt lat="43.8681572" lon="11.2189726"><ele>347.0</ele><time>2026-04-25T10:49:44.391Z</time></trkpt><trkpt lat="43.8681527" lon="11.2188479"><ele>343.20000000000005</ele><time>2026-04-25T10:49:46.399Z</time></trkpt><trkpt lat="43.8681674" lon="11.2187225"><ele>339.4</ele><time>2026-04-25T10:49:48.394Z</time></trkpt><trkpt lat="43.8681853" lon="11.2185813"><ele>335.6</ele><time>2026-04-25T10:49:50.389Z</time></trkpt><trkpt lat="43.8682267" lon="11.2184629"><ele>331.79999999999995</ele><time>2026-04-25T10:49:52.394Z</time></trkpt><trkpt lat="43.8682498" lon="11.2183287"><ele>328.0</ele><time>2026-04-25T10:49:55.397Z</time></trkpt><trkpt lat="43.8682934" lon="11.218234"><ele>326.0</ele><time>2026-04-25T10:49:57.393Z</time></trkpt><trkpt lat="43.8683806" lon="11.2181262"><ele>324.0</ele><time>2026-04-25T10:49:59.392Z</time></trkpt><trkpt lat="43.8684278" lon="11.2180553"><ele>322.0</ele><time>2026-04-25T10:50:00.393Z</time></trkpt><trkpt lat="43.8684824" lon="11.2179859"><ele>320.0</ele><time>2026-04-25T10:50:01.389Z</time></trkpt><trkpt lat="43.8685406" lon="11.2179268"><ele>318.0</ele><time>2026-04-25T10:50:02.384Z</time></trkpt><trkpt lat="43.8685825" lon="11.2178517"><ele>316.0</ele><time>2026-04-25T10:50:03.384Z</time></trkpt><trkpt lat="43.8686254" lon="11.2177593"><ele>316.0</ele><time>2026-04-25T10:50:04.393Z</time></trkpt><trkpt lat="43.8686678" lon="11.2176782"><ele>316.0</ele><time>2026-04-25T10:50:05.388Z</time></trkpt><trkpt lat="43.868723" lon="11.217571"><ele>316.0</ele><time>2026-04-25T10:50:07.39Z</time></trkpt><trkpt lat="43.8687626" lon="11.2174727"><ele>316.0</ele><time>2026-04-25T10:50:10.396Z</time></trkpt><trkpt lat="43.8687967" lon="11.2173884"><ele>316.0</ele><time>2026-04-25T10:50:13.399Z</time></trkpt><trkpt lat="43.8687828" lon="11.2173019"><ele>316.0</ele><time>2026-04-25T10:50:17.401Z</time></trkpt><trkpt lat="43.8687646" lon="11.2171646"><ele>313.66666666666663</ele><time>2026-04-25T10:50:20.396Z</time></trkpt><trkpt lat="43.8687452" lon="11.2170749"><ele>311.3333333333333</ele><time>2026-04-25T10:50:22.395Z</time></trkpt><trkpt lat="43.8687891" lon="11.2169995"><ele>309.0</ele><time>2026-04-25T10:50:47.373Z</time></trkpt><trkpt lat="43.8687462" lon="11.2168999"><ele>306.6666666666667</ele><time>2026-04-25T10:51:00.365Z</time></trkpt><trkpt lat="43.8687792" lon="11.2167904"><ele>304.33333333333337</ele><time>2026-04-25T10:51:36.398Z</time></trkpt><trkpt lat="43.8687944" lon="11.2166782"><ele>302.0</ele><time>2026-04-25T10:51:37.398Z</time></trkpt><trkpt lat="43.868813" lon="11.2165753"><ele>299.7142857142857</ele><time>2026-04-25T10:51:38.391Z</time></trkpt><trkpt lat="43.8688173" lon="11.2164839"><ele>297.42857142857144</ele><time>2026-04-25T10:51:39.389Z</time></trkpt><trkpt lat="43.8688069" lon="11.2163899"><ele>295.1428571428571</ele><time>2026-04-25T10:51:40.392Z</time></trkpt><trkpt lat="43.868778" lon="11.2163081"><ele>292.8571428571429</ele><time>2026-04-25T10:51:41.39Z</time></trkpt><trkpt lat="43.8687291" lon="11.2162318"><ele>290.57142857142856</ele><time>2026-04-25T10:51:42.392Z</time></trkpt><trkpt lat="43.8686642" lon="11.216185"><ele>288.2857142857143</ele><time>2026-04-25T10:51:43.394Z</time></trkpt><trkpt lat="43.8685899" lon="11.2161475"><ele>286.0</ele><time>2026-04-25T10:51:44.398Z</time></trkpt><trkpt lat="43.8684628" lon="11.2160958"><ele>286.57142857142856</ele><time>2026-04-25T10:51:46.398Z</time></trkpt><trkpt lat="43.8683946" lon="11.2160678"><ele>287.1428571428571</ele><time>2026-04-25T10:51:47.409Z</time></trkpt><trkpt lat="43.8683249" lon="11.2160394"><ele>287.7142857142857</ele><time>2026-04-25T10:51:48.396Z</time></trkpt><trkpt lat="43.8682566" lon="11.2159981"><ele>288.2857142857143</ele><time>2026-04-25T10:51:49.397Z</time></trkpt><trkpt lat="43.8681951" lon="11.2159429"><ele>288.8571428571429</ele><time>2026-04-25T10:51:50.399Z</time></trkpt><trkpt lat="43.8681186" lon="11.2159009"><ele>289.42857142857144</ele><time>2026-04-25T10:51:51.399Z</time></trkpt><trkpt lat="43.8680592" lon="11.2158617"><ele>290.0</ele><time>2026-04-25T10:51:52.4Z</time></trkpt><trkpt lat="43.8679964" lon="11.2158154"><ele>290.0</ele><time>2026-04-25T10:51:53.394Z</time></trkpt><trkpt lat="43.8678935" lon="11.2157213"><ele>290.0</ele><time>2026-04-25T10:51:55.393Z</time></trkpt><trkpt lat="43.8677938" lon="11.2156281"><ele>290.0</ele><time>2026-04-25T10:51:57.396Z</time></trkpt><trkpt lat="43.8677324" lon="11.2156004"><ele>290.0</ele><time>2026-04-25T10:51:58.398Z</time></trkpt><trkpt lat="43.8676197" lon="11.2155643"><ele>290.0</ele><time>2026-04-25T10:52:00.395Z</time></trkpt><trkpt lat="43.8675149" lon="11.2155454"><ele>289.25</ele><time>2026-04-25T10:52:02.395Z</time></trkpt><trkpt lat="43.867408" lon="11.2155186"><ele>288.5</ele><time>2026-04-25T10:52:04.385Z</time></trkpt><trkpt lat="43.867291" lon="11.2154709"><ele>287.75</ele><time>2026-04-25T10:52:06.389Z</time></trkpt><trkpt lat="43.8671802" lon="11.2154117"><ele>287.0</ele><time>2026-04-25T10:52:08.395Z</time></trkpt><trkpt lat="43.8670772" lon="11.2153804"><ele>287.0</ele><time>2026-04-25T10:52:10.385Z</time></trkpt><trkpt lat="43.8669929" lon="11.2153528"><ele>287.0</ele><time>2026-04-25T10:52:12.389Z</time></trkpt><trkpt lat="43.8669074" lon="11.2153232"><ele>287.0</ele><time>2026-04-25T10:52:14.403Z</time></trkpt><trkpt lat="43.8668235" lon="11.2153084"><ele>287.0</ele><time>2026-04-25T10:52:16.411Z</time></trkpt><trkpt lat="43.8667475" lon="11.2153185"><ele>287.0</ele><time>2026-04-25T10:53:33.402Z</time></trkpt><trkpt lat="43.8666797" lon="11.2153055"><ele>287.0</ele><time>2026-04-25T10:53:55.403Z</time></trkpt><trkpt lat="43.8666048" lon="11.215296"><ele>287.0</ele><time>2026-04-25T10:54:03.408Z</time></trkpt><trkpt lat="43.8665307" lon="11.2153025"><ele>287.0</ele><time>2026-04-25T10:54:08.406Z</time></trkpt><trkpt lat="43.8664711" lon="11.2153309"><ele>287.0</ele><time>2026-04-25T10:54:14.404Z</time></trkpt><trkpt lat="43.8664125" lon="11.2153631"><ele>287.0</ele><time>2026-04-25T10:54:30.403Z</time></trkpt><trkpt lat="43.8663544" lon="11.2154005"><ele>287.0</ele><time>2026-04-25T10:54:34.399Z</time></trkpt><trkpt lat="43.8662874" lon="11.2154442"><ele>287.0</ele><time>2026-04-25T10:54:37.403Z</time></trkpt><trkpt lat="43.8662233" lon="11.2154876"><ele>287.0</ele><time>2026-04-25T10:54:41.401Z</time></trkpt><trkpt lat="43.8661706" lon="11.2155426"><ele>287.0</ele><time>2026-04-25T10:55:53.415Z</time></trkpt><trkpt lat="43.8661141" lon="11.2155903"><ele>287.0</ele><time>2026-04-25T10:56:00.414Z</time></trkpt><trkpt lat="43.8660478" lon="11.2156469"><ele>287.0</ele><time>2026-04-25T10:56:05.409Z</time></trkpt><trkpt lat="43.8659873" lon="11.2157045"><ele>287.0</ele><time>2026-04-25T10:56:09.414Z</time></trkpt><trkpt lat="43.8659098" lon="11.2157612"><ele>287.0</ele><time>2026-04-25T10:56:13.407Z</time></trkpt><trkpt lat="43.8658429" lon="11.2157952"><ele>287.0</ele><time>2026-04-25T10:56:16.416Z</time></trkpt><trkpt lat="43.865772" lon="11.2158196"><ele>287.0</ele><time>2026-04-25T10:56:19.397Z</time></trkpt><trkpt lat="43.8657041" lon="11.2158096"><ele>289.0</ele><time>2026-04-25T10:56:22.402Z</time></trkpt><trkpt lat="43.8656259" lon="11.2158032"><ele>291.0</ele><time>2026-04-25T10:56:26.426Z</time></trkpt><trkpt lat="43.8655558" lon="11.2157853"><ele>293.0</ele><time>2026-04-25T10:56:30.407Z</time></trkpt><trkpt lat="43.8655097" lon="11.2158755"><ele>295.0</ele><time>2026-04-25T10:56:36.403Z</time></trkpt><trkpt lat="43.865451" lon="11.2159383"><ele>297.0</ele><time>2026-04-25T10:56:39.412Z</time></trkpt><trkpt lat="43.8653859" lon="11.216005"><ele>299.0</ele><time>2026-04-25T10:56:42.416Z</time></trkpt><trkpt lat="43.8653072" lon="11.2160778"><ele>299.0</ele><time>2026-04-25T10:56:45.416Z</time></trkpt><trkpt lat="43.8652348" lon="11.2161152"><ele>299.0</ele><time>2026-04-25T10:56:47.427Z</time></trkpt><trkpt lat="43.8651578" lon="11.2161843"><ele>299.0</ele><time>2026-04-25T10:56:49.424Z</time></trkpt><trkpt lat="43.8651038" lon="11.2162452"><ele>299.0</ele><time>2026-04-25T10:56:51.433Z</time></trkpt><trkpt lat="43.8650566" lon="11.2163152"><ele>299.0</ele><time>2026-04-25T10:56:53.417Z</time></trkpt><trkpt lat="43.8650194" lon="11.2163914"><ele>299.0</ele><time>2026-04-25T10:56:55.424Z</time></trkpt><trkpt lat="43.864962" lon="11.2164602"><ele>300.0</ele><time>2026-04-25T10:56:57.434Z</time></trkpt><trkpt lat="43.8648748" lon="11.2165086"><ele>301.0</ele><time>2026-04-25T10:56:59.412Z</time></trkpt><trkpt lat="43.8648039" lon="11.2165953"><ele>302.0</ele><time>2026-04-25T10:57:02.427Z</time></trkpt><trkpt lat="43.864746" lon="11.2166587"><ele>303.0</ele><time>2026-04-25T10:57:04.423Z</time></trkpt><trkpt lat="43.8646933" lon="11.2167214"><ele>304.0</ele><time>2026-04-25T10:57:06.421Z</time></trkpt><trkpt lat="43.864637" lon="11.2167803"><ele>305.0</ele><time>2026-04-25T10:57:08.428Z</time></trkpt><trkpt lat="43.8645912" lon="11.2168659"><ele>305.0</ele><time>2026-04-25T10:57:11.423Z</time></trkpt><trkpt lat="43.8645536" lon="11.2169616"><ele>305.0</ele><time>2026-04-25T10:57:15.42Z</time></trkpt><trkpt lat="43.8645107" lon="11.2170589"><ele>305.0</ele><time>2026-04-25T10:57:19.397Z</time></trkpt><trkpt lat="43.8644897" lon="11.2171446"><ele>305.0</ele><time>2026-04-25T10:57:22.39Z</time></trkpt><trkpt lat="43.8644349" lon="11.2172216"><ele>305.0</ele><time>2026-04-25T10:57:26.405Z</time></trkpt><trkpt lat="43.8643779" lon="11.2172803"><ele>305.0</ele><time>2026-04-25T10:57:29.412Z</time></trkpt><trkpt lat="43.8643343" lon="11.2173511"><ele>305.0</ele><time>2026-04-25T10:57:32.414Z</time></trkpt><trkpt lat="43.8643043" lon="11.2174491"><ele>306.0</ele><time>2026-04-25T10:57:36.418Z</time></trkpt><trkpt lat="43.864287" lon="11.217551"><ele>307.0</ele><time>2026-04-25T10:57:40.411Z</time></trkpt><trkpt lat="43.8642655" lon="11.2176548"><ele>308.0</ele><time>2026-04-25T10:57:44.418Z</time></trkpt><trkpt lat="43.8642525" lon="11.2177441"><ele>309.0</ele><time>2026-04-25T10:57:47.41Z</time></trkpt><trkpt lat="43.8642416" lon="11.2178373"><ele>310.0</ele><time>2026-04-25T10:57:50.418Z</time></trkpt><trkpt lat="43.8642296" lon="11.2179245"><ele>311.0</ele><time>2026-04-25T10:57:53.416Z</time></trkpt><trkpt lat="43.8642045" lon="11.2180351"><ele>312.0</ele><time>2026-04-25T10:57:57.421Z</time></trkpt><trkpt lat="43.8641616" lon="11.2181029"><ele>313.3333333333333</ele><time>2026-04-25T10:58:00.414Z</time></trkpt><trkpt lat="43.8641271" lon="11.2181764"><ele>314.6666666666667</ele><time>2026-04-25T10:58:02.414Z</time></trkpt><trkpt lat="43.8640486" lon="11.218269"><ele>316.0</ele><time>2026-04-25T10:58:05.401Z</time></trkpt><trkpt lat="43.8639703" lon="11.2183287"><ele>317.33333333333337</ele><time>2026-04-25T10:58:07.41Z</time></trkpt><trkpt lat="43.8638723" lon="11.2183796"><ele>318.6666666666667</ele><time>2026-04-25T10:58:09.408Z</time></trkpt><trkpt lat="43.8638043" lon="11.2184515"><ele>320.0</ele><time>2026-04-25T10:58:11.414Z</time></trkpt><trkpt lat="43.8637322" lon="11.2185182"><ele>320.0</ele><time>2026-04-25T10:58:13.411Z</time></trkpt><trkpt lat="43.8636521" lon="11.2185611"><ele>320.0</ele><time>2026-04-25T10:58:15.418Z</time></trkpt><trkpt lat="43.8635713" lon="11.2185657"><ele>320.0</ele><time>2026-04-25T10:58:17.419Z</time></trkpt><trkpt lat="43.8634782" lon="11.2185279"><ele>320.0</ele><time>2026-04-25T10:58:19.413Z</time></trkpt><trkpt lat="43.8634095" lon="11.2184974"><ele>320.0</ele><time>2026-04-25T10:58:21.415Z</time></trkpt><trkpt lat="43.8633332" lon="11.218466"><ele>320.0</ele><time>2026-04-25T10:58:25.405Z</time></trkpt><trkpt lat="43.8632546" lon="11.2184478"><ele>320.0</ele><time>2026-04-25T10:58:28.398Z</time></trkpt><trkpt lat="43.8631853" lon="11.2184112"><ele>320.0</ele><time>2026-04-25T10:58:31.415Z</time></trkpt><trkpt lat="43.8631179" lon="11.2183706"><ele>320.0</ele><time>2026-04-25T10:58:34.421Z</time></trkpt><trkpt lat="43.8630518" lon="11.2183298"><ele>320.0</ele><time>2026-04-25T10:58:37.414Z</time></trkpt><trkpt lat="43.8629701" lon="11.218305"><ele>320.0</ele><time>2026-04-25T10:58:40.399Z</time></trkpt><trkpt lat="43.8628856" lon="11.2182434"><ele>320.0</ele><time>2026-04-25T10:58:43.418Z</time></trkpt><trkpt lat="43.8628197" lon="11.2181955"><ele>320.0</ele><time>2026-04-25T10:58:46.417Z</time></trkpt><trkpt lat="43.8627452" lon="11.2181629"><ele>320.0</ele><time>2026-04-25T10:58:49.421Z</time></trkpt><trkpt lat="43.8626416" lon="11.2181411"><ele>320.0</ele><time>2026-04-25T10:58:52.427Z</time></trkpt><trkpt lat="43.8625615" lon="11.2181357"><ele>320.0</ele><time>2026-04-25T10:58:54.418Z</time></trkpt><trkpt lat="43.8624688" lon="11.2181215"><ele>320.0</ele><time>2026-04-25T10:58:56.423Z</time></trkpt><trkpt lat="43.8623831" lon="11.2180873"><ele>320.0</ele><time>2026-04-25T10:58:58.438Z</time></trkpt><trkpt lat="43.8622981" lon="11.218032"><ele>319.6666666666667</ele><time>2026-04-25T10:59:00.422Z</time></trkpt><trkpt lat="43.8622197" lon="11.2179618"><ele>319.33333333333337</ele><time>2026-04-25T10:59:03.407Z</time></trkpt><trkpt lat="43.8621494" lon="11.2179262"><ele>319.0</ele><time>2026-04-25T10:59:05.413Z</time></trkpt><trkpt lat="43.862077" lon="11.2178801"><ele>318.6666666666667</ele><time>2026-04-25T10:59:08.408Z</time></trkpt><trkpt lat="43.8620272" lon="11.2177966"><ele>318.3333333333333</ele><time>2026-04-25T10:59:11.419Z</time></trkpt><trkpt lat="43.8619716" lon="11.2177506"><ele>318.0</ele><time>2026-04-25T10:59:13.421Z</time></trkpt><trkpt lat="43.8618898" lon="11.2176915"><ele>318.0</ele><time>2026-04-25T10:59:16.421Z</time></trkpt><trkpt lat="43.861822" lon="11.2176293"><ele>318.0</ele><time>2026-04-25T10:59:19.419Z</time></trkpt><trkpt lat="43.8617471" lon="11.2175596"><ele>318.0</ele><time>2026-04-25T10:59:22.42Z</time></trkpt><trkpt lat="43.8616914" lon="11.2175188"><ele>318.0</ele><time>2026-04-25T10:59:24.415Z</time></trkpt><trkpt lat="43.8616316" lon="11.2174562"><ele>318.0</ele><time>2026-04-25T10:59:27.418Z</time></trkpt><trkpt lat="43.8615766" lon="11.2174019"><ele>318.0</ele><time>2026-04-25T10:59:30.416Z</time></trkpt><trkpt lat="43.8615156" lon="11.2173685"><ele>318.0</ele><time>2026-04-25T10:59:33.417Z</time></trkpt><trkpt lat="43.8614501" lon="11.2173697"><ele>319.2857142857143</ele><time>2026-04-25T10:59:36.415Z</time></trkpt><trkpt lat="43.8613797" lon="11.2174071"><ele>320.5714285714286</ele><time>2026-04-25T10:59:41.405Z</time></trkpt><trkpt lat="43.861328" lon="11.2174572"><ele>321.8571428571429</ele><time>2026-04-25T10:59:45.415Z</time></trkpt><trkpt lat="43.8612828" lon="11.2175383"><ele>323.1428571428571</ele><time>2026-04-25T10:59:50.41Z</time></trkpt><trkpt lat="43.8612606" lon="11.2176356"><ele>324.42857142857144</ele><time>2026-04-25T10:59:54.414Z</time></trkpt><trkpt lat="43.8612524" lon="11.2177635"><ele>325.7142857142857</ele><time>2026-04-25T10:59:57.403Z</time></trkpt><trkpt lat="43.8612372" lon="11.2178577"><ele>327.0</ele><time>2026-04-25T10:59:59.404Z</time></trkpt><trkpt lat="43.8612308" lon="11.2179449"><ele>327.0</ele><time>2026-04-25T11:00:17.424Z</time></trkpt><trkpt lat="43.8612296" lon="11.2180427"><ele>327.0</ele><time>2026-04-25T11:00:21.424Z</time></trkpt><trkpt lat="43.8612271" lon="11.2181546"><ele>327.0</ele><time>2026-04-25T11:00:25.441Z</time></trkpt><trkpt lat="43.8612392" lon="11.2182411"><ele>327.0</ele><time>2026-04-25T11:00:28.428Z</time></trkpt><trkpt lat="43.86126" lon="11.2183562"><ele>327.0</ele><time>2026-04-25T11:00:32.411Z</time></trkpt><trkpt lat="43.8612686" lon="11.2184466"><ele>327.0</ele><time>2026-04-25T11:00:36.403Z</time></trkpt><trkpt lat="43.8612913" lon="11.2185434"><ele>327.0</ele><time>2026-04-25T11:00:40.397Z</time></trkpt><trkpt lat="43.8613197" lon="11.2186267"><ele>327.57142857142856</ele><time>2026-04-25T11:00:45.426Z</time></trkpt><trkpt lat="43.8613131" lon="11.2187299"><ele>328.14285714285717</ele><time>2026-04-25T11:00:50.415Z</time></trkpt><trkpt lat="43.8612931" lon="11.2188228"><ele>328.7142857142857</ele><time>2026-04-25T11:00:55.423Z</time></trkpt><trkpt lat="43.8612948" lon="11.2189318"><ele>329.2857142857143</ele><time>2026-04-25T11:01:01.412Z</time></trkpt><trkpt lat="43.8613118" lon="11.2190171"><ele>329.85714285714283</ele><time>2026-04-25T11:01:04.425Z</time></trkpt><trkpt lat="43.861334" lon="11.2191188"><ele>330.42857142857144</ele><time>2026-04-25T11:01:07.412Z</time></trkpt><trkpt lat="43.8613636" lon="11.2192131"><ele>331.0</ele><time>2026-04-25T11:01:10.409Z</time></trkpt><trkpt lat="43.8614041" lon="11.2192947"><ele>332.0</ele><time>2026-04-25T11:01:13.413Z</time></trkpt><trkpt lat="43.8614491" lon="11.2193784"><ele>333.0</ele><time>2026-04-25T11:01:16.408Z</time></trkpt><trkpt lat="43.8614951" lon="11.2194803"><ele>334.0</ele><time>2026-04-25T11:01:19.415Z</time></trkpt><trkpt lat="43.8615399" lon="11.2195841"><ele>335.0</ele><time>2026-04-25T11:01:22.414Z</time></trkpt><trkpt lat="43.8615785" lon="11.2196544"><ele>336.0</ele><time>2026-04-25T11:01:24.415Z</time></trkpt><trkpt lat="43.8616262" lon="11.2197487"><ele>337.0</ele><time>2026-04-25T11:01:27.417Z</time></trkpt><trkpt lat="43.8616647" lon="11.2198188"><ele>338.3333333333333</ele><time>2026-04-25T11:01:29.414Z</time></trkpt><trkpt lat="43.8617165" lon="11.2198938"><ele>339.66666666666663</ele><time>2026-04-25T11:01:32.415Z</time></trkpt><trkpt lat="43.8617603" lon="11.2199831"><ele>341.0</ele><time>2026-04-25T11:01:35.431Z</time></trkpt><trkpt lat="43.8618063" lon="11.2200706"><ele>342.3333333333333</ele><time>2026-04-25T11:01:38.408Z</time></trkpt><trkpt lat="43.8618578" lon="11.2201457"><ele>343.6666666666667</ele><time>2026-04-25T11:01:41.417Z</time></trkpt><trkpt lat="43.861914" lon="11.2202243"><ele>345.0</ele><time>2026-04-25T11:01:44.419Z</time></trkpt><trkpt lat="43.8619618" lon="11.2203121"><ele>345.0</ele><time>2026-04-25T11:01:47.417Z</time></trkpt><trkpt lat="43.8620032" lon="11.2204093"><ele>345.0</ele><time>2026-04-25T11:01:50.416Z</time></trkpt><trkpt lat="43.8620428" lon="11.2204896"><ele>345.0</ele><time>2026-04-25T11:01:53.417Z</time></trkpt><trkpt lat="43.8620905" lon="11.2205611"><ele>345.0</ele><time>2026-04-25T11:01:56.412Z</time></trkpt><trkpt lat="43.8621264" lon="11.2206336"><ele>345.0</ele><time>2026-04-25T11:01:59.417Z</time></trkpt><trkpt lat="43.8621669" lon="11.2207188"><ele>345.0</ele><time>2026-04-25T11:02:02.42Z</time></trkpt><trkpt lat="43.8622053" lon="11.2208056"><ele>345.0</ele><time>2026-04-25T11:02:05.418Z</time></trkpt><trkpt lat="43.8622444" lon="11.220899"><ele>346.8333333333333</ele><time>2026-04-25T11:02:08.418Z</time></trkpt><trkpt lat="43.8622817" lon="11.2209876"><ele>348.6666666666667</ele><time>2026-04-25T11:02:11.414Z</time></trkpt><trkpt lat="43.8623215" lon="11.2210836"><ele>350.5</ele><time>2026-04-25T11:02:14.417Z</time></trkpt><trkpt lat="43.8623467" lon="11.2211819"><ele>352.33333333333337</ele><time>2026-04-25T11:02:18.419Z</time></trkpt><trkpt lat="43.8623655" lon="11.2212886"><ele>354.1666666666667</ele><time>2026-04-25T11:02:22.417Z</time></trkpt><trkpt lat="43.8623807" lon="11.2213901"><ele>356.0</ele><time>2026-04-25T11:02:26.417Z</time></trkpt><trkpt lat="43.8623918" lon="11.2214843"><ele>357.85714285714283</ele><time>2026-04-25T11:02:30.416Z</time></trkpt><trkpt lat="43.8624051" lon="11.2215761"><ele>359.7142857142857</ele><time>2026-04-25T11:02:35.412Z</time></trkpt><trkpt lat="43.8624258" lon="11.221677"><ele>361.57142857142856</ele><time>2026-04-25T11:02:40.407Z</time></trkpt><trkpt lat="43.8624631" lon="11.2217515"><ele>363.42857142857144</ele><time>2026-04-25T11:02:43.408Z</time></trkpt><trkpt lat="43.862486" lon="11.2218374"><ele>365.2857142857143</ele><time>2026-04-25T11:02:47.416Z</time></trkpt><trkpt lat="43.862512" lon="11.2219295"><ele>367.1428571428571</ele><time>2026-04-25T11:02:53.41Z</time></trkpt><trkpt lat="43.862542" lon="11.2220101"><ele>369.0</ele><time>2026-04-25T11:02:56.414Z</time></trkpt><trkpt lat="43.8625791" lon="11.2220959"><ele>368.6666666666667</ele><time>2026-04-25T11:02:59.43Z</time></trkpt><trkpt lat="43.8626249" lon="11.2221817"><ele>368.3333333333333</ele><time>2026-04-25T11:03:02.415Z</time></trkpt><trkpt lat="43.8626813" lon="11.2222639"><ele>368.0</ele><time>2026-04-25T11:03:05.416Z</time></trkpt><trkpt lat="43.862743" lon="11.2223694"><ele>367.66666666666663</ele><time>2026-04-25T11:03:08.413Z</time></trkpt><trkpt lat="43.8627894" lon="11.2224421"><ele>367.3333333333333</ele><time>2026-04-25T11:03:12.417Z</time></trkpt><trkpt lat="43.8628009" lon="11.2225285"><ele>367.0</ele><time>2026-04-25T11:03:18.417Z</time></trkpt><trkpt lat="43.8628095" lon="11.2226229"><ele>368.85714285714283</ele><time>2026-04-25T11:03:26.417Z</time></trkpt><trkpt lat="43.862818" lon="11.2227129"><ele>370.7142857142857</ele><time>2026-04-25T11:03:31.412Z</time></trkpt><trkpt lat="43.8628315" lon="11.2228138"><ele>372.57142857142856</ele><time>2026-04-25T11:03:36.409Z</time></trkpt><trkpt lat="43.862843" lon="11.2229045"><ele>374.42857142857144</ele><time>2026-04-25T11:03:40.402Z</time></trkpt><trkpt lat="43.8628589" lon="11.2230067"><ele>376.28571428571433</ele><time>2026-04-25T11:03:43.401Z</time></trkpt><trkpt lat="43.8628832" lon="11.2231129"><ele>378.14285714285717</ele><time>2026-04-25T11:03:46.404Z</time></trkpt><trkpt lat="43.8628925" lon="11.223205"><ele>380.0</ele><time>2026-04-25T11:03:49.403Z</time></trkpt><trkpt lat="43.8628952" lon="11.2232962"><ele>382.6666666666667</ele><time>2026-04-25T11:03:52.404Z</time></trkpt><trkpt lat="43.8629033" lon="11.2234122"><ele>385.33333333333337</ele><time>2026-04-25T11:03:55.414Z</time></trkpt><trkpt lat="43.8629005" lon="11.2235138"><ele>388.0</ele><time>2026-04-25T11:03:58.417Z</time></trkpt><trkpt lat="43.8629165" lon="11.2236321"><ele>390.6666666666667</ele><time>2026-04-25T11:04:01.417Z</time></trkpt><trkpt lat="43.8629367" lon="11.2237438"><ele>393.3333333333333</ele><time>2026-04-25T11:04:04.422Z</time></trkpt><trkpt lat="43.8629749" lon="11.2238678"><ele>396.0</ele><time>2026-04-25T11:04:07.424Z</time></trkpt><trkpt lat="43.8630192" lon="11.2239917"><ele>398.1666666666667</ele><time>2026-04-25T11:04:09.423Z</time></trkpt><trkpt lat="43.8630603" lon="11.2240894"><ele>400.33333333333337</ele><time>2026-04-25T11:04:11.424Z</time></trkpt><trkpt lat="43.8631088" lon="11.2241819"><ele>402.5</ele><time>2026-04-25T11:04:13.412Z</time></trkpt><trkpt lat="43.8631572" lon="11.2242506"><ele>404.6666666666667</ele><time>2026-04-25T11:04:15.415Z</time></trkpt><trkpt lat="43.8632256" lon="11.2243027"><ele>406.83333333333337</ele><time>2026-04-25T11:04:17.424Z</time></trkpt><trkpt lat="43.8632848" lon="11.2243363"><ele>409.0</ele><time>2026-04-25T11:04:19.416Z</time></trkpt><trkpt lat="43.8633612" lon="11.2243915"><ele>409.00000000000006</ele><time>2026-04-25T11:04:22.422Z</time></trkpt><trkpt lat="43.8634196" lon="11.2244666"><ele>409.0</ele><time>2026-04-25T11:04:24.416Z</time></trkpt><trkpt lat="43.8634719" lon="11.2245298"><ele>409.0</ele><time>2026-04-25T11:04:26.417Z</time></trkpt><trkpt lat="43.8635519" lon="11.2245796"><ele>409.0</ele><time>2026-04-25T11:04:29.415Z</time></trkpt><trkpt lat="43.8636164" lon="11.2246254"><ele>409.00000000000006</ele><time>2026-04-25T11:04:31.419Z</time></trkpt><trkpt lat="43.8636689" lon="11.2247029"><ele>409.0</ele><time>2026-04-25T11:04:33.423Z</time></trkpt><trkpt lat="43.8637283" lon="11.2247937"><ele>410.83333333333337</ele><time>2026-04-25T11:04:36.429Z</time></trkpt><trkpt lat="43.8638003" lon="11.2248595"><ele>412.6666666666667</ele><time>2026-04-25T11:04:38.427Z</time></trkpt><trkpt lat="43.8638694" lon="11.2249186"><ele>414.5</ele><time>2026-04-25T11:04:40.42Z</time></trkpt><trkpt lat="43.863944" lon="11.2249674"><ele>416.33333333333337</ele><time>2026-04-25T11:04:42.404Z</time></trkpt><trkpt lat="43.8640231" lon="11.2250092"><ele>418.1666666666667</ele><time>2026-04-25T11:04:44.405Z</time></trkpt><trkpt lat="43.8641046" lon="11.225033"><ele>420.0</ele><time>2026-04-25T11:04:46.402Z</time></trkpt><trkpt lat="43.864179" lon="11.2250643"><ele>420.0</ele><time>2026-04-25T11:04:48.404Z</time></trkpt><trkpt lat="43.864261" lon="11.2250949"><ele>420.0</ele><time>2026-04-25T11:04:50.404Z</time></trkpt><trkpt lat="43.8643468" lon="11.2251261"><ele>420.0</ele><time>2026-04-25T11:04:52.412Z</time></trkpt><trkpt lat="43.8644372" lon="11.2251658"><ele>420.0</ele><time>2026-04-25T11:04:54.406Z</time></trkpt><trkpt lat="43.8645208" lon="11.225208"><ele>420.0</ele><time>2026-04-25T11:04:56.407Z</time></trkpt><trkpt lat="43.8645949" lon="11.2252631"><ele>420.0</ele><time>2026-04-25T11:04:58.412Z</time></trkpt><trkpt lat="43.8646582" lon="11.2253052"><ele>422.1666666666667</ele><time>2026-04-25T11:05:00.399Z</time></trkpt><trkpt lat="43.8647214" lon="11.2253654"><ele>424.33333333333337</ele><time>2026-04-25T11:05:02.406Z</time></trkpt><trkpt lat="43.8647813" lon="11.2254193"><ele>426.5</ele><time>2026-04-25T11:05:04.405Z</time></trkpt><trkpt lat="43.8648365" lon="11.2254813"><ele>428.6666666666667</ele><time>2026-04-25T11:05:06.396Z</time></trkpt><trkpt lat="43.8648917" lon="11.2255556"><ele>430.83333333333337</ele><time>2026-04-25T11:05:08.398Z</time></trkpt><trkpt lat="43.864948" lon="11.2256486"><ele>433.0</ele><time>2026-04-25T11:05:10.4Z</time></trkpt><trkpt lat="43.8650035" lon="11.2257577"><ele>433.0</ele><time>2026-04-25T11:05:12.411Z</time></trkpt><trkpt lat="43.865064" lon="11.2258812"><ele>432.99999999999994</ele><time>2026-04-25T11:05:14.397Z</time></trkpt><trkpt lat="43.8651148" lon="11.2259918"><ele>432.99999999999994</ele><time>2026-04-25T11:05:16.406Z</time></trkpt><trkpt lat="43.8651758" lon="11.2261098"><ele>433.0</ele><time>2026-04-25T11:05:18.401Z</time></trkpt><trkpt lat="43.8652243" lon="11.2262101"><ele>433.0</ele><time>2026-04-25T11:05:20.393Z</time></trkpt><trkpt lat="43.8652579" lon="11.2263081"><ele>440.79999999999995</ele><time>2026-04-25T11:05:22.39Z</time></trkpt><trkpt lat="43.8653069" lon="11.2264192"><ele>448.59999999999997</ele><time>2026-04-25T11:05:24.39Z</time></trkpt><trkpt lat="43.8653566" lon="11.2265435"><ele>456.40000000000003</ele><time>2026-04-25T11:05:26.393Z</time></trkpt><trkpt lat="43.865399" lon="11.2266643"><ele>464.20000000000005</ele><time>2026-04-25T11:05:28.398Z</time></trkpt><trkpt lat="43.8654352" lon="11.2267818"><ele>472.0</ele><time>2026-04-25T11:05:30.391Z</time></trkpt><trkpt lat="43.8654743" lon="11.2268962"><ele>472.0</ele><time>2026-04-25T11:05:32.394Z</time></trkpt><trkpt lat="43.8655171" lon="11.2270222"><ele>472.00000000000006</ele><time>2026-04-25T11:05:34.388Z</time></trkpt><trkpt lat="43.8655451" lon="11.2271602"><ele>472.00000000000006</ele><time>2026-04-25T11:05:36.387Z</time></trkpt><trkpt lat="43.8655641" lon="11.2272829"><ele>472.0</ele><time>2026-04-25T11:05:38.389Z</time></trkpt><trkpt lat="43.8655899" lon="11.2274014"><ele>472.0</ele><time>2026-04-25T11:05:40.39Z</time></trkpt><trkpt lat="43.8656308" lon="11.2275372"><ele>469.6</ele><time>2026-04-25T11:05:42.384Z</time></trkpt><trkpt lat="43.8656534" lon="11.2276478"><ele>467.20000000000005</ele><time>2026-04-25T11:05:44.389Z</time></trkpt><trkpt lat="43.8656886" lon="11.22777"><ele>464.8</ele><time>2026-04-25T11:05:46.387Z</time></trkpt><trkpt lat="43.8657413" lon="11.2278975"><ele>462.4</ele><time>2026-04-25T11:05:48.391Z</time></trkpt><trkpt lat="43.8657795" lon="11.2280313"><ele>460.0</ele><time>2026-04-25T11:05:50.387Z</time></trkpt><trkpt lat="43.8658103" lon="11.2281649"><ele>458.33333333333337</ele><time>2026-04-25T11:05:52.391Z</time></trkpt><trkpt lat="43.865838" lon="11.2282523"><ele>456.6666666666667</ele><time>2026-04-25T11:05:53.396Z</time></trkpt><trkpt lat="43.8658681" lon="11.2284079"><ele>455.0</ele><time>2026-04-25T11:05:55.389Z</time></trkpt><trkpt lat="43.8658881" lon="11.2285002"><ele>453.33333333333337</ele><time>2026-04-25T11:05:56.385Z</time></trkpt><trkpt lat="43.8659061" lon="11.2286389"><ele>451.6666666666667</ele><time>2026-04-25T11:05:58.394Z</time></trkpt><trkpt lat="43.8659147" lon="11.2287677"><ele>450.0</ele><time>2026-04-25T11:06:00.381Z</time></trkpt><trkpt lat="43.8659437" lon="11.2288924"><ele>460.8</ele><time>2026-04-25T11:06:02.395Z</time></trkpt><trkpt lat="43.8659683" lon="11.2290347"><ele>471.6</ele><time>2026-04-25T11:06:04.391Z</time></trkpt><trkpt lat="43.8659901" lon="11.2291659"><ele>482.4</ele><time>2026-04-25T11:06:06.387Z</time></trkpt><trkpt lat="43.866013" lon="11.2293166"><ele>493.2</ele><time>2026-04-25T11:06:08.398Z</time></trkpt><trkpt lat="43.8660346" lon="11.2294619"><ele>504.0</ele><time>2026-04-25T11:06:10.398Z</time></trkpt><trkpt lat="43.8660588" lon="11.2296091"><ele>504.0</ele><time>2026-04-25T11:06:12.397Z</time></trkpt><trkpt lat="43.8660953" lon="11.2297341"><ele>504.0</ele><time>2026-04-25T11:06:14.419Z</time></trkpt><trkpt lat="43.8661177" lon="11.2298759"><ele>504.0</ele><time>2026-04-25T11:06:16.395Z</time></trkpt><trkpt lat="43.866139" lon="11.2299983"><ele>504.0</ele><time>2026-04-25T11:06:18.395Z</time></trkpt><trkpt lat="43.8661634" lon="11.2301235"><ele>504.0</ele><time>2026-04-25T11:06:20.397Z</time></trkpt><trkpt lat="43.8661799" lon="11.2302677"><ele>502.6</ele><time>2026-04-25T11:06:22.394Z</time></trkpt><trkpt lat="43.8661869" lon="11.2303953"><ele>501.2</ele><time>2026-04-25T11:06:24.399Z</time></trkpt><trkpt lat="43.8661942" lon="11.2305342"><ele>499.80000000000007</ele><time>2026-04-25T11:06:26.394Z</time></trkpt><trkpt lat="43.8661982" lon="11.2306944"><ele>498.40000000000003</ele><time>2026-04-25T11:06:28.398Z</time></trkpt><trkpt lat="43.8661916" lon="11.2308457"><ele>497.0</ele><time>2026-04-25T11:06:30.395Z</time></trkpt><trkpt lat="43.8662052" lon="11.231011"><ele>496.99999999999994</ele><time>2026-04-25T11:06:32.388Z</time></trkpt><trkpt lat="43.8661953" lon="11.2311677"><ele>497.0</ele><time>2026-04-25T11:06:34.391Z</time></trkpt><trkpt lat="43.866199" lon="11.2312615"><ele>497.0</ele><time>2026-04-25T11:06:35.392Z</time></trkpt><trkpt lat="43.8661974" lon="11.2313494"><ele>497.0</ele><time>2026-04-25T11:06:36.397Z</time></trkpt><trkpt lat="43.8662142" lon="11.2315078"><ele>496.99999999999994</ele><time>2026-04-25T11:06:38.396Z</time></trkpt><trkpt lat="43.8662244" lon="11.2315964"><ele>497.0</ele><time>2026-04-25T11:06:39.4Z</time></trkpt><trkpt lat="43.8662392" lon="11.231684"><ele>497.0</ele><time>2026-04-25T11:06:40.394Z</time></trkpt><trkpt lat="43.8662666" lon="11.2318413"><ele>497.00000000000006</ele><time>2026-04-25T11:06:42.398Z</time></trkpt><trkpt lat="43.8662933" lon="11.2319729"><ele>497.00000000000006</ele><time>2026-04-25T11:06:44.393Z</time></trkpt><trkpt lat="43.866327" lon="11.232069"><ele>497.0</ele><time>2026-04-25T11:06:46.395Z</time></trkpt><trkpt lat="43.8663737" lon="11.2321823"><ele>497.0</ele><time>2026-04-25T11:06:48.392Z</time></trkpt><trkpt lat="43.8664064" lon="11.2322664"><ele>497.20000000000005</ele><time>2026-04-25T11:06:50.398Z</time></trkpt><trkpt lat="43.8663619" lon="11.2324158"><ele>497.40000000000003</ele><time>2026-04-25T11:06:53.396Z</time></trkpt><trkpt lat="43.8663443" lon="11.2325043"><ele>497.59999999999997</ele><time>2026-04-25T11:06:54.392Z</time></trkpt><trkpt lat="43.8663079" lon="11.2326306"><ele>497.79999999999995</ele><time>2026-04-25T11:06:56.386Z</time></trkpt><trkpt lat="43.8662387" lon="11.2326937"><ele>498.0</ele><time>2026-04-25T11:06:58.392Z</time></trkpt><trkpt lat="43.8661621" lon="11.2327618"><ele>498.0</ele><time>2026-04-25T11:07:00.397Z</time></trkpt><trkpt lat="43.8660646" lon="11.2328405"><ele>497.99999999999994</ele><time>2026-04-25T11:07:02.391Z</time></trkpt><trkpt lat="43.8659688" lon="11.2329472"><ele>497.99999999999994</ele><time>2026-04-25T11:07:04.39Z</time></trkpt><trkpt lat="43.8659177" lon="11.2330145"><ele>498.0</ele><time>2026-04-25T11:07:05.386Z</time></trkpt><trkpt lat="43.8658485" lon="11.2331119"><ele>498.0</ele><time>2026-04-25T11:07:07.392Z</time></trkpt><trkpt lat="43.8657566" lon="11.2331376"><ele>495.2</ele><time>2026-04-25T11:07:09.396Z</time></trkpt><trkpt lat="43.8656866" lon="11.2331379"><ele>492.4</ele><time>2026-04-25T11:07:11.386Z</time></trkpt><trkpt lat="43.8656124" lon="11.2331565"><ele>489.59999999999997</ele><time>2026-04-25T11:07:13.391Z</time></trkpt><trkpt lat="43.8655167" lon="11.2331816"><ele>486.79999999999995</ele><time>2026-04-25T11:07:15.405Z</time></trkpt><trkpt lat="43.8654196" lon="11.2332119"><ele>484.0</ele><time>2026-04-25T11:07:17.392Z</time></trkpt><trkpt lat="43.8653038" lon="11.2332369"><ele>484.00000000000006</ele><time>2026-04-25T11:07:19.392Z</time></trkpt><trkpt lat="43.8652414" lon="11.2332491"><ele>484.0</ele><time>2026-04-25T11:07:20.398Z</time></trkpt><trkpt lat="43.8651193" lon="11.2332557"><ele>484.0</ele><time>2026-04-25T11:07:22.396Z</time></trkpt><trkpt lat="43.865002" lon="11.2332518"><ele>484.0</ele><time>2026-04-25T11:07:24.392Z</time></trkpt><trkpt lat="43.8649396" lon="11.2332641"><ele>484.00000000000006</ele><time>2026-04-25T11:07:25.393Z</time></trkpt><trkpt lat="43.8648749" lon="11.2332795"><ele>484.0</ele><time>2026-04-25T11:07:26.392Z</time></trkpt><trkpt lat="43.8647684" lon="11.2333119"><ele>484.0</ele><time>2026-04-25T11:07:28.397Z</time></trkpt><trkpt lat="43.8646509" lon="11.2333484"><ele>484.0</ele><time>2026-04-25T11:07:30.395Z</time></trkpt><trkpt lat="43.8645503" lon="11.2333972"><ele>484.0</ele><time>2026-04-25T11:07:32.392Z</time></trkpt><trkpt lat="43.8644632" lon="11.2334294"><ele>484.0</ele><time>2026-04-25T11:07:34.39Z</time></trkpt><trkpt lat="43.8643608" lon="11.2334692"><ele>484.0</ele><time>2026-04-25T11:07:36.392Z</time></trkpt><trkpt lat="43.8642631" lon="11.2335207"><ele>484.0</ele><time>2026-04-25T11:07:38.39Z</time></trkpt><trkpt lat="43.8641757" lon="11.2335775"><ele>484.0</ele><time>2026-04-25T11:07:40.4Z</time></trkpt><trkpt lat="43.8640837" lon="11.2336303"><ele>484.0</ele><time>2026-04-25T11:07:42.398Z</time></trkpt><trkpt lat="43.8640018" lon="11.2336915"><ele>484.0</ele><time>2026-04-25T11:07:44.403Z</time></trkpt><trkpt lat="43.8639175" lon="11.23376"><ele>484.0</ele><time>2026-04-25T11:07:46.413Z</time></trkpt><trkpt lat="43.8638178" lon="11.2338444"><ele>484.0</ele><time>2026-04-25T11:07:48.398Z</time></trkpt><trkpt lat="43.8637142" lon="11.2339297"><ele>484.0</ele><time>2026-04-25T11:07:50.403Z</time></trkpt><trkpt lat="43.8636205" lon="11.2340155"><ele>484.0</ele><time>2026-04-25T11:07:52.399Z</time></trkpt><trkpt lat="43.8635239" lon="11.2340762"><ele>484.0</ele><time>2026-04-25T11:07:54.402Z</time></trkpt><trkpt lat="43.8634274" lon="11.2341547"><ele>486.4</ele><time>2026-04-25T11:07:56.408Z</time></trkpt><trkpt lat="43.8633163" lon="11.2342343"><ele>488.79999999999995</ele><time>2026-04-25T11:07:58.408Z</time></trkpt><trkpt lat="43.8632112" lon="11.2343034"><ele>491.20000000000005</ele><time>2026-04-25T11:08:00.407Z</time></trkpt><trkpt lat="43.8631333" lon="11.2343842"><ele>493.6</ele><time>2026-04-25T11:08:02.399Z</time></trkpt><trkpt lat="43.8630418" lon="11.2344528"><ele>496.0</ele><time>2026-04-25T11:08:04.395Z</time></trkpt><trkpt lat="43.8629625" lon="11.2345099"><ele>496.0</ele><time>2026-04-25T11:08:06.397Z</time></trkpt><trkpt lat="43.8628766" lon="11.2345477"><ele>496.0</ele><time>2026-04-25T11:08:08.395Z</time></trkpt><trkpt lat="43.8627891" lon="11.2345946"><ele>496.0</ele><time>2026-04-25T11:08:10.402Z</time></trkpt><trkpt lat="43.8626915" lon="11.2346367"><ele>496.0</ele><time>2026-04-25T11:08:12.402Z</time></trkpt><trkpt lat="43.8625878" lon="11.2346603"><ele>496.0</ele><time>2026-04-25T11:08:14.401Z</time></trkpt><trkpt lat="43.8624981" lon="11.2346965"><ele>496.6</ele><time>2026-04-25T11:08:16.4Z</time></trkpt><trkpt lat="43.8624144" lon="11.2347476"><ele>497.20000000000005</ele><time>2026-04-25T11:08:18.4Z</time></trkpt><trkpt lat="43.8623164" lon="11.2347831"><ele>497.79999999999995</ele><time>2026-04-25T11:08:20.397Z</time></trkpt><trkpt lat="43.8622076" lon="11.2348038"><ele>498.4</ele><time>2026-04-25T11:08:22.389Z</time></trkpt><trkpt lat="43.8621226" lon="11.2348292"><ele>499.0</ele><time>2026-04-25T11:08:24.391Z</time></trkpt><trkpt lat="43.8620364" lon="11.2348382"><ele>501.6</ele><time>2026-04-25T11:08:27.398Z</time></trkpt><trkpt lat="43.8619613" lon="11.2348247"><ele>504.2</ele><time>2026-04-25T11:08:29.394Z</time></trkpt><trkpt lat="43.8618754" lon="11.2348121"><ele>506.80000000000007</ele><time>2026-04-25T11:08:31.392Z</time></trkpt><trkpt lat="43.8617747" lon="11.2347879"><ele>509.40000000000003</ele><time>2026-04-25T11:08:33.395Z</time></trkpt><trkpt lat="43.8616798" lon="11.2347481"><ele>512.0</ele><time>2026-04-25T11:08:35.392Z</time></trkpt><trkpt lat="43.8615966" lon="11.2346792"><ele>512.0</ele><time>2026-04-25T11:08:37.394Z</time></trkpt><trkpt lat="43.8615325" lon="11.234604"><ele>512.0</ele><time>2026-04-25T11:08:39.393Z</time></trkpt><trkpt lat="43.8614567" lon="11.2345097"><ele>512.0</ele><time>2026-04-25T11:08:41.396Z</time></trkpt><trkpt lat="43.8613607" lon="11.2344163"><ele>512.0</ele><time>2026-04-25T11:08:43.391Z</time></trkpt><trkpt lat="43.8612921" lon="11.2343248"><ele>512.0</ele><time>2026-04-25T11:08:45.388Z</time></trkpt><trkpt lat="43.8612115" lon="11.2342291"><ele>512.0</ele><time>2026-04-25T11:08:47.396Z</time></trkpt><trkpt lat="43.8611364" lon="11.2341175"><ele>512.0</ele><time>2026-04-25T11:08:49.393Z</time></trkpt><trkpt lat="43.8610594" lon="11.2340156"><ele>512.0</ele><time>2026-04-25T11:08:51.397Z</time></trkpt><trkpt lat="43.8610119" lon="11.2339255"><ele>512.0</ele><time>2026-04-25T11:08:53.39Z</time></trkpt><trkpt lat="43.860953" lon="11.2338545"><ele>512.0</ele><time>2026-04-25T11:08:55.39Z</time></trkpt><trkpt lat="43.8608579" lon="11.2337935"><ele>512.2</ele><time>2026-04-25T11:08:57.389Z</time></trkpt><trkpt lat="43.8607513" lon="11.2337451"><ele>512.4000000000001</ele><time>2026-04-25T11:08:59.387Z</time></trkpt><trkpt lat="43.8606351" lon="11.2337141"><ele>512.5999999999999</ele><time>2026-04-25T11:09:01.386Z</time></trkpt><trkpt lat="43.8605406" lon="11.2337059"><ele>512.8</ele><time>2026-04-25T11:09:03.386Z</time></trkpt><trkpt lat="43.8604345" lon="11.2336768"><ele>513.0</ele><time>2026-04-25T11:09:05.389Z</time></trkpt><trkpt lat="43.8603713" lon="11.2336557"><ele>513.0</ele><time>2026-04-25T11:09:06.388Z</time></trkpt><trkpt lat="43.8602443" lon="11.2336373"><ele>513.0</ele><time>2026-04-25T11:09:08.39Z</time></trkpt><trkpt lat="43.860119" lon="11.2336246"><ele>513.0</ele><time>2026-04-25T11:09:10.384Z</time></trkpt><trkpt lat="43.8600552" lon="11.2336164"><ele>513.0</ele><time>2026-04-25T11:09:11.385Z</time></trkpt><trkpt lat="43.8599896" lon="11.2335958"><ele>513.0</ele><time>2026-04-25T11:09:12.385Z</time></trkpt><trkpt lat="43.8599229" lon="11.2335708"><ele>514.5</ele><time>2026-04-25T11:09:13.394Z</time></trkpt><trkpt lat="43.8598557" lon="11.2335558"><ele>516.0</ele><time>2026-04-25T11:09:14.388Z</time></trkpt><trkpt lat="43.8597903" lon="11.2335454"><ele>517.5</ele><time>2026-04-25T11:09:15.387Z</time></trkpt><trkpt lat="43.8596686" lon="11.2335486"><ele>519.0</ele><time>2026-04-25T11:09:17.388Z</time></trkpt><trkpt lat="43.8596009" lon="11.2335386"><ele>520.5</ele><time>2026-04-25T11:09:18.389Z</time></trkpt><trkpt lat="43.8594765" lon="11.2335312"><ele>522.0</ele><time>2026-04-25T11:09:20.391Z</time></trkpt><trkpt lat="43.8594133" lon="11.2335303"><ele>522.0</ele><time>2026-04-25T11:09:21.395Z</time></trkpt><trkpt lat="43.8592921" lon="11.2335254"><ele>522.0</ele><time>2026-04-25T11:09:23.39Z</time></trkpt><trkpt lat="43.8591769" lon="11.2335171"><ele>522.0</ele><time>2026-04-25T11:09:25.391Z</time></trkpt><trkpt lat="43.8591155" lon="11.2334966"><ele>522.0</ele><time>2026-04-25T11:09:26.389Z</time></trkpt><trkpt lat="43.8590038" lon="11.2334885"><ele>522.0</ele><time>2026-04-25T11:09:28.399Z</time></trkpt><trkpt lat="43.8589064" lon="11.2335067"><ele>523.2</ele><time>2026-04-25T11:09:30.4Z</time></trkpt><trkpt lat="43.8588067" lon="11.2335446"><ele>524.4000000000001</ele><time>2026-04-25T11:09:32.391Z</time></trkpt><trkpt lat="43.8587418" lon="11.2335857"><ele>525.5999999999999</ele><time>2026-04-25T11:09:33.4Z</time></trkpt><trkpt lat="43.8586647" lon="11.2335629"><ele>526.8</ele><time>2026-04-25T11:09:35.4Z</time></trkpt><trkpt lat="43.8585633" lon="11.2336172"><ele>528.0</ele><time>2026-04-25T11:09:37.396Z</time></trkpt><trkpt lat="43.8584713" lon="11.2336765"><ele>527.0</ele><time>2026-04-25T11:09:39.401Z</time></trkpt><trkpt lat="43.8583708" lon="11.2337358"><ele>526.0</ele><time>2026-04-25T11:09:41.394Z</time></trkpt><trkpt lat="43.8582984" lon="11.2338193"><ele>525.0</ele><time>2026-04-25T11:09:43.398Z</time></trkpt><trkpt lat="43.8582503" lon="11.2339086"><ele>524.0</ele><time>2026-04-25T11:09:45.397Z</time></trkpt><trkpt lat="43.8581568" lon="11.2339684"><ele>523.0</ele><time>2026-04-25T11:09:47.391Z</time></trkpt><trkpt lat="43.8580716" lon="11.2340553"><ele>526.8</ele><time>2026-04-25T11:09:49.389Z</time></trkpt><trkpt lat="43.8579948" lon="11.2341462"><ele>530.5999999999999</ele><time>2026-04-25T11:09:51.394Z</time></trkpt><trkpt lat="43.8579002" lon="11.2342336"><ele>534.4000000000001</ele><time>2026-04-25T11:09:53.395Z</time></trkpt><trkpt lat="43.8578056" lon="11.2343274"><ele>538.2</ele><time>2026-04-25T11:09:55.391Z</time></trkpt><trkpt lat="43.8577155" lon="11.2344255"><ele>542.0</ele><time>2026-04-25T11:09:57.397Z</time></trkpt><trkpt lat="43.8576634" lon="11.2344899"><ele>542.2</ele><time>2026-04-25T11:09:58.399Z</time></trkpt><trkpt lat="43.8575634" lon="11.2346081"><ele>542.4000000000001</ele><time>2026-04-25T11:10:00.395Z</time></trkpt><trkpt lat="43.8575098" lon="11.2346769"><ele>542.5999999999999</ele><time>2026-04-25T11:10:01.398Z</time></trkpt><trkpt lat="43.8574608" lon="11.2347378"><ele>542.8</ele><time>2026-04-25T11:10:02.397Z</time></trkpt><trkpt lat="43.8573646" lon="11.2348168"><ele>543.0</ele><time>2026-04-25T11:10:04.393Z</time></trkpt><trkpt lat="43.8572556" lon="11.2348671"><ele>543.0</ele><time>2026-04-25T11:10:06.395Z</time></trkpt><trkpt lat="43.857159" lon="11.2349315"><ele>543.0</ele><time>2026-04-25T11:10:08.399Z</time></trkpt><trkpt lat="43.8570387" lon="11.2350208"><ele>543.0</ele><time>2026-04-25T11:10:10.39Z</time></trkpt><trkpt lat="43.8569779" lon="11.2350634"><ele>543.0</ele><time>2026-04-25T11:10:11.385Z</time></trkpt><trkpt lat="43.8568604" lon="11.2351392"><ele>543.0</ele><time>2026-04-25T11:10:13.388Z</time></trkpt><trkpt lat="43.8568023" lon="11.2351886"><ele>540.5</ele><time>2026-04-25T11:10:14.389Z</time></trkpt><trkpt lat="43.8567163" lon="11.2352084"><ele>538.0</ele><time>2026-04-25T11:10:17.387Z</time></trkpt><trkpt lat="43.8566225" lon="11.2352531"><ele>535.5</ele><time>2026-04-25T11:10:19.392Z</time></trkpt><trkpt lat="43.8565432" lon="11.235299"><ele>533.0</ele><time>2026-04-25T11:10:20.382Z</time></trkpt><trkpt lat="43.8564775" lon="11.2353565"><ele>530.5</ele><time>2026-04-25T11:10:21.4Z</time></trkpt><trkpt lat="43.8564127" lon="11.2354044"><ele>528.0</ele><time>2026-04-25T11:10:22.39Z</time></trkpt><trkpt lat="43.8563493" lon="11.2354526"><ele>528.0</ele><time>2026-04-25T11:10:23.386Z</time></trkpt><trkpt lat="43.8562814" lon="11.2354959"><ele>528.0</ele><time>2026-04-25T11:10:24.387Z</time></trkpt><trkpt lat="43.8562143" lon="11.2355293"><ele>528.0</ele><time>2026-04-25T11:10:25.387Z</time></trkpt><trkpt lat="43.8561473" lon="11.2355607"><ele>528.0</ele><time>2026-04-25T11:10:26.39Z</time></trkpt><trkpt lat="43.8560343" lon="11.2356025"><ele>528.0</ele><time>2026-04-25T11:10:28.396Z</time></trkpt><trkpt lat="43.855927" lon="11.2356591"><ele>528.0</ele><time>2026-04-25T11:10:30.395Z</time></trkpt><trkpt lat="43.8558581" lon="11.2356642"><ele>531.1999999999999</ele><time>2026-04-25T11:10:32.383Z</time></trkpt><trkpt lat="43.8557834" lon="11.2357266"><ele>534.4</ele><time>2026-04-25T11:10:36.393Z</time></trkpt><trkpt lat="43.8556757" lon="11.2357493"><ele>537.5999999999999</ele><time>2026-04-25T11:10:38.388Z</time></trkpt><trkpt lat="43.8555696" lon="11.235771"><ele>540.8</ele><time>2026-04-25T11:10:40.389Z</time></trkpt><trkpt lat="43.8554621" lon="11.235799"><ele>544.0</ele><time>2026-04-25T11:10:42.39Z</time></trkpt><trkpt lat="43.8553325" lon="11.2358342"><ele>543.9999999999999</ele><time>2026-04-25T11:10:44.391Z</time></trkpt><trkpt lat="43.8552594" lon="11.2358511"><ele>544.0</ele><time>2026-04-25T11:10:45.393Z</time></trkpt><trkpt lat="43.8551922" lon="11.2358694"><ele>544.0</ele><time>2026-04-25T11:10:46.392Z</time></trkpt><trkpt lat="43.8551218" lon="11.2358821"><ele>544.0</ele><time>2026-04-25T11:10:47.395Z</time></trkpt><trkpt lat="43.8550519" lon="11.2358932"><ele>544.0</ele><time>2026-04-25T11:10:48.396Z</time></trkpt><trkpt lat="43.8549822" lon="11.235903"><ele>543.9999999999999</ele><time>2026-04-25T11:10:49.398Z</time></trkpt><trkpt lat="43.8549182" lon="11.2359048"><ele>544.0</ele><time>2026-04-25T11:10:50.397Z</time></trkpt><trkpt lat="43.8548498" lon="11.2359052"><ele>544.0</ele><time>2026-04-25T11:10:51.4Z</time></trkpt><trkpt lat="43.854785" lon="11.2358944"><ele>544.0</ele><time>2026-04-25T11:10:52.417Z</time></trkpt><trkpt lat="43.8547215" lon="11.2358853"><ele>544.0</ele><time>2026-04-25T11:10:53.399Z</time></trkpt><trkpt lat="43.8546558" lon="11.2358645"><ele>544.0</ele><time>2026-04-25T11:10:54.401Z</time></trkpt><trkpt lat="43.854586" lon="11.2358352"><ele>544.0</ele><time>2026-04-25T11:10:55.397Z</time></trkpt><trkpt lat="43.854517" lon="11.2358092"><ele>544.0</ele><time>2026-04-25T11:10:56.404Z</time></trkpt><trkpt lat="43.8543984" lon="11.2357761"><ele>544.0</ele><time>2026-04-25T11:10:58.407Z</time></trkpt><trkpt lat="43.854334" lon="11.2357725"><ele>544.0</ele><time>2026-04-25T11:10:59.4Z</time></trkpt><trkpt lat="43.8542167" lon="11.2357443"><ele>544.0</ele><time>2026-04-25T11:11:01.4Z</time></trkpt><trkpt lat="43.8541224" lon="11.2357323"><ele>544.0</ele><time>2026-04-25T11:11:03.396Z</time></trkpt><trkpt lat="43.8540112" lon="11.2357433"><ele>544.0</ele><time>2026-04-25T11:11:05.395Z</time></trkpt><trkpt lat="43.8539032" lon="11.2357698"><ele>544.4</ele><time>2026-04-25T11:11:07.399Z</time></trkpt><trkpt lat="43.8538065" lon="11.2358046"><ele>544.8</ele><time>2026-04-25T11:11:09.392Z</time></trkpt><trkpt lat="43.8537186" lon="11.2358263"><ele>545.2</ele><time>2026-04-25T11:11:11.391Z</time></trkpt><trkpt lat="43.8536029" lon="11.2358149"><ele>545.6</ele><time>2026-04-25T11:11:13.393Z</time></trkpt><trkpt lat="43.8534939" lon="11.2358492"><ele>546.0</ele><time>2026-04-25T11:11:15.392Z</time></trkpt><trkpt lat="43.8533811" lon="11.2358526"><ele>546.0</ele><time>2026-04-25T11:11:17.392Z</time></trkpt><trkpt lat="43.8532829" lon="11.2358782"><ele>546.0</ele><time>2026-04-25T11:11:19.39Z</time></trkpt><trkpt lat="43.8531996" lon="11.2358997"><ele>546.0</ele><time>2026-04-25T11:11:21.39Z</time></trkpt><trkpt lat="43.8531071" lon="11.235925"><ele>546.0</ele><time>2026-04-25T11:11:23.402Z</time></trkpt><trkpt lat="43.8530085" lon="11.2359643"><ele>546.0</ele><time>2026-04-25T11:11:25.383Z</time></trkpt><trkpt lat="43.852935" lon="11.2360212"><ele>546.0</ele><time>2026-04-25T11:11:27.384Z</time></trkpt><trkpt lat="43.8528535" lon="11.2360801"><ele>546.0</ele><time>2026-04-25T11:11:29.375Z</time></trkpt><trkpt lat="43.8527528" lon="11.2361168"><ele>546.0</ele><time>2026-04-25T11:11:31.38Z</time></trkpt><trkpt lat="43.852625" lon="11.2361603"><ele>546.0</ele><time>2026-04-25T11:11:34.384Z</time></trkpt><trkpt lat="43.852546" lon="11.2361666"><ele>546.0</ele><time>2026-04-25T11:11:35.386Z</time></trkpt><trkpt lat="43.8524197" lon="11.2361769"><ele>544.8333333333334</ele><time>2026-04-25T11:11:36.387Z</time></trkpt><trkpt lat="43.8523405" lon="11.2361956"><ele>543.6666666666666</ele><time>2026-04-25T11:11:37.383Z</time></trkpt><trkpt lat="43.8522739" lon="11.2362331"><ele>542.5</ele><time>2026-04-25T11:11:38.384Z</time></trkpt><trkpt lat="43.8522223" lon="11.2362991"><ele>541.3333333333333</ele><time>2026-04-25T11:11:39.387Z</time></trkpt><trkpt lat="43.8521405" lon="11.236382"><ele>540.1666666666666</ele><time>2026-04-25T11:11:41.386Z</time></trkpt><trkpt lat="43.8520741" lon="11.2364345"><ele>539.0</ele><time>2026-04-25T11:11:42.388Z</time></trkpt><trkpt lat="43.8519694" lon="11.2364948"><ele>543.6</ele><time>2026-04-25T11:11:44.386Z</time></trkpt><trkpt lat="43.8518581" lon="11.2365499"><ele>548.2</ele><time>2026-04-25T11:11:46.382Z</time></trkpt><trkpt lat="43.8518105" lon="11.2366072"><ele>552.8000000000001</ele><time>2026-04-25T11:11:47.385Z</time></trkpt><trkpt lat="43.8517346" lon="11.2367453"><ele>557.4</ele><time>2026-04-25T11:11:49.386Z</time></trkpt><trkpt lat="43.8516933" lon="11.2368157"><ele>562.0</ele><time>2026-04-25T11:11:50.391Z</time></trkpt><trkpt lat="43.8516073" lon="11.2368675"><ele>562.0</ele><time>2026-04-25T11:11:52.383Z</time></trkpt><trkpt lat="43.8515086" lon="11.2368745"><ele>562.0</ele><time>2026-04-25T11:11:54.405Z</time></trkpt><trkpt lat="43.851416" lon="11.2368409"><ele>562.0</ele><time>2026-04-25T11:11:57.386Z</time></trkpt><trkpt lat="43.8513456" lon="11.2367624"><ele>562.0</ele><time>2026-04-25T11:12:00.389Z</time></trkpt><trkpt lat="43.8512961" lon="11.2366574"><ele>562.0</ele><time>2026-04-25T11:12:02.382Z</time></trkpt><trkpt lat="43.8512446" lon="11.2365265"><ele>559.4</ele><time>2026-04-25T11:12:04.387Z</time></trkpt><trkpt lat="43.8512041" lon="11.2364031"><ele>556.8000000000001</ele><time>2026-04-25T11:12:06.389Z</time></trkpt><trkpt lat="43.851153" lon="11.2362643"><ele>554.2</ele><time>2026-04-25T11:12:08.392Z</time></trkpt><trkpt lat="43.8511012" lon="11.2361119"><ele>551.6</ele><time>2026-04-25T11:12:10.394Z</time></trkpt><trkpt lat="43.8510829" lon="11.2359683"><ele>549.0</ele><time>2026-04-25T11:12:12.389Z</time></trkpt><trkpt lat="43.8510425" lon="11.2358368"><ele>549.0</ele><time>2026-04-25T11:12:14.397Z</time></trkpt><trkpt lat="43.851" lon="11.2356852"><ele>549.0</ele><time>2026-04-25T11:12:16.397Z</time></trkpt><trkpt lat="43.850961" lon="11.2355283"><ele>549.0</ele><time>2026-04-25T11:12:18.393Z</time></trkpt><trkpt lat="43.8509365" lon="11.2353816"><ele>549.0</ele><time>2026-04-25T11:12:20.395Z</time></trkpt><trkpt lat="43.8509148" lon="11.2352496"><ele>549.0</ele><time>2026-04-25T11:12:22.397Z</time></trkpt><trkpt lat="43.8508993" lon="11.2351272"><ele>552.8</ele><time>2026-04-25T11:12:24.395Z</time></trkpt><trkpt lat="43.850882" lon="11.2349884"><ele>556.5999999999999</ele><time>2026-04-25T11:12:26.396Z</time></trkpt><trkpt lat="43.8508733" lon="11.23485"><ele>560.4</ele><time>2026-04-25T11:12:28.401Z</time></trkpt><trkpt lat="43.8508422" lon="11.2347227"><ele>564.1999999999999</ele><time>2026-04-25T11:12:30.396Z</time></trkpt><trkpt lat="43.850809" lon="11.2345757"><ele>568.0</ele><time>2026-04-25T11:12:32.393Z</time></trkpt><trkpt lat="43.8507797" lon="11.2344102"><ele>568.0</ele><time>2026-04-25T11:12:34.402Z</time></trkpt><trkpt lat="43.8507554" lon="11.2342594"><ele>568.0</ele><time>2026-04-25T11:12:36.399Z</time></trkpt><trkpt lat="43.8507217" lon="11.2341019"><ele>568.0</ele><time>2026-04-25T11:12:38.402Z</time></trkpt><trkpt lat="43.8506893" lon="11.2339527"><ele>568.0</ele><time>2026-04-25T11:12:40.399Z</time></trkpt><trkpt lat="43.8506434" lon="11.2338038"><ele>565.25</ele><time>2026-04-25T11:12:42.393Z</time></trkpt><trkpt lat="43.8505955" lon="11.233652"><ele>562.5</ele><time>2026-04-25T11:12:44.399Z</time></trkpt><trkpt lat="43.8505513" lon="11.2334953"><ele>559.75</ele><time>2026-04-25T11:12:46.397Z</time></trkpt><trkpt lat="43.8504992" lon="11.2333517"><ele>557.0</ele><time>2026-04-25T11:12:48.394Z</time></trkpt><trkpt lat="43.8504585" lon="11.2332057"><ele>555.6</ele><time>2026-04-25T11:12:50.398Z</time></trkpt><trkpt lat="43.8504296" lon="11.2330615"><ele>554.2</ele><time>2026-04-25T11:12:52.401Z</time></trkpt><trkpt lat="43.8503715" lon="11.2329376"><ele>552.8</ele><time>2026-04-25T11:12:54.395Z</time></trkpt><trkpt lat="43.8503251" lon="11.2328771"><ele>551.4</ele><time>2026-04-25T11:12:55.399Z</time></trkpt><trkpt lat="43.8502797" lon="11.2328155"><ele>550.0</ele><time>2026-04-25T11:12:56.409Z</time></trkpt><trkpt lat="43.8502226" lon="11.2326801"><ele>550.0</ele><time>2026-04-25T11:12:58.398Z</time></trkpt><trkpt lat="43.8501678" lon="11.232554"><ele>550.0</ele><time>2026-04-25T11:13:00.404Z</time></trkpt><trkpt lat="43.8500979" lon="11.2324309"><ele>550.0</ele><time>2026-04-25T11:13:02.398Z</time></trkpt><trkpt lat="43.8500253" lon="11.2323123"><ele>550.0</ele><time>2026-04-25T11:13:04.397Z</time></trkpt><trkpt lat="43.8499566" lon="11.2321875"><ele>550.0</ele><time>2026-04-25T11:13:06.397Z</time></trkpt><trkpt lat="43.8498905" lon="11.2320755"><ele>554.0</ele><time>2026-04-25T11:13:08.387Z</time></trkpt><trkpt lat="43.8498068" lon="11.231961"><ele>558.0</ele><time>2026-04-25T11:13:10.392Z</time></trkpt><trkpt lat="43.8497321" lon="11.2318443"><ele>562.0</ele><time>2026-04-25T11:13:12.394Z</time></trkpt><trkpt lat="43.8496905" lon="11.2317781"><ele>566.0</ele><time>2026-04-25T11:13:13.391Z</time></trkpt><trkpt lat="43.8496125" lon="11.2316508"><ele>570.0</ele><time>2026-04-25T11:13:15.39Z</time></trkpt><trkpt lat="43.849559" lon="11.2315289"><ele>570.5</ele><time>2026-04-25T11:13:17.393Z</time></trkpt><trkpt lat="43.8494942" lon="11.2314282"><ele>571.0</ele><time>2026-04-25T11:13:19.393Z</time></trkpt><trkpt lat="43.8494134" lon="11.2313376"><ele>571.5</ele><time>2026-04-25T11:13:21.398Z</time></trkpt><trkpt lat="43.8493344" lon="11.2312493"><ele>572.0</ele><time>2026-04-25T11:13:23.399Z</time></trkpt><trkpt lat="43.8492851" lon="11.2311948"><ele>572.5</ele><time>2026-04-25T11:13:24.389Z</time></trkpt><trkpt lat="43.8492164" lon="11.2311443"><ele>573.0</ele><time>2026-04-25T11:13:25.392Z</time></trkpt><trkpt lat="43.8491549" lon="11.2311184"><ele>573.0</ele><time>2026-04-25T11:13:26.394Z</time></trkpt><trkpt lat="43.84909" lon="11.2310978"><ele>573.0</ele><time>2026-04-25T11:13:27.401Z</time></trkpt><trkpt lat="43.8489899" lon="11.2310868"><ele>573.0</ele><time>2026-04-25T11:13:29.392Z</time></trkpt><trkpt lat="43.8488996" lon="11.2310843"><ele>573.0</ele><time>2026-04-25T11:13:31.397Z</time></trkpt><trkpt lat="43.8487838" lon="11.231081"><ele>573.0</ele><time>2026-04-25T11:13:33.4Z</time></trkpt><trkpt lat="43.8487166" lon="11.2310768"><ele>573.0</ele><time>2026-04-25T11:13:34.402Z</time></trkpt><trkpt lat="43.8485954" lon="11.2310917"><ele>573.0</ele><time>2026-04-25T11:13:36.402Z</time></trkpt><trkpt lat="43.8484898" lon="11.2311175"><ele>573.0</ele><time>2026-04-25T11:13:38.4Z</time></trkpt><trkpt lat="43.8483959" lon="11.2311526"><ele>573.0</ele><time>2026-04-25T11:13:40.399Z</time></trkpt><trkpt lat="43.8482959" lon="11.2312073"><ele>573.0</ele><time>2026-04-25T11:13:42.401Z</time></trkpt><trkpt lat="43.848195" lon="11.2312621"><ele>573.0</ele><time>2026-04-25T11:13:44.394Z</time></trkpt><trkpt lat="43.8481128" lon="11.2313427"><ele>573.1999999999999</ele><time>2026-04-25T11:13:46.398Z</time></trkpt><trkpt lat="43.8480209" lon="11.2314449"><ele>573.4</ele><time>2026-04-25T11:13:48.402Z</time></trkpt><trkpt lat="43.8479427" lon="11.2315555"><ele>573.5999999999999</ele><time>2026-04-25T11:13:50.402Z</time></trkpt><trkpt lat="43.8478766" lon="11.231661"><ele>573.8</ele><time>2026-04-25T11:13:52.402Z</time></trkpt><trkpt lat="43.847828" lon="11.2317993"><ele>574.0</ele><time>2026-04-25T11:13:54.404Z</time></trkpt><trkpt lat="43.8478016" lon="11.2319576"><ele>577.0</ele><time>2026-04-25T11:13:56.407Z</time></trkpt><trkpt lat="43.8478078" lon="11.2321099"><ele>580.0</ele><time>2026-04-25T11:13:58.421Z</time></trkpt><trkpt lat="43.847828" lon="11.2321957"><ele>583.0</ele><time>2026-04-25T11:13:59.402Z</time></trkpt><trkpt lat="43.8478587" lon="11.2323516"><ele>586.0</ele><time>2026-04-25T11:14:01.413Z</time></trkpt><trkpt lat="43.8479109" lon="11.2325003"><ele>589.0</ele><time>2026-04-25T11:14:03.405Z</time></trkpt><trkpt lat="43.8479474" lon="11.2325781"><ele>589.75</ele><time>2026-04-25T11:14:04.402Z</time></trkpt><trkpt lat="43.8480036" lon="11.2327258"><ele>590.5</ele><time>2026-04-25T11:14:06.4Z</time></trkpt><trkpt lat="43.8480653" lon="11.2328589"><ele>591.25</ele><time>2026-04-25T11:14:08.401Z</time></trkpt><trkpt lat="43.8481333" lon="11.2329894"><ele>592.0</ele><time>2026-04-25T11:14:10.396Z</time></trkpt><trkpt lat="43.8482028" lon="11.233127"><ele>590.6666666666667</ele><time>2026-04-25T11:14:12.393Z</time></trkpt><trkpt lat="43.8482727" lon="11.2332688"><ele>589.3333333333334</ele><time>2026-04-25T11:14:14.395Z</time></trkpt><trkpt lat="43.8483096" lon="11.233343"><ele>588.0</ele><time>2026-04-25T11:14:15.394Z</time></trkpt><trkpt lat="43.848348" lon="11.2334219"><ele>586.6666666666666</ele><time>2026-04-25T11:14:16.395Z</time></trkpt><trkpt lat="43.8483836" lon="11.233497"><ele>585.3333333333333</ele><time>2026-04-25T11:14:17.386Z</time></trkpt><trkpt lat="43.8484434" lon="11.2336407"><ele>584.0</ele><time>2026-04-25T11:14:19.393Z</time></trkpt><trkpt lat="43.8484958" lon="11.2337761"><ele>586.8</ele><time>2026-04-25T11:14:21.406Z</time></trkpt><trkpt lat="43.8485603" lon="11.2338959"><ele>589.5999999999999</ele><time>2026-04-25T11:14:23.396Z</time></trkpt><trkpt lat="43.8486264" lon="11.2340242"><ele>592.4</ele><time>2026-04-25T11:14:25.394Z</time></trkpt><trkpt lat="43.8486685" lon="11.2341413"><ele>595.1999999999999</ele><time>2026-04-25T11:14:27.389Z</time></trkpt><trkpt lat="43.8487171" lon="11.2342579"><ele>598.0</ele><time>2026-04-25T11:14:29.404Z</time></trkpt><trkpt lat="43.8487922" lon="11.2343907"><ele>598.0</ele><time>2026-04-25T11:14:31.402Z</time></trkpt><trkpt lat="43.8488551" lon="11.2345249"><ele>598.0</ele><time>2026-04-25T11:14:33.396Z</time></trkpt><trkpt lat="43.8489112" lon="11.2346682"><ele>598.0</ele><time>2026-04-25T11:14:35.394Z</time></trkpt><trkpt lat="43.848942" lon="11.2347448"><ele>598.0</ele><time>2026-04-25T11:14:36.393Z</time></trkpt><trkpt lat="43.8489921" lon="11.234904"><ele>598.0</ele><time>2026-04-25T11:14:38.403Z</time></trkpt><trkpt lat="43.8490432" lon="11.2350519"><ele>596.4</ele><time>2026-04-25T11:14:40.398Z</time></trkpt><trkpt lat="43.8490937" lon="11.2352019"><ele>594.8</ele><time>2026-04-25T11:14:42.4Z</time></trkpt><trkpt lat="43.8491606" lon="11.2353484"><ele>593.2</ele><time>2026-04-25T11:14:44.4Z</time></trkpt><trkpt lat="43.8491904" lon="11.2354269"><ele>591.6</ele><time>2026-04-25T11:14:45.401Z</time></trkpt><trkpt lat="43.8492215" lon="11.2355042"><ele>590.0</ele><time>2026-04-25T11:14:46.399Z</time></trkpt><trkpt lat="43.849276" lon="11.2356519"><ele>592.0</ele><time>2026-04-25T11:14:48.396Z</time></trkpt><trkpt lat="43.8493414" lon="11.2357779"><ele>594.0</ele><time>2026-04-25T11:14:50.399Z</time></trkpt><trkpt lat="43.8494017" lon="11.2359258"><ele>596.0</ele><time>2026-04-25T11:14:52.399Z</time></trkpt><trkpt lat="43.8494377" lon="11.2360014"><ele>598.0</ele><time>2026-04-25T11:14:53.396Z</time></trkpt><trkpt lat="43.8494942" lon="11.236128"><ele>600.0</ele><time>2026-04-25T11:14:55.398Z</time></trkpt><trkpt lat="43.849551" lon="11.2362781"><ele>600.0</ele><time>2026-04-25T11:14:57.401Z</time></trkpt><trkpt lat="43.8496081" lon="11.2364261"><ele>600.0</ele><time>2026-04-25T11:14:59.397Z</time></trkpt><trkpt lat="43.8496653" lon="11.2365669"><ele>600.0</ele><time>2026-04-25T11:15:01.408Z</time></trkpt><trkpt lat="43.8496996" lon="11.2366419"><ele>600.0</ele><time>2026-04-25T11:15:02.401Z</time></trkpt><trkpt lat="43.849756" lon="11.2367804"><ele>600.0</ele><time>2026-04-25T11:15:04.4Z</time></trkpt><trkpt lat="43.8498085" lon="11.2369138"><ele>598.25</ele><time>2026-04-25T11:15:06.4Z</time></trkpt><trkpt lat="43.849859" lon="11.2370487"><ele>596.5</ele><time>2026-04-25T11:15:08.394Z</time></trkpt><trkpt lat="43.8499262" lon="11.237172"><ele>594.75</ele><time>2026-04-25T11:15:10.395Z</time></trkpt><trkpt lat="43.850016" lon="11.2372846"><ele>593.0</ele><time>2026-04-25T11:15:12.398Z</time></trkpt><trkpt lat="43.8501117" lon="11.237391"><ele>592.0</ele><time>2026-04-25T11:15:14.396Z</time></trkpt><trkpt lat="43.8502072" lon="11.2374897"><ele>591.0</ele><time>2026-04-25T11:15:16.4Z</time></trkpt><trkpt lat="43.8503038" lon="11.2375639"><ele>590.0</ele><time>2026-04-25T11:15:18.395Z</time></trkpt><trkpt lat="43.8504031" lon="11.2376494"><ele>589.0</ele><time>2026-04-25T11:15:20.395Z</time></trkpt><trkpt lat="43.8504982" lon="11.2377387"><ele>589.0</ele><time>2026-04-25T11:15:22.4Z</time></trkpt><trkpt lat="43.8505944" lon="11.2378211"><ele>589.0</ele><time>2026-04-25T11:15:24.394Z</time></trkpt><trkpt lat="43.8506909" lon="11.237904"><ele>589.0</ele><time>2026-04-25T11:15:26.392Z</time></trkpt><trkpt lat="43.8507916" lon="11.2379957"><ele>589.0</ele><time>2026-04-25T11:15:28.405Z</time></trkpt><trkpt lat="43.8508856" lon="11.238084"><ele>589.8</ele><time>2026-04-25T11:15:30.397Z</time></trkpt><trkpt lat="43.8509635" lon="11.2381754"><ele>590.5999999999999</ele><time>2026-04-25T11:15:32.406Z</time></trkpt><trkpt lat="43.851017" lon="11.238296"><ele>591.4</ele><time>2026-04-25T11:15:34.406Z</time></trkpt><trkpt lat="43.8510511" lon="11.2384148"><ele>592.1999999999999</ele><time>2026-04-25T11:15:36.403Z</time></trkpt><trkpt lat="43.8510848" lon="11.2385391"><ele>593.0</ele><time>2026-04-25T11:15:38.398Z</time></trkpt><trkpt lat="43.8510928" lon="11.2386565"><ele>593.0</ele><time>2026-04-25T11:15:40.392Z</time></trkpt><trkpt lat="43.8510683" lon="11.2387905"><ele>593.0</ele><time>2026-04-25T11:15:42.393Z</time></trkpt><trkpt lat="43.8510326" lon="11.2389245"><ele>593.0</ele><time>2026-04-25T11:15:44.397Z</time></trkpt><trkpt lat="43.8510018" lon="11.2390562"><ele>593.0</ele><time>2026-04-25T11:15:46.392Z</time></trkpt><trkpt lat="43.8509754" lon="11.2392117"><ele>593.0</ele><time>2026-04-25T11:15:48.396Z</time></trkpt><trkpt lat="43.8509475" lon="11.2392956"><ele>592.8</ele><time>2026-04-25T11:15:49.388Z</time></trkpt><trkpt lat="43.8509199" lon="11.2393795"><ele>592.5999999999999</ele><time>2026-04-25T11:15:50.387Z</time></trkpt><trkpt lat="43.8509201" lon="11.2395426"><ele>592.4000000000001</ele><time>2026-04-25T11:15:52.39Z</time></trkpt><trkpt lat="43.8508834" lon="11.2396939"><ele>592.2</ele><time>2026-04-25T11:15:54.38Z</time></trkpt><trkpt lat="43.8508581" lon="11.2398542"><ele>592.0</ele><time>2026-04-25T11:15:56.397Z</time></trkpt><trkpt lat="43.8508366" lon="11.2400015"><ele>593.2</ele><time>2026-04-25T11:15:58.398Z</time></trkpt><trkpt lat="43.8508127" lon="11.2401557"><ele>594.4000000000001</ele><time>2026-04-25T11:16:00.396Z</time></trkpt><trkpt lat="43.8507899" lon="11.2402968"><ele>595.5999999999999</ele><time>2026-04-25T11:16:02.393Z</time></trkpt><trkpt lat="43.8507911" lon="11.2404028"><ele>596.8</ele><time>2026-04-25T11:16:04.387Z</time></trkpt><trkpt lat="43.8508039" lon="11.2405412"><ele>598.0</ele><time>2026-04-25T11:16:06.39Z</time></trkpt><trkpt lat="43.8508183" lon="11.2407024"><ele>598.6</ele><time>2026-04-25T11:16:08.396Z</time></trkpt><trkpt lat="43.8508241" lon="11.2408594"><ele>599.1999999999999</ele><time>2026-04-25T11:16:10.401Z</time></trkpt><trkpt lat="43.850849" lon="11.2410232"><ele>599.8</ele><time>2026-04-25T11:16:12.401Z</time></trkpt><trkpt lat="43.8508622" lon="11.2411117"><ele>600.4</ele><time>2026-04-25T11:16:13.4Z</time></trkpt><trkpt lat="43.8508663" lon="11.2412836"><ele>601.0</ele><time>2026-04-25T11:16:15.4Z</time></trkpt><trkpt lat="43.8508667" lon="11.2414429"><ele>601.6</ele><time>2026-04-25T11:16:17.397Z</time></trkpt><trkpt lat="43.850854" lon="11.2415926"><ele>602.2</ele><time>2026-04-25T11:16:19.39Z</time></trkpt><trkpt lat="43.8508313" lon="11.2417597"><ele>602.8</ele><time>2026-04-25T11:16:21.392Z</time></trkpt><trkpt lat="43.8508071" lon="11.2419173"><ele>603.4</ele><time>2026-04-25T11:16:23.39Z</time></trkpt><trkpt lat="43.8507986" lon="11.242006"><ele>604.0</ele><time>2026-04-25T11:16:24.39Z</time></trkpt><trkpt lat="43.8507795" lon="11.2421646"><ele>606.0</ele><time>2026-04-25T11:16:26.394Z</time></trkpt><trkpt lat="43.85075" lon="11.2423103"><ele>608.0</ele><time>2026-04-25T11:16:28.39Z</time></trkpt><trkpt lat="43.8507375" lon="11.242478"><ele>610.0</ele><time>2026-04-25T11:16:30.389Z</time></trkpt><trkpt lat="43.8507225" lon="11.2426381"><ele>612.0</ele><time>2026-04-25T11:16:32.404Z</time></trkpt><trkpt lat="43.8506945" lon="11.2427925"><ele>612.0</ele><time>2026-04-25T11:16:34.384Z</time></trkpt><trkpt lat="43.8506702" lon="11.2429536"><ele>612.0</ele><time>2026-04-25T11:16:36.386Z</time></trkpt><trkpt lat="43.8506443" lon="11.2431056"><ele>612.0</ele><time>2026-04-25T11:16:38.388Z</time></trkpt><trkpt lat="43.8506167" lon="11.243264"><ele>612.0</ele><time>2026-04-25T11:16:40.388Z</time></trkpt><trkpt lat="43.8505946" lon="11.2434309"><ele>612.8000000000001</ele><time>2026-04-25T11:16:42.388Z</time></trkpt><trkpt lat="43.850591" lon="11.2435243"><ele>613.6</ele><time>2026-04-25T11:16:43.389Z</time></trkpt><trkpt lat="43.8505826" lon="11.2436112"><ele>614.4000000000001</ele><time>2026-04-25T11:16:44.391Z</time></trkpt><trkpt lat="43.8505573" lon="11.2437716"><ele>615.2</ele><time>2026-04-25T11:16:46.389Z</time></trkpt><trkpt lat="43.8505422" lon="11.2439351"><ele>616.0</ele><time>2026-04-25T11:16:48.394Z</time></trkpt><trkpt lat="43.8505073" lon="11.2440818"><ele>616.8</ele><time>2026-04-25T11:16:50.392Z</time></trkpt><trkpt lat="43.8504821" lon="11.2442364"><ele>617.6</ele><time>2026-04-25T11:16:52.393Z</time></trkpt><trkpt lat="43.8504382" lon="11.2443865"><ele>618.4</ele><time>2026-04-25T11:16:54.393Z</time></trkpt><trkpt lat="43.8504234" lon="11.2445561"><ele>619.2</ele><time>2026-04-25T11:16:56.394Z</time></trkpt><trkpt lat="43.8504272" lon="11.2446454"><ele>620.0</ele><time>2026-04-25T11:16:57.392Z</time></trkpt><trkpt lat="43.8504301" lon="11.2448145"><ele>621.75</ele><time>2026-04-25T11:16:59.392Z</time></trkpt><trkpt lat="43.8504046" lon="11.2449729"><ele>623.5</ele><time>2026-04-25T11:17:01.396Z</time></trkpt><trkpt lat="43.8503669" lon="11.2451233"><ele>625.25</ele><time>2026-04-25T11:17:03.401Z</time></trkpt><trkpt lat="43.8503292" lon="11.2452746"><ele>627.0</ele><time>2026-04-25T11:17:05.399Z</time></trkpt><trkpt lat="43.8502637" lon="11.2454188"><ele>627.0</ele><time>2026-04-25T11:17:07.389Z</time></trkpt><trkpt lat="43.8502306" lon="11.2455081"><ele>627.0</ele><time>2026-04-25T11:17:08.387Z</time></trkpt><trkpt lat="43.8501768" lon="11.2456607"><ele>627.0</ele><time>2026-04-25T11:17:10.399Z</time></trkpt><trkpt lat="43.8501215" lon="11.2458066"><ele>627.0</ele><time>2026-04-25T11:17:12.396Z</time></trkpt><trkpt lat="43.85007" lon="11.2459656"><ele>627.0</ele><time>2026-04-25T11:17:14.399Z</time></trkpt><trkpt lat="43.850001" lon="11.2460931"><ele>626.4</ele><time>2026-04-25T11:17:16.389Z</time></trkpt><trkpt lat="43.8499148" lon="11.2461966"><ele>625.8000000000001</ele><time>2026-04-25T11:17:18.399Z</time></trkpt><trkpt lat="43.8498177" lon="11.246289"><ele>625.2</ele><time>2026-04-25T11:17:20.395Z</time></trkpt><trkpt lat="43.8497301" lon="11.2463832"><ele>624.6</ele><time>2026-04-25T11:17:22.393Z</time></trkpt><trkpt lat="43.8496836" lon="11.2464462"><ele>624.0</ele><time>2026-04-25T11:17:23.397Z</time></trkpt><trkpt lat="43.8496343" lon="11.246504"><ele>624.0</ele><time>2026-04-25T11:17:24.397Z</time></trkpt><trkpt lat="43.8495764" lon="11.2465645"><ele>624.0</ele><time>2026-04-25T11:17:25.409Z</time></trkpt><trkpt lat="43.849521" lon="11.2466242"><ele>624.0</ele><time>2026-04-25T11:17:26.399Z</time></trkpt><trkpt lat="43.8494698" lon="11.2466957"><ele>624.0</ele><time>2026-04-25T11:17:27.4Z</time></trkpt><trkpt lat="43.8494175" lon="11.2467588"><ele>624.0</ele><time>2026-04-25T11:17:28.404Z</time></trkpt><trkpt lat="43.8493688" lon="11.2468171"><ele>624.0</ele><time>2026-04-25T11:17:29.399Z</time></trkpt><trkpt lat="43.8493091" lon="11.2468563"><ele>624.0</ele><time>2026-04-25T11:17:30.399Z</time></trkpt><trkpt lat="43.849191" lon="11.2469024"><ele>620.6</ele><time>2026-04-25T11:17:32.397Z</time></trkpt><trkpt lat="43.8491247" lon="11.2469091"><ele>617.2</ele><time>2026-04-25T11:17:33.392Z</time></trkpt><trkpt lat="43.8490004" lon="11.2468971"><ele>613.8000000000001</ele><time>2026-04-25T11:17:35.403Z</time></trkpt><trkpt lat="43.8488808" lon="11.2468592"><ele>610.4</ele><time>2026-04-25T11:17:37.39Z</time></trkpt><trkpt lat="43.8487646" lon="11.2468299"><ele>607.0</ele><time>2026-04-25T11:17:39.396Z</time></trkpt><trkpt lat="43.8486501" lon="11.2467951"><ele>607.0</ele><time>2026-04-25T11:17:41.393Z</time></trkpt><trkpt lat="43.8485324" lon="11.2467601"><ele>607.0</ele><time>2026-04-25T11:17:43.397Z</time></trkpt><trkpt lat="43.8484265" lon="11.2467444"><ele>607.0</ele><time>2026-04-25T11:17:45.405Z</time></trkpt><trkpt lat="43.8483019" lon="11.2467496"><ele>607.0</ele><time>2026-04-25T11:17:47.387Z</time></trkpt><trkpt lat="43.8481721" lon="11.2467972"><ele>606.3333333333334</ele><time>2026-04-25T11:17:49.386Z</time></trkpt><trkpt lat="43.8480609" lon="11.2468514"><ele>605.6666666666667</ele><time>2026-04-25T11:17:51.385Z</time></trkpt><trkpt lat="43.8479985" lon="11.246891"><ele>605.0</ele><time>2026-04-25T11:17:52.39Z</time></trkpt><trkpt lat="43.8479052" lon="11.2469204"><ele>604.3333333333334</ele><time>2026-04-25T11:17:53.374Z</time></trkpt><trkpt lat="43.8478245" lon="11.2469629"><ele>603.6666666666666</ele><time>2026-04-25T11:17:54.375Z</time></trkpt><trkpt lat="43.8477546" lon="11.2469925"><ele>603.0</ele><time>2026-04-25T11:17:55.384Z</time></trkpt><trkpt lat="43.8476333" lon="11.2470443"><ele>602.3333333333334</ele><time>2026-04-25T11:17:57.374Z</time></trkpt><trkpt lat="43.847524" lon="11.2470467"><ele>601.6666666666666</ele><time>2026-04-25T11:17:59.371Z</time></trkpt><trkpt lat="43.8474645" lon="11.2469847"><ele>601.0</ele><time>2026-04-25T11:18:02.37Z</time></trkpt><trkpt lat="43.8474251" lon="11.2469139"><ele>600.3333333333333</ele><time>2026-04-25T11:18:04.375Z</time></trkpt><trkpt lat="43.8473743" lon="11.2468446"><ele>599.6666666666666</ele><time>2026-04-25T11:18:06.368Z</time></trkpt><trkpt lat="43.8472697" lon="11.246748"><ele>599.0</ele><time>2026-04-25T11:18:08.375Z</time></trkpt><trkpt lat="43.8471996" lon="11.2467091"><ele>599.0</ele><time>2026-04-25T11:18:09.377Z</time></trkpt><trkpt lat="43.8471404" lon="11.246665"><ele>599.0</ele><time>2026-04-25T11:18:10.371Z</time></trkpt><trkpt lat="43.8470816" lon="11.2466183"><ele>599.0</ele><time>2026-04-25T11:18:11.371Z</time></trkpt><trkpt lat="43.8470154" lon="11.246568"><ele>599.0</ele><time>2026-04-25T11:18:12.371Z</time></trkpt><trkpt lat="43.8469556" lon="11.2465185"><ele>599.0</ele><time>2026-04-25T11:18:13.371Z</time></trkpt><trkpt lat="43.846898" lon="11.246472"><ele>599.0</ele><time>2026-04-25T11:18:14.372Z</time></trkpt><trkpt lat="43.8467949" lon="11.2463892"><ele>594.0</ele><time>2026-04-25T11:18:16.376Z</time></trkpt><trkpt lat="43.8467049" lon="11.2462897"><ele>589.0</ele><time>2026-04-25T11:18:18.376Z</time></trkpt><trkpt lat="43.8466301" lon="11.2461876"><ele>584.0</ele><time>2026-04-25T11:18:20.378Z</time></trkpt><trkpt lat="43.846533" lon="11.2460889"><ele>579.0</ele><time>2026-04-25T11:18:22.386Z</time></trkpt><trkpt lat="43.8464231" lon="11.2460332"><ele>579.0</ele><time>2026-04-25T11:18:24.394Z</time></trkpt><trkpt lat="43.8463056" lon="11.2459857"><ele>579.0</ele><time>2026-04-25T11:18:26.406Z</time></trkpt><trkpt lat="43.8461804" lon="11.2459493"><ele>579.0</ele><time>2026-04-25T11:18:28.396Z</time></trkpt><trkpt lat="43.846115" lon="11.2459441"><ele>579.0</ele><time>2026-04-25T11:18:29.396Z</time></trkpt><trkpt lat="43.8460444" lon="11.2459352"><ele>579.0</ele><time>2026-04-25T11:18:30.397Z</time></trkpt><trkpt lat="43.8459733" lon="11.2459352"><ele>581.2</ele><time>2026-04-25T11:18:31.398Z</time></trkpt><trkpt lat="43.8459047" lon="11.2459403"><ele>583.4</ele><time>2026-04-25T11:18:32.395Z</time></trkpt><trkpt lat="43.8458416" lon="11.2459574"><ele>585.6</ele><time>2026-04-25T11:18:33.399Z</time></trkpt><trkpt lat="43.8457321" lon="11.2460081"><ele>587.8</ele><time>2026-04-25T11:18:35.395Z</time></trkpt><trkpt lat="43.8456208" lon="11.2460628"><ele>590.0</ele><time>2026-04-25T11:18:37.392Z</time></trkpt><trkpt lat="43.845506" lon="11.2461198"><ele>590.0</ele><time>2026-04-25T11:18:39.391Z</time></trkpt><trkpt lat="43.8453827" lon="11.2461603"><ele>590.0</ele><time>2026-04-25T11:18:41.388Z</time></trkpt><trkpt lat="43.8453199" lon="11.2461806"><ele>590.0</ele><time>2026-04-25T11:18:42.388Z</time></trkpt><trkpt lat="43.8452539" lon="11.2461978"><ele>590.0</ele><time>2026-04-25T11:18:43.384Z</time></trkpt><trkpt lat="43.845188" lon="11.2462198"><ele>590.0</ele><time>2026-04-25T11:18:44.385Z</time></trkpt><trkpt lat="43.8450655" lon="11.2462471"><ele>590.4</ele><time>2026-04-25T11:18:46.384Z</time></trkpt><trkpt lat="43.8449337" lon="11.2462636"><ele>590.8</ele><time>2026-04-25T11:18:48.387Z</time></trkpt><trkpt lat="43.8448265" lon="11.2462704"><ele>591.2</ele><time>2026-04-25T11:18:50.389Z</time></trkpt><trkpt lat="43.8446974" lon="11.2462651"><ele>591.6</ele><time>2026-04-25T11:18:52.385Z</time></trkpt><trkpt lat="43.8446269" lon="11.2462651"><ele>592.0</ele><time>2026-04-25T11:18:53.371Z</time></trkpt><trkpt lat="43.8445608" lon="11.2462659"><ele>592.0</ele><time>2026-04-25T11:18:54.37Z</time></trkpt><trkpt lat="43.8444786" lon="11.2462706"><ele>592.0</ele><time>2026-04-25T11:18:55.368Z</time></trkpt><trkpt lat="43.8444149" lon="11.2462828"><ele>592.0</ele><time>2026-04-25T11:18:56.375Z</time></trkpt><trkpt lat="43.8443462" lon="11.2462689"><ele>592.0</ele><time>2026-04-25T11:18:57.372Z</time></trkpt><trkpt lat="43.8442603" lon="11.2462545"><ele>592.0</ele><time>2026-04-25T11:18:58.388Z</time></trkpt><trkpt lat="43.8441816" lon="11.2462362"><ele>592.0</ele><time>2026-04-25T11:18:59.375Z</time></trkpt><trkpt lat="43.8440969" lon="11.2462295"><ele>591.1666666666667</ele><time>2026-04-25T11:19:00.376Z</time></trkpt><trkpt lat="43.8439932" lon="11.2462355"><ele>590.3333333333334</ele><time>2026-04-25T11:19:01.375Z</time></trkpt><trkpt lat="43.8439133" lon="11.2462372"><ele>589.5</ele><time>2026-04-25T11:19:02.383Z</time></trkpt><trkpt lat="43.8438505" lon="11.2462453"><ele>588.6666666666666</ele><time>2026-04-25T11:19:03.376Z</time></trkpt><trkpt lat="43.8437772" lon="11.2462239"><ele>587.8333333333333</ele><time>2026-04-25T11:19:04.382Z</time></trkpt><trkpt lat="43.8437057" lon="11.2462114"><ele>587.0</ele><time>2026-04-25T11:19:05.391Z</time></trkpt><trkpt lat="43.8435794" lon="11.2462045"><ele>587.0</ele><time>2026-04-25T11:19:07.403Z</time></trkpt><trkpt lat="43.8435155" lon="11.2461982"><ele>587.0</ele><time>2026-04-25T11:19:08.392Z</time></trkpt><trkpt lat="43.8433988" lon="11.2462031"><ele>587.0</ele><time>2026-04-25T11:19:10.391Z</time></trkpt><trkpt lat="43.8432888" lon="11.2462061"><ele>587.0</ele><time>2026-04-25T11:19:12.393Z</time></trkpt><trkpt lat="43.8431716" lon="11.2462073"><ele>587.0</ele><time>2026-04-25T11:19:14.385Z</time></trkpt><trkpt lat="43.8431031" lon="11.2462221"><ele>586.5</ele><time>2026-04-25T11:19:15.388Z</time></trkpt><trkpt lat="43.8430335" lon="11.2462413"><ele>586.0</ele><time>2026-04-25T11:19:16.386Z</time></trkpt><trkpt lat="43.8429713" lon="11.2462797"><ele>585.5</ele><time>2026-04-25T11:19:17.385Z</time></trkpt><trkpt lat="43.8428682" lon="11.2463713"><ele>585.0</ele><time>2026-04-25T11:19:19.395Z</time></trkpt><trkpt lat="43.8428111" lon="11.2464165"><ele>584.5</ele><time>2026-04-25T11:19:20.39Z</time></trkpt><trkpt lat="43.8427164" lon="11.246518"><ele>584.0</ele><time>2026-04-25T11:19:22.396Z</time></trkpt><trkpt lat="43.8426377" lon="11.2465968"><ele>585.0</ele><time>2026-04-25T11:19:24.387Z</time></trkpt><trkpt lat="43.8425804" lon="11.24664"><ele>586.0</ele><time>2026-04-25T11:22:22.418Z</time></trkpt><trkpt lat="43.8425258" lon="11.2467127"><ele>587.0</ele><time>2026-04-25T11:22:27.41Z</time></trkpt><trkpt lat="43.8424587" lon="11.2466548"><ele>588.0</ele><time>2026-04-25T11:22:42.404Z</time></trkpt><trkpt lat="43.8424546" lon="11.2465251"><ele>589.0</ele><time>2026-04-25T11:22:44.422Z</time></trkpt><trkpt lat="43.8424846" lon="11.2464132"><ele>590.0</ele><time>2026-04-25T11:22:46.392Z</time></trkpt><trkpt lat="43.8424101" lon="11.2463467"><ele>587.6666666666666</ele><time>2026-04-25T11:22:48.406Z</time></trkpt><trkpt lat="43.8423186" lon="11.2462798"><ele>585.3333333333333</ele><time>2026-04-25T11:22:50.395Z</time></trkpt><trkpt lat="43.8422288" lon="11.2462438"><ele>583.0</ele><time>2026-04-25T11:22:52.406Z</time></trkpt><trkpt lat="43.8421602" lon="11.2461909"><ele>580.6666666666666</ele><time>2026-04-25T11:22:55.411Z</time></trkpt><trkpt lat="43.8420809" lon="11.2461569"><ele>578.3333333333334</ele><time>2026-04-25T11:22:58.416Z</time></trkpt><trkpt lat="43.8420045" lon="11.2461676"><ele>576.0</ele><time>2026-04-25T11:23:00.405Z</time></trkpt><trkpt lat="43.8419218" lon="11.2461302"><ele>576.0</ele><time>2026-04-25T11:23:03.411Z</time></trkpt><trkpt lat="43.8418418" lon="11.2460989"><ele>576.0</ele><time>2026-04-25T11:23:06.399Z</time></trkpt><trkpt lat="43.8417796" lon="11.246033"><ele>576.0</ele><time>2026-04-25T11:23:09.4Z</time></trkpt><trkpt lat="43.8417269" lon="11.2459359"><ele>576.0</ele><time>2026-04-25T11:23:12.4Z</time></trkpt><trkpt lat="43.8416998" lon="11.2458453"><ele>576.0</ele><time>2026-04-25T11:23:14.409Z</time></trkpt><trkpt lat="43.8416777" lon="11.2457378"><ele>576.0</ele><time>2026-04-25T11:23:16.404Z</time></trkpt><trkpt lat="43.8416098" lon="11.2456579"><ele>571.5</ele><time>2026-04-25T11:23:18.4Z</time></trkpt><trkpt lat="43.8415295" lon="11.2455906"><ele>567.0</ele><time>2026-04-25T11:23:20.406Z</time></trkpt><trkpt lat="43.841467" lon="11.2455735"><ele>562.5</ele><time>2026-04-25T11:23:22.405Z</time></trkpt><trkpt lat="43.8414204" lon="11.2454971"><ele>558.0</ele><time>2026-04-25T11:23:24.407Z</time></trkpt><trkpt lat="43.841372" lon="11.2454355"><ele>553.5</ele><time>2026-04-25T11:23:26.398Z</time></trkpt><trkpt lat="43.841321" lon="11.2453695"><ele>549.0</ele><time>2026-04-25T11:23:28.408Z</time></trkpt><trkpt lat="43.8412581" lon="11.245259"><ele>549.0</ele><time>2026-04-25T11:23:32.407Z</time></trkpt><trkpt lat="43.8412146" lon="11.2451304"><ele>549.0</ele><time>2026-04-25T11:23:34.399Z</time></trkpt><trkpt lat="43.8411742" lon="11.2449927"><ele>549.0</ele><time>2026-04-25T11:23:36.393Z</time></trkpt><trkpt lat="43.8411191" lon="11.2449406"><ele>549.0</ele><time>2026-04-25T11:23:38.4Z</time></trkpt><trkpt lat="43.8410649" lon="11.2448541"><ele>549.0</ele><time>2026-04-25T11:23:40.402Z</time></trkpt><trkpt lat="43.8410273" lon="11.2447468"><ele>549.0</ele><time>2026-04-25T11:23:42.402Z</time></trkpt><trkpt lat="43.8409791" lon="11.244634"><ele>545.0</ele><time>2026-04-25T11:23:44.404Z</time></trkpt><trkpt lat="43.8409561" lon="11.2445255"><ele>541.0</ele><time>2026-04-25T11:23:46.42Z</time></trkpt><trkpt lat="43.840951" lon="11.2444232"><ele>537.0</ele><time>2026-04-25T11:23:48.396Z</time></trkpt><trkpt lat="43.8409001" lon="11.2442985"><ele>533.0</ele><time>2026-04-25T11:23:50.4Z</time></trkpt><trkpt lat="43.8408412" lon="11.2441922"><ele>529.0</ele><time>2026-04-25T11:23:52.403Z</time></trkpt><trkpt lat="43.8408041" lon="11.2441048"><ele>525.0</ele><time>2026-04-25T11:23:56.404Z</time></trkpt><trkpt lat="43.8407222" lon="11.2440407"><ele>525.0</ele><time>2026-04-25T11:23:58.408Z</time></trkpt><trkpt lat="43.8406403" lon="11.2440046"><ele>525.0</ele><time>2026-04-25T11:24:00.404Z</time></trkpt><trkpt lat="43.8405818" lon="11.2439639"><ele>525.0</ele><time>2026-04-25T11:24:19.375Z</time></trkpt><trkpt lat="43.8405171" lon="11.2439592"><ele>525.0</ele><time>2026-04-25T11:24:33.388Z</time></trkpt><trkpt lat="43.8404903" lon="11.2438727"><ele>525.0</ele><time>2026-04-25T11:24:55.405Z</time></trkpt><trkpt lat="43.8404367" lon="11.2437775"><ele>525.0</ele><time>2026-04-25T11:24:58.412Z</time></trkpt><trkpt lat="43.840365" lon="11.243689"><ele>522.6666666666666</ele><time>2026-04-25T11:25:01.392Z</time></trkpt><trkpt lat="43.8402785" lon="11.243608"><ele>520.3333333333334</ele><time>2026-04-25T11:25:03.392Z</time></trkpt><trkpt lat="43.8402045" lon="11.24354"><ele>518.0</ele><time>2026-04-25T11:25:05.393Z</time></trkpt><trkpt lat="43.8401548" lon="11.2434512"><ele>515.6666666666667</ele><time>2026-04-25T11:25:07.394Z</time></trkpt><trkpt lat="43.8401033" lon="11.2433778"><ele>513.3333333333334</ele><time>2026-04-25T11:25:09.396Z</time></trkpt><trkpt lat="43.8400431" lon="11.243341"><ele>511.0</ele><time>2026-04-25T11:25:11.393Z</time></trkpt><trkpt lat="43.8399765" lon="11.2432813"><ele>508.83333333333337</ele><time>2026-04-25T11:25:14.391Z</time></trkpt><trkpt lat="43.8398868" lon="11.2432659"><ele>506.6666666666667</ele><time>2026-04-25T11:25:18.401Z</time></trkpt><trkpt lat="43.8398154" lon="11.2432543"><ele>504.5</ele><time>2026-04-25T11:25:21.39Z</time></trkpt><trkpt lat="43.8397458" lon="11.2432786"><ele>502.33333333333337</ele><time>2026-04-25T11:25:24.394Z</time></trkpt><trkpt lat="43.8396558" lon="11.2432947"><ele>500.1666666666667</ele><time>2026-04-25T11:25:27.401Z</time></trkpt><trkpt lat="43.8395731" lon="11.2433481"><ele>498.0</ele><time>2026-04-25T11:25:30.399Z</time></trkpt><trkpt lat="43.8395074" lon="11.2433868"><ele>498.0</ele><time>2026-04-25T11:25:33.402Z</time></trkpt><trkpt lat="43.8394372" lon="11.2433886"><ele>498.0</ele><time>2026-04-25T11:25:36.402Z</time></trkpt><trkpt lat="43.839359" lon="11.2433746"><ele>498.0</ele><time>2026-04-25T11:25:39.411Z</time></trkpt><trkpt lat="43.8392819" lon="11.2434157"><ele>498.0</ele><time>2026-04-25T11:25:42.397Z</time></trkpt><trkpt lat="43.8392109" lon="11.2434235"><ele>498.0</ele><time>2026-04-25T11:25:45.397Z</time></trkpt><trkpt lat="43.8391422" lon="11.2434396"><ele>498.0</ele><time>2026-04-25T11:26:20.397Z</time></trkpt><trkpt lat="43.8390612" lon="11.2434645"><ele>493.6666666666667</ele><time>2026-04-25T11:26:23.391Z</time></trkpt><trkpt lat="43.8389889" lon="11.2435137"><ele>489.33333333333337</ele><time>2026-04-25T11:26:26.391Z</time></trkpt><trkpt lat="43.8389161" lon="11.2435717"><ele>485.0</ele><time>2026-04-25T11:26:28.41Z</time></trkpt><trkpt lat="43.8388489" lon="11.2435991"><ele>480.6666666666667</ele><time>2026-04-25T11:26:30.395Z</time></trkpt><trkpt lat="43.8387644" lon="11.2435509"><ele>476.33333333333337</ele><time>2026-04-25T11:26:33.397Z</time></trkpt><trkpt lat="43.8387125" lon="11.2434706"><ele>472.0</ele><time>2026-04-25T11:26:35.394Z</time></trkpt><trkpt lat="43.8386331" lon="11.2433866"><ele>472.00000000000006</ele><time>2026-04-25T11:26:37.403Z</time></trkpt><trkpt lat="43.838537" lon="11.2433833"><ele>472.0</ele><time>2026-04-25T11:26:39.4Z</time></trkpt><trkpt lat="43.8384787" lon="11.2434359"><ele>472.0</ele><time>2026-04-25T11:26:42.393Z</time></trkpt><trkpt lat="43.8384111" lon="11.2435178"><ele>472.0</ele><time>2026-04-25T11:26:44.395Z</time></trkpt><trkpt lat="43.8383324" lon="11.2435929"><ele>472.00000000000006</ele><time>2026-04-25T11:26:46.388Z</time></trkpt><trkpt lat="43.8382823" lon="11.2437038"><ele>472.0</ele><time>2026-04-25T11:26:48.382Z</time></trkpt><trkpt lat="43.8382423" lon="11.2437744"><ele>467.50000000000006</ele><time>2026-04-25T11:26:50.38Z</time></trkpt><trkpt lat="43.8381797" lon="11.243833"><ele>463.0</ele><time>2026-04-25T11:26:52.398Z</time></trkpt><trkpt lat="43.8380925" lon="11.2437829"><ele>458.5</ele><time>2026-04-25T11:26:56.397Z</time></trkpt><trkpt lat="43.8380303" lon="11.2437591"><ele>454.0</ele><time>2026-04-25T11:27:13.395Z</time></trkpt><trkpt lat="43.8379713" lon="11.2436692"><ele>449.50000000000006</ele><time>2026-04-25T11:27:33.396Z</time></trkpt><trkpt lat="43.8379124" lon="11.2436019"><ele>445.0</ele><time>2026-04-25T11:27:35.391Z</time></trkpt><trkpt lat="43.8378615" lon="11.2435313"><ele>445.00000000000006</ele><time>2026-04-25T11:27:37.384Z</time></trkpt><trkpt lat="43.8378044" lon="11.2434787"><ele>445.0</ele><time>2026-04-25T11:27:39.39Z</time></trkpt><trkpt lat="43.8377344" lon="11.2433938"><ele>445.0</ele><time>2026-04-25T11:27:41.387Z</time></trkpt><trkpt lat="43.8376718" lon="11.2433578"><ele>445.0</ele><time>2026-04-25T11:27:44.382Z</time></trkpt><trkpt lat="43.837638" lon="11.243265"><ele>445.00000000000006</ele><time>2026-04-25T11:27:46.386Z</time></trkpt><trkpt lat="43.8375448" lon="11.2432022"><ele>445.0</ele><time>2026-04-25T11:27:49.394Z</time></trkpt><trkpt lat="43.8374473" lon="11.2431916"><ele>439.6</ele><time>2026-04-25T11:27:52.395Z</time></trkpt><trkpt lat="43.8373758" lon="11.2431287"><ele>434.2</ele><time>2026-04-25T11:27:54.41Z</time></trkpt><trkpt lat="43.8372798" lon="11.24312"><ele>428.79999999999995</ele><time>2026-04-25T11:27:56.393Z</time></trkpt><trkpt lat="43.8371666" lon="11.2431586"><ele>423.4</ele><time>2026-04-25T11:27:58.394Z</time></trkpt><trkpt lat="43.8370333" lon="11.2432218"><ele>418.0</ele><time>2026-04-25T11:28:00.393Z</time></trkpt><trkpt lat="43.8369578" lon="11.2432536"><ele>418.0</ele><time>2026-04-25T11:28:01.386Z</time></trkpt><trkpt lat="43.8369002" lon="11.2432949"><ele>418.0</ele><time>2026-04-25T11:28:02.383Z</time></trkpt><trkpt lat="43.8368362" lon="11.243336"><ele>418.0</ele><time>2026-04-25T11:28:03.388Z</time></trkpt><trkpt lat="43.83678" lon="11.2433869"><ele>418.0</ele><time>2026-04-25T11:28:04.382Z</time></trkpt><trkpt lat="43.8367041" lon="11.2434085"><ele>418.0</ele><time>2026-04-25T11:28:06.394Z</time></trkpt><trkpt lat="43.8366131" lon="11.2433551"><ele>418.0</ele><time>2026-04-25T11:28:08.385Z</time></trkpt><trkpt lat="43.8365527" lon="11.2433146"><ele>418.0</ele><time>2026-04-25T11:28:10.395Z</time></trkpt><trkpt lat="43.8365224" lon="11.2431968"><ele>413.00000000000006</ele><time>2026-04-25T11:28:13.387Z</time></trkpt><trkpt lat="43.8364931" lon="11.2431192"><ele>408.0</ele><time>2026-04-25T11:28:15.393Z</time></trkpt><trkpt lat="43.8364504" lon="11.2430433"><ele>403.0</ele><time>2026-04-25T11:28:17.391Z</time></trkpt><trkpt lat="43.8363973" lon="11.2429416"><ele>398.0</ele><time>2026-04-25T11:28:20.395Z</time></trkpt><trkpt lat="43.8363285" lon="11.242894"><ele>393.00000000000006</ele><time>2026-04-25T11:28:23.399Z</time></trkpt><trkpt lat="43.8362402" lon="11.2428916"><ele>388.0</ele><time>2026-04-25T11:28:26.39Z</time></trkpt><trkpt lat="43.8361758" lon="11.2428752"><ele>388.00000000000006</ele><time>2026-04-25T11:28:28.409Z</time></trkpt><trkpt lat="43.8361588" lon="11.2427858"><ele>388.0</ele><time>2026-04-25T11:29:15.393Z</time></trkpt><trkpt lat="43.8361639" lon="11.2426702"><ele>388.0</ele><time>2026-04-25T11:29:20.401Z</time></trkpt><trkpt lat="43.8362032" lon="11.2425605"><ele>388.0</ele><time>2026-04-25T11:29:23.394Z</time></trkpt><trkpt lat="43.8362171" lon="11.2424449"><ele>388.00000000000006</ele><time>2026-04-25T11:29:25.388Z</time></trkpt><trkpt lat="43.8362214" lon="11.2422874"><ele>388.0</ele><time>2026-04-25T11:29:27.392Z</time></trkpt><trkpt lat="43.8362436" lon="11.2421659"><ele>387.4285714285714</ele><time>2026-04-25T11:29:29.388Z</time></trkpt><trkpt lat="43.8362477" lon="11.2420673"><ele>386.8571428571429</ele><time>2026-04-25T11:29:31.392Z</time></trkpt><trkpt lat="43.8362537" lon="11.2419647"><ele>386.2857142857143</ele><time>2026-04-25T11:29:33.398Z</time></trkpt><trkpt lat="43.8362502" lon="11.2418618"><ele>385.71428571428567</ele><time>2026-04-25T11:29:35.392Z</time></trkpt><trkpt lat="43.8362662" lon="11.241777"><ele>385.1428571428571</ele><time>2026-04-25T11:29:37.391Z</time></trkpt><trkpt lat="43.8362949" lon="11.2416786"><ele>384.57142857142856</ele><time>2026-04-25T11:29:39.394Z</time></trkpt><trkpt lat="43.8362935" lon="11.241586"><ele>384.0</ele><time>2026-04-25T11:29:41.406Z</time></trkpt><trkpt lat="43.8362388" lon="11.2414694"><ele>384.2</ele><time>2026-04-25T11:29:43.387Z</time></trkpt><trkpt lat="43.8361732" lon="11.2413638"><ele>384.4</ele><time>2026-04-25T11:29:45.394Z</time></trkpt><trkpt lat="43.8361221" lon="11.2412559"><ele>384.6</ele><time>2026-04-25T11:29:47.384Z</time></trkpt><trkpt lat="43.8360777" lon="11.2411556"><ele>384.8</ele><time>2026-04-25T11:29:50.391Z</time></trkpt><trkpt lat="43.8360181" lon="11.2410075"><ele>385.0</ele><time>2026-04-25T11:29:54.385Z</time></trkpt><trkpt lat="43.835951" lon="11.2408891"><ele>382.00000000000006</ele><time>2026-04-25T11:29:56.388Z</time></trkpt><trkpt lat="43.8359264" lon="11.2407971"><ele>379.0</ele><time>2026-04-25T11:29:58.393Z</time></trkpt><trkpt lat="43.8358979" lon="11.2407125"><ele>376.0</ele><time>2026-04-25T11:30:01.415Z</time></trkpt><trkpt lat="43.835864" lon="11.2406157"><ele>373.0</ele><time>2026-04-25T11:30:04.404Z</time></trkpt><trkpt lat="43.8358229" lon="11.2405321"><ele>370.0</ele><time>2026-04-25T11:30:07.387Z</time></trkpt><trkpt lat="43.8357739" lon="11.2403952"><ele>367.0</ele><time>2026-04-25T11:30:09.394Z</time></trkpt><trkpt lat="43.8357456" lon="11.2402913"><ele>367.0</ele><time>2026-04-25T11:30:10.388Z</time></trkpt><trkpt lat="43.8357252" lon="11.2401891"><ele>367.0</ele><time>2026-04-25T11:30:11.396Z</time></trkpt><trkpt lat="43.8357116" lon="11.2400433"><ele>367.0</ele><time>2026-04-25T11:30:13.386Z</time></trkpt><trkpt lat="43.8357019" lon="11.2399292"><ele>367.0</ele><time>2026-04-25T11:30:15.398Z</time></trkpt><trkpt lat="43.8357367" lon="11.2397998"><ele>367.0</ele><time>2026-04-25T11:30:17.396Z</time></trkpt><trkpt lat="43.835727" lon="11.2396494"><ele>367.0</ele><time>2026-04-25T11:30:19.389Z</time></trkpt><trkpt lat="43.8356831" lon="11.2395339"><ele>367.0</ele><time>2026-04-25T11:30:21.403Z</time></trkpt><trkpt lat="43.8356396" lon="11.2394304"><ele>367.0</ele><time>2026-04-25T11:30:23.382Z</time></trkpt><trkpt lat="43.8355944" lon="11.2393376"><ele>367.0</ele><time>2026-04-25T11:30:25.384Z</time></trkpt><trkpt lat="43.8355418" lon="11.2392595"><ele>367.0</ele><time>2026-04-25T11:30:27.381Z</time></trkpt><trkpt lat="43.835469" lon="11.2391931"><ele>367.0</ele><time>2026-04-25T11:30:29.391Z</time></trkpt><trkpt lat="43.8353973" lon="11.2391316"><ele>367.0</ele><time>2026-04-25T11:30:31.404Z</time></trkpt><trkpt lat="43.8353618" lon="11.2390473"><ele>367.0</ele><time>2026-04-25T11:30:35.4Z</time></trkpt><trkpt lat="43.8353244" lon="11.2389459"><ele>367.0</ele><time>2026-04-25T11:30:38.399Z</time></trkpt><trkpt lat="43.835296" lon="11.2388461"><ele>367.0</ele><time>2026-04-25T11:30:42.397Z</time></trkpt><trkpt lat="43.8352689" lon="11.2387482"><ele>367.0</ele><time>2026-04-25T11:30:45.38Z</time></trkpt><trkpt lat="43.8352283" lon="11.2386108"><ele>367.0</ele><time>2026-04-25T11:30:47.385Z</time></trkpt><trkpt lat="43.8351951" lon="11.2385213"><ele>367.16666666666663</ele><time>2026-04-25T11:30:49.385Z</time></trkpt><trkpt lat="43.8352078" lon="11.2384159"><ele>367.3333333333333</ele><time>2026-04-25T11:30:52.4Z</time></trkpt><trkpt lat="43.835198" lon="11.2382904"><ele>367.5</ele><time>2026-04-25T11:30:55.395Z</time></trkpt><trkpt lat="43.8351677" lon="11.2382034"><ele>367.6666666666667</ele><time>2026-04-25T11:30:57.4Z</time></trkpt><trkpt lat="43.8350919" lon="11.2381228"><ele>367.83333333333337</ele><time>2026-04-25T11:30:59.41Z</time></trkpt><trkpt lat="43.8350752" lon="11.2380113"><ele>368.0</ele><time>2026-04-25T11:31:01.404Z</time></trkpt><trkpt lat="43.8351043" lon="11.2379149"><ele>366.6666666666667</ele><time>2026-04-25T11:31:03.395Z</time></trkpt><trkpt lat="43.8351458" lon="11.2378139"><ele>365.33333333333337</ele><time>2026-04-25T11:31:05.406Z</time></trkpt><trkpt lat="43.8352084" lon="11.2376834"><ele>364.0</ele><time>2026-04-25T11:31:07.399Z</time></trkpt><trkpt lat="43.8352568" lon="11.237616"><ele>362.6666666666667</ele><time>2026-04-25T11:31:08.4Z</time></trkpt><trkpt lat="43.8353075" lon="11.2375437"><ele>361.3333333333333</ele><time>2026-04-25T11:31:09.404Z</time></trkpt><trkpt lat="43.835354" lon="11.2374665"><ele>360.0</ele><time>2026-04-25T11:31:10.396Z</time></trkpt><trkpt lat="43.8354472" lon="11.2373431"><ele>358.3333333333333</ele><time>2026-04-25T11:31:12.393Z</time></trkpt><trkpt lat="43.8354891" lon="11.2372578"><ele>356.6666666666667</ele><time>2026-04-25T11:31:13.391Z</time></trkpt><trkpt lat="43.8355251" lon="11.2371669"><ele>355.0</ele><time>2026-04-25T11:31:14.388Z</time></trkpt><trkpt lat="43.8355475" lon="11.2370698"><ele>353.33333333333337</ele><time>2026-04-25T11:31:15.391Z</time></trkpt><trkpt lat="43.8355797" lon="11.2369836"><ele>351.6666666666667</ele><time>2026-04-25T11:31:16.391Z</time></trkpt><trkpt lat="43.8356075" lon="11.2368373"><ele>350.0</ele><time>2026-04-25T11:31:18.391Z</time></trkpt><trkpt lat="43.8356526" lon="11.2367124"><ele>350.0</ele><time>2026-04-25T11:31:20.39Z</time></trkpt><trkpt lat="43.8357009" lon="11.2365857"><ele>350.0</ele><time>2026-04-25T11:31:22.394Z</time></trkpt><trkpt lat="43.835749" lon="11.2364487"><ele>350.0</ele><time>2026-04-25T11:31:24.393Z</time></trkpt><trkpt lat="43.8358056" lon="11.236303"><ele>350.0</ele><time>2026-04-25T11:31:26.396Z</time></trkpt><trkpt lat="43.8358506" lon="11.2362371"><ele>350.0</ele><time>2026-04-25T11:31:27.39Z</time></trkpt><trkpt lat="43.8359008" lon="11.2361806"><ele>347.83333333333337</ele><time>2026-04-25T11:31:28.395Z</time></trkpt><trkpt lat="43.8359621" lon="11.2361244"><ele>345.6666666666667</ele><time>2026-04-25T11:31:29.392Z</time></trkpt><trkpt lat="43.836014" lon="11.2360705"><ele>343.5</ele><time>2026-04-25T11:31:30.402Z</time></trkpt><trkpt lat="43.8360783" lon="11.2360036"><ele>341.3333333333333</ele><time>2026-04-25T11:31:31.385Z</time></trkpt><trkpt lat="43.8361452" lon="11.2359706"><ele>339.16666666666663</ele><time>2026-04-25T11:31:32.39Z</time></trkpt><trkpt lat="43.8362056" lon="11.235936"><ele>337.0</ele><time>2026-04-25T11:31:33.39Z</time></trkpt><trkpt lat="43.83632" lon="11.235853"><ele>337.0</ele><time>2026-04-25T11:31:35.398Z</time></trkpt><trkpt lat="43.8363831" lon="11.2358283"><ele>337.0</ele><time>2026-04-25T11:31:36.39Z</time></trkpt><trkpt lat="43.8364584" lon="11.2357448"><ele>337.0</ele><time>2026-04-25T11:31:38.389Z</time></trkpt><trkpt lat="43.8365467" lon="11.235673"><ele>337.0</ele><time>2026-04-25T11:31:41.401Z</time></trkpt><trkpt lat="43.8366288" lon="11.235666"><ele>337.0</ele><time>2026-04-25T11:31:43.396Z</time></trkpt><trkpt lat="43.8366953" lon="11.235671"><ele>337.0</ele><time>2026-04-25T11:31:45.398Z</time></trkpt><trkpt lat="43.836751" lon="11.2356167"><ele>334.3333333333333</ele><time>2026-04-25T11:31:49.399Z</time></trkpt><trkpt lat="43.8367454" lon="11.2355052"><ele>331.66666666666663</ele><time>2026-04-25T11:31:54.392Z</time></trkpt><trkpt lat="43.8367153" lon="11.2354276"><ele>329.0</ele><time>2026-04-25T11:31:57.398Z</time></trkpt><trkpt lat="43.8366536" lon="11.235387"><ele>326.3333333333333</ele><time>2026-04-25T11:31:59.392Z</time></trkpt><trkpt lat="43.836584" lon="11.2353305"><ele>323.6666666666667</ele><time>2026-04-25T11:32:02.395Z</time></trkpt><trkpt lat="43.8365107" lon="11.2352881"><ele>321.0</ele><time>2026-04-25T11:32:04.39Z</time></trkpt><trkpt lat="43.8364035" lon="11.2352511"><ele>321.0</ele><time>2026-04-25T11:32:06.387Z</time></trkpt><trkpt lat="43.8363301" lon="11.2352274"><ele>321.0</ele><time>2026-04-25T11:32:07.386Z</time></trkpt><trkpt lat="43.8362566" lon="11.235197"><ele>321.0</ele><time>2026-04-25T11:32:08.391Z</time></trkpt><trkpt lat="43.8361798" lon="11.2351767"><ele>321.0</ele><time>2026-04-25T11:32:09.393Z</time></trkpt><trkpt lat="43.8361115" lon="11.2351562"><ele>321.0</ele><time>2026-04-25T11:32:10.389Z</time></trkpt><trkpt lat="43.8360388" lon="11.2351248"><ele>321.0</ele><time>2026-04-25T11:32:11.39Z</time></trkpt><trkpt lat="43.8359647" lon="11.2350997"><ele>320.0</ele><time>2026-04-25T11:32:12.39Z</time></trkpt><trkpt lat="43.8359015" lon="11.235068"><ele>319.0</ele><time>2026-04-25T11:32:13.385Z</time></trkpt><trkpt lat="43.8358281" lon="11.235026"><ele>318.0</ele><time>2026-04-25T11:32:14.384Z</time></trkpt><trkpt lat="43.8357613" lon="11.234996"><ele>317.0</ele><time>2026-04-25T11:32:15.395Z</time></trkpt><trkpt lat="43.8356524" lon="11.234927"><ele>316.0</ele><time>2026-04-25T11:32:17.394Z</time></trkpt><trkpt lat="43.8355455" lon="11.2348598"><ele>316.00000000000006</ele><time>2026-04-25T11:32:19.385Z</time></trkpt><trkpt lat="43.8354864" lon="11.2348254"><ele>316.0</ele><time>2026-04-25T11:32:20.386Z</time></trkpt><trkpt lat="43.8353789" lon="11.2347645"><ele>316.0</ele><time>2026-04-25T11:32:22.4Z</time></trkpt><trkpt lat="43.8353174" lon="11.2347341"><ele>316.0</ele><time>2026-04-25T11:32:23.394Z</time></trkpt><trkpt lat="43.8352546" lon="11.234699"><ele>316.0</ele><time>2026-04-25T11:32:24.396Z</time></trkpt><trkpt lat="43.8351906" lon="11.2346752"><ele>316.00000000000006</ele><time>2026-04-25T11:32:25.388Z</time></trkpt><trkpt lat="43.8351289" lon="11.2346452"><ele>316.0</ele><time>2026-04-25T11:32:26.406Z</time></trkpt><trkpt lat="43.8350635" lon="11.234621"><ele>314.42857142857144</ele><time>2026-04-25T11:32:27.391Z</time></trkpt><trkpt lat="43.8349919" lon="11.2345995"><ele>312.8571428571429</ele><time>2026-04-25T11:32:28.4Z</time></trkpt><trkpt lat="43.8349265" lon="11.2345817"><ele>311.28571428571433</ele><time>2026-04-25T11:32:29.395Z</time></trkpt><trkpt lat="43.8348655" lon="11.2345597"><ele>309.7142857142857</ele><time>2026-04-25T11:32:30.398Z</time></trkpt><trkpt lat="43.8347976" lon="11.2345511"><ele>308.1428571428571</ele><time>2026-04-25T11:32:31.399Z</time></trkpt><trkpt lat="43.8347215" lon="11.2345399"><ele>306.5714285714286</ele><time>2026-04-25T11:32:32.416Z</time></trkpt><trkpt lat="43.8346486" lon="11.2345102"><ele>305.0</ele><time>2026-04-25T11:32:33.396Z</time></trkpt><trkpt lat="43.8345917" lon="11.234457"><ele>305.0</ele><time>2026-04-25T11:32:34.396Z</time></trkpt><trkpt lat="43.8345375" lon="11.2343181"><ele>305.0</ele><time>2026-04-25T11:32:36.397Z</time></trkpt><trkpt lat="43.8345029" lon="11.2341537"><ele>305.0</ele><time>2026-04-25T11:32:38.396Z</time></trkpt><trkpt lat="43.8344474" lon="11.2339891"><ele>305.0</ele><time>2026-04-25T11:32:40.393Z</time></trkpt><trkpt lat="43.8344127" lon="11.2339155"><ele>305.0</ele><time>2026-04-25T11:32:41.395Z</time></trkpt><trkpt lat="43.8343548" lon="11.2337893"><ele>303.1666666666667</ele><time>2026-04-25T11:32:43.393Z</time></trkpt><trkpt lat="43.8343084" lon="11.2336903"><ele>301.33333333333337</ele><time>2026-04-25T11:32:45.398Z</time></trkpt><trkpt lat="43.8342795" lon="11.2335853"><ele>299.5</ele><time>2026-04-25T11:32:47.395Z</time></trkpt><trkpt lat="43.8341927" lon="11.2335132"><ele>297.6666666666667</ele><time>2026-04-25T11:32:49.397Z</time></trkpt><trkpt lat="43.8341318" lon="11.2334631"><ele>295.8333333333333</ele><time>2026-04-25T11:32:50.396Z</time></trkpt><trkpt lat="43.8340689" lon="11.2334118"><ele>294.0</ele><time>2026-04-25T11:32:51.398Z</time></trkpt><trkpt lat="43.8340046" lon="11.2333698"><ele>294.0</ele><time>2026-04-25T11:32:52.394Z</time></trkpt><trkpt lat="43.8339311" lon="11.2333301"><ele>294.0</ele><time>2026-04-25T11:32:53.395Z</time></trkpt><trkpt lat="43.8338672" lon="11.2332861"><ele>294.0</ele><time>2026-04-25T11:32:54.394Z</time></trkpt><trkpt lat="43.8338" lon="11.2332588"><ele>294.0</ele><time>2026-04-25T11:32:55.394Z</time></trkpt><trkpt lat="43.8337414" lon="11.233216"><ele>294.0</ele><time>2026-04-25T11:32:56.392Z</time></trkpt><trkpt lat="43.8336223" lon="11.233156"><ele>294.0</ele><time>2026-04-25T11:32:58.398Z</time></trkpt><trkpt lat="43.8335626" lon="11.2331114"><ele>292.3333333333333</ele><time>2026-04-25T11:32:59.389Z</time></trkpt><trkpt lat="43.833497" lon="11.2330691"><ele>290.6666666666667</ele><time>2026-04-25T11:33:00.397Z</time></trkpt><trkpt lat="43.8334402" lon="11.233001"><ele>289.0</ele><time>2026-04-25T11:33:01.387Z</time></trkpt><trkpt lat="43.833385" lon="11.2329199"><ele>287.33333333333337</ele><time>2026-04-25T11:33:02.391Z</time></trkpt><trkpt lat="43.8333262" lon="11.2328286"><ele>285.6666666666667</ele><time>2026-04-25T11:33:03.407Z</time></trkpt><trkpt lat="43.8332675" lon="11.2327301"><ele>284.0</ele><time>2026-04-25T11:33:04.387Z</time></trkpt><trkpt lat="43.8332034" lon="11.232649"><ele>284.0</ele><time>2026-04-25T11:33:05.389Z</time></trkpt><trkpt lat="43.8331394" lon="11.2325713"><ele>284.0</ele><time>2026-04-25T11:33:06.392Z</time></trkpt><trkpt lat="43.8330772" lon="11.2324983"><ele>284.0</ele><time>2026-04-25T11:33:07.387Z</time></trkpt><trkpt lat="43.8330204" lon="11.2324307"><ele>284.0</ele><time>2026-04-25T11:33:08.388Z</time></trkpt><trkpt lat="43.8329648" lon="11.2323773"><ele>284.0</ele><time>2026-04-25T11:33:09.389Z</time></trkpt><trkpt lat="43.8328581" lon="11.2322706"><ele>284.0</ele><time>2026-04-25T11:33:11.392Z</time></trkpt><trkpt lat="43.8327875" lon="11.2322063"><ele>282.2</ele><time>2026-04-25T11:33:12.388Z</time></trkpt><trkpt lat="43.8327078" lon="11.2321411"><ele>280.4</ele><time>2026-04-25T11:33:13.39Z</time></trkpt><trkpt lat="43.8326169" lon="11.2320722"><ele>278.6</ele><time>2026-04-25T11:33:14.39Z</time></trkpt><trkpt lat="43.8325337" lon="11.2320015"><ele>276.8</ele><time>2026-04-25T11:33:15.392Z</time></trkpt><trkpt lat="43.8324485" lon="11.2319338"><ele>275.0</ele><time>2026-04-25T11:33:16.388Z</time></trkpt><trkpt lat="43.8323661" lon="11.2318748"><ele>274.1666666666667</ele><time>2026-04-25T11:33:17.387Z</time></trkpt><trkpt lat="43.8322781" lon="11.2318112"><ele>273.33333333333337</ele><time>2026-04-25T11:33:18.387Z</time></trkpt><trkpt lat="43.8321915" lon="11.2317624"><ele>272.5</ele><time>2026-04-25T11:33:19.388Z</time></trkpt><trkpt lat="43.8321138" lon="11.2317102"><ele>271.6666666666667</ele><time>2026-04-25T11:33:20.391Z</time></trkpt><trkpt lat="43.8320411" lon="11.2316514"><ele>270.8333333333333</ele><time>2026-04-25T11:33:21.387Z</time></trkpt><trkpt lat="43.8319775" lon="11.2315874"><ele>270.0</ele><time>2026-04-25T11:33:22.391Z</time></trkpt><trkpt lat="43.8319126" lon="11.2315254"><ele>267.8333333333333</ele><time>2026-04-25T11:33:23.393Z</time></trkpt><trkpt lat="43.8318468" lon="11.2314668"><ele>265.6666666666667</ele><time>2026-04-25T11:33:24.395Z</time></trkpt><trkpt lat="43.8317875" lon="11.2314063"><ele>263.5</ele><time>2026-04-25T11:33:25.39Z</time></trkpt><trkpt lat="43.8317278" lon="11.2313343"><ele>261.33333333333337</ele><time>2026-04-25T11:33:26.387Z</time></trkpt><trkpt lat="43.8316741" lon="11.2312535"><ele>259.1666666666667</ele><time>2026-04-25T11:33:27.389Z</time></trkpt><trkpt lat="43.8316176" lon="11.2311694"><ele>257.0</ele><time>2026-04-25T11:33:28.4Z</time></trkpt><trkpt lat="43.8315551" lon="11.2310886"><ele>256.1666666666667</ele><time>2026-04-25T11:33:29.39Z</time></trkpt><trkpt lat="43.8314834" lon="11.2310104"><ele>255.33333333333334</ele><time>2026-04-25T11:33:30.393Z</time></trkpt><trkpt lat="43.8314136" lon="11.2309308"><ele>254.5</ele><time>2026-04-25T11:33:31.39Z</time></trkpt><trkpt lat="43.831346" lon="11.2308434"><ele>253.66666666666669</ele><time>2026-04-25T11:33:32.393Z</time></trkpt><trkpt lat="43.8312874" lon="11.2307606"><ele>252.83333333333334</ele><time>2026-04-25T11:33:33.39Z</time></trkpt><trkpt lat="43.8312335" lon="11.2306823"><ele>252.0</ele><time>2026-04-25T11:33:34.4Z</time></trkpt><trkpt lat="43.8311704" lon="11.2306017"><ele>249.85714285714286</ele><time>2026-04-25T11:33:35.392Z</time></trkpt><trkpt lat="43.831115" lon="11.2305295"><ele>247.71428571428572</ele><time>2026-04-25T11:33:36.389Z</time></trkpt><trkpt lat="43.8310515" lon="11.230457"><ele>245.57142857142856</ele><time>2026-04-25T11:33:37.394Z</time></trkpt><trkpt lat="43.830993" lon="11.2303883"><ele>243.42857142857142</ele><time>2026-04-25T11:33:38.387Z</time></trkpt><trkpt lat="43.830937" lon="11.2303205"><ele>241.28571428571428</ele><time>2026-04-25T11:33:39.391Z</time></trkpt><trkpt lat="43.8308857" lon="11.2302619"><ele>239.1428571428571</ele><time>2026-04-25T11:33:40.407Z</time></trkpt><trkpt lat="43.8308421" lon="11.2301971"><ele>236.99999999999997</ele><time>2026-04-25T11:33:41.394Z</time></trkpt><trkpt lat="43.8307528" lon="11.2300917"><ele>236.5</ele><time>2026-04-25T11:33:43.398Z</time></trkpt><trkpt lat="43.830705" lon="11.2299866"><ele>236.0</ele><time>2026-04-25T11:33:45.405Z</time></trkpt><trkpt lat="43.8306135" lon="11.2299124"><ele>235.5</ele><time>2026-04-25T11:33:47.411Z</time></trkpt><trkpt lat="43.8305451" lon="11.2298943"><ele>235.0</ele><time>2026-04-25T11:33:48.405Z</time></trkpt><trkpt lat="43.8304757" lon="11.2298658"><ele>234.5</ele><time>2026-04-25T11:33:49.41Z</time></trkpt><trkpt lat="43.8304003" lon="11.2298291"><ele>234.0</ele><time>2026-04-25T11:33:50.405Z</time></trkpt><trkpt lat="43.8303262" lon="11.2297807"><ele>230.79999999999998</ele><time>2026-04-25T11:33:51.402Z</time></trkpt><trkpt lat="43.8302419" lon="11.2297267"><ele>227.59999999999997</ele><time>2026-04-25T11:33:52.411Z</time></trkpt><trkpt lat="43.8301483" lon="11.2296731"><ele>224.4</ele><time>2026-04-25T11:33:53.407Z</time></trkpt><trkpt lat="43.8300554" lon="11.2296137"><ele>221.2</ele><time>2026-04-25T11:33:54.406Z</time></trkpt><trkpt lat="43.8299657" lon="11.2295551"><ele>218.0</ele><time>2026-04-25T11:33:55.407Z</time></trkpt><trkpt lat="43.8298782" lon="11.2294989"><ele>217.83333333333334</ele><time>2026-04-25T11:33:56.402Z</time></trkpt><trkpt lat="43.8297959" lon="11.2294454"><ele>217.66666666666669</ele><time>2026-04-25T11:33:57.402Z</time></trkpt><trkpt lat="43.8297288" lon="11.2293883"><ele>217.5</ele><time>2026-04-25T11:33:58.409Z</time></trkpt><trkpt lat="43.8296562" lon="11.2293348"><ele>217.33333333333331</ele><time>2026-04-25T11:33:59.405Z</time></trkpt><trkpt lat="43.8295846" lon="11.2292818"><ele>217.16666666666666</ele><time>2026-04-25T11:34:00.404Z</time></trkpt><trkpt lat="43.8295119" lon="11.2292361"><ele>217.0</ele><time>2026-04-25T11:34:01.403Z</time></trkpt><trkpt lat="43.8294411" lon="11.2291788"><ele>217.0</ele><time>2026-04-25T11:34:02.4Z</time></trkpt><trkpt lat="43.8293777" lon="11.2291254"><ele>217.0</ele><time>2026-04-25T11:34:03.403Z</time></trkpt><trkpt lat="43.8292978" lon="11.229049"><ele>217.0</ele><time>2026-04-25T11:34:05.415Z</time></trkpt><trkpt lat="43.8292119" lon="11.2290004"><ele>217.0</ele><time>2026-04-25T11:34:07.405Z</time></trkpt><trkpt lat="43.8291372" lon="11.2289375"><ele>217.0</ele><time>2026-04-25T11:34:09.408Z</time></trkpt><trkpt lat="43.8290264" lon="11.2288373"><ele>214.39999999999998</ele><time>2026-04-25T11:34:11.397Z</time></trkpt><trkpt lat="43.828963" lon="11.228795"><ele>211.79999999999998</ele><time>2026-04-25T11:34:12.402Z</time></trkpt><trkpt lat="43.8288951" lon="11.2287496"><ele>209.2</ele><time>2026-04-25T11:34:13.401Z</time></trkpt><trkpt lat="43.8288136" lon="11.228676"><ele>206.6</ele><time>2026-04-25T11:34:14.4Z</time></trkpt><trkpt lat="43.8287261" lon="11.2286001"><ele>204.0</ele><time>2026-04-25T11:34:15.398Z</time></trkpt><trkpt lat="43.8286181" lon="11.228531"><ele>204.0</ele><time>2026-04-25T11:34:16.398Z</time></trkpt><trkpt lat="43.8285086" lon="11.2284428"><ele>204.0</ele><time>2026-04-25T11:34:17.401Z</time></trkpt><trkpt lat="43.828396" lon="11.2283703"><ele>204.0</ele><time>2026-04-25T11:34:18.381Z</time></trkpt><trkpt lat="43.8282975" lon="11.2282844"><ele>204.0</ele><time>2026-04-25T11:34:19.387Z</time></trkpt><trkpt lat="43.8281683" lon="11.2282133"><ele>201.79999999999998</ele><time>2026-04-25T11:34:20.4Z</time></trkpt><trkpt lat="43.8280466" lon="11.228147"><ele>199.6</ele><time>2026-04-25T11:34:21.4Z</time></trkpt><trkpt lat="43.8279343" lon="11.228073"><ele>197.4</ele><time>2026-04-25T11:34:22.415Z</time></trkpt><trkpt lat="43.8278369" lon="11.2280167"><ele>195.2</ele><time>2026-04-25T11:34:23.406Z</time></trkpt><trkpt lat="43.8277619" lon="11.2279611"><ele>193.0</ele><time>2026-04-25T11:34:24.401Z</time></trkpt><trkpt lat="43.8276973" lon="11.2279132"><ele>189.83333333333331</ele><time>2026-04-25T11:34:25.403Z</time></trkpt><trkpt lat="43.8276423" lon="11.2278645"><ele>186.66666666666666</ele><time>2026-04-25T11:34:26.404Z</time></trkpt><trkpt lat="43.8275696" lon="11.2277758"><ele>183.5</ele><time>2026-04-25T11:34:28.419Z</time></trkpt><trkpt lat="43.8275175" lon="11.2277159"><ele>180.33333333333331</ele><time>2026-04-25T11:34:31.415Z</time></trkpt><trkpt lat="43.8274616" lon="11.2277763"><ele>177.16666666666666</ele><time>2026-04-25T11:34:36.431Z</time></trkpt><trkpt lat="43.8273984" lon="11.2278333"><ele>174.0</ele><time>2026-04-25T11:34:38.418Z</time></trkpt><trkpt lat="43.8273129" lon="11.2279126"><ele>174.0</ele><time>2026-04-25T11:34:40.41Z</time></trkpt><trkpt lat="43.8272462" lon="11.2279995"><ele>174.0</ele><time>2026-04-25T11:34:42.406Z</time></trkpt><trkpt lat="43.8271964" lon="11.228134"><ele>174.0</ele><time>2026-04-25T11:34:44.404Z</time></trkpt><trkpt lat="43.8271882" lon="11.2282219"><ele>174.0</ele><time>2026-04-25T11:34:45.395Z</time></trkpt><trkpt lat="43.827163" lon="11.2283142"><ele>174.0</ele><time>2026-04-25T11:34:46.402Z</time></trkpt><trkpt lat="43.8271331" lon="11.2284925"><ele>174.33333333333334</ele><time>2026-04-25T11:34:48.403Z</time></trkpt><trkpt lat="43.8270972" lon="11.2286012"><ele>174.66666666666666</ele><time>2026-04-25T11:34:49.403Z</time></trkpt><trkpt lat="43.827052" lon="11.2287074"><ele>175.0</ele><time>2026-04-25T11:34:50.408Z</time></trkpt><trkpt lat="43.8270142" lon="11.2288045"><ele>175.33333333333331</ele><time>2026-04-25T11:34:51.409Z</time></trkpt><trkpt lat="43.8269741" lon="11.2288946"><ele>175.66666666666666</ele><time>2026-04-25T11:34:52.412Z</time></trkpt><trkpt lat="43.8269329" lon="11.2289761"><ele>176.0</ele><time>2026-04-25T11:34:53.408Z</time></trkpt><trkpt lat="43.8269023" lon="11.2290588"><ele>176.0</ele><time>2026-04-25T11:34:54.408Z</time></trkpt><trkpt lat="43.8268522" lon="11.2292012"><ele>176.0</ele><time>2026-04-25T11:34:56.403Z</time></trkpt><trkpt lat="43.8268207" lon="11.2293402"><ele>176.0</ele><time>2026-04-25T11:34:58.421Z</time></trkpt><trkpt lat="43.8268211" lon="11.2294542"><ele>176.0</ele><time>2026-04-25T11:35:00.407Z</time></trkpt><trkpt lat="43.8268788" lon="11.229585"><ele>176.0</ele><time>2026-04-25T11:35:02.403Z</time></trkpt><trkpt lat="43.8269533" lon="11.2297248"><ele>176.0</ele><time>2026-04-25T11:35:04.408Z</time></trkpt><trkpt lat="43.8270194" lon="11.2298674"><ele>176.0</ele><time>2026-04-25T11:35:06.396Z</time></trkpt><trkpt lat="43.8270912" lon="11.2300183"><ele>176.0</ele><time>2026-04-25T11:35:08.399Z</time></trkpt><trkpt lat="43.8271647" lon="11.2301536"><ele>176.0</ele><time>2026-04-25T11:35:10.396Z</time></trkpt><trkpt lat="43.8272024" lon="11.2302258"><ele>176.0</ele><time>2026-04-25T11:35:11.4Z</time></trkpt><trkpt lat="43.8272524" lon="11.2302995"><ele>176.0</ele><time>2026-04-25T11:35:12.399Z</time></trkpt><trkpt lat="43.8272959" lon="11.2303736"><ele>176.0</ele><time>2026-04-25T11:35:13.395Z</time></trkpt><trkpt lat="43.8273416" lon="11.2304608"><ele>176.0</ele><time>2026-04-25T11:35:14.402Z</time></trkpt><trkpt lat="43.8273743" lon="11.2305498"><ele>176.0</ele><time>2026-04-25T11:35:15.397Z</time></trkpt><trkpt lat="43.8274072" lon="11.2306418"><ele>176.0</ele><time>2026-04-25T11:35:16.402Z</time></trkpt><trkpt lat="43.8274544" lon="11.2307256"><ele>176.0</ele><time>2026-04-25T11:35:17.403Z</time></trkpt><trkpt lat="43.8275034" lon="11.2307951"><ele>176.0</ele><time>2026-04-25T11:35:18.4Z</time></trkpt><trkpt lat="43.827577" lon="11.2309159"><ele>175.0</ele><time>2026-04-25T11:35:20.392Z</time></trkpt><trkpt lat="43.8275973" lon="11.231073"><ele>174.0</ele><time>2026-04-25T11:35:22.398Z</time></trkpt><trkpt lat="43.8275985" lon="11.2312212"><ele>173.0</ele><time>2026-04-25T11:35:24.396Z</time></trkpt><trkpt lat="43.8276109" lon="11.2313431"><ele>172.0</ele><time>2026-04-25T11:35:26.391Z</time></trkpt><trkpt lat="43.8276766" lon="11.2314421"><ele>171.0</ele><time>2026-04-25T11:35:28.396Z</time></trkpt><trkpt lat="43.8277515" lon="11.2315412"><ele>174.0</ele><time>2026-04-25T11:35:30.391Z</time></trkpt><trkpt lat="43.8277916" lon="11.2316491"><ele>177.0</ele><time>2026-04-25T11:35:32.385Z</time></trkpt><trkpt lat="43.8278478" lon="11.2317592"><ele>180.0</ele><time>2026-04-25T11:35:34.382Z</time></trkpt><trkpt lat="43.8278953" lon="11.2318546"><ele>183.0</ele><time>2026-04-25T11:35:36.381Z</time></trkpt><trkpt lat="43.8279295" lon="11.2319324"><ele>186.0</ele><time>2026-04-25T11:35:38.401Z</time></trkpt><trkpt lat="43.8279898" lon="11.2319993"><ele>189.0</ele><time>2026-04-25T11:35:40.384Z</time></trkpt><trkpt lat="43.8280416" lon="11.2320945"><ele>189.0</ele><time>2026-04-25T11:35:43.386Z</time></trkpt><trkpt lat="43.8280661" lon="11.2322058"><ele>189.0</ele><time>2026-04-25T11:35:50.402Z</time></trkpt><trkpt lat="43.8281179" lon="11.2322836"><ele>189.0</ele><time>2026-04-25T11:35:52.405Z</time></trkpt><trkpt lat="43.8281704" lon="11.2323653"><ele>189.0</ele><time>2026-04-25T11:35:54.38Z</time></trkpt><trkpt lat="43.8282105" lon="11.2324769"><ele>189.0</ele><time>2026-04-25T11:35:55.382Z</time></trkpt><trkpt lat="43.828263" lon="11.2325969"><ele>189.0</ele><time>2026-04-25T11:35:56.382Z</time></trkpt><trkpt lat="43.8283031" lon="11.2327604"><ele>188.0</ele><time>2026-04-25T11:35:57.381Z</time></trkpt><trkpt lat="43.8283415" lon="11.2328459"><ele>187.0</ele><time>2026-04-25T11:35:59.376Z</time></trkpt><trkpt lat="43.8284282" lon="11.2329031"><ele>186.0</ele><time>2026-04-25T11:36:01.386Z</time></trkpt><trkpt lat="43.8285064" lon="11.2329803"><ele>185.0</ele><time>2026-04-25T11:36:03.386Z</time></trkpt><trkpt lat="43.8285687" lon="11.2330659"><ele>184.0</ele><time>2026-04-25T11:36:05.387Z</time></trkpt><trkpt lat="43.8285014" lon="11.2330811"><ele>183.0</ele><time>2026-04-25T11:36:09.41Z</time></trkpt><trkpt lat="43.828415" lon="11.2330515"><ele>183.0</ele><time>2026-04-25T11:36:11.381Z</time></trkpt><trkpt lat="43.8283444" lon="11.2330395"><ele>183.0</ele><time>2026-04-25T11:36:12.376Z</time></trkpt><trkpt lat="43.8282493" lon="11.2330393"><ele>183.0</ele><time>2026-04-25T11:36:13.388Z</time></trkpt><trkpt lat="43.8281485" lon="11.2330472"><ele>183.0</ele><time>2026-04-25T11:36:14.383Z</time></trkpt><trkpt lat="43.8280495" lon="11.2330079"><ele>183.0</ele><time>2026-04-25T11:36:15.379Z</time></trkpt><trkpt lat="43.8279751" lon="11.2329147"><ele>183.0</ele><time>2026-04-25T11:36:16.381Z</time></trkpt><trkpt lat="43.8279008" lon="11.2327826"><ele>183.0</ele><time>2026-04-25T11:36:17.387Z</time></trkpt><trkpt lat="43.827792" lon="11.2326981"><ele>183.0</ele><time>2026-04-25T11:36:18.378Z</time></trkpt><trkpt lat="43.8276838" lon="11.2326416"><ele>183.0</ele><time>2026-04-25T11:36:19.373Z</time></trkpt><trkpt lat="43.8276066" lon="11.2325426"><ele>179.2</ele><time>2026-04-25T11:36:20.381Z</time></trkpt><trkpt lat="43.8275166" lon="11.2324359"><ele>175.4</ele><time>2026-04-25T11:36:21.386Z</time></trkpt><trkpt lat="43.8274324" lon="11.232346"><ele>171.6</ele><time>2026-04-25T11:36:22.388Z</time></trkpt><trkpt lat="43.8273557" lon="11.2322816"><ele>167.79999999999998</ele><time>2026-04-25T11:36:23.376Z</time></trkpt><trkpt lat="43.8272849" lon="11.232198"><ele>164.0</ele><time>2026-04-25T11:36:24.38Z</time></trkpt><trkpt lat="43.8272037" lon="11.232116"><ele>164.0</ele><time>2026-04-25T11:36:25.384Z</time></trkpt><trkpt lat="43.827117" lon="11.2320578"><ele>164.0</ele><time>2026-04-25T11:36:26.38Z</time></trkpt><trkpt lat="43.8270278" lon="11.2320123"><ele>164.0</ele><time>2026-04-25T11:36:27.379Z</time></trkpt><trkpt lat="43.8269396" lon="11.2319762"><ele>164.0</ele><time>2026-04-25T11:36:28.393Z</time></trkpt><trkpt lat="43.8268625" lon="11.2319543"><ele>164.0</ele><time>2026-04-25T11:36:29.382Z</time></trkpt><trkpt lat="43.8267918" lon="11.2319485"><ele>164.0</ele><time>2026-04-25T11:36:30.374Z</time></trkpt><trkpt lat="43.8267091" lon="11.2319915"><ele>162.2</ele><time>2026-04-25T11:36:31.393Z</time></trkpt><trkpt lat="43.8266314" lon="11.232079"><ele>160.39999999999998</ele><time>2026-04-25T11:36:32.385Z</time></trkpt><trkpt lat="43.8265644" lon="11.2321845"><ele>158.6</ele><time>2026-04-25T11:36:33.392Z</time></trkpt><trkpt lat="43.8264908" lon="11.2322862"><ele>156.8</ele><time>2026-04-25T11:36:34.393Z</time></trkpt><trkpt lat="43.8264182" lon="11.232384"><ele>155.0</ele><time>2026-04-25T11:36:35.39Z</time></trkpt><trkpt lat="43.8263413" lon="11.2324795"><ele>155.0</ele><time>2026-04-25T11:36:36.396Z</time></trkpt><trkpt lat="43.8262709" lon="11.2325798"><ele>155.0</ele><time>2026-04-25T11:36:37.398Z</time></trkpt><trkpt lat="43.8262028" lon="11.2326912"><ele>155.0</ele><time>2026-04-25T11:36:38.394Z</time></trkpt><trkpt lat="43.8261407" lon="11.232805"><ele>155.0</ele><time>2026-04-25T11:36:39.4Z</time></trkpt><trkpt lat="43.8260648" lon="11.2328981"><ele>155.0</ele><time>2026-04-25T11:36:40.404Z</time></trkpt><trkpt lat="43.8259774" lon="11.2329824"><ele>153.83333333333331</ele><time>2026-04-25T11:36:41.387Z</time></trkpt><trkpt lat="43.8259036" lon="11.2330555"><ele>152.66666666666666</ele><time>2026-04-25T11:36:42.391Z</time></trkpt><trkpt lat="43.8258283" lon="11.2331302"><ele>151.5</ele><time>2026-04-25T11:36:43.386Z</time></trkpt><trkpt lat="43.8257572" lon="11.2332108"><ele>150.33333333333334</ele><time>2026-04-25T11:36:44.386Z</time></trkpt><trkpt lat="43.8257001" lon="11.233292"><ele>149.16666666666669</ele><time>2026-04-25T11:36:45.387Z</time></trkpt><trkpt lat="43.8256333" lon="11.2333755"><ele>148.0</ele><time>2026-04-25T11:36:46.376Z</time></trkpt><trkpt lat="43.825584" lon="11.2334432"><ele>148.0</ele><time>2026-04-25T11:36:47.383Z</time></trkpt><trkpt lat="43.8254955" lon="11.2335229"><ele>148.0</ele><time>2026-04-25T11:36:49.381Z</time></trkpt><trkpt lat="43.8254301" lon="11.2335992"><ele>148.0</ele><time>2026-04-25T11:36:51.375Z</time></trkpt><trkpt lat="43.8254024" lon="11.2336984"><ele>148.0</ele><time>2026-04-25T11:36:53.378Z</time></trkpt><trkpt lat="43.8253943" lon="11.233823"><ele>148.0</ele><time>2026-04-25T11:36:56.387Z</time></trkpt><trkpt lat="43.8253628" lon="11.2339168"><ele>148.0</ele><time>2026-04-25T11:36:59.4Z</time></trkpt><trkpt lat="43.825302" lon="11.2340067"><ele>148.0</ele><time>2026-04-25T11:37:02.392Z</time></trkpt><trkpt lat="43.8252235" lon="11.2339529"><ele>148.0</ele><time>2026-04-25T11:37:05.401Z</time></trkpt><trkpt lat="43.8251407" lon="11.2338706"><ele>148.0</ele><time>2026-04-25T11:37:07.393Z</time></trkpt><trkpt lat="43.8250505" lon="11.233763"><ele>148.0</ele><time>2026-04-25T11:37:09.402Z</time></trkpt><trkpt lat="43.8249894" lon="11.2337129"><ele>148.0</ele><time>2026-04-25T11:37:10.395Z</time></trkpt><trkpt lat="43.8249287" lon="11.2336633"><ele>147.20000000000002</ele><time>2026-04-25T11:37:11.41Z</time></trkpt><trkpt lat="43.8248726" lon="11.2336221"><ele>146.4</ele><time>2026-04-25T11:37:12.394Z</time></trkpt><trkpt lat="43.8248213" lon="11.2335713"><ele>145.60000000000002</ele><time>2026-04-25T11:37:13.389Z</time></trkpt><trkpt lat="43.8247058" lon="11.2334805"><ele>144.8</ele><time>2026-04-25T11:37:15.393Z</time></trkpt><trkpt lat="43.824603" lon="11.2334043"><ele>144.0</ele><time>2026-04-25T11:37:17.394Z</time></trkpt><trkpt lat="43.824498" lon="11.2333136"><ele>144.0</ele><time>2026-04-25T11:37:19.385Z</time></trkpt><trkpt lat="43.8244052" lon="11.2332355"><ele>144.0</ele><time>2026-04-25T11:37:21.395Z</time></trkpt><trkpt lat="43.8243107" lon="11.2331616"><ele>144.0</ele><time>2026-04-25T11:37:23.397Z</time></trkpt><trkpt lat="43.8242271" lon="11.2330863"><ele>144.0</ele><time>2026-04-25T11:37:25.39Z</time></trkpt><trkpt lat="43.8241587" lon="11.23301"><ele>144.0</ele><time>2026-04-25T11:37:27.397Z</time></trkpt><trkpt lat="43.8240838" lon="11.2329032"><ele>144.0</ele><time>2026-04-25T11:37:29.39Z</time></trkpt><trkpt lat="43.8240297" lon="11.2327886"><ele>144.0</ele><time>2026-04-25T11:37:31.39Z</time></trkpt><trkpt lat="43.8239607" lon="11.2327546"><ele>144.0</ele><time>2026-04-25T11:37:33.387Z</time></trkpt><trkpt lat="43.8238743" lon="11.2327611"><ele>144.0</ele><time>2026-04-25T11:37:35.4Z</time></trkpt><trkpt lat="43.8237788" lon="11.2327154"><ele>144.0</ele><time>2026-04-25T11:37:38.408Z</time></trkpt><trkpt lat="43.823717" lon="11.2326794"><ele>144.0</ele><time>2026-04-25T11:37:40.4Z</time></trkpt><trkpt lat="43.8236365" lon="11.2326646"><ele>144.0</ele><time>2026-04-25T11:37:42.426Z</time></trkpt><trkpt lat="43.8235594" lon="11.2326337"><ele>144.0</ele><time>2026-04-25T11:37:44.405Z</time></trkpt><trkpt lat="43.8234686" lon="11.2326163"><ele>144.0</ele><time>2026-04-25T11:37:46.397Z</time></trkpt><trkpt lat="43.8233773" lon="11.2325907"><ele>144.0</ele><time>2026-04-25T11:37:48.387Z</time></trkpt><trkpt lat="43.8233021" lon="11.2325627"><ele>144.0</ele><time>2026-04-25T11:37:50.386Z</time></trkpt><trkpt lat="43.8232013" lon="11.2325347"><ele>144.0</ele><time>2026-04-25T11:37:52.39Z</time></trkpt><trkpt lat="43.8231371" lon="11.2325053"><ele>144.4</ele><time>2026-04-25T11:37:54.394Z</time></trkpt><trkpt lat="43.8230406" lon="11.2324691"><ele>144.8</ele><time>2026-04-25T11:37:56.389Z</time></trkpt><trkpt lat="43.8229264" lon="11.2324376"><ele>145.2</ele><time>2026-04-25T11:37:58.41Z</time></trkpt><trkpt lat="43.8228245" lon="11.2324093"><ele>145.6</ele><time>2026-04-25T11:38:00.398Z</time></trkpt><trkpt lat="43.8227147" lon="11.2323921"><ele>146.0</ele><time>2026-04-25T11:38:02.391Z</time></trkpt><trkpt lat="43.8226071" lon="11.232372"><ele>146.0</ele><time>2026-04-25T11:38:04.4Z</time></trkpt><trkpt lat="43.8225059" lon="11.232365"><ele>146.0</ele><time>2026-04-25T11:38:06.392Z</time></trkpt><trkpt lat="43.8223906" lon="11.2323828"><ele>146.0</ele><time>2026-04-25T11:38:08.397Z</time></trkpt><trkpt lat="43.822314" lon="11.2323932"><ele>146.0</ele><time>2026-04-25T11:38:09.397Z</time></trkpt><trkpt lat="43.8222375" lon="11.2324044"><ele>146.0</ele><time>2026-04-25T11:38:10.397Z</time></trkpt><trkpt lat="43.8221595" lon="11.2324177"><ele>146.0</ele><time>2026-04-25T11:38:11.398Z</time></trkpt><trkpt lat="43.822068" lon="11.2324194"><ele>146.0</ele><time>2026-04-25T11:38:12.41Z</time></trkpt><trkpt lat="43.8219751" lon="11.2324129"><ele>146.0</ele><time>2026-04-25T11:38:13.402Z</time></trkpt><trkpt lat="43.8218905" lon="11.2324021"><ele>146.0</ele><time>2026-04-25T11:38:14.401Z</time></trkpt><trkpt lat="43.8218146" lon="11.232402"><ele>146.0</ele><time>2026-04-25T11:38:15.392Z</time></trkpt><trkpt lat="43.8217495" lon="11.2324017"><ele>146.0</ele><time>2026-04-25T11:38:16.38Z</time></trkpt><trkpt lat="43.821662" lon="11.2323714"><ele>144.16666666666666</ele><time>2026-04-25T11:38:18.392Z</time></trkpt><trkpt lat="43.8215877" lon="11.2323232"><ele>142.33333333333331</ele><time>2026-04-25T11:38:20.394Z</time></trkpt><trkpt lat="43.821551" lon="11.2322072"><ele>140.5</ele><time>2026-04-25T11:38:22.398Z</time></trkpt><trkpt lat="43.8215422" lon="11.2321204"><ele>138.66666666666666</ele><time>2026-04-25T11:38:23.386Z</time></trkpt><trkpt lat="43.8215351" lon="11.2320272"><ele>136.83333333333334</ele><time>2026-04-25T11:38:24.382Z</time></trkpt><trkpt lat="43.8215363" lon="11.2319297"><ele>135.0</ele><time>2026-04-25T11:38:25.379Z</time></trkpt><trkpt lat="43.8215415" lon="11.2317688"><ele>133.71428571428572</ele><time>2026-04-25T11:38:27.386Z</time></trkpt><trkpt lat="43.821549" lon="11.2316619"><ele>132.42857142857142</ele><time>2026-04-25T11:38:29.387Z</time></trkpt><trkpt lat="43.8214877" lon="11.2316061"><ele>131.14285714285714</ele><time>2026-04-25T11:38:31.386Z</time></trkpt><trkpt lat="43.8215017" lon="11.2315203"><ele>129.85714285714286</ele><time>2026-04-25T11:38:45.39Z</time></trkpt><trkpt lat="43.8215595" lon="11.2314574"><ele>128.57142857142856</ele><time>2026-04-25T11:38:50.399Z</time></trkpt><trkpt lat="43.8216086" lon="11.2313998"><ele>127.28571428571428</ele><time>2026-04-25T11:38:53.398Z</time></trkpt><trkpt lat="43.8216561" lon="11.2313407"><ele>126.0</ele><time>2026-04-25T11:38:57.392Z</time></trkpt><trkpt lat="43.8217124" lon="11.2313799"><ele>126.0</ele><time>2026-04-25T11:39:05.391Z</time></trkpt><trkpt lat="43.8217776" lon="11.2313782"><ele>126.0</ele><time>2026-04-25T11:39:07.39Z</time></trkpt><trkpt lat="43.8218458" lon="11.2313956"><ele>126.0</ele><time>2026-04-25T11:39:09.403Z</time></trkpt><trkpt lat="43.8218934" lon="11.231458"><ele>126.0</ele><time>2026-04-25T11:39:14.402Z</time></trkpt><trkpt lat="43.8219142" lon="11.2315567"><ele>126.0</ele><time>2026-04-25T11:39:19.395Z</time></trkpt><trkpt lat="43.8219371" lon="11.2316529"><ele>126.0</ele><time>2026-04-25T11:39:29.408Z</time></trkpt><trkpt lat="43.8218777" lon="11.2317146"><ele>126.0</ele><time>2026-04-25T11:39:33.397Z</time></trkpt><trkpt lat="43.8217375" lon="11.2317781"><ele>126.0</ele><time>2026-04-25T11:39:52.399Z</time></trkpt><trkpt lat="43.8218023" lon="11.231726"><ele>126.0</ele><time>2026-04-25T11:39:58.253Z</time></trkpt><trkpt lat="43.8217529" lon="11.2317891"><ele>126.0</ele><time>2026-04-25T11:40:02.39Z</time></trkpt></trkseg></trk></gpx>